# Wetter Temperatur Luftdruck Luftfeuchtigkeit Sichtweite Windgeschwindigkeit Windrichtung Zeit
1 Clouds 12 1014 84 10000 4.63 230 03:52 02.10.2022
2 Clouds 13 1013 83 10000 6.17 240 00:56 02.10.2022
3 Clouds 13 1013 83 10000 6.17 240 00:36 02.10.2022
4 Clouds 13 1011 82 10000 7.2 240 23:24 01.10.2022
5 Clouds 14 1009 77 10000 6.69 240 20:55 01.10.2022
6 Clouds 16 1007 64 10000 7.72 260 18:53 01.10.2022
7 Clouds 17 1006 65 10000 10.29 250 17:22 01.10.2022
8 Clouds 16 1005 67 10000 9.77 250 14:43 01.10.2022
9 Clouds 15 1005 79 10000 7.72 250 13:35 01.10.2022
10 Clouds 15 1003 75 10000 9.77 240 12:33 01.10.2022
11 Clouds 14 1003 80 10000 9.26 230 11:21 01.10.2022
12 Clouds 13 1002 83 10000 9.26 220 10:38 01.10.2022
13 Clouds 13 1002 83 10000 9.26 220 10:20 01.10.2022
14 Clouds 12 1001 85 10000 8.23 230 08:59 01.10.2022
15 Clouds 12 1000 85 10000 8.23 230 07:30 01.10.2022
16 Clouds 12 998 84 10000 7.2 230 03:36 01.10.2022
17 Clouds 13 997 83 10000 7.72 230 01:22 01.10.2022
18 Clouds 13 997 83 10000 7.72 230 01:22 01.10.2022
19 Clouds 14 996 82 10000 8.23 240 22:56 30.09.2022
20 Clouds 14 994 81 10000 9.26 230 21:44 30.09.2022
21 Clouds 14 994 78 10000 8.75 250 20:45 30.09.2022
22 Clouds 15 994 79 10000 6.69 250 20:20 30.09.2022
23 Clouds 17 993 71 10000 9.77 280 17:41 30.09.2022
24 Clouds 17 994 75 10000 8.75 270 16:29 30.09.2022
25 Rain 16 991 91 8000 10.8 220 14:21 30.09.2022
26 Rain 16 992 89 8000 12.35 210 12:24 30.09.2022
27 Rain 15 993 86 10000 13.38 210 11:48 30.09.2022
28 Rain 13 1001 86 10000 10.8 200 08:38 30.09.2022
29 Rain 13 1004 78 10000 7.72 210 06:34 30.09.2022
30 Clouds 11 1008 89 10000 3.13 230 02:50 30.09.2022
31 Clouds 11 1009 90 10000 3.09 220 00:35 30.09.2022
32 Clouds 11 1010 92 10000 2.06 190 21:39 29.09.2022
33 Clouds 11 1010 91 10000 2.06 190 21:18 29.09.2022
34 Clouds 15 1010 79 10000 3.09 50 18:48 29.09.2022
35 Clouds 16 1010 75 10000 3.6 30 17:45 29.09.2022
36 Clouds 16 1010 75 10000 5.66 10 16:28 29.09.2022
37 Clouds 16 1010 75 10000 5.14 10 15:36 29.09.2022
38 Clouds 15 1009 76 10000 5.66 10 14:54 29.09.2022
39 Clouds 12 1009 83 10000 5.14 330 11:53 29.09.2022
40 Clouds 9 1007 89 10000 5.66 310 07:31 29.09.2022
41 Clouds 9 1006 90 10000 5.14 290 02:55 29.09.2022
42 Clear 9 1005 89 10000 5.66 310 00:29 29.09.2022
43 Clouds 10 1005 86 10000 4.63 310 23:19 28.09.2022
44 Clouds 11 1004 82 10000 4.12 300 21:30 28.09.2022
45 Clouds 12 1004 79 10000 4.12 310 20:45 28.09.2022
46 Clouds 13 1003 75 10000 4.63 340 18:53 28.09.2022
47 Clouds 12 1004 85 10000 4.12 310 15:46 28.09.2022
48 Clouds 12 1004 79 10000 7.15 300 13:28 28.09.2022
49 Clouds 12 1004 79 10000 6.17 320 13:28 28.09.2022
50 Clouds 11 1004 84 10000 6.69 290 11:34 28.09.2022
51 Clouds 8 1004 92 10000 6.17 280 09:34 28.09.2022
52 Clouds 9 1004 88 10000 5.36 290 07:41 28.09.2022
53 Drizzle 9 1003 89 10000 5.66 280 05:31 28.09.2022
54 Clouds 9 1004 87 10000 5.66 270 01:40 28.09.2022
55 Clouds 10 1004 82 10000 5.66 290 23:30 27.09.2022
56 Clouds 11 1004 82 10000 4.12 290 22:32 27.09.2022
57 Clouds 11 1003 89 10000 5.14 260 20:56 27.09.2022
58 Clouds 11 1003 86 10000 5.14 280 20:19 27.09.2022
59 Clouds 12 1002 84 10000 4.63 290 19:36 27.09.2022
60 Clouds 12 1002 81 10000 6.69 290 17:46 27.09.2022
61 Clouds 13 1003 79 10000 9.26 280 16:20 27.09.2022
62 Clouds 13 1003 76 10000 7.72 270 14:59 27.09.2022
63 Clouds 13 1003 79 10000 7.72 270 13:32 27.09.2022
64 Clouds 13 1004 79 10000 7.2 270 12:23 27.09.2022
65 Clouds 11 1005 84 10000 7.2 250 09:49 27.09.2022
66 Clouds 11 1005 83 10000 7.72 270 07:38 27.09.2022
67 Clouds 11 1007 84 10000 6.69 270 02:59 27.09.2022
68 Clouds 11 1008 83 10000 7.2 270 01:35 27.09.2022
69 Clouds 11 1009 82 10000 7.72 280 23:39 26.09.2022
70 Clouds 11 1009 81 10000 7.72 280 23:20 26.09.2022
71 Clouds 12 1009 74 10000 8.23 290 20:48 26.09.2022
72 Clouds 13 1008 74 10000 8.75 290 19:34 26.09.2022
73 Clouds 13 1008 72 10000 9.77 310 18:38 26.09.2022
74 Clouds 14 1008 68 10000 10.8 300 17:24 26.09.2022
75 Clouds 14 1008 67 10000 11.32 310 14:48 26.09.2022
76 Clouds 13 1008 72 10000 8.75 310 11:37 26.09.2022
77 Clouds 12 1008 76 10000 8.23 300 10:41 26.09.2022
78 Clouds 12 1008 76 10000 8.23 300 10:22 26.09.2022
79 Clouds 11 1007 80 10000 8.23 300 09:56 26.09.2022
80 Clouds 11 1007 81 10000 5.66 280 09:25 26.09.2022
81 Clouds 11 1007 77 10000 8.75 290 08:58 26.09.2022
82 Clouds 14 1006 82 10000 7.72 280 03:48 26.09.2022
83 Clouds 14 1006 92 8000 10.29 240 01:52 26.09.2022
84 Clouds 13 1010 86 10000 9.26 240 23:20 25.09.2022
85 Rain 14 1013 83 10000 8.23 240 21:44 25.09.2022
86 Drizzle 13 1013 85 10000 8.23 260 20:57 25.09.2022
87 Clouds 14 1013 86 10000 8.75 260 20:32 25.09.2022
88 Clouds 14 1015 80 10000 6.69 250 18:44 25.09.2022
89 Clouds 14 1016 78 10000 6.71 260 18:21 25.09.2022
90 Clouds 14 1017 76 10000 7.2 250 16:55 25.09.2022
91 Clouds 15 1018 76 10000 7.72 260 15:48 25.09.2022
92 Clouds 14 1019 73 10000 5.66 250 14:31 25.09.2022
93 Clouds 14 1019 73 10000 5.66 250 14:31 25.09.2022
94 Clouds 14 1021 77 10000 7.2 280 13:45 25.09.2022
95 Clouds 10 1023 82 10000 4.12 230 10:37 25.09.2022
96 Clouds 10 1023 83 10000 4.63 270 09:21 25.09.2022
97 Clouds 8 1023 89 10000 4.12 280 06:28 25.09.2022
98 Clouds 8 1025 89 10000 3.6 300 03:40 25.09.2022
99 Clouds 10 1025 79 10000 3.09 330 23:36 24.09.2022
100 Clouds 13 1024 75 10000 2.57 360 21:19 24.09.2022
101 Clouds 14 1023 71 10000 4.12 40 19:24 24.09.2022
102 Clouds 14 1023 68 10000 4.63 30 18:25 24.09.2022
103 Clouds 15 1023 65 10000 6.69 10 16:43 24.09.2022
104 Clouds 14 1023 67 10000 6.71 10 15:23 24.09.2022
105 Clouds 14 1023 66 10000 6.71 10 14:18 24.09.2022
106 Clouds 14 1023 73 10000 6.17 350 12:59 24.09.2022
107 Clouds 13 1022 76 10000 5.66 330 12:22 24.09.2022
108 Clouds 10 1022 88 10000 5.14 300 09:58 24.09.2022
109 Clouds 9 1021 90 10000 4.12 300 08:51 24.09.2022
110 Clouds 9 1020 91 10000 2.57 260 07:40 24.09.2022
111 Clouds 10 1020 86 10000 4.63 280 04:50 24.09.2022
112 Clouds 10 1020 84 10000 3.09 230 03:44 24.09.2022
113 Clouds 12 1021 85 10000 4.63 320 22:48 23.09.2022
114 Clouds 12 1020 81 10000 3.09 330 21:32 23.09.2022
115 Clouds 13 1019 81 10000 5.14 350 20:57 23.09.2022
116 Clouds 13 1019 83 10000 3.6 320 20:26 23.09.2022
117 Clouds 13 1019 82 10000 3.6 320 19:19 23.09.2022
118 Clouds 16 1018 74 10000 4.12 310 15:29 23.09.2022
119 Fog 12 1019 93 2000 4.63 270 11:28 23.09.2022
120 Clouds 11 1019 94 10000 3.09 240 09:36 23.09.2022
121 Clouds 9 1018 95 10000 3.09 260 06:39 23.09.2022
122 Clouds 11 1017 95 10000 3.09 290 00:41 23.09.2022
123 Clouds 12 1017 94 10000 3.6 300 23:22 22.09.2022
124 Clouds 12 1017 95 10000 3.09 290 22:27 22.09.2022
125 Clouds 13 1017 92 10000 2.06 270 21:18 22.09.2022
126 Clouds 16 1016 85 10000 1.54 0 19:58 22.09.2022
127 Clouds 15 1016 89 10000 3.6 340 17:38 22.09.2022
128 Rain 15 1016 94 10000 3.09 220 13:20 22.09.2022
129 Rain 15 1015 92 10000 4.12 210 10:36 22.09.2022
130 Rain 16 1014 92 8000 5.66 220 08:58 22.09.2022
131 Rain 16 1014 90 10000 6.69 200 06:57 22.09.2022
132 Rain 16 1015 86 10000 8.75 210 04:36 22.09.2022
133 Clouds 16 1018 80 10000 9.26 210 23:32 21.09.2022
134 Clouds 16 1018 78 10000 4.63 200 21:51 21.09.2022
135 Clouds 17 1018 76 10000 5.66 210 20:40 21.09.2022
136 Clouds 19 1020 71 10000 7.2 210 17:51 21.09.2022
137 Clouds 18 1020 75 10000 7.2 210 16:55 21.09.2022
138 Clouds 18 1021 74 10000 6.69 210 14:46 21.09.2022
139 Clouds 17 1022 74 10000 6.17 220 13:24 21.09.2022
140 Clouds 16 1022 71 10000 5.14 210 11:30 21.09.2022
141 Clouds 16 1023 73 10000 4.63 210 10:33 21.09.2022
142 Clouds 14 1023 77 10000 2.68 221 09:36 21.09.2022
143 Clouds 13 1023 82 10000 2.68 231 07:58 21.09.2022
144 Clouds 13 1024 85 10000 2.06 220 02:51 21.09.2022
145 Clouds 13 1024 84 10000 2.06 230 02:29 21.09.2022
146 Clouds 14 1025 81 10000 3.6 200 00:57 21.09.2022
147 Clouds 14 1025 83 10000 3.09 200 23:19 20.09.2022
148 Clouds 15 1025 76 10000 2.06 210 21:21 20.09.2022
149 Clouds 17 1024 68 10000 3.6 220 19:43 20.09.2022
150 Clouds 18 1025 66 10000 3.6 150 16:41 20.09.2022
151 Clouds 18 1025 64 10000 4.12 230 14:53 20.09.2022
152 Clouds 18 1025 65 10000 3.6 230 13:52 20.09.2022
153 Clouds 15 1025 78 10000 3.09 180 10:41 20.09.2022
154 Clouds 12 1025 85 10000 2.57 190 08:29 20.09.2022
155 Clouds 14 1025 83 10000 2.57 240 06:22 20.09.2022
156 Clouds 14 1025 80 10000 2.57 210 04:28 20.09.2022
157 Clouds 14 1025 87 10000 1.54 170 23:32 19.09.2022
158 Clouds 13 1025 88 10000 2.06 170 22:23 19.09.2022
159 Clouds 15 1025 79 10000 2.57 140 20:57 19.09.2022
160 Clouds 16 1025 77 10000 2.57 140 20:38 19.09.2022
161 Clouds 18 1025 68 10000 2.57 110 17:55 19.09.2022
162 Clouds 17 1025 73 10000 2.57 340 15:53 19.09.2022
163 Clouds 17 1026 74 10000 3.09 280 13:35 19.09.2022
164 Clouds 15 1025 84 10000 3.09 250 11:29 19.09.2022
165 Clouds 13 1025 88 10000 1.54 0 08:51 19.09.2022
166 Clouds 12 1025 87 10000 2.06 250 08:19 19.09.2022
167 Clouds 13 1024 85 10000 2.68 270 02:18 19.09.2022
168 Clouds 13 1024 83 10000 3.09 230 23:24 18.09.2022
169 Clouds 14 1023 80 10000 4.12 280 21:45 18.09.2022
170 Clouds 15 1023 70 10000 4.12 290 20:33 18.09.2022
171 Clouds 17 1023 63 10000 5.66 290 18:41 18.09.2022
172 Clouds 17 1023 61 10000 5.36 280 17:43 18.09.2022
173 Clouds 17 1024 60 10000 5.66 270 15:56 18.09.2022
174 Clouds 17 1023 59 10000 5.36 300 14:30 18.09.2022
175 Clouds 15 1024 66 10000 4.63 280 12:36 18.09.2022
176 Clouds 13 1024 69 10000 3.6 260 11:39 18.09.2022
177 Clouds 10 1023 81 10000 3.6 250 05:24 18.09.2022
178 Clouds 11 1024 76 10000 3.09 220 01:27 18.09.2022
179 Clouds 11 1024 77 10000 2.57 260 00:27 18.09.2022
180 Clouds 10 1025 77 10000 3.09 280 21:52 17.09.2022
181 Clouds 14 1024 63 10000 4.12 290 19:51 17.09.2022
182 Clouds 15 1025 58 10000 3.6 330 18:59 17.09.2022
183 Clouds 15 1025 58 10000 3.09 320 16:52 17.09.2022
184 Clouds 14 1025 61 10000 5.14 340 13:59 17.09.2022
185 Clouds 12 1026 74 10000 4.12 310 11:55 17.09.2022
186 Clouds 8 1026 88 10000 4.63 270 09:40 17.09.2022
187 Clear 7 1026 88 10000 3.09 290 06:27 17.09.2022
188 Clear 7 1026 86 10000 3.6 300 02:34 17.09.2022
189 Clouds 10 1025 77 10000 4.63 330 22:56 16.09.2022
190 Clouds 12 1024 71 10000 3.09 340 21:29 16.09.2022
191 Clouds 14 1024 66 10000 4.63 360 20:24 16.09.2022
192 Clouds 16 1022 57 10000 5.66 10 17:52 16.09.2022
193 Clouds 16 1023 59 10000 5.66 350 15:43 16.09.2022
194 Clouds 15 1024 62 10000 6.69 340 14:28 16.09.2022
195 Clouds 13 1023 74 10000 6.17 320 11:45 16.09.2022
196 Clouds 9 1022 89 10000 5.14 290 08:53 16.09.2022
197 Clouds 9 1021 89 10000 4.63 280 07:20 16.09.2022
198 Clouds 8 1021 92 10000 4.12 280 06:47 16.09.2022
199 Clouds 10 1020 87 10000 4.12 310 02:59 16.09.2022
200 Clouds 13 1019 79 10000 4.63 320 23:48 15.09.2022
201 Clouds 14 1019 73 10000 3.6 300 21:19 15.09.2022
202 Clouds 15 1018 69 10000 4.12 290 20:23 15.09.2022
203 Clouds 16 1018 62 10000 7.2 310 18:30 15.09.2022
204 Clouds 17 1017 61 10000 6.69 290 17:33 15.09.2022
205 Clouds 17 1017 59 10000 5.66 310 16:51 15.09.2022
206 Clouds 16 1018 67 10000 4.12 310 14:41 15.09.2022
207 Clouds 15 1017 69 10000 6.17 330 12:30 15.09.2022
208 Clouds 13 1017 84 10000 5.14 300 10:21 15.09.2022
209 Clouds 11 1016 92 10000 4.63 290 07:51 15.09.2022
210 Clouds 13 1015 88 10000 4.63 290 03:58 15.09.2022
211 Clouds 13 1015 87 10000 2.06 310 01:26 15.09.2022
212 Clouds 15 1013 79 10000 2.06 310 21:54 14.09.2022
213 Clouds 16 1012 73 10000 6.17 320 19:55 14.09.2022
214 Clouds 16 1012 73 10000 5.66 320 19:20 14.09.2022
215 Clouds 16 1012 74 10000 6.69 310 16:57 14.09.2022
216 Clouds 15 1012 75 10000 6.17 320 15:38 14.09.2022
217 Clouds 15 1012 77 10000 6.17 320 14:33 14.09.2022
218 Drizzle 13 1011 90 10000 6.17 330 11:39 14.09.2022
219 Drizzle 12 1011 92 10000 3.6 310 09:48 14.09.2022
220 Clouds 11 1011 92 10000 3.6 290 07:29 14.09.2022
221 Clouds 11 1011 91 10000 3.6 290 06:46 14.09.2022
222 Clouds 11 1011 92 10000 3.09 290 04:24 14.09.2022
223 Clouds 11 1012 94 10000 1.54 0 01:46 14.09.2022
224 Clouds 11 1012 94 10000 1.54 300 01:27 14.09.2022
225 Clouds 11 1012 94 10000 1.54 300 01:27 14.09.2022
226 Clouds 10 1012 97 10000 1.54 0 00:42 14.09.2022
227 Clouds 10 1012 93 10000 2.06 80 23:54 13.09.2022
228 Clouds 10 1012 93 10000 1.54 90 23:36 13.09.2022
229 Clouds 10 1012 93 10000 1.79 90 23:18 13.09.2022
230 Clouds 12 1012 89 10000 2.06 100 21:45 13.09.2022
231 Clouds 16 1012 75 10000 4.63 20 19:38 13.09.2022
232 Clouds 17 1013 73 10000 3.6 30 17:41 13.09.2022
233 Clouds 17 1013 73 10000 4.63 30 15:54 13.09.2022
234 Clouds 16 1014 74 10000 4.12 40 14:31 13.09.2022
235 Clouds 15 1014 85 10000 3.09 360 12:32 13.09.2022
236 Clouds 10 1014 94 10000 3.6 340 08:43 13.09.2022
237 Clouds 9 1014 95 10000 2.06 320 05:22 13.09.2022
238 Clouds 14 1014 95 10000 2.06 330 23:37 12.09.2022
239 Clouds 14 1014 94 10000 1.54 70 22:49 12.09.2022
240 Clouds 15 1013 94 10000 2.06 110 21:37 12.09.2022
241 Clouds 15 1012 94 10000 2.06 90 20:25 12.09.2022
242 Clouds 15 1012 94 5000 4.63 10 18:43 12.09.2022
243 Clouds 17 1011 94 5000 2.57 10 16:32 12.09.2022
244 Clouds 17 1011 94 5000 2.57 10 16:31 12.09.2022
245 Clouds 17 1011 94 5000 2.57 10 16:31 12.09.2022
246 Drizzle 17 1011 94 3000 1.54 0 13:57 12.09.2022
247 Drizzle 17 1010 93 10000 3.09 320 11:29 12.09.2022
248 Drizzle 16 1010 95 3500 3.09 300 09:45 12.09.2022
249 Clouds 18 1009 91 10000 5.66 220 04:49 12.09.2022
250 Clouds 18 1009 90 8000 5.66 220 03:33 12.09.2022
251 Clouds 18 1009 87 10000 5.66 210 23:22 11.09.2022
252 Clouds 19 1008 87 10000 7.72 210 21:58 11.09.2022
253 Clouds 19 1008 89 10000 7.72 200 20:46 11.09.2022
254 Clouds 19 1010 89 10000 6.69 210 19:53 11.09.2022
255 Clouds 19 1010 89 10000 6.69 210 19:22 11.09.2022
256 Clouds 18 1010 90 10000 7.72 190 18:20 11.09.2022
257 Clouds 17 1010 91 10000 7.72 180 16:34 11.09.2022
258 Rain 16 1012 92 5000 6.17 140 14:19 11.09.2022
259 Rain 16 1014 90 10000 3.6 140 12:33 11.09.2022
260 Clouds 14 1015 91 10000 3.09 150 08:39 11.09.2022
261 Clouds 13 1016 89 10000 2.57 130 06:44 11.09.2022
262 Clouds 12 1018 94 10000 2.06 90 00:50 11.09.2022
263 Clouds 13 1018 92 10000 3.09 90 22:55 10.09.2022
264 Clouds 15 1018 85 10000 3.6 90 20:59 10.09.2022
265 Clouds 17 1018 77 10000 4.12 90 19:46 10.09.2022
266 Clouds 17 1018 77 10000 4.12 100 19:28 10.09.2022
267 Clouds 18 1017 75 10000 4.12 70 18:22 10.09.2022
268 Clouds 19 1017 72 10000 2.68 19 15:49 10.09.2022
269 Clouds 18 1017 73 10000 3.09 110 14:40 10.09.2022
270 Clouds 17 1018 79 10000 2.57 60 12:52 10.09.2022
271 Clouds 14 1018 95 10000 2.06 340 10:35 10.09.2022
272 Fog 12 1017 95 10000 2.57 330 09:28 10.09.2022
273 Fog 11 1017 94 10000 3.09 300 08:27 10.09.2022
274 Mist 12 1017 94 1500 2.06 80 06:41 10.09.2022
275 Clouds 14 1016 91 10000 3.09 350 00:19 10.09.2022
276 Clouds 15 1015 90 10000 3.09 310 23:31 09.09.2022
277 Clouds 16 1014 84 10000 3.6 50 21:38 09.09.2022
278 Clouds 17 1013 84 10000 2.68 89 20:31 09.09.2022
279 Clouds 18 1012 84 10000 3.6 360 19:24 09.09.2022
280 Clouds 18 1012 81 10000 2.57 350 18:38 09.09.2022
281 Rain 18 1011 85 8000 4.63 350 16:21 09.09.2022
282 Clouds 18 1010 83 10000 4.12 330 13:48 09.09.2022
283 Clouds 16 1008 91 10000 3.6 350 11:52 09.09.2022
284 Drizzle 15 1006 95 10000 4.63 310 09:21 09.09.2022
285 Rain 15 1006 96 9000 5.66 280 03:48 09.09.2022
286 Rain 15 1005 91 10000 3.6 280 00:40 09.09.2022
287 Clouds 16 1005 86 10000 3.6 360 21:52 08.09.2022
288 Clouds 17 1005 82 10000 3.6 360 20:51 08.09.2022
289 Clouds 17 1004 83 10000 4.63 20 20:29 08.09.2022
290 Clouds 18 1004 80 10000 5.66 40 19:39 08.09.2022
291 Clouds 17 1003 83 10000 6.17 50 17:40 08.09.2022
292 Clouds 17 1003 86 10000 7.72 50 16:19 08.09.2022
293 Clouds 17 1003 85 10000 6.17 60 14:37 08.09.2022
294 Clouds 16 1002 88 10000 5.66 50 12:51 08.09.2022
295 Clouds 16 1002 87 10000 5.14 70 11:36 08.09.2022
296 Clouds 15 1001 90 10000 5.14 60 09:58 08.09.2022
297 Clouds 15 1000 89 10000 5.66 80 07:45 08.09.2022
298 Clouds 16 1000 87 7000 6.69 80 05:51 08.09.2022
299 Clouds 16 1001 88 10000 6.69 80 02:36 08.09.2022
300 Clouds 16 1001 88 10000 6.69 80 02:36 08.09.2022
301 Clouds 16 1001 90 10000 6.69 80 02:18 08.09.2022
302 Clouds 16 1001 90 10000 5.14 90 00:22 08.09.2022
303 Clouds 16 1001 88 10000 5.66 100 22:19 07.09.2022
304 Clouds 16 1001 87 10000 6.69 110 21:39 07.09.2022
305 Clouds 17 1001 85 7000 5.66 130 20:31 07.09.2022
306 Clouds 18 1001 82 10000 5.66 130 19:26 07.09.2022
307 Clouds 17 1001 85 10000 6.69 140 17:22 07.09.2022
308 Clouds 17 1001 90 8000 4.63 140 11:32 07.09.2022
309 Rain 16 1001 92 9000 4.63 140 10:36 07.09.2022
310 Clouds 15 1001 91 10000 3.6 130 08:33 07.09.2022
311 Clouds 15 1001 92 10000 4.63 160 06:50 07.09.2022
312 Clouds 14 1003 91 10000 3.09 100 00:49 07.09.2022
313 Clouds 15 1003 89 10000 3.6 130 22:28 06.09.2022
314 Rain 15 1003 89 10000 3.09 130 21:38 06.09.2022
315 Clouds 16 1003 83 10000 5.66 160 19:40 06.09.2022
316 Clouds 17 1003 83 10000 6.69 150 18:40 06.09.2022
317 Clouds 17 1003 86 10000 5.66 140 17:50 06.09.2022
318 Clouds 17 1004 91 10000 5.66 140 16:53 06.09.2022
319 Clouds 17 1004 93 10000 5.14 120 16:25 06.09.2022
320 Rain 15 1005 93 7000 5.66 140 14:49 06.09.2022
321 Rain 17 1005 87 10000 7.2 140 13:44 06.09.2022
322 Clouds 17 1005 88 10000 7.2 140 13:19 06.09.2022
323 Clouds 17 1006 87 10000 7.2 150 10:56 06.09.2022
324 Clouds 17 1006 85 10000 6.17 150 09:49 06.09.2022
325 Clouds 16 1007 88 10000 7.15 140 08:18 06.09.2022
326 Clouds 16 1007 90 10000 6.17 140 06:20 06.09.2022
327 Clouds 16 1007 89 10000 7.2 150 01:22 06.09.2022
328 Clouds 16 1008 88 10000 8.05 140 22:57 05.09.2022
329 Rain 17 1006 86 10000 8.23 150 21:38 05.09.2022
330 Clouds 18 1007 89 10000 7.72 140 20:30 05.09.2022
331 Clouds 18 1007 85 10000 7.72 130 18:53 05.09.2022
332 Clouds 18 1008 85 10000 7.72 130 18:26 05.09.2022
333 Clouds 18 1008 85 10000 7.72 120 17:53 05.09.2022
334 Drizzle 19 1010 78 10000 6.71 130 15:54 05.09.2022
335 Clouds 19 1010 73 10000 8.75 130 14:40 05.09.2022
336 Clouds 19 1011 73 10000 6.69 140 12:53 05.09.2022
337 Clouds 18 1011 78 10000 6.69 140 11:21 05.09.2022
338 Clouds 14 1011 84 10000 3.09 150 08:52 05.09.2022
339 Clouds 16 1006 83 10000 8.23 180 03:57 05.09.2022
340 Clouds 17 1006 89 10000 7.72 110 01:19 05.09.2022
341 Clouds 17 1007 88 10000 4.63 120 22:29 04.09.2022
342 Clouds 17 1007 87 10000 6.17 100 21:57 04.09.2022
343 Clouds 17 1009 81 10000 6.17 90 20:26 04.09.2022
344 Clouds 18 1010 75 10000 8.23 120 18:39 04.09.2022
345 Clouds 20 1009 63 10000 8.23 120 17:43 04.09.2022
346 Clouds 20 1010 68 10000 7.72 130 16:24 04.09.2022
347 Clouds 19 1009 65 10000 7.72 150 14:25 04.09.2022
348 Clouds 18 1009 70 10000 6.17 160 12:40 04.09.2022
349 Clouds 15 1008 86 10000 4.12 170 10:59 04.09.2022
350 Clouds 13 1006 91 10000 3.6 180 09:38 04.09.2022
351 Clouds 13 1000 95 4000 6.17 240 06:35 04.09.2022
352 Rain 15 1004 95 2000 4.63 90 03:18 04.09.2022
353 Clouds 14 1005 88 10000 4.63 160 22:53 03.09.2022
354 Clouds 15 1004 90 10000 5.14 150 21:42 03.09.2022
355 Clouds 15 1004 90 10000 5.66 160 21:22 03.09.2022
356 Rain 15 1003 94 8000 4.63 140 18:41 03.09.2022
357 Rain 15 1003 93 5000 6.17 140 17:19 03.09.2022
358 Rain 15 1003 94 5000 4.63 130 15:49 03.09.2022
359 Rain 14 1004 94 3500 3.09 100 14:42 03.09.2022
360 Rain 13 1004 93 2500 2.06 130 13:50 03.09.2022
361 Rain 13 1005 92 9000 2.57 160 11:33 03.09.2022
362 Rain 13 1005 91 8000 1.54 0 09:36 03.09.2022
363 Rain 14 1004 87 9000 2.57 240 07:53 03.09.2022
364 Rain 15 1005 81 10000 1.79 160 04:51 03.09.2022
365 Rain 16 1005 70 10000 3.6 210 02:49 03.09.2022
366 Clouds 16 1006 72 10000 4.12 170 23:46 02.09.2022
367 Rain 17 1006 77 10000 4.63 180 22:23 02.09.2022
368 Clouds 18 1007 74 10000 3.6 150 20:42 02.09.2022
369 Clouds 19 1007 72 10000 3.6 150 20:18 02.09.2022
370 Clouds 19 1009 82 10000 3.09 130 18:51 02.09.2022
371 Clouds 19 1009 83 10000 3.09 130 18:25 02.09.2022
372 Clouds 18 1010 84 10000 3.6 120 17:25 02.09.2022
373 Clouds 19 1011 78 10000 3.6 140 16:31 02.09.2022
374 Clouds 20 1012 71 10000 2.06 250 13:42 02.09.2022
375 Clouds 17 1014 82 10000 2.57 270 10:57 02.09.2022
376 Clouds 15 1015 86 10000 1.54 0 09:45 02.09.2022
377 Clouds 14 1015 88 10000 2.57 270 08:47 02.09.2022
378 Clouds 15 1016 87 10000 2.06 280 06:48 02.09.2022
379 Clouds 15 1016 86 10000 2.06 280 06:22 02.09.2022
380 Clouds 16 1019 82 10000 2.06 350 00:26 02.09.2022
381 Clouds 16 1020 79 10000 3.6 40 22:21 01.09.2022
382 Clouds 16 1020 78 10000 4.63 80 21:38 01.09.2022
383 Clouds 17 1020 77 10000 4.63 80 21:19 01.09.2022
384 Clouds 17 1021 78 10000 4.92 50 20:23 01.09.2022
385 Clouds 18 1021 76 10000 5.66 60 18:34 01.09.2022
386 Clouds 18 1022 72 10000 6.69 60 16:55 01.09.2022
387 Clouds 19 1023 75 10000 7.6 80 15:22 01.09.2022
388 Clouds 18 1023 76 10000 7.2 80 13:27 01.09.2022
389 Clouds 18 1023 77 10000 7.72 80 12:55 01.09.2022
390 Clouds 18 1024 79 10000 6.71 90 11:51 01.09.2022
391 Clouds 17 1024 83 10000 6.71 90 11:19 01.09.2022
392 Clouds 16 1024 90 10000 4.63 90 09:32 01.09.2022
393 Clouds 15 1024 89 10000 4.12 90 06:41 01.09.2022
394 Clouds 14 1025 91 10000 3.6 20 02:39 01.09.2022
395 Clouds 14 1026 91 10000 4.12 20 01:30 01.09.2022
396 Clouds 14 1026 91 10000 4.12 20 01:30 01.09.2022
397 Clouds 14 1026 91 10000 4.12 20 01:30 01.09.2022
398 Clouds 14 1026 91 10000 4.12 20 01:30 01.09.2022
399 Clouds 14 1026 91 10000 4.12 20 01:30 01.09.2022
400 Clouds 14 1026 91 10000 4.12 20 01:30 01.09.2022
401 Clouds 14 1026 91 10000 4.12 20 01:30 01.09.2022
402 Clouds 14 1026 91 10000 4.12 20 01:30 01.09.2022
403 Clouds 14 1026 89 10000 3.6 70 22:43 31.08.2022
404 Clouds 16 1027 83 10000 4.63 50 20:43 31.08.2022
405 Clouds 17 1027 79 10000 4.92 80 18:46 31.08.2022
406 Clouds 18 1027 71 10000 5.14 70 16:41 31.08.2022
407 Clouds 17 1028 69 10000 5.14 50 15:21 31.08.2022
408 Clouds 17 1028 66 10000 5.14 10 13:28 31.08.2022
409 Clouds 16 1029 74 10000 5.14 40 11:54 31.08.2022
410 Clouds 15 1028 80 10000 3.6 30 09:35 31.08.2022
411 Clouds 14 1028 87 10000 4.12 70 07:39 31.08.2022
412 Clouds 14 1028 89 10000 3.6 50 02:47 31.08.2022
413 Clouds 15 1028 84 10000 4.12 50 22:21 30.08.2022
414 Clouds 16 1028 79 10000 4.12 70 21:27 30.08.2022
415 Clouds 17 1027 77 10000 4.63 80 20:26 30.08.2022
416 Clouds 18 1028 70 10000 6.17 50 16:48 30.08.2022
417 Clouds 19 1028 68 10000 4.63 90 13:38 30.08.2022
418 Clouds 18 1028 63 10000 5.66 90 11:44 30.08.2022
419 Clouds 18 1028 69 10000 5.66 90 11:19 30.08.2022
420 Clouds 15 1027 86 10000 4.63 100 09:32 30.08.2022
421 Clouds 14 1026 94 10000 3.6 100 06:26 30.08.2022
422 Clouds 16 1025 89 10000 5.66 80 00:33 30.08.2022
423 Clouds 16 1024 86 10000 4.12 60 22:37 29.08.2022
424 Clouds 17 1025 84 10000 4.63 60 21:51 29.08.2022
425 Clouds 17 1024 81 10000 5.81 70 20:35 29.08.2022
426 Clouds 18 1024 76 10000 6.71 80 18:58 29.08.2022
427 Clouds 19 1024 77 10000 5.66 90 17:32 29.08.2022
428 Clouds 19 1024 77 10000 5.66 100 16:57 29.08.2022
429 Clouds 20 1024 74 10000 7.2 80 15:18 29.08.2022
430 Clouds 21 1024 68 10000 4.63 110 13:42 29.08.2022
431 Clouds 20 1024 76 10000 4.12 80 12:20 29.08.2022
432 Clouds 18 1024 85 10000 4.12 90 10:42 29.08.2022
433 Clouds 16 1024 92 8000 3.09 90 09:18 29.08.2022
434 Clouds 15 1023 92 10000 4.12 80 06:52 29.08.2022
435 Clouds 15 1023 91 10000 4.12 100 02:25 29.08.2022
436 Clouds 15 1024 91 10000 3.6 90 23:33 28.08.2022
437 Clouds 16 1023 80 10000 3.6 90 21:47 28.08.2022
438 Clouds 16 1023 79 10000 3.6 90 21:25 28.08.2022
439 Clouds 17 1023 75 10000 3.09 40 20:18 28.08.2022
440 Clouds 18 1023 73 10000 3.09 50 18:22 28.08.2022
441 Clouds 18 1023 70 10000 4.63 80 17:50 28.08.2022
442 Clouds 18 1023 73 10000 3.6 70 16:42 28.08.2022
443 -273 0 0 0 0 0 15:00 28.08.2022
444 Clouds 17 1023 76 10000 3.09 50 12:57 28.08.2022
445 Clouds 17 1023 81 10000 4.12 40 11:24 28.08.2022
446 Clouds 16 1022 85 10000 3.6 80 10:20 28.08.2022
447 Clouds 14 1022 87 10000 3.6 50 08:49 28.08.2022
448 Clouds 13 1022 87 10000 2.57 90 07:51 28.08.2022
449 Clouds 12 1021 80 10000 3.6 80 04:55 28.08.2022
450 Clouds 14 1022 80 10000 3.09 70 00:34 28.08.2022
451 Clouds 15 1021 78 10000 3.09 80 22:50 27.08.2022
452 Clouds 15 1021 77 10000 3.09 80 22:19 27.08.2022
453 Clouds 17 1021 67 10000 3.09 70 20:34 27.08.2022
454 Clouds 19 1021 63 10000 4.12 80 18:50 27.08.2022
455 Clouds 19 1021 64 10000 4.63 80 16:26 27.08.2022
456 Clouds 19 1021 64 10000 4.12 110 15:30 27.08.2022
457 Clouds 19 1021 62 10000 1.54 0 12:55 27.08.2022
458 Clouds 18 1021 66 10000 1.54 270 11:56 27.08.2022
459 Clouds 15 1021 82 10000 1.54 0 10:26 27.08.2022
460 Clouds 12 1021 91 10000 1.54 270 09:25 27.08.2022
461 Fog 10 1021 90 1800 1.54 310 05:24 27.08.2022
462 Clouds 12 1021 85 10000 2.06 210 00:51 27.08.2022
463 Clouds 13 1021 82 10000 2.57 200 23:35 26.08.2022
464 Clouds 16 1020 78 10000 4.02 310 21:45 26.08.2022
465 Clouds 18 1020 65 10000 4.12 330 19:50 26.08.2022
466 Clouds 18 1020 68 10000 4.63 320 17:49 26.08.2022
467 Clouds 17 1020 78 10000 6.17 300 15:40 26.08.2022
468 Clouds 16 1020 81 10000 5.66 300 14:59 26.08.2022
469 Clouds 15 1020 90 10000 6.17 290 12:56 26.08.2022
470 Drizzle 14 1020 90 5000 5.66 290 11:43 26.08.2022
471 Drizzle 14 1019 90 8000 6.17 280 11:21 26.08.2022
472 Drizzle 14 1018 91 3000 3.58 269 07:56 26.08.2022
473 Clouds 17 1018 76 10000 4.63 200 02:57 26.08.2022
474 Clouds 17 1018 73 10000 3.6 210 23:45 25.08.2022
475 Clouds 18 1018 63 10000 3.6 200 21:55 25.08.2022
476 Clouds 19 1017 57 10000 3.09 200 20:53 25.08.2022
477 Clouds 19 1017 54 10000 3.09 220 19:27 25.08.2022
478 Clouds 20 1018 53 10000 4.12 220 18:29 25.08.2022
479 Clouds 20 1019 51 10000 4.02 202 17:31 25.08.2022
480 Clouds 20 1019 52 10000 4.63 250 16:36 25.08.2022
481 Clouds 19 1019 55 10000 5.66 260 15:28 25.08.2022
482 Clouds 19 1019 55 10000 4.63 250 13:20 25.08.2022
483 Clouds 15 1019 79 10000 3.58 260 10:49 25.08.2022
484 Clouds 14 1020 84 10000 3.6 260 09:46 25.08.2022
485 Clouds 12 1019 89 10000 4.12 240 07:35 25.08.2022
486 Clouds 13 1019 83 10000 3.6 230 02:41 25.08.2022
487 Clouds 14 1017 78 10000 3.09 250 23:30 24.08.2022
488 Clouds 15 1017 76 10000 2.06 250 22:54 24.08.2022
489 Clouds 17 1016 68 10000 3.09 250 21:53 24.08.2022
490 Clouds 18 1016 63 10000 2.57 250 21:28 24.08.2022
491 Clouds 20 1015 55 10000 5.66 240 19:52 24.08.2022
492 Clouds 19 1015 60 10000 5.14 220 16:51 24.08.2022
493 Clouds 19 1015 62 10000 5.14 210 15:53 24.08.2022
494 Clouds 19 1015 64 10000 5.66 230 14:58 24.08.2022
495 Clouds 18 1014 72 10000 5.66 240 12:48 24.08.2022
496 Clouds 16 1014 79 10000 4.63 220 11:18 24.08.2022
497 Clouds 14 1013 92 10000 4.12 230 08:38 24.08.2022
498 Clouds 14 1011 95 10000 5.66 280 05:26 24.08.2022
499 Clouds 18 1010 84 10000 3.09 160 00:41 24.08.2022
500 Clouds 20 1011 66 10000 3.09 190 22:35 23.08.2022
501 Clouds 21 1011 63 10000 3.09 200 21:49 23.08.2022
502 Clouds 21 1011 57 10000 4.12 200 20:40 23.08.2022
503 Clouds 23 1010 56 10000 4.63 210 18:55 23.08.2022
504 Clouds 23 1010 57 10000 5.66 210 17:56 23.08.2022
505 Clouds 22 1011 58 10000 4.12 230 17:21 23.08.2022
506 Clouds 23 1011 57 10000 4.63 220 15:52 23.08.2022
507 Clouds 21 1011 66 10000 4.12 240 13:50 23.08.2022
508 Clouds 20 1011 68 10000 5.66 270 12:46 23.08.2022
509 Clouds 19 1011 78 10000 4.12 240 10:57 23.08.2022
510 Clouds 18 1010 82 10000 3.6 240 10:32 23.08.2022
511 Clouds 19 1010 82 10000 3.6 240 10:32 23.08.2022
512 Clouds 18 1010 84 10000 4.63 220 08:55 23.08.2022
513 Clouds 17 1009 85 10000 4.63 220 08:22 23.08.2022
514 Clouds 17 1009 88 10000 4.63 220 07:52 23.08.2022
515 Clouds 17 1009 87 10000 4.63 220 07:22 23.08.2022
516 Clouds 18 1009 87 10000 3.09 230 06:22 23.08.2022
517 Clouds 19 1009 82 10000 3.6 180 01:44 23.08.2022
518 Clouds 18 1009 83 10000 4.12 190 00:26 23.08.2022
519 Clouds 19 1009 80 10000 3.09 180 23:32 22.08.2022
520 Clouds 20 1009 76 10000 1.54 0 22:19 22.08.2022
521 Clouds 22 1009 66 10000 5.14 230 19:56 22.08.2022
522 Clouds 22 1009 65 10000 5.14 230 19:36 22.08.2022
523 Clouds 23 1009 64 10000 4.63 230 18:36 22.08.2022
524 Clouds 22 1009 65 10000 6.17 260 15:45 22.08.2022
525 Clouds 21 1009 69 10000 6.69 270 14:48 22.08.2022
526 Clouds 18 1009 86 10000 6.69 220 11:20 22.08.2022
527 Clouds 17 1009 94 10000 1.54 0 09:20 22.08.2022
528 Clouds 15 1011 93 9000 3.09 130 04:45 22.08.2022
529 Clouds 15 1013 83 10000 4.63 130 00:56 22.08.2022
530 Clouds 15 1013 81 10000 4.12 130 00:36 22.08.2022
531 Clouds 15 1013 78 10000 4.63 120 22:57 21.08.2022
532 Clouds 15 1014 76 10000 4.12 130 21:50 21.08.2022
533 Clouds 16 1014 74 10000 3.6 130 21:18 21.08.2022
534 Clouds 18 1014 63 10000 5.14 130 19:42 21.08.2022
535 Clouds 18 1014 58 10000 5.14 130 18:35 21.08.2022
536 Clouds 18 1014 60 10000 3.6 140 16:34 21.08.2022
537 Clouds 19 1014 56 10000 4.63 130 15:51 21.08.2022
538 Clouds 19 1015 54 10000 2.57 290 14:41 21.08.2022
539 Clouds 18 1015 55 10000 3.58 310 13:44 21.08.2022
540 Clouds 18 1015 59 10000 3.09 280 12:53 21.08.2022
541 Clouds 14 1015 77 10000 2.68 258 09:57 21.08.2022
542 Clouds 12 1014 83 10000 2.06 240 08:56 21.08.2022
543 Clouds 11 1014 84 10000 3.6 220 08:38 21.08.2022
544 Clouds 11 1014 86 10000 3.6 230 07:50 21.08.2022
545 Clouds 12 1014 79 10000 3.6 250 04:28 21.08.2022
546 Clouds 15 1013 82 10000 6.17 260 00:53 21.08.2022
547 Clouds 15 1013 83 10000 4.63 240 22:59 20.08.2022
548 Clouds 15 1012 82 10000 7.72 260 21:45 20.08.2022
549 Clouds 16 1012 82 10000 8.23 270 20:48 20.08.2022
550 Clouds 18 1012 78 10000 9.26 280 19:42 20.08.2022
551 Clouds 20 1011 61 10000 9.77 240 18:44 20.08.2022
552 Clouds 20 1011 61 10000 9.77 240 18:25 20.08.2022
553 Clouds 22 1011 55 10000 7.15 302 17:20 20.08.2022
554 Rain 22 1011 53 10000 10.8 230 15:52 20.08.2022
555 Clouds 20 1012 61 10000 10.29 230 13:39 20.08.2022
556 Clouds 19 1012 69 10000 11.32 230 11:53 20.08.2022
557 Clouds 17 1012 76 10000 10.29 230 10:39 20.08.2022
558 Clouds 16 1012 81 10000 8.75 230 09:18 20.08.2022
559 Clouds 16 1011 81 10000 8.75 230 06:40 20.08.2022
560 Clouds 16 1012 82 10000 7.72 220 03:57 20.08.2022
561 Clouds 15 1014 82 10000 5.66 220 00:53 20.08.2022
562 Clouds 15 1014 82 10000 3.13 267 23:21 19.08.2022
563 Clouds 16 1014 79 10000 5.14 220 22:35 19.08.2022
564 Clouds 18 1013 68 10000 8.23 260 20:30 19.08.2022
565 Clouds 19 1013 67 10000 7.2 240 18:51 19.08.2022
566 Clouds 20 1012 57 10000 8.75 240 15:54 19.08.2022
567 Clouds 18 1013 68 10000 7.72 240 13:40 19.08.2022
568 Clouds 17 1013 71 10000 9.77 240 11:39 19.08.2022
569 Clouds 16 1013 77 10000 7.2 230 10:30 19.08.2022
570 Clouds 13 1011 84 10000 7.2 210 07:25 19.08.2022
571 Clouds 14 1011 77 10000 6.69 220 02:23 19.08.2022
572 Clouds 14 1011 76 10000 5.14 230 00:32 19.08.2022
573 Clouds 15 1011 73 10000 5.66 240 23:48 18.08.2022
574 Clouds 16 1010 68 10000 6.71 260 22:52 18.08.2022
575 Clouds 17 1010 64 10000 7.72 270 22:18 18.08.2022
576 Clouds 17 1009 59 10000 8.75 260 21:40 18.08.2022
577 Clouds 20 1008 58 10000 10.29 260 20:27 18.08.2022
578 Clouds 21 1008 60 10000 9.26 250 19:30 18.08.2022
579 Clouds 22 1008 72 10000 7.72 250 18:19 18.08.2022
580 Clouds 22 1008 76 6000 9.77 240 17:19 18.08.2022
581 Drizzle 21 1008 81 10000 6.17 220 15:20 18.08.2022
582 Clouds 21 1009 77 10000 5.66 220 14:20 18.08.2022
583 Drizzle 20 1009 77 10000 6.69 220 13:36 18.08.2022
584 Clouds 19 1009 81 10000 7.2 220 12:26 18.08.2022
585 Clouds 18 1010 83 10000 6.17 210 10:22 18.08.2022
586 Clouds 17 1011 84 10000 7.72 210 09:42 18.08.2022
587 Clouds 15 1011 82 10000 6.69 220 07:24 18.08.2022
588 Clouds 16 1013 78 10000 3.6 220 04:38 18.08.2022
589 Clouds 15 1015 84 10000 2.57 150 23:49 17.08.2022
590 Clouds 16 1016 83 10000 3.09 140 21:54 17.08.2022
591 Clouds 17 1016 82 10000 3.6 100 20:20 17.08.2022
592 Clouds 17 1016 81 10000 3.09 100 19:31 17.08.2022
593 Clouds 18 1017 78 10000 1.79 49 17:39 17.08.2022
594 Clouds 18 1017 79 10000 1.54 0 16:47 17.08.2022
595 Drizzle 17 1017 81 7000 2.57 340 15:30 17.08.2022
596 Drizzle 14 1017 91 3400 3.6 320 13:31 17.08.2022
597 Drizzle 13 1017 90 9000 4.12 350 11:42 17.08.2022
598 Drizzle 12 1017 88 9000 4.12 320 09:59 17.08.2022
599 Clouds 11 1017 85 10000 4.12 310 08:24 17.08.2022
600 Clouds 11 1016 80 10000 5.36 310 03:52 17.08.2022
601 Clouds 13 1016 65 10000 5.66 320 00:38 17.08.2022
602 Clouds 15 1015 63 10000 6.69 330 22:42 16.08.2022
603 Clouds 17 1013 56 10000 7.2 350 20:59 16.08.2022
604 Clouds 17 1013 56 10000 5.66 350 19:54 16.08.2022
605 Clouds 17 1013 57 10000 7.2 350 19:19 16.08.2022
606 Clouds 18 1013 61 10000 5.66 330 17:54 16.08.2022
607 Clouds 18 1012 63 10000 6.71 330 16:18 16.08.2022
608 Clouds 17 1012 71 10000 6.69 340 14:55 16.08.2022
609 Clouds 17 1012 71 10000 6.17 340 14:37 16.08.2022
610 Clouds 17 1012 71 10000 6.69 330 13:54 16.08.2022
611 Clouds 15 1011 77 10000 3.13 338 11:39 16.08.2022
612 Clouds 14 1010 82 10000 6.69 310 09:52 16.08.2022
613 Clouds 14 1010 85 10000 5.66 310 08:48 16.08.2022
614 Clouds 14 1010 87 10000 5.66 310 08:19 16.08.2022
615 Clouds 15 1009 90 10000 5.66 320 05:18 16.08.2022
616 Clouds 17 1007 93 10000 3.09 330 22:56 15.08.2022
617 Clouds 17 1006 92 10000 2.57 310 21:56 15.08.2022
618 Clouds 18 1006 92 10000 2.57 330 21:36 15.08.2022
619 Rain 17 1005 92 5000 2.57 350 20:29 15.08.2022
620 Rain 17 1005 92 5000 2.57 350 20:29 15.08.2022
621 Clouds 18 1005 86 7000 3.6 80 18:46 15.08.2022
622 Clouds 20 1004 82 5000 5.14 80 17:47 15.08.2022
623 Clouds 20 1004 84 10000 3.09 100 16:22 15.08.2022
624 Clouds 18 1004 89 3000 4.12 40 14:31 15.08.2022
625 Clouds 21 1004 72 10000 2.57 270 12:54 15.08.2022
626 Clouds 18 1003 93 10000 2.57 50 10:23 15.08.2022
627 Rain 17 1003 95 5000 1.54 0 08:52 15.08.2022
628 Clouds 17 1003 93 10000 2.57 310 06:39 15.08.2022
629 Rain 17 1004 91 10000 2.06 240 03:34 15.08.2022
630 Clear 19 1005 79 10000 1.54 0 23:27 14.08.2022
631 Clouds 19 1005 73 10000 2.57 60 21:43 14.08.2022
632 Clouds 20 1005 71 10000 2.57 70 20:41 14.08.2022
633 Clouds 21 1006 67 10000 4.02 90 19:36 14.08.2022
634 Clear 21 1006 71 10000 4.63 100 18:21 14.08.2022
635 Clouds 22 1006 69 10000 4.63 90 17:31 14.08.2022
636 Clouds 23 1007 66 10000 4.12 50 16:23 14.08.2022
637 Clouds 23 1007 68 10000 4.12 50 15:34 14.08.2022
638 Clouds 26 1007 61 10000 2.57 30 13:51 14.08.2022
639 Clouds 24 1007 65 10000 3.09 20 13:31 14.08.2022
640 Clear 23 1008 71 10000 2.57 20 12:42 14.08.2022
641 Clear 22 1009 75 10000 2.57 50 11:23 14.08.2022
642 Clear 18 1009 88 10000 2.57 350 08:57 14.08.2022
643 Clear 16 1009 89 10000 2.57 20 06:40 14.08.2022
644 Clear 16 1010 88 10000 1.54 80 05:37 14.08.2022
645 Clear 16 1012 87 10000 2.06 30 01:36 14.08.2022
646 Clear 18 1013 79 10000 3.09 70 22:56 13.08.2022
647 Clear 19 1013 77 10000 3.09 70 22:27 13.08.2022
648 Clear 20 1013 74 10000 4.12 70 20:50 13.08.2022
649 Clear 22 1014 71 10000 5.14 80 19:48 13.08.2022
650 Clear 22 1014 70 10000 5.14 80 19:18 13.08.2022
651 Clouds 23 1014 67 10000 4.63 60 17:21 13.08.2022
652 Clear 24 1015 66 10000 4.63 50 14:50 13.08.2022
653 Clear 23 1016 68 10000 5.66 50 13:49 13.08.2022
654 Clear 23 1016 68 10000 4.63 50 13:28 13.08.2022
655 Clear 22 1016 73 10000 5.14 60 11:29 13.08.2022
656 Clear 18 1016 81 10000 4.12 30 09:23 13.08.2022
657 Clear 15 1016 85 10000 2.57 60 06:54 13.08.2022
658 Clear 16 1018 79 10000 3.09 100 01:51 13.08.2022
659 Clear 17 1018 76 10000 3.09 80 23:32 12.08.2022
660 Clear 20 1018 62 10000 4.12 60 21:37 12.08.2022
661 Clear 23 1018 55 10000 4.63 80 19:48 12.08.2022
662 Clear 23 1019 57 10000 4.63 80 19:23 12.08.2022
663 Clear 24 1019 55 10000 5.14 50 18:26 12.08.2022
664 Clear 24 1020 53 10000 4.63 90 16:27 12.08.2022
665 Clear 25 1020 52 10000 5.14 90 15:19 12.08.2022
666 Clear 24 1020 57 10000 5.36 50 13:43 12.08.2022
667 Clear 23 1021 57 10000 5.14 80 12:32 12.08.2022
668 Clouds 16 1021 90 10000 2.57 20 08:52 12.08.2022
669 Clouds 15 1021 90 10000 2.57 10 07:45 12.08.2022
670 Clear 13 1021 93 10000 2.06 20 06:21 12.08.2022
671 Clear 16 1022 69 10000 3.09 30 00:32 12.08.2022
672 Clear 17 1022 63 10000 3.09 90 23:55 11.08.2022
673 Clear 18 1022 56 10000 1.34 42 23:22 11.08.2022
674 Clear 22 1021 40 10000 4.12 80 21:53 11.08.2022
675 Clear 22 1021 42 10000 4.12 80 21:28 11.08.2022
676 Clouds 24 1022 40 10000 3.09 100 20:30 11.08.2022
677 Clouds 25 1022 38 10000 3.6 90 19:33 11.08.2022
678 Clouds 25 1022 36 10000 4.63 70 18:56 11.08.2022
679 Clouds 26 1022 37 10000 4.63 90 16:47 11.08.2022
680 Clear 26 1023 37 10000 4.63 70 15:43 11.08.2022
681 Clear 26 1023 41 10000 4.12 70 14:36 11.08.2022
682 Clear 24 1023 51 10000 1.79 84 11:59 11.08.2022
683 Clear 18 1024 75 10000 1.03 0 09:22 11.08.2022
684 Clear 16 1023 82 10000 2.06 290 06:49 11.08.2022
685 Clear 16 1024 81 10000 2.06 200 02:38 11.08.2022
686 Clear 18 1024 73 10000 2.57 90 23:41 10.08.2022
687 Clear 21 1023 56 10000 3.09 140 21:47 10.08.2022
688 Clear 22 1024 55 10000 3.6 140 21:18 10.08.2022
689 Clear 23 1024 49 10000 3.6 60 20:35 10.08.2022
690 Clear 25 1024 47 10000 3.6 140 18:53 10.08.2022
691 Clouds 26 1025 44 10000 3.6 130 17:27 10.08.2022
692 Clouds 25 1026 44 10000 4.63 140 14:53 10.08.2022
693 Clear 26 1026 46 10000 3.09 270 13:33 10.08.2022
694 Clouds 20 1027 64 10000 3.09 300 10:50 10.08.2022
695 Clear 15 1027 80 10000 4.12 270 08:39 10.08.2022
696 Clear 14 1027 83 10000 3.6 270 07:35 10.08.2022
697 Clear 15 1027 82 10000 2.57 220 04:50 10.08.2022
698 Clear 14 1028 82 10000 2.06 200 01:52 10.08.2022
699 Clear 17 1029 71 10000 2.06 130 23:32 09.08.2022
700 Clear 18 1029 68 10000 2.57 130 22:45 09.08.2022
701 Clouds 21 1028 59 10000 3.09 130 21:24 09.08.2022
702 Clouds 23 1028 53 10000 4.12 110 19:33 09.08.2022
703 Smoke 24 1029 52 10000 4.63 110 17:53 09.08.2022
704 Clouds 24 1029 53 10000 4.02 110 17:26 09.08.2022
705 Clouds 24 1029 54 10000 4.63 140 16:33 09.08.2022
706 Clouds 24 1030 57 10000 4.12 120 15:26 09.08.2022
707 Clouds 22 1030 64 10000 2.57 270 12:20 09.08.2022
708 Clear 16 1030 81 10000 2.06 280 08:54 09.08.2022
709 Clear 14 1030 86 10000 2.57 260 07:59 09.08.2022
710 Clear 14 1029 84 10000 2.57 250 06:55 09.08.2022
711 Clouds 14 1030 83 10000 1.54 290 02:27 09.08.2022
712 Clear 15 1029 84 10000 2.06 150 23:26 08.08.2022
713 Clear 16 1029 80 10000 1.54 0 22:52 08.08.2022
714 Clouds 19 1029 68 10000 2.57 320 21:47 08.08.2022
715 Clouds 21 1028 61 10000 3.6 310 20:43 08.08.2022
716 Clouds 22 1028 60 10000 4.63 310 19:50 08.08.2022
717 Clouds 23 1028 56 10000 4.12 140 18:19 08.08.2022
718 Clouds 22 1028 52 10000 3.6 120 15:57 08.08.2022
719 Clouds 22 1028 56 10000 3.09 260 15:38 08.08.2022
720 Clouds 20 1028 65 10000 2.24 337 12:35 08.08.2022
721 Clouds 18 1029 71 10000 2.06 290 10:50 08.08.2022
722 Clear 13 1028 90 10000 3.09 270 08:20 08.08.2022
723 Clouds 12 1027 87 10000 2.06 260 05:33 08.08.2022
724 Clouds 15 1027 77 10000 4.12 260 01:47 08.08.2022
725 Clouds 19 1026 58 10000 4.12 290 21:49 07.08.2022
726 Clouds 21 1026 52 10000 4.12 290 21:30 07.08.2022
727 Clouds 22 1026 52 10000 4.12 280 20:25 07.08.2022
728 Clouds 22 1026 50 10000 4.63 280 19:53 07.08.2022
729 Clouds 22 1026 50 10000 5.14 270 19:24 07.08.2022
730 Clouds 22 1026 52 10000 5.14 290 17:58 07.08.2022
731 Clouds 22 1027 55 10000 4.63 290 16:53 07.08.2022
732 Clouds 21 1027 57 10000 5.81 290 15:45 07.08.2022
733 Clouds 20 1027 61 10000 5.66 280 14:32 07.08.2022
734 Clouds 19 1028 68 10000 6.17 260 12:41 07.08.2022
735 Clouds 16 1028 76 10000 6.69 260 10:53 07.08.2022
736 Clouds 16 1028 78 10000 6.17 260 10:21 07.08.2022
737 Clouds 12 1028 89 10000 4.63 230 04:41 07.08.2022
738 Clouds 13 1029 84 10000 4.63 240 02:35 07.08.2022
739 Clouds 17 1029 67 10000 4.63 270 22:40 06.08.2022
740 Clouds 18 1028 64 10000 5.66 280 22:18 06.08.2022
741 Clouds 20 1028 62 10000 6.69 270 19:48 06.08.2022
742 Clouds 19 1029 63 10000 5.36 270 18:50 06.08.2022
743 Clouds 20 1029 62 10000 6.17 250 17:52 06.08.2022
744 Clouds 20 1029 63 10000 5.66 270 16:30 06.08.2022
745 Clouds 19 1030 63 10000 5.66 250 13:52 06.08.2022
746 Clouds 19 1030 63 10000 5.66 270 12:46 06.08.2022
747 Clouds 16 1030 64 10000 4.02 275 11:21 06.08.2022
748 Clouds 15 1030 71 10000 3.09 240 09:49 06.08.2022
749 Clouds 9 1030 86 10000 3.6 220 07:35 06.08.2022
750 Clouds 10 1029 83 10000 3.09 270 01:59 06.08.2022
751 Clouds 15 1027 63 10000 3.6 300 22:37 05.08.2022
752 Clouds 17 1027 57 10000 4.12 290 21:34 05.08.2022
753 Clouds 19 1027 53 10000 5.14 320 19:20 05.08.2022
754 Clouds 19 1026 50 10000 5.66 290 18:44 05.08.2022
755 Clouds 18 1025 53 10000 6.71 300 16:53 05.08.2022
756 Clouds 18 1026 55 10000 7.2 290 15:55 05.08.2022
757 Clouds 17 1025 62 10000 6.17 310 15:19 05.08.2022
758 Clouds 15 1025 73 10000 6.17 290 13:39 05.08.2022
759 Clouds 15 1026 69 10000 7.2 300 13:20 05.08.2022
760 Clouds 16 1024 67 10000 6.17 290 12:23 05.08.2022
761 Clouds 13 1024 81 10000 5.66 270 10:25 05.08.2022
762 Clouds 11 1022 85 10000 5.66 220 07:58 05.08.2022
763 Clouds 10 1023 84 10000 4.63 240 05:20 05.08.2022
764 Clear 14 1022 70 10000 4.12 290 23:50 04.08.2022
765 Clouds 16 1020 55 10000 6.17 310 21:39 04.08.2022
766 Clouds 16 1020 55 10000 6.17 310 21:21 04.08.2022
767 Clouds 17 1020 53 10000 6.17 290 20:40 04.08.2022
768 Clouds 17 1020 53 10000 9.77 310 19:21 04.08.2022
769 Clouds 18 1019 49 10000 7.2 280 18:34 04.08.2022
770 Clouds 18 1019 53 10000 6.71 310 16:54 04.08.2022
771 Clouds 17 1018 58 10000 7.2 300 13:34 04.08.2022
772 Clouds 15 1018 68 10000 6.71 300 11:42 04.08.2022
773 Clouds 14 1018 76 10000 5.66 290 10:27 04.08.2022
774 Clouds 10 1017 88 10000 6.71 280 07:50 04.08.2022
775 Clouds 12 1014 86 10000 6.17 250 03:33 04.08.2022
776 Clouds 12 1014 84 10000 7.6 270 01:42 04.08.2022
777 Clouds 15 1013 87 10000 5.14 270 23:41 03.08.2022
778 Clouds 17 1012 82 10000 6.17 280 21:34 03.08.2022
779 Clouds 19 1011 69 10000 7.15 280 20:22 03.08.2022
780 Clouds 20 1011 66 10000 5.66 270 19:28 03.08.2022
781 Clouds 21 1010 62 10000 7.2 260 17:20 03.08.2022
782 Clouds 21 1011 65 10000 7.2 260 16:23 03.08.2022
783 Clouds 20 1010 70 10000 7.2 240 14:23 03.08.2022
784 Clouds 18 1009 71 10000 8.75 240 11:46 03.08.2022
785 Clouds 16 1008 82 10000 4.12 230 07:45 03.08.2022
786 Clouds 17 1007 77 10000 8.23 240 04:46 03.08.2022
787 Clouds 17 1007 75 10000 8.23 230 03:26 03.08.2022
788 Clouds 18 1008 76 10000 6.17 250 00:58 03.08.2022
789 Clouds 20 1007 76 10000 5.66 250 22:49 02.08.2022
790 Clouds 22 1007 70 10000 7.72 260 21:52 02.08.2022
791 Clouds 23 1007 62 10000 9.26 250 20:37 02.08.2022
792 Clouds 25 1007 65 10000 5.14 240 18:39 02.08.2022
793 Clouds 23 1008 72 10000 7.2 230 15:36 02.08.2022
794 Clouds 21 1008 82 10000 7.72 230 11:32 02.08.2022
795 Clouds 20 1008 87 8000 9.26 230 09:18 02.08.2022
796 Drizzle 19 1007 89 6000 9.26 230 07:52 02.08.2022
797 Drizzle 20 1007 88 10000 7.72 230 06:42 02.08.2022
798 Clouds 20 1009 88 10000 9.26 230 04:54 02.08.2022
799 Clouds 20 1009 86 10000 9.77 210 23:35 01.08.2022
800 Rain 20 1010 86 6000 10.29 210 22:23 01.08.2022
801 Clouds 21 1010 83 10000 9.77 210 20:52 01.08.2022
802 Rain 20 1011 85 10000 8.23 210 19:25 01.08.2022
803 Rain 20 1012 85 8000 7.2 200 18:30 01.08.2022
804 Rain 20 1013 82 10000 8.23 210 16:53 01.08.2022
805 Rain 21 1014 74 10000 7.2 210 15:52 01.08.2022
806 Clouds 21 1014 73 10000 7.2 210 15:30 01.08.2022
807 Clouds 21 1015 72 10000 6.69 200 14:20 01.08.2022
808 Clouds 20 1017 69 10000 2.06 190 11:50 01.08.2022
809 Clouds 16 1017 81 10000 1.03 310 09:40 01.08.2022
810 Mist 12 1018 93 1200 2.57 290 08:25 01.08.2022
811 Clouds 13 1018 86 10000 1.54 0 04:48 01.08.2022
812 Clouds 12 1019 88 10000 3.09 230 02:32 01.08.2022
813 Clouds 15 1019 89 10000 1.54 160 23:54 31.07.2022
814 Clouds 16 1019 84 10000 2.57 130 22:38 31.07.2022
815 Clouds 17 1019 79 10000 3.09 160 21:24 31.07.2022
816 Clouds 18 1019 75 10000 2.57 110 19:41 31.07.2022
817 Clouds 19 1018 75 10000 3.6 90 17:48 31.07.2022
818 Clouds 18 1018 80 10000 2.57 310 15:37 31.07.2022
819 Clouds 16 1018 90 10000 3.09 350 13:42 31.07.2022
820 Drizzle 15 1018 95 8000 2.57 320 11:55 31.07.2022
821 Clouds 14 1017 96 5000 3.09 350 09:43 31.07.2022
822 Clouds 13 1016 96 3500 3.6 50 07:38 31.07.2022
823 Drizzle 16 1014 95 5000 3.09 40 02:58 31.07.2022
824 Clouds 18 1014 94 5000 2.06 290 23:36 30.07.2022
825 Rain 19 1014 93 8000 2.06 250 22:19 30.07.2022
826 Rain 19 1014 94 8000 2.06 250 21:48 30.07.2022
827 Rain 19 1014 93 8000 3.09 260 20:57 30.07.2022
828 Rain 19 1014 92 8000 4.12 240 19:58 30.07.2022
829 Rain 20 1014 90 10000 6.17 240 18:53 30.07.2022
830 Rain 21 1014 84 10000 7.2 250 17:42 30.07.2022
831 Clouds 21 1015 79 10000 8.23 240 15:49 30.07.2022
832 Clouds 21 1015 82 10000 8.23 240 15:21 30.07.2022
833 Clouds 19 1015 89 10000 7.72 230 12:59 30.07.2022
834 Clouds 18 1015 91 10000 6.69 230 11:55 30.07.2022
835 Rain 17 1015 90 10000 6.17 230 10:31 30.07.2022
836 Rain 17 1015 90 10000 6.69 230 09:47 30.07.2022
837 Clouds 17 1014 89 10000 5.66 230 07:55 30.07.2022
838 Clouds 18 1015 83 10000 7.2 230 02:37 30.07.2022
839 Clouds 19 1015 82 10000 6.17 220 01:49 30.07.2022
840 Clouds 19 1016 77 10000 5.66 210 22:25 29.07.2022
841 Clouds 20 1016 74 10000 5.14 210 21:23 29.07.2022
842 Clouds 21 1016 70 10000 5.14 210 20:35 29.07.2022
843 Clouds 22 1017 64 10000 6.17 220 17:59 29.07.2022
844 Clouds 21 1017 67 10000 5.66 220 15:26 29.07.2022
845 Clouds 20 1018 71 10000 5.14 210 13:18 29.07.2022
846 Clouds 17 1018 81 10000 3.09 150 10:42 29.07.2022
847 Drizzle 15 1017 91 10000 2.06 110 08:50 29.07.2022
848 Clouds 14 1017 93 10000 1.03 0 07:54 29.07.2022
849 Clouds 12 1017 91 10000 2.57 180 01:47 29.07.2022
850 Clouds 15 1017 86 10000 2.06 100 22:49 28.07.2022
851 Clouds 18 1016 77 10000 2.06 150 21:00 28.07.2022
852 Clouds 18 1016 77 10000 1.54 0 20:31 28.07.2022
853 Clouds 17 1016 79 10000 2.57 80 19:43 28.07.2022
854 Clouds 17 1016 77 10000 2.57 80 18:50 28.07.2022
855 Clouds 18 1016 76 10000 2.57 70 17:43 28.07.2022
856 Clouds 18 1016 75 10000 3.6 70 16:51 28.07.2022
857 Clouds 18 1016 72 10000 4.12 70 15:30 28.07.2022
858 Clouds 18 1016 75 10000 3.6 60 12:58 28.07.2022
859 Clouds 16 1016 78 10000 3.6 90 10:36 28.07.2022
860 Clouds 13 1016 87 10000 2.57 40 06:25 28.07.2022
861 Clouds 13 1016 86 10000 1.54 0 05:27 28.07.2022
862 Clouds 13 1018 81 10000 2.06 100 00:49 28.07.2022
863 Clouds 14 1018 74 10000 3.09 100 22:40 27.07.2022
864 Rain 15 1018 70 10000 4.12 100 21:27 27.07.2022
865 Rain 16 1019 66 10000 4.63 100 19:41 27.07.2022
866 Rain 16 1019 62 10000 4.12 100 17:49 27.07.2022
867 Clouds 17 1020 61 10000 4.12 90 15:52 27.07.2022
868 Clouds 17 1020 59 10000 3.6 120 14:57 27.07.2022
869 Clouds 18 1020 58 10000 3.6 120 14:34 27.07.2022
870 Clouds 17 1021 66 10000 3.09 140 12:49 27.07.2022
871 Clouds 11 1021 89 10000 1.54 160 07:53 27.07.2022
872 Clouds 11 1021 89 10000 1.54 160 07:53 27.07.2022
873 Clouds 11 1021 86 10000 1.03 0 06:21 27.07.2022
874 Clouds 13 1023 79 10000 2.06 220 01:35 27.07.2022
875 Clouds 15 1022 66 10000 1.54 0 22:26 26.07.2022
876 Clouds 17 1022 61 10000 2.57 100 21:20 26.07.2022
877 Clouds 17 1022 54 10000 4.12 300 20:28 26.07.2022
878 Clouds 18 1023 54 10000 4.12 300 18:43 26.07.2022
879 Clouds 18 1023 54 10000 4.12 320 17:58 26.07.2022
880 Clouds 17 1023 56 10000 4.12 300 15:59 26.07.2022
881 Clouds 17 1023 56 10000 4.12 270 15:18 26.07.2022
882 Clouds 16 1023 57 10000 4.63 320 13:20 26.07.2022
883 Clouds 15 1023 67 10000 5.14 310 11:20 26.07.2022
884 Clouds 13 1022 81 10000 3.09 300 08:55 26.07.2022
885 Clouds 13 1021 83 10000 3.6 300 05:49 26.07.2022
886 Clouds 15 1020 76 10000 5.66 300 00:28 26.07.2022
887 Clouds 16 1019 73 10000 4.12 310 22:53 25.07.2022
888 Clouds 16 1019 71 10000 5.14 320 22:22 25.07.2022
889 Clouds 16 1018 68 10000 5.66 320 21:38 25.07.2022
890 Clouds 17 1017 68 10000 7.2 310 20:40 25.07.2022
891 Clouds 18 1016 62 10000 7.72 310 19:27 25.07.2022
892 Clouds 19 1015 57 10000 7.2 300 18:18 25.07.2022
893 Clouds 19 1015 57 10000 10.8 300 17:27 25.07.2022
894 Clouds 18 1013 70 10000 9.26 310 14:44 25.07.2022
895 Clouds 17 1011 77 10000 9.26 310 12:21 25.07.2022
896 Clouds 16 1008 83 10000 9.26 280 09:18 25.07.2022
897 Clouds 16 1004 88 10000 5.66 260 04:25 25.07.2022
898 Clouds 16 1003 89 10000 3.6 250 23:54 24.07.2022
899 Clouds 17 1003 87 10000 5.14 210 22:59 24.07.2022
900 Clouds 17 1002 83 7000 5.14 210 22:29 24.07.2022
901 Clouds 20 1002 74 10000 7.2 210 21:19 24.07.2022
902 Clouds 21 1002 70 10000 6.17 220 20:50 24.07.2022
903 Clouds 21 1002 67 10000 5.81 227 20:19 24.07.2022
904 Clouds 21 1002 69 5000 7.72 200 18:38 24.07.2022
905 Clouds 23 1002 63 10000 9.77 210 16:29 24.07.2022
906 Clouds 23 1003 64 10000 8.23 210 15:45 24.07.2022
907 Clouds 23 1003 64 10000 9.26 200 14:29 24.07.2022
908 Clouds 23 1005 63 10000 6.26 172 12:54 24.07.2022
909 Clouds 22 1006 68 10000 7.72 210 11:40 24.07.2022
910 Clouds 21 1006 70 10000 9.26 210 11:00 24.07.2022
911 Clouds 18 1007 79 10000 7.2 210 08:33 24.07.2022
912 Clouds 18 1007 81 10000 6.69 210 07:52 24.07.2022
913 Clouds 17 1008 83 10000 7.2 220 05:49 24.07.2022
914 Clouds 19 1007 81 10000 8.23 210 00:29 24.07.2022
915 Clouds 20 1006 82 10000 8.23 200 21:37 23.07.2022
916 Rain 21 1006 81 10000 7.2 200 20:19 23.07.2022
917 Clouds 23 1009 74 10000 8.23 200 18:50 23.07.2022
918 Clouds 24 1010 73 10000 8.75 200 17:28 23.07.2022
919 Clouds 23 1010 74 10000 7.2 210 16:35 23.07.2022
920 Clouds 22 1010 74 10000 8.75 200 15:22 23.07.2022
921 Clouds 22 1010 78 10000 10.29 200 14:58 23.07.2022
922 Clouds 20 1010 83 10000 10.29 200 14:27 23.07.2022
923 Clouds 19 1011 86 10000 8.23 200 12:44 23.07.2022
924 Clouds 18 1012 90 7000 4.63 150 10:45 23.07.2022
925 Clouds 17 1013 92 7000 4.63 200 10:21 23.07.2022
926 Rain 16 1014 92 6000 4.12 190 08:31 23.07.2022
927 Clouds 16 1016 84 10000 2.57 200 03:39 23.07.2022
928 Clouds 16 1017 81 10000 4.63 200 00:49 23.07.2022
929 Clouds 16 1018 76 10000 4.12 130 22:32 22.07.2022
930 Clouds 18 1018 69 10000 4.63 130 20:51 22.07.2022
931 Clouds 18 1018 64 10000 4.02 82 19:34 22.07.2022
932 Clouds 19 1019 64 10000 3.58 79 18:28 22.07.2022
933 Clouds 18 1019 65 10000 4.12 90 16:48 22.07.2022
934 Clouds 20 1019 58 10000 2.57 0 14:51 22.07.2022
935 Clouds 18 1021 66 10000 2.57 310 11:22 22.07.2022
936 Clouds 15 1021 81 10000 2.57 320 09:25 22.07.2022
937 Clouds 14 1021 84 10000 2.57 310 08:29 22.07.2022
938 Clouds 13 1022 86 10000 1.03 0 05:18 22.07.2022
939 Clouds 14 1023 73 10000 2.57 90 00:40 22.07.2022
940 Clouds 16 1023 69 10000 2.06 100 22:25 21.07.2022
941 Clouds 17 1024 66 10000 2.06 100 21:29 21.07.2022
942 Clouds 17 1024 63 10000 2.24 51 19:26 21.07.2022
943 Clouds 18 1024 60 10000 2.24 105 17:39 21.07.2022
944 Clouds 18 1025 59 10000 2.57 330 17:19 21.07.2022
945 Clouds 18 1025 60 10000 3.6 50 14:55 21.07.2022
946 Clouds 17 1025 62 10000 2.24 94 14:29 21.07.2022
947 Clouds 16 1025 71 10000 3.6 10 12:27 21.07.2022
948 Clouds 16 1025 68 10000 4.12 330 10:56 21.07.2022
949 Clouds 14 1025 79 10000 4.12 320 09:27 21.07.2022
950 Clouds 14 1025 80 10000 4.12 320 08:49 21.07.2022
951 Clouds 13 1025 83 10000 2.06 330 07:32 21.07.2022
952 Clouds 14 1024 67 10000 4.12 310 03:55 21.07.2022
953 Clouds 16 1024 73 10000 5.14 310 00:35 21.07.2022
954 Clouds 17 1023 67 10000 4.12 320 22:21 20.07.2022
955 Clouds 18 1022 63 10000 5.14 310 20:54 20.07.2022
956 Clouds 18 1021 64 10000 5.14 320 19:50 20.07.2022
957 Clouds 18 1021 66 10000 6.17 300 19:24 20.07.2022
958 Clouds 19 1021 65 10000 5.66 310 18:33 20.07.2022
959 Clouds 19 1021 66 10000 6.69 310 17:55 20.07.2022
960 Clouds 19 1020 63 10000 6.69 310 16:42 20.07.2022
961 Clouds 19 1020 63 10000 6.71 300 15:31 20.07.2022
962 Clouds 18 1019 67 10000 6.71 300 14:18 20.07.2022
963 Clouds 16 1018 70 10000 7.72 330 11:33 20.07.2022
964 Clouds 15 1017 80 10000 6.17 300 08:46 20.07.2022
965 Clouds 15 1014 83 10000 7.15 300 03:25 20.07.2022
966 Clouds 16 1013 92 9000 5.14 300 00:48 20.07.2022
967 Drizzle 17 1013 87 10000 6.17 300 23:41 19.07.2022
968 Clouds 20 1012 81 10000 5.66 310 22:31 19.07.2022
969 Clouds 21 1011 77 10000 5.14 300 21:23 19.07.2022
970 Clouds 23 1010 63 10000 5.66 310 20:27 19.07.2022
971 Clouds 23 1010 63 10000 5.14 100 18:43 19.07.2022
972 Clouds 24 1010 60 10000 5.14 100 17:57 19.07.2022
973 Clouds 26 1009 60 10000 2.68 38 16:37 19.07.2022
974 Thunderstorm 25 1010 65 8000 4.92 270 14:52 19.07.2022
975 Clear 24 1009 58 10000 4.12 270 11:39 19.07.2022
976 Clouds 24 1009 59 10000 2.06 50 10:47 19.07.2022
977 Clouds 21 1010 73 10000 1.03 0 09:22 19.07.2022
978 Clouds 19 1010 80 10000 1.03 0 08:32 19.07.2022
979 Clear 19 1010 78 10000 1.54 170 07:19 19.07.2022
980 Clouds 19 1012 77 10000 1.03 0 05:27 19.07.2022
981 Clouds 19 1012 76 10000 2.06 150 04:48 19.07.2022
982 Clouds 23 1012 61 10000 5.14 230 00:35 19.07.2022
983 Clouds 23 1013 64 10000 2.06 150 23:31 18.07.2022
984 Clouds 24 1013 58 10000 2.24 95 22:58 18.07.2022
985 Clouds 23 1012 61 10000 3.6 140 21:58 18.07.2022
986 Clouds 26 1013 59 10000 2.57 120 20:51 18.07.2022
987 Clouds 27 1013 55 10000 3.6 130 19:26 18.07.2022
988 Clouds 29 1015 47 10000 5.14 230 17:24 18.07.2022
989 Clouds 30 1015 40 10000 5.66 210 15:51 18.07.2022
990 Clouds 29 1016 41 10000 4.63 210 14:34 18.07.2022
991 Clouds 28 1016 45 10000 5.14 200 12:58 18.07.2022
992 Clouds 25 1016 51 10000 1.54 0 11:30 18.07.2022
993 Clear 20 1017 72 10000 1.03 0 08:57 18.07.2022
994 Clear 17 1017 77 10000 1.03 0 07:38 18.07.2022
995 Clear 21 1018 65 10000 6.17 230 01:24 18.07.2022
996 Clear 25 1018 49 10000 6.69 220 22:42 17.07.2022
997 Clear 26 1018 46 10000 7.2 220 21:57 17.07.2022
998 Clear 24 1017 59 10000 7.2 220 21:21 17.07.2022
999 Clear 24 1018 59 10000 6.69 230 20:44 17.07.2022
1000 Clear 25 1018 53 10000 8.75 210 19:32 17.07.2022
1001 Clear 27 1018 50 10000 6.69 220 18:30 17.07.2022
1002 Clear 27 1020 52 10000 5.66 210 17:38 17.07.2022
1003 Clear 27 1020 50 10000 7.2 220 16:51 17.07.2022
1004 Clear 27 1020 50 10000 7.2 220 16:51 17.07.2022
1005 Clear 27 1020 50 10000 7.2 220 16:26 17.07.2022
1006 Clear 26 1021 54 10000 5.66 140 14:44 17.07.2022
1007 Clear 24 1021 58 10000 4.63 150 13:31 17.07.2022
1008 Clouds 23 1021 61 10000 3.6 140 11:41 17.07.2022
1009 Clouds 18 1022 78 10000 1.54 0 09:24 17.07.2022
1010 Clouds 17 1023 79 10000 1.54 190 05:25 17.07.2022
1011 Clouds 18 1024 84 10000 2.06 60 02:32 17.07.2022
1012 Clouds 19 1024 75 10000 3.6 200 23:20 16.07.2022
1013 Clouds 21 1024 71 10000 3.09 100 21:32 16.07.2022
1014 Clouds 22 1024 67 10000 5.14 220 19:40 16.07.2022
1015 Clouds 22 1024 65 10000 5.14 110 18:32 16.07.2022
1016 Clouds 23 1024 63 10000 4.63 130 16:53 16.07.2022
1017 Clouds 22 1025 67 10000 4.12 110 13:56 16.07.2022
1018 Clouds 19 1025 74 10000 2.06 90 10:55 16.07.2022
1019 Clouds 17 1025 82 10000 2.06 150 09:33 16.07.2022
1020 Clouds 16 1025 86 10000 2.06 130 08:44 16.07.2022
1021 Clouds 15 1024 88 10000 2.06 140 08:23 16.07.2022
1022 Clouds 14 1025 89 10000 2.57 230 04:21 16.07.2022
1023 Clouds 14 1024 88 10000 2.57 100 02:49 16.07.2022
1024 Clouds 16 1025 80 10000 2.57 80 23:30 15.07.2022
1025 Clouds 17 1024 77 10000 3.6 80 22:40 15.07.2022
1026 Clouds 19 1024 71 10000 3.09 110 21:29 15.07.2022
1027 Clouds 20 1024 69 10000 2.57 300 20:26 15.07.2022
1028 Clouds 21 1024 61 10000 4.63 270 18:40 15.07.2022
1029 Clouds 21 1024 62 10000 5.14 290 17:37 15.07.2022
1030 Clouds 20 1024 66 10000 6.17 280 14:53 15.07.2022
1031 Clouds 19 1024 68 10000 6.69 270 12:58 15.07.2022
1032 Clouds 19 1024 74 10000 7.2 250 11:27 15.07.2022
1033 Clouds 16 1024 82 10000 6.69 260 09:44 15.07.2022
1034 Clouds 15 1024 80 10000 5.66 230 06:24 15.07.2022
1035 Clouds 16 1025 75 10000 4.63 270 00:53 15.07.2022
1036 Clouds 16 1025 75 10000 4.63 270 00:21 15.07.2022
1037 Clouds 18 1026 66 10000 4.63 270 22:50 14.07.2022
1038 Clouds 18 1026 68 10000 5.14 270 21:47 14.07.2022
1039 Clouds 19 1026 65 10000 6.71 280 21:29 14.07.2022
1040 Clouds 19 1026 60 10000 6.17 270 20:44 14.07.2022
1041 Clouds 20 1026 56 10000 6.17 270 20:21 14.07.2022
1042 Clouds 21 1026 52 10000 5.14 280 19:18 14.07.2022
1043 Clouds 20 1026 57 10000 5.14 280 16:23 14.07.2022
1044 Clouds 19 1026 59 10000 5.14 290 15:32 14.07.2022
1045 Clouds 18 1026 61 10000 5.66 310 13:59 14.07.2022
1046 Clouds 17 1026 63 10000 6.17 290 12:58 14.07.2022
1047 Clouds 17 1026 67 10000 6.71 290 11:47 14.07.2022
1048 Clouds 16 1026 70 10000 5.66 290 11:23 14.07.2022
1049 Clouds 15 1026 72 10000 6.17 290 10:24 14.07.2022
1050 Clouds 12 1026 87 10000 5.14 270 07:50 14.07.2022
1051 Clouds 13 1025 79 10000 5.14 260 01:26 14.07.2022
1052 Clouds 13 1024 82 10000 4.63 290 00:53 14.07.2022
1053 Clouds 17 1023 65 10000 5.66 270 22:33 13.07.2022
1054 Clouds 18 1024 65 10000 6.71 270 21:59 13.07.2022
1055 Clouds 19 1024 63 10000 6.71 280 21:18 13.07.2022
1056 Clouds 20 1024 53 10000 5.14 270 19:34 13.07.2022
1057 Clouds 20 1024 51 10000 6.71 280 17:51 13.07.2022
1058 Clouds 20 1025 52 10000 6.69 280 16:43 13.07.2022
1059 Clouds 19 1024 56 10000 6.69 290 15:24 13.07.2022
1060 Clouds 18 1025 58 10000 5.14 270 12:56 13.07.2022
1061 Clouds 18 1025 58 10000 5.14 270 12:56 13.07.2022
1062 Clouds 16 1025 65 10000 5.66 290 10:46 13.07.2022
1063 Clouds 16 1025 69 10000 6.17 290 10:25 13.07.2022
1064 Clouds 15 1025 71 10000 5.14 280 09:26 13.07.2022
1065 Clouds 13 1025 79 10000 5.14 280 07:52 13.07.2022
1066 Clouds 13 1023 79 10000 3.09 300 03:19 13.07.2022
1067 Clouds 17 1022 88 10000 4.63 290 23:52 12.07.2022
1068 Clouds 18 1021 87 10000 5.14 290 22:18 12.07.2022
1069 Clouds 20 1021 79 10000 6.17 290 21:34 12.07.2022
1070 Clouds 21 1021 74 10000 6.17 280 20:42 12.07.2022
1071 Clouds 22 1020 71 10000 6.17 270 19:36 12.07.2022
1072 Clouds 22 1020 70 10000 5.66 290 17:55 12.07.2022
1073 Clouds 23 1020 67 10000 6.69 240 16:20 12.07.2022
1074 Clouds 22 1020 68 10000 7.2 240 14:31 12.07.2022
1075 Clouds 21 1020 72 10000 6.69 220 13:21 12.07.2022
1076 Clouds 19 1020 77 10000 5.14 240 11:42 12.07.2022
1077 Rain 18 1020 80 10000 4.12 230 10:18 12.07.2022
1078 Rain 18 1020 84 10000 2.57 190 08:26 12.07.2022
1079 Clouds 17 1019 84 10000 3.09 190 07:38 12.07.2022
1080 Rain 18 1020 80 10000 2.24 200 05:42 12.07.2022
1081 Rain 20 1020 64 10000 4.63 210 03:29 12.07.2022
1082 Clear 20 1019 56 10000 6.17 230 23:42 11.07.2022
1083 Clear 21 1019 52 10000 7.2 220 22:31 11.07.2022
1084 Clear 23 1019 51 10000 7.2 210 20:54 11.07.2022
1085 Clear 24 1019 48 10000 7.2 210 20:25 11.07.2022
1086 Clear 26 1019 45 10000 7.2 230 18:38 11.07.2022
1087 Clear 27 1019 42 10000 6.69 210 17:55 11.07.2022
1088 Clear 26 1020 48 10000 6.69 190 16:22 11.07.2022
1089 Clear 25 1020 55 10000 7.2 200 14:49 11.07.2022
1090 Clear 23 1021 53 10000 4.12 210 12:18 11.07.2022
1091 Clouds 20 1022 69 10000 3.09 180 10:42 11.07.2022
1092 Clouds 19 1023 75 10000 3.09 220 09:54 11.07.2022
1093 Clouds 16 1022 90 10000 1.03 0 08:35 11.07.2022
1094 Clear 14 1023 90 10000 1.54 140 07:32 11.07.2022
1095 Clouds 15 1025 88 10000 2.06 120 00:47 11.07.2022
1096 Clear 16 1025 86 10000 3.58 110 23:48 10.07.2022
1097 Clouds 17 1025 81 10000 3.6 110 22:26 10.07.2022
1098 Clouds 19 1025 75 10000 5.14 110 20:55 10.07.2022
1099 Clouds 20 1025 72 10000 4.63 120 19:59 10.07.2022
1100 Clouds 20 1026 72 10000 4.92 96 19:21 10.07.2022
1101 Clouds 21 1026 68 10000 4.12 110 17:51 10.07.2022
1102 Clouds 21 1027 69 10000 4.12 110 16:59 10.07.2022
1103 Clouds 21 1027 68 10000 3.09 110 16:20 10.07.2022
1104 Clouds 21 1028 67 10000 4.63 90 14:43 10.07.2022
1105 Clouds 20 1028 69 10000 2.57 90 12:42 10.07.2022
1106 Clouds 19 1029 72 10000 3.09 100 11:36 10.07.2022
1107 Clouds 16 1029 89 10000 3.09 70 09:44 10.07.2022
1108 Clouds 16 1029 91 10000 1.79 110 08:43 10.07.2022
1109 Clouds 16 1030 91 9000 2.57 60 06:36 10.07.2022
1110 Clouds 18 1032 80 10000 3.6 280 23:44 09.07.2022
1111 Clouds 19 1032 75 10000 3.09 270 22:26 09.07.2022
1112 Clouds 20 1032 73 10000 4.12 320 21:40 09.07.2022
1113 Clouds 20 1032 72 10000 4.92 320 19:44 09.07.2022
1114 Clouds 21 1032 73 10000 4.63 280 18:26 09.07.2022
1115 Clouds 21 1033 71 10000 4.63 320 17:21 09.07.2022
1116 Clouds 20 1032 74 10000 4.12 310 15:58 09.07.2022
1117 Clouds 20 1033 74 10000 4.63 320 15:38 09.07.2022
1118 Clouds 20 1034 74 10000 4.63 300 14:22 09.07.2022
1119 Clouds 20 1034 76 10000 4.63 300 13:47 09.07.2022
1120 Clouds 19 1034 78 10000 5.66 320 11:45 09.07.2022
1121 Clouds 17 1034 84 10000 6.17 310 10:26 09.07.2022
1122 Clouds 16 1034 88 10000 6.17 290 09:38 09.07.2022
1123 Clouds 16 1034 90 10000 5.14 300 07:43 09.07.2022
1124 Clouds 16 1034 92 10000 3.6 280 04:41 09.07.2022
1125 Clouds 19 1034 78 10000 3.6 270 23:40 08.07.2022
1126 Clouds 20 1033 73 10000 4.63 270 22:18 08.07.2022
1127 Clouds 21 1033 71 10000 5.66 280 21:21 08.07.2022
1128 Clouds 21 1033 71 10000 4.63 270 20:35 08.07.2022
1129 Clouds 21 1034 71 10000 5.14 270 19:38 08.07.2022
1130 Clouds 21 1034 68 10000 4.63 290 17:45 08.07.2022
1131 Clouds 21 1034 68 10000 4.63 290 17:45 08.07.2022
1132 Clouds 21 1034 66 10000 5.66 290 16:24 08.07.2022
1133 Clouds 21 1034 69 10000 6.17 270 14:50 08.07.2022
1134 Clouds 17 1035 77 10000 6.69 270 12:31 08.07.2022
1135 Clouds 16 1035 82 10000 6.17 280 10:47 08.07.2022
1136 Clouds 15 1035 87 10000 6.17 280 09:58 08.07.2022
1137 Drizzle 14 1035 90 4000 4.63 290 06:59 08.07.2022
1138 Clouds 14 1034 92 10000 5.14 280 05:33 08.07.2022
1139 Clouds 17 1033 80 10000 3.6 310 00:30 08.07.2022
1140 Clouds 20 1033 66 10000 3.09 300 22:50 07.07.2022
1141 Clouds 21 1033 56 10000 3.6 290 21:46 07.07.2022
1142 Clouds 22 1033 66 10000 4.63 290 19:34 07.07.2022
1143 Clouds 22 1033 69 10000 6.17 300 17:43 07.07.2022
1144 Clouds 22 1032 71 10000 5.36 300 16:21 07.07.2022
1145 Clouds 22 1033 69 10000 5.14 310 13:40 07.07.2022
1146 Clouds 20 1032 70 10000 6.17 300 12:41 07.07.2022
1147 Clouds 19 1031 72 10000 5.14 280 12:22 07.07.2022
1148 Clouds 19 1032 73 10000 7.2 300 11:32 07.07.2022
1149 Clouds 18 1032 75 10000 7.2 290 10:45 07.07.2022
1150 Clouds 16 1032 79 10000 7.2 290 10:27 07.07.2022
1151 Clouds 15 1031 85 10000 6.71 300 08:40 07.07.2022
1152 Clouds 15 1029 88 10000 6.71 280 05:44 07.07.2022
1153 Clouds 16 1028 85 10000 4.47 311 23:54 06.07.2022
1154 Clouds 16 1028 85 10000 4.02 225 23:36 06.07.2022
1155 Clouds 16 1028 85 10000 9.77 280 23:18 06.07.2022
1156 Drizzle 16 1028 85 10000 9.77 280 22:46 06.07.2022
1157 Drizzle 17 1027 85 10000 10.29 280 22:28 06.07.2022
1158 Clouds 19 1027 79 10000 9.26 270 19:46 06.07.2022
1159 Clouds 19 1027 75 10000 8.75 270 18:45 06.07.2022
1160 Clouds 20 1027 73 10000 11.62 280 16:45 06.07.2022
1161 Clouds 20 1027 71 10000 10.8 270 15:39 06.07.2022
1162 Clouds 18 1028 74 10000 8.75 250 12:44 06.07.2022
1163 Clouds 18 1029 75 10000 8.23 270 11:49 06.07.2022
1164 Clouds 17 1029 81 10000 8.23 270 10:22 06.07.2022
1165 Clouds 15 1029 85 10000 6.17 250 08:42 06.07.2022
1166 Clouds 15 1029 87 10000 5.66 260 07:39 06.07.2022
1167 Clouds 15 1028 88 10000 6.17 270 05:37 06.07.2022
1168 Clouds 18 1029 82 10000 4.63 270 22:49 05.07.2022
1169 Clouds 18 1029 82 10000 5.14 280 22:27 05.07.2022
1170 Clouds 18 1028 80 10000 6.69 280 20:42 05.07.2022
1171 Clouds 19 1028 79 10000 5.66 280 19:44 05.07.2022
1172 Clouds 18 1028 80 10000 4.63 280 19:25 05.07.2022
1173 Clouds 19 1028 76 10000 7.2 290 17:48 05.07.2022
1174 Clouds 19 1027 73 10000 7.2 300 16:56 05.07.2022
1175 Clouds 19 1027 72 10000 5.66 290 15:38 05.07.2022
1176 Clouds 18 1027 77 10000 5.66 290 14:31 05.07.2022
1177 Drizzle 17 1026 79 10000 5.14 290 12:47 05.07.2022
1178 Drizzle 17 1026 80 10000 6.69 290 11:52 05.07.2022
1179 Clouds 16 1026 83 10000 6.69 290 10:42 05.07.2022
1180 Drizzle 14 1025 89 3500 5.66 280 09:24 05.07.2022
1181 Drizzle 14 1025 92 7000 5.66 270 07:52 05.07.2022
1182 Drizzle 13 1023 88 9000 5.66 230 05:29 05.07.2022
1183 Drizzle 13 1024 89 10000 6.17 240 04:24 05.07.2022
1184 Clouds 14 1024 73 10000 4.12 270 00:26 05.07.2022
1185 Clouds 14 1024 71 10000 4.63 270 23:31 04.07.2022
1186 Clouds 15 1023 68 10000 5.66 270 22:27 04.07.2022
1187 Clouds 16 1023 65 10000 8.23 280 21:41 04.07.2022
1188 Clouds 17 1022 64 10000 7.2 280 20:53 04.07.2022
1189 Clouds 17 1023 64 10000 8.23 290 20:33 04.07.2022
1190 Clouds 18 1022 62 10000 8.75 280 19:54 04.07.2022
1191 Clouds 18 1022 60 10000 8.23 280 19:35 04.07.2022
1192 Clouds 18 1022 62 10000 7.72 280 17:58 04.07.2022
1193 Clouds 16 1022 67 10000 7.72 280 15:58 04.07.2022
1194 Clouds 16 1022 67 10000 6.71 280 15:33 04.07.2022
1195 Clouds 15 1022 67 10000 6.71 280 13:29 04.07.2022
1196 Clouds 15 1022 69 10000 8.23 280 12:21 04.07.2022
1197 Clouds 13 1021 85 10000 6.69 270 10:34 04.07.2022
1198 Clouds 13 1021 82 10000 7.72 260 09:41 04.07.2022
1199 Clouds 12 1020 84 10000 7.2 240 07:33 04.07.2022
1200 Clouds 12 1020 83 10000 4.63 250 03:36 04.07.2022
1201 Clouds 14 1021 77 10000 7.72 270 00:35 04.07.2022
1202 Clouds 14 1021 73 10000 7.72 270 22:58 03.07.2022
1203 Clouds 16 1020 65 10000 7.2 270 20:58 03.07.2022
1204 Clouds 17 1020 64 10000 6.71 270 20:26 03.07.2022
1205 Clouds 17 1020 64 10000 6.17 270 19:27 03.07.2022
1206 Clouds 17 1021 64 10000 6.69 260 18:35 03.07.2022
1207 Clouds 18 1021 60 10000 7.72 270 17:43 03.07.2022
1208 Clouds 17 1021 65 10000 7.72 270 15:49 03.07.2022
1209 Clouds 17 1021 69 10000 6.71 280 14:58 03.07.2022
1210 Clouds 16 1021 70 10000 5.66 270 14:18 03.07.2022
1211 Clouds 15 1021 75 10000 5.66 270 13:48 03.07.2022
1212 Clouds 14 1021 78 10000 8.23 300 12:33 03.07.2022
1213 Clouds 15 1020 77 10000 7.2 290 11:20 03.07.2022
1214 Clouds 14 1020 80 10000 7.2 290 10:38 03.07.2022
1215 Clouds 13 1019 84 10000 7.2 270 09:31 03.07.2022
1216 Clouds 12 1018 89 10000 5.66 250 07:34 03.07.2022
1217 Clouds 13 1017 90 10000 6.69 280 02:49 03.07.2022
1218 Clouds 14 1016 86 7000 4.12 220 00:20 03.07.2022
1219 Clouds 15 1016 86 10000 5.14 300 22:33 02.07.2022
1220 Clouds 18 1014 68 10000 5.66 260 20:50 02.07.2022
1221 Clouds 19 1015 63 10000 6.69 250 19:52 02.07.2022
1222 Clouds 19 1014 67 10000 6.69 250 19:20 02.07.2022
1223 Clouds 18 1014 68 10000 4.63 240 17:41 02.07.2022
1224 Clouds 17 1014 74 10000 9.77 270 16:49 02.07.2022
1225 Clouds 17 1015 65 10000 5.14 260 13:52 02.07.2022
1226 Clouds 16 1014 72 10000 5.66 240 12:19 02.07.2022
1227 Clouds 14 1014 79 10000 5.66 240 11:26 02.07.2022
1228 Clouds 15 1014 77 10000 6.69 240 10:37 02.07.2022
1229 Clouds 13 1013 84 10000 7.2 230 08:55 02.07.2022
1230 Clouds 12 1013 85 10000 7.2 230 08:20 02.07.2022
1231 Clouds 12 1012 87 10000 6.17 220 06:59 02.07.2022
1232 Clouds 12 1012 89 10000 4.63 240 01:44 02.07.2022
1233 Clouds 14 1011 92 10000 4.12 240 23:37 01.07.2022
1234 Rain 15 1011 87 5000 5.66 260 22:41 01.07.2022
1235 Clouds 16 1010 82 6000 7.2 210 21:47 01.07.2022
1236 Clouds 17 1010 79 10000 7.2 210 21:27 01.07.2022
1237 Rain 17 1010 81 10000 7.2 210 20:38 01.07.2022
1238 Rain 17 1010 78 10000 8.23 200 19:42 01.07.2022
1239 Clouds 15 1011 85 10000 6.69 210 17:53 01.07.2022
1240 Clouds 16 1012 69 10000 6.69 210 15:50 01.07.2022
1241 Clouds 17 1012 69 10000 6.17 230 13:54 01.07.2022
1242 Clouds 16 1013 75 10000 4.63 240 11:56 01.07.2022
1243 Clouds 14 1013 89 6000 4.12 240 10:20 01.07.2022
1244 Clouds 13 1013 92 10000 4.12 260 09:31 01.07.2022
1245 Clouds 13 1013 87 10000 4.63 240 03:42 01.07.2022
1246 Clouds 14 1013 81 10000 4.63 260 00:26 01.07.2022
1247 Clouds 15 1012 67 10000 3.6 240 22:58 30.06.2022
1248 Clouds 15 1012 71 10000 3.6 240 22:33 30.06.2022
1249 Clouds 16 1012 70 10000 4.12 270 21:59 30.06.2022
1250 Clouds 16 1012 70 10000 4.12 270 21:41 30.06.2022
1251 Clouds 18 1012 63 10000 5.14 280 20:29 30.06.2022
1252 Clouds 17 1011 61 10000 5.14 270 19:54 30.06.2022
1253 Clouds 18 1011 62 10000 4.12 260 19:19 30.06.2022
1254 Clouds 18 1011 61 10000 4.63 280 18:42 30.06.2022
1255 Clouds 18 1011 63 10000 3.09 260 17:43 30.06.2022
1256 Clouds 16 1011 69 10000 5.66 280 16:48 30.06.2022
1257 Clouds 16 1011 74 10000 3.6 260 15:38 30.06.2022
1258 Clouds 16 1010 71 10000 3.6 300 13:34 30.06.2022
1259 Clouds 15 1010 80 10000 3.6 310 12:35 30.06.2022
1260 Clouds 14 1010 82 10000 4.12 290 11:37 30.06.2022
1261 Rain 13 1010 90 10000 4.12 280 09:55 30.06.2022
1262 Rain 13 1010 90 10000 4.12 280 09:34 30.06.2022
1263 Rain 12 1009 91 10000 3.6 300 08:18 30.06.2022
1264 Rain 13 1009 91 10000 3.09 300 07:18 30.06.2022
1265 Clouds 14 1009 85 10000 3.09 260 01:42 30.06.2022
1266 Clouds 15 1009 79 10000 2.57 250 23:34 29.06.2022
1267 Clouds 15 1008 82 10000 2.06 270 22:40 29.06.2022
1268 Clouds 16 1008 73 7000 4.63 270 21:39 29.06.2022
1269 Clouds 16 1007 73 8000 4.63 290 20:34 29.06.2022
1270 Clouds 18 1007 69 10000 6.17 250 19:37 29.06.2022
1271 Clouds 17 1007 72 10000 3.6 270 17:45 29.06.2022
1272 Clouds 18 1007 71 10000 5.66 260 16:43 29.06.2022
1273 Clouds 19 1007 59 10000 5.14 270 15:26 29.06.2022
1274 Clouds 17 1007 62 10000 4.63 240 12:47 29.06.2022
1275 Clouds 16 1007 73 10000 4.63 220 11:32 29.06.2022
1276 Clouds 14 1006 79 10000 4.63 240 09:33 29.06.2022
1277 Clouds 13 1006 82 10000 5.14 230 08:26 29.06.2022
1278 Clouds 13 1006 80 10000 3.6 190 04:57 29.06.2022
1279 Clouds 13 1006 78 10000 7.72 200 01:41 29.06.2022
1280 Clouds 14 1006 76 10000 8.23 200 00:36 29.06.2022
1281 Clouds 15 1005 75 10000 6.17 200 22:55 28.06.2022
1282 Clouds 15 1006 73 10000 6.17 200 22:34 28.06.2022
1283 Clouds 16 1005 69 10000 6.69 180 21:55 28.06.2022
1284 Clouds 17 1005 69 10000 6.69 180 21:33 28.06.2022
1285 Clouds 17 1005 67 10000 8.23 190 20:50 28.06.2022
1286 Clouds 19 1005 61 10000 9.26 190 19:34 28.06.2022
1287 Clouds 19 1004 62 10000 9.26 210 18:53 28.06.2022
1288 Clouds 20 1004 60 10000 9.26 200 17:42 28.06.2022
1289 Clouds 18 1004 67 10000 10.8 200 16:21 28.06.2022
1290 Clouds 19 1004 66 10000 10.8 190 15:42 28.06.2022
1291 Clouds 18 1004 72 10000 10.29 200 14:21 28.06.2022
1292 Clouds 18 1004 77 8000 9.77 200 13:54 28.06.2022
1293 Clouds 16 1004 91 4000 8.75 200 12:57 28.06.2022
1294 Clouds 15 1004 89 9000 10.8 180 11:21 28.06.2022
1295 Rain 14 1005 89 10000 9.77 170 09:36 28.06.2022
1296 Rain 14 1006 89 10000 9.26 180 08:44 28.06.2022
1297 Rain 14 1006 87 10000 10.29 180 07:43 28.06.2022
1298 Rain 14 1007 87 10000 10.29 180 07:19 28.06.2022
1299 Rain 14 1010 79 10000 8.23 200 01:32 28.06.2022
1300 Clouds 14 1011 73 10000 9.26 210 23:44 27.06.2022
1301 Clouds 14 1011 72 10000 7.72 210 22:54 27.06.2022
1302 Clouds 14 1012 71 10000 8.75 210 21:38 27.06.2022
1303 Clouds 15 1012 70 10000 6.69 210 20:53 27.06.2022
1304 Drizzle 15 1012 68 10000 8.23 200 19:36 27.06.2022
1305 Clouds 17 1012 60 10000 8.23 210 18:26 27.06.2022
1306 Clouds 17 1013 57 10000 7.72 220 16:36 27.06.2022
1307 Clouds 17 1013 58 10000 6.17 220 15:24 27.06.2022
1308 Clouds 15 1012 63 10000 4.63 240 13:39 27.06.2022
1309 Clouds 14 1013 67 10000 7.2 260 12:56 27.06.2022
1310 Clouds 14 1012 72 10000 5.66 240 10:35 27.06.2022
1311 Clouds 12 1012 78 10000 6.17 250 09:21 27.06.2022
1312 Clouds 11 1011 83 10000 6.17 240 08:30 27.06.2022
1313 Clouds 10 1010 85 10000 6.69 240 06:39 27.06.2022
1314 Clouds 11 1008 85 10000 6.17 250 03:55 27.06.2022
1315 Clouds 13 1007 86 10000 6.17 250 00:56 27.06.2022
1316 Clouds 15 1005 74 10000 5.66 240 22:22 26.06.2022
1317 Clouds 16 1004 71 10000 8.75 250 20:48 26.06.2022
1318 Clouds 16 1003 76 10000 7.2 260 19:42 26.06.2022
1319 Clouds 15 1002 87 10000 5.66 230 18:31 26.06.2022
1320 Clouds 17 1001 77 10000 10.29 210 16:47 26.06.2022
1321 Clouds 17 1001 73 10000 8.75 220 15:26 26.06.2022
1322 Clouds 18 1000 69 10000 10.8 210 13:41 26.06.2022
1323 Clouds 18 999 69 10000 10.8 210 13:20 26.06.2022
1324 Clouds 14 999 79 10000 8.75 200 11:26 26.06.2022
1325 Clouds 13 999 85 10000 7.72 210 10:28 26.06.2022
1326 Clouds 13 998 88 10000 8.75 200 09:34 26.06.2022
1327 Rain 12 996 91 8000 6.69 200 07:44 26.06.2022
1328 Rain 12 998 80 10000 9.77 180 02:28 26.06.2022
1329 Rain 12 997 80 10000 4.63 150 00:21 26.06.2022
1330 Rain 12 997 79 10000 8.23 170 23:49 25.06.2022
1331 Clouds 12 998 77 10000 8.23 170 23:20 25.06.2022
1332 Clouds 12 998 77 10000 9.77 180 22:27 25.06.2022
1333 Clouds 13 998 74 10000 8.23 190 21:40 25.06.2022
1334 Clouds 13 998 71 10000 8.23 190 21:18 25.06.2022
1335 Clouds 15 998 68 10000 8.75 190 20:27 25.06.2022
1336 Clouds 15 998 67 10000 10.8 190 19:21 25.06.2022
1337 Clouds 15 998 69 10000 11.83 180 17:57 25.06.2022
1338 Rain 14 998 73 10000 11.83 180 17:22 25.06.2022
1339 Rain 17 998 61 10000 9.77 190 15:36 25.06.2022
1340 Clouds 16 998 64 10000 10.29 200 13:34 25.06.2022
1341 Clouds 17 998 58 10000 8.75 200 12:38 25.06.2022
1342 Clouds 13 998 68 10000 7.72 200 10:34 25.06.2022
1343 Clouds 12 998 76 10000 7.2 210 08:59 25.06.2022
1344 Clouds 12 998 78 10000 7.2 210 08:36 25.06.2022
1345 Clouds 11 997 81 10000 7.72 210 07:54 25.06.2022
1346 Drizzle 12 993 85 10000 11.32 220 03:33 25.06.2022
1347 Clouds 13 992 90 10000 4.63 130 00:34 25.06.2022
1348 Clouds 14 993 89 10000 3.6 140 22:53 24.06.2022
1349 Clouds 16 993 85 8000 8.23 170 21:41 24.06.2022
1350 Clouds 15 993 89 8000 6.17 140 20:45 24.06.2022
1351 Clouds 15 993 87 10000 7.2 140 20:18 24.06.2022
1352 Clouds 16 993 85 10000 6.17 130 19:21 24.06.2022
1353 Rain 16 993 83 10000 5.66 120 18:48 24.06.2022
1354 Drizzle 16 994 82 10000 7.72 150 18:30 24.06.2022
1355 Clouds 16 996 79 10000 7.72 150 17:19 24.06.2022
1356 Clouds 17 997 76 10000 7.72 160 15:29 24.06.2022
1357 Clouds 17 997 72 10000 6.17 160 14:27 24.06.2022
1358 Clouds 17 998 72 10000 5.14 140 13:55 24.06.2022
1359 Clouds 18 999 73 10000 5.66 150 11:44 24.06.2022
1360 Clouds 18 999 74 10000 4.63 150 10:55 24.06.2022
1361 Clouds 17 1000 76 10000 6.17 180 09:49 24.06.2022
1362 Clouds 16 1000 76 10000 4.63 210 09:27 24.06.2022
1363 Clouds 16 1000 77 10000 6.17 190 08:51 24.06.2022
1364 Clouds 14 1001 90 10000 5.14 210 06:48 24.06.2022
1365 Clouds 13 1001 91 10000 5.14 210 06:30 24.06.2022
1366 Clouds 12 1001 90 10000 2.06 220 05:52 24.06.2022
1367 Clouds 16 1003 83 10000 3.09 250 01:21 24.06.2022
1368 Clouds 18 1004 77 10000 2.57 230 22:44 23.06.2022
1369 Clouds 21 1006 71 10000 0.51 360 21:54 23.06.2022
1370 Clouds 21 1006 68 10000 2.06 300 20:54 23.06.2022
1371 Clouds 20 1005 70 10000 2.06 300 20:32 23.06.2022
1372 Clouds 20 1005 73 10000 3.09 80 18:44 23.06.2022
1373 Clouds 20 1006 75 10000 3.09 90 17:44 23.06.2022
1374 Clouds 20 1007 76 10000 3.6 90 16:34 23.06.2022
1375 Clouds 20 1008 75 10000 3.09 80 15:29 23.06.2022
1376 Clouds 20 1008 75 10000 3.6 230 14:59 23.06.2022
1377 Clouds 19 1009 75 10000 3.6 280 12:39 23.06.2022
1378 Clouds 18 1010 79 10000 3.6 280 11:19 23.06.2022
1379 Clouds 15 1010 84 10000 2.57 250 09:20 23.06.2022
1380 Clouds 15 1011 88 10000 3.09 270 05:51 23.06.2022
1381 Clouds 17 1013 83 10000 2.06 210 01:22 23.06.2022
1382 Clouds 17 1013 83 10000 1.54 150 00:25 23.06.2022
1383 Clouds 17 1013 82 10000 1.03 0 23:22 22.06.2022
1384 Clouds 19 1013 76 10000 2.06 140 21:45 22.06.2022
1385 Clouds 19 1013 74 10000 2.57 150 20:52 22.06.2022
1386 Clouds 20 1013 74 10000 2.57 140 20:20 22.06.2022
1387 Clouds 20 1014 72 10000 2.57 140 19:44 22.06.2022
1388 Clouds 20 1014 73 10000 3.09 270 17:50 22.06.2022
1389 Clouds 19 1015 75 10000 3.09 290 16:50 22.06.2022
1390 Clouds 18 1015 78 10000 3.6 280 15:46 22.06.2022
1391 Clouds 19 1015 78 10000 3.09 290 15:22 22.06.2022
1392 Clouds 18 1015 81 10000 1.03 0 13:50 22.06.2022
1393 Clouds 18 1016 81 10000 1.54 0 13:25 22.06.2022
1394 Drizzle 17 1016 85 8000 1.54 0 12:37 22.06.2022
1395 Drizzle 17 1016 90 6000 1.03 0 11:46 22.06.2022
1396 Clouds 16 1016 88 4000 1.54 0 10:53 22.06.2022
1397 Clouds 16 1016 88 4000 2.06 280 09:44 22.06.2022
1398 Clouds 15 1016 88 10000 2.06 100 07:51 22.06.2022
1399 Clouds 16 1016 86 10000 1.03 60 02:56 22.06.2022
1400 Clouds 16 1016 84 10000 1.54 60 01:21 22.06.2022
1401 Clouds 17 1016 81 10000 2.06 80 23:19 21.06.2022
1402 Clouds 17 1015 79 10000 2.06 80 21:25 21.06.2022
1403 Clouds 18 1015 74 10000 2.57 100 19:43 21.06.2022
1404 Clouds 17 1015 77 10000 3.09 90 17:57 21.06.2022
1405 Clouds 17 1015 80 10000 3.6 50 16:52 21.06.2022
1406 Clouds 17 1015 76 10000 3.6 250 12:36 21.06.2022
1407 Clouds 16 1015 80 10000 4.63 280 10:55 21.06.2022
1408 Clouds 15 1015 82 10000 4.63 270 09:40 21.06.2022
1409 Clouds 13 1015 84 6000 3.13 291 07:56 21.06.2022
1410 Clouds 13 1015 81 10000 3.6 230 05:33 21.06.2022
1411 Clouds 14 1017 78 10000 3.6 240 00:35 21.06.2022
1412 Clouds 18 1018 71 10000 2.06 140 22:22 20.06.2022
1413 Clouds 18 1018 68 10000 3.6 290 21:41 20.06.2022
1414 Clouds 20 1019 61 10000 3.6 140 20:30 20.06.2022
1415 Clouds 20 1019 60 10000 3.6 140 19:37 20.06.2022
1416 Clouds 21 1019 58 10000 4.12 150 18:44 20.06.2022
1417 Clouds 20 1020 59 10000 3.6 130 17:50 20.06.2022
1418 Clouds 20 1020 61 10000 3.09 150 16:55 20.06.2022
1419 Clouds 20 1021 61 10000 4.12 90 15:52 20.06.2022
1420 Clouds 18 1022 63 10000 3.09 270 12:38 20.06.2022
1421 Clouds 14 1023 74 10000 2.06 300 10:32 20.06.2022
1422 Clouds 11 1022 84 10000 3.6 300 08:56 20.06.2022
1423 Clouds 11 1022 85 10000 3.09 270 08:20 20.06.2022
1424 Clouds 8 1021 91 10000 2.57 260 05:35 20.06.2022
1425 Clouds 10 1021 76 10000 5.14 340 01:33 20.06.2022
1426 Clouds 12 1021 74 10000 5.66 340 00:25 20.06.2022
1427 Clouds 13 1020 69 10000 5.14 360 22:46 19.06.2022
1428 Clouds 14 1020 66 10000 7.2 10 21:51 19.06.2022
1429 Clouds 15 1020 65 10000 8.23 10 21:31 19.06.2022
1430 Clouds 16 1019 61 10000 8.23 10 20:38 19.06.2022
1431 Clouds 16 1019 60 10000 8.23 30 19:47 19.06.2022
1432 Clouds 16 1019 62 10000 8.75 10 18:43 19.06.2022
1433 Clouds 17 1019 60 10000 9.26 10 17:48 19.06.2022
1434 Clouds 17 1019 61 10000 9.26 10 17:22 19.06.2022
1435 Clouds 17 1019 63 10000 5.66 30 16:34 19.06.2022
1436 Clouds 16 1019 67 10000 5.14 340 15:41 19.06.2022
1437 Clouds 16 1019 66 10000 6.69 10 14:56 19.06.2022
1438 Clouds 17 1019 64 10000 6.26 356 14:19 19.06.2022
1439 Clouds 15 1018 70 10000 7.6 330 12:56 19.06.2022
1440 Clouds 14 1018 76 10000 6.17 320 10:55 19.06.2022
1441 Clouds 12 1018 81 10000 5.36 310 09:46 19.06.2022
1442 Clouds 12 1019 83 10000 4.63 300 08:47 19.06.2022
1443 Clouds 11 1018 86 10000 4.63 290 07:51 19.06.2022
1444 Clouds 11 1018 84 10000 4.63 270 05:36 19.06.2022
1445 Clouds 10 1020 76 10000 4.63 270 01:29 19.06.2022
1446 Clouds 10 1020 75 10000 4.12 270 00:24 19.06.2022
1447 Clouds 11 1020 68 10000 4.63 300 23:36 18.06.2022
1448 Clouds 13 1020 58 10000 6.17 300 22:36 18.06.2022
1449 Clouds 16 1019 55 10000 5.66 300 20:56 18.06.2022
1450 Clouds 16 1019 53 10000 5.14 290 20:38 18.06.2022
1451 Clouds 16 1019 56 10000 6.17 300 19:38 18.06.2022
1452 Clouds 15 1020 60 10000 6.69 280 18:45 18.06.2022
1453 Clouds 16 1021 62 10000 5.66 270 17:34 18.06.2022
1454 Clouds 15 1021 62 10000 6.69 280 16:47 18.06.2022
1455 Clouds 15 1021 61 10000 6.17 300 15:31 18.06.2022
1456 Clouds 14 1022 65 10000 5.14 290 14:44 18.06.2022
1457 Clouds 14 1023 65 10000 6.17 290 13:22 18.06.2022
1458 Clouds 14 1023 63 10000 5.14 290 11:39 18.06.2022
1459 Clouds 14 1023 69 10000 5.66 290 10:46 18.06.2022
1460 Clouds 12 1023 77 10000 5.14 280 09:23 18.06.2022
1461 Clouds 11 1022 79 10000 4.12 270 08:24 18.06.2022
1462 Clouds 10 1022 84 10000 3.09 270 06:46 18.06.2022
1463 Clouds 11 1022 84 10000 3.6 320 03:30 18.06.2022
1464 Clouds 14 1021 79 10000 4.63 330 01:25 18.06.2022
1465 Clouds 14 1022 79 10000 5.66 330 00:46 18.06.2022
1466 Clouds 15 1020 81 10000 3.09 300 23:52 17.06.2022
1467 Clouds 16 1020 78 10000 3.09 320 23:20 17.06.2022
1468 Clouds 18 1019 78 10000 5.66 280 20:55 17.06.2022
1469 Clouds 18 1019 83 10000 5.66 280 19:31 17.06.2022
1470 Clouds 19 1018 80 10000 5.14 270 18:44 17.06.2022
1471 Clouds 19 1018 79 10000 5.66 260 17:43 17.06.2022
1472 Clouds 20 1017 77 10000 5.14 260 16:43 17.06.2022
1473 Clouds 20 1017 80 10000 6.17 260 15:43 17.06.2022
1474 Clouds 20 1017 75 10000 6.17 260 15:20 17.06.2022
1475 Clouds 19 1016 79 10000 5.66 270 14:20 17.06.2022
1476 Clouds 19 1016 80 10000 7.2 260 13:45 17.06.2022
1477 Clouds 19 1016 76 10000 4.63 240 12:54 17.06.2022
1478 Clouds 19 1015 73 10000 8.23 260 11:57 17.06.2022
1479 Clouds 20 1015 70 10000 7.2 240 11:36 17.06.2022
1480 Clouds 20 1014 68 10000 6.69 230 10:51 17.06.2022
1481 Clouds 20 1013 62 10000 6.69 230 08:30 17.06.2022
1482 Clouds 19 1013 62 10000 9.26 210 07:30 17.06.2022
1483 Clouds 20 1014 41 10000 8.75 220 05:51 17.06.2022
1484 Clouds 16 1015 75 10000 5.66 220 02:52 17.06.2022
1485 Clouds 17 1017 63 10000 6.17 210 00:42 17.06.2022
1486 Clouds 17 1017 63 10000 6.17 210 00:42 17.06.2022
1487 Clouds 18 1017 64 10000 5.66 210 22:45 16.06.2022
1488 Clouds 19 1017 60 10000 4.63 200 21:58 16.06.2022
1489 Clouds 20 1018 66 10000 0.89 162 21:18 16.06.2022
1490 Clouds 20 1018 61 10000 2.24 168 20:49 16.06.2022
1491 Clouds 22 1018 53 10000 4.12 210 19:57 16.06.2022
1492 Clouds 23 1019 52 10000 4.63 210 18:34 16.06.2022
1493 Clouds 23 1019 58 10000 6.17 220 17:44 16.06.2022
1494 Clouds 23 1019 57 10000 4.63 140 16:46 16.06.2022
1495 Clouds 20 1020 63 10000 5.14 240 15:37 16.06.2022
1496 Clouds 23 1020 62 10000 4.12 150 15:18 16.06.2022
1497 Clouds 21 1020 66 10000 3.6 140 13:46 16.06.2022
1498 Clouds 21 1020 66 10000 4.12 210 12:38 16.06.2022
1499 Clouds 20 1020 67 10000 4.63 220 11:54 16.06.2022
1500 Clouds 19 1020 73 10000 4.12 240 11:19 16.06.2022
1501 Clouds 19 1020 73 10000 2.57 100 10:34 16.06.2022
1502 Clouds 17 1020 79 10000 2.06 90 09:26 16.06.2022
1503 Clouds 15 1021 83 10000 1.03 0 08:46 16.06.2022
1504 Clouds 13 1021 91 10000 1.03 150 07:29 16.06.2022
1505 Clouds 12 1021 90 10000 2.57 190 05:42 16.06.2022
1506 Clouds 13 1020 88 10000 1.54 0 02:54 16.06.2022
1507 Clouds 12 1020 90 10000 3.6 210 01:51 16.06.2022
1508 Clouds 13 1020 88 10000 1.03 0 01:22 16.06.2022
1509 Clouds 14 1020 83 10000 1.54 340 23:56 15.06.2022
1510 Clouds 14 1020 83 10000 1.54 340 23:56 15.06.2022
1511 Clouds 15 1019 80 10000 1.03 0 22:47 15.06.2022
1512 Clouds 18 1019 65 10000 3.6 140 21:29 15.06.2022
1513 Clouds 19 1019 64 10000 4.12 130 20:57 15.06.2022
1514 Clouds 19 1019 61 10000 4.63 140 20:35 15.06.2022
1515 Clouds 20 1019 61 10000 5.14 140 19:49 15.06.2022
1516 Clouds 19 1019 58 10000 4.63 140 18:30 15.06.2022
1517 Clouds 19 1019 59 10000 4.63 140 17:42 15.06.2022
1518 Clouds 19 1019 63 10000 4.12 120 16:20 15.06.2022
1519 Clouds 19 1020 62 10000 3.6 130 14:33 15.06.2022
1520 Clouds 18 1019 65 10000 2.68 93 13:20 15.06.2022
1521 Clouds 18 1019 64 10000 2.24 100 12:39 15.06.2022
1522 Clouds 18 1019 64 10000 1.79 74 11:22 15.06.2022
1523 Clouds 16 1019 67 10000 2.57 300 10:21 15.06.2022
1524 Clouds 14 1019 75 10000 2.57 270 08:58 15.06.2022
1525 Clouds 11 1019 82 10000 2.06 250 07:32 15.06.2022
1526 Clouds 11 1018 79 10000 3.09 220 05:24 15.06.2022
1527 Clouds 13 1019 76 10000 4.12 210 02:31 15.06.2022
1528 Clouds 12 1019 81 10000 4.63 190 01:36 15.06.2022
1529 Clouds 12 1019 81 10000 3.09 210 00:18 15.06.2022
1530 Clouds 12 1019 79 10000 3.09 190 23:38 14.06.2022
1531 Clouds 13 1019 77 10000 3.09 220 22:45 14.06.2022
1532 Clouds 15 1019 71 10000 3.6 180 21:43 14.06.2022
1533 Clouds 16 1019 64 10000 4.02 140 20:58 14.06.2022
1534 Clouds 16 1019 64 10000 5.14 150 20:36 14.06.2022
1535 Clouds 17 1019 61 10000 4.63 140 19:32 14.06.2022
1536 Clouds 17 1019 61 10000 4.63 140 18:32 14.06.2022
1537 Clouds 18 1019 57 10000 5.14 140 16:50 14.06.2022
1538 Clouds 17 1020 63 10000 5.14 140 15:52 14.06.2022
1539 Clouds 17 1020 59 10000 4.63 130 15:34 14.06.2022
1540 Clouds 17 1020 60 10000 4.63 130 15:34 14.06.2022
1541 Clouds 17 1021 56 10000 3.6 210 14:53 14.06.2022
1542 Clouds 17 1021 57 10000 3.09 220 13:53 14.06.2022
1543 Clouds 16 1021 58 10000 4.63 230 12:55 14.06.2022
1544 Clouds 16 1021 57 10000 4.63 230 11:52 14.06.2022
1545 Clouds 15 1022 59 10000 4.12 220 10:49 14.06.2022
1546 Clouds 15 1021 60 10000 5.14 230 10:25 14.06.2022
1547 Clouds 13 1021 69 10000 3.09 210 08:52 14.06.2022
1548 Clouds 12 1021 75 10000 3.09 220 07:58 14.06.2022
1549 Clouds 11 1022 71 10000 2.57 210 06:19 14.06.2022
1550 Clouds 12 1023 63 10000 2.57 220 03:36 14.06.2022
1551 Clouds 12 1023 66 10000 3.09 230 01:36 14.06.2022
1552 Clouds 14 1023 72 10000 4.63 260 23:51 13.06.2022
1553 Clouds 14 1023 70 10000 3.6 260 22:27 13.06.2022
1554 Clouds 14 1023 68 10000 4.12 270 21:59 13.06.2022
1555 Clouds 15 1023 68 10000 5.14 240 20:43 13.06.2022
1556 Clouds 15 1024 69 10000 5.66 250 19:39 13.06.2022
1557 Clouds 16 1024 68 10000 4.63 250 18:45 13.06.2022
1558 Clouds 16 1024 66 10000 6.17 270 17:52 13.06.2022
1559 Clouds 16 1024 67 10000 5.14 250 17:18 13.06.2022
1560 Clouds 16 1025 65 10000 4.12 250 15:53 13.06.2022
1561 Clouds 16 1025 64 10000 4.63 250 14:47 13.06.2022
1562 Clouds 15 1025 65 10000 5.66 270 13:59 13.06.2022
1563 Clouds 15 1026 68 10000 4.63 270 12:59 13.06.2022
1564 Clouds 14 1026 68 10000 4.63 250 11:45 13.06.2022
1565 Clouds 14 1026 73 10000 5.14 270 10:34 13.06.2022
1566 Clouds 13 1025 76 10000 5.14 260 09:42 13.06.2022
1567 Clouds 12 1025 81 10000 4.12 260 08:27 13.06.2022
1568 Clouds 11 1026 85 10000 4.12 250 06:34 13.06.2022
1569 Clouds 11 1025 82 10000 5.14 270 04:18 13.06.2022
1570 Clouds 12 1025 83 10000 5.66 250 01:44 13.06.2022
1571 Clouds 12 1024 81 10000 5.14 280 00:59 13.06.2022
1572 Clouds 12 1025 81 10000 5.66 250 23:33 12.06.2022
1573 Clouds 13 1024 78 10000 6.17 270 22:29 12.06.2022
1574 Clouds 13 1024 79 10000 6.17 270 21:41 12.06.2022
1575 Clouds 14 1023 72 9000 8.23 270 20:43 12.06.2022
1576 Clouds 15 1023 69 10000 8.75 280 19:42 12.06.2022
1577 Clouds 16 1023 66 10000 8.75 260 18:44 12.06.2022
1578 Clouds 15 1023 69 10000 10.29 270 16:44 12.06.2022
1579 Clouds 16 1023 62 10000 11.32 260 15:32 12.06.2022
1580 Clouds 15 1023 68 10000 11.83 270 14:33 12.06.2022
1581 Clouds 16 1023 64 10000 5.81 240 13:57 12.06.2022
1582 Clouds 15 1023 72 10000 8.75 250 13:38 12.06.2022
1583 Clouds 15 1023 65 10000 8.75 260 11:48 12.06.2022
1584 Clouds 14 1023 72 10000 8.23 250 10:46 12.06.2022
1585 Clouds 14 1023 74 10000 7.72 250 09:36 12.06.2022
1586 Clouds 13 1022 76 10000 5.81 269 08:49 12.06.2022
1587 Clouds 12 1022 78 10000 6.69 230 07:47 12.06.2022
1588 Clouds 11 1022 81 10000 6.69 230 05:51 12.06.2022
1589 Clouds 12 1021 82 10000 7.72 240 03:38 12.06.2022
1590 Clouds 12 1021 82 10000 7.72 240 03:38 12.06.2022
1591 Clouds 13 1021 80 10000 6.69 240 01:44 12.06.2022
1592 Clouds 13 1021 80 10000 5.14 250 00:59 12.06.2022
1593 Clouds 13 1020 79 10000 4.63 240 00:28 12.06.2022
1594 Clouds 13 1020 79 10000 4.63 250 23:56 11.06.2022
1595 Clouds 14 1020 74 10000 8.75 250 22:49 11.06.2022
1596 Clouds 14 1019 73 10000 5.14 250 22:29 11.06.2022
1597 Clouds 15 1018 73 10000 9.77 250 20:55 11.06.2022
1598 Clouds 16 1018 68 10000 9.77 250 20:26 11.06.2022
1599 Clouds 17 1018 63 10000 6.69 250 19:32 11.06.2022
1600 Clouds 17 1018 64 10000 10.29 260 18:36 11.06.2022
1601 Clouds 18 1017 61 10000 10.29 260 17:58 11.06.2022
1602 Clouds 18 1017 61 10000 10.29 260 17:38 11.06.2022
1603 Clouds 18 1017 62 10000 7.2 240 17:19 11.06.2022
1604 Clouds 18 1017 59 10000 11.83 240 16:38 11.06.2022
1605 Clouds 18 1017 61 10000 11.32 240 15:46 11.06.2022
1606 Clouds 16 1016 68 10000 9.26 240 13:54 11.06.2022
1607 Clouds 16 1016 73 10000 9.26 240 13:36 11.06.2022
1608 Clouds 16 1015 69 10000 4.47 271 11:18 11.06.2022
1609 Clouds 15 1015 72 10000 10.29 230 10:29 11.06.2022
1610 Clouds 15 1015 74 10000 8.23 230 09:40 11.06.2022
1611 Clouds 13 1014 81 10000 9.26 230 07:58 11.06.2022
1612 Clouds 13 1014 82 10000 9.26 220 06:31 11.06.2022
1613 Clouds 12 1013 81 10000 5.66 220 05:22 11.06.2022
1614 Clouds 13 1013 81 10000 7.2 220 01:54 11.06.2022
1615 Clouds 13 1013 81 10000 7.2 220 01:34 11.06.2022
1616 Clouds 14 1013 81 10000 8.23 230 00:34 11.06.2022
1617 Clouds 14 1012 82 10000 7.72 230 22:35 10.06.2022
1618 Clouds 15 1012 80 10000 8.75 240 21:56 10.06.2022
1619 Clouds 16 1011 78 10000 8.23 230 20:55 10.06.2022
1620 Clouds 16 1011 79 10000 8.23 230 20:36 10.06.2022
1621 Clouds 16 1011 80 10000 8.23 230 20:18 10.06.2022
1622 Rain 17 1011 74 10000 8.23 230 19:18 10.06.2022
1623 Clouds 16 1011 83 9000 8.23 220 18:20 10.06.2022
1624 Rain 15 1011 85 10000 7.2 220 17:36 10.06.2022
1625 Rain 15 1011 82 9000 6.17 250 16:58 10.06.2022
1626 Rain 16 1011 74 10000 11.83 250 15:50 10.06.2022
1627 Rain 19 1011 66 10000 9.26 210 15:30 10.06.2022
1628 Clouds 20 1011 57 10000 9.77 210 13:49 10.06.2022
1629 Clouds 19 1011 62 10000 9.77 220 12:41 10.06.2022
1630 Clouds 18 1011 62 10000 10.8 230 11:40 10.06.2022
1631 Clouds 17 1012 65 10000 8.75 220 10:43 10.06.2022
1632 Clouds 16 1011 69 10000 7.72 210 09:44 10.06.2022
1633 Clouds 15 1011 74 10000 8.23 210 08:28 10.06.2022
1634 Clouds 13 1011 79 10000 4.63 210 07:20 10.06.2022
1635 Clouds 13 1011 80 10000 7.72 220 06:43 10.06.2022
1636 Clouds 13 1011 80 10000 7.72 220 06:24 10.06.2022
1637 Clouds 14 1011 80 10000 7.72 210 03:50 10.06.2022
1638 Clouds 15 1010 76 10000 5.66 220 01:41 10.06.2022
1639 Clouds 15 1010 72 10000 3.6 230 00:27 10.06.2022
1640 Clouds 16 1009 69 10000 4.63 230 23:28 09.06.2022
1641 Clouds 18 1008 63 10000 6.17 210 21:58 09.06.2022
1642 Clouds 19 1008 62 10000 5.14 220 21:32 09.06.2022
1643 Clouds 21 1008 59 10000 6.17 240 20:54 09.06.2022
1644 Clouds 21 1008 59 10000 6.17 240 20:54 09.06.2022
1645 Clouds 21 1008 56 10000 8.23 250 19:59 09.06.2022
1646 Clouds 21 1008 56 10000 8.23 240 18:54 09.06.2022
1647 Clouds 21 1008 56 10000 8.23 240 18:21 09.06.2022
1648 Clouds 20 1008 74 10000 7.72 270 16:48 09.06.2022
1649 Clouds 20 1008 78 7000 8.75 260 15:48 09.06.2022
1650 Clouds 18 1007 81 10000 8.23 200 14:35 09.06.2022
1651 Clouds 16 1007 86 10000 9.26 200 13:48 09.06.2022
1652 Clouds 15 1008 90 7000 10.29 190 13:27 09.06.2022
1653 Clouds 14 1008 90 10000 7.2 190 11:54 09.06.2022
1654 Rain 13 1009 89 6000 4.63 190 10:53 09.06.2022
1655 Rain 12 1010 90 10000 4.12 190 09:42 09.06.2022
1656 Rain 12 1010 89 10000 4.63 190 09:23 09.06.2022
1657 Rain 13 1010 80 10000 5.66 230 07:44 09.06.2022
1658 Clouds 12 1010 85 10000 6.17 230 05:47 09.06.2022
1659 Clouds 12 1009 80 10000 3.09 240 02:20 09.06.2022
1660 Clouds 13 1008 72 10000 6.69 250 23:34 08.06.2022
1661 Clouds 14 1008 69 10000 8.23 250 22:56 08.06.2022
1662 Clouds 15 1007 66 10000 8.49 260 22:26 08.06.2022
1663 Clouds 15 1007 63 10000 8.49 260 21:52 08.06.2022
1664 Clouds 16 1006 59 10000 6.71 258 20:57 08.06.2022
1665 Clouds 17 1005 56 10000 10.29 260 19:50 08.06.2022
1666 Clouds 18 1005 57 10000 10.29 260 19:18 08.06.2022
1667 Clouds 18 1004 58 10000 10.8 260 18:42 08.06.2022
1668 Clouds 17 1003 73 10000 10.29 260 16:34 08.06.2022
1669 Clouds 17 1003 72 10000 9.26 250 15:27 08.06.2022
1670 Clouds 17 1002 74 10000 7.72 230 13:36 08.06.2022
1671 Clouds 17 1001 71 10000 6.17 250 11:51 08.06.2022
1672 Clouds 17 1001 72 10000 7.2 230 11:24 08.06.2022
1673 Clouds 15 1000 81 10000 6.17 230 09:47 08.06.2022
1674 Clouds 14 1001 83 10000 6.17 230 09:20 08.06.2022
1675 Clouds 13 1000 84 10000 6.17 230 08:18 08.06.2022
1676 Clouds 13 998 91 3000 8.23 240 05:36 08.06.2022
1677 Clouds 13 999 93 4000 5.14 140 02:39 08.06.2022
1678 Mist 14 1001 92 4000 4.63 130 00:21 08.06.2022
1679 Drizzle 13 1002 93 4500 4.63 100 23:25 07.06.2022
1680 Drizzle 13 1003 92 4000 4.63 110 22:42 07.06.2022
1681 Clouds 13 1004 90 8000 4.12 130 21:59 07.06.2022
1682 Rain 13 1004 86 10000 4.63 140 21:27 07.06.2022
1683 Rain 13 1005 83 10000 5.14 140 20:46 07.06.2022
1684 Rain 14 1005 82 10000 5.14 130 20:24 07.06.2022
1685 Clouds 15 1006 79 10000 5.66 140 19:19 07.06.2022
1686 Clouds 17 1007 71 10000 6.17 140 17:57 07.06.2022
1687 Clouds 18 1007 70 10000 5.14 130 17:19 07.06.2022
1688 Clouds 17 1008 74 10000 5.14 120 16:39 07.06.2022
1689 Clouds 17 1009 75 10000 5.66 120 15:42 07.06.2022
1690 Clouds 16 1009 75 10000 5.14 140 15:23 07.06.2022
1691 Clouds 16 1010 77 10000 5.14 140 14:46 07.06.2022
1692 Clouds 15 1010 75 10000 4.63 100 13:50 07.06.2022
1693 Clouds 15 1010 75 10000 3.6 120 13:29 07.06.2022
1694 Clouds 15 1011 75 10000 4.02 88 12:39 07.06.2022
1695 Clouds 15 1012 74 10000 3.13 86 10:57 07.06.2022
1696 Clouds 14 1012 78 10000 2.06 140 09:58 07.06.2022
1697 Clouds 12 1012 90 10000 1.54 110 08:32 07.06.2022
1698 Fog 9 1012 92 10000 1.54 0 07:21 07.06.2022
1699 Clouds 8 1012 91 10000 1.54 160 05:48 07.06.2022
1700 Clouds 9 1014 91 10000 2.06 100 02:28 07.06.2022
1701 Clouds 10 1014 89 10000 3.09 80 00:33 07.06.2022
1702 Clouds 11 1014 86 10000 2.57 90 23:32 06.06.2022
1703 Clouds 12 1014 81 10000 3.09 100 22:37 06.06.2022
1704 Clouds 13 1014 77 10000 3.6 80 21:41 06.06.2022
1705 Clouds 15 1014 65 10000 3.09 90 19:59 06.06.2022
1706 Clouds 15 1015 67 10000 3.09 90 19:21 06.06.2022
1707 Clouds 15 1015 69 10000 3.09 90 18:38 06.06.2022
1708 Clouds 15 1015 67 10000 4.12 90 17:42 06.06.2022
1709 Clouds 16 1015 67 10000 4.63 80 16:39 06.06.2022
1710 Clouds 15 1015 72 10000 4.12 90 15:40 06.06.2022
1711 Clouds 15 1015 72 10000 4.12 90 15:40 06.06.2022
1712 Clouds 14 1015 75 10000 3.6 100 14:40 06.06.2022
1713 Clouds 14 1015 78 10000 4.63 90 13:31 06.06.2022
1714 Clouds 14 1015 81 10000 4.63 100 12:39 06.06.2022
1715 Clouds 13 1015 81 10000 4.63 100 12:20 06.06.2022
1716 Clouds 13 1015 82 10000 5.66 100 11:42 06.06.2022
1717 Clouds 12 1015 87 10000 5.14 80 09:41 06.06.2022
1718 Clouds 11 1015 91 10000 3.6 90 08:35 06.06.2022
1719 Clouds 11 1015 91 10000 2.57 80 07:40 06.06.2022
1720 Clouds 11 1015 91 10000 4.63 80 05:34 06.06.2022
1721 Clouds 11 1015 92 10000 5.14 70 03:47 06.06.2022
1722 Clouds 11 1016 93 10000 4.12 70 01:30 06.06.2022
1723 Clouds 11 1016 95 10000 4.63 70 00:43 06.06.2022
1724 Clouds 11 1017 93 10000 5.14 80 23:50 05.06.2022
1725 Clouds 11 1017 93 10000 4.63 70 22:57 05.06.2022
1726 Clouds 11 1017 94 10000 5.14 70 21:33 05.06.2022
1727 Clouds 11 1017 93 8000 5.66 70 20:23 05.06.2022
1728 Clouds 11 1017 94 8000 5.14 70 18:47 05.06.2022
1729 Clouds 11 1017 92 9000 5.66 80 17:57 05.06.2022
1730 Clouds 11 1017 93 10000 5.66 80 17:36 05.06.2022
1731 Clouds 11 1017 91 9000 6.17 70 17:18 05.06.2022
1732 Clouds 11 1017 92 9000 6.17 70 16:45 05.06.2022
1733 Clouds 11 1017 93 9000 5.66 60 14:46 05.06.2022
1734 Clouds 11 1018 92 9000 6.69 70 13:55 05.06.2022
1735 Clouds 11 1017 92 9000 6.71 90 11:56 05.06.2022
1736 Clouds 11 1018 92 9000 6.17 80 10:44 05.06.2022
1737 Clouds 11 1017 91 9000 5.14 70 10:23 05.06.2022
1738 Clouds 12 1018 90 10000 5.66 70 08:45 05.06.2022
1739 Clouds 11 1018 89 10000 6.17 70 08:21 05.06.2022
1740 Clouds 12 1018 88 10000 4.63 70 05:23 05.06.2022
1741 Clouds 12 1018 88 10000 4.63 60 04:33 05.06.2022
1742 Clouds 12 1020 84 10000 6.69 70 01:46 05.06.2022
1743 Clouds 12 1020 85 10000 6.17 60 01:23 05.06.2022
1744 Clouds 12 1020 84 10000 5.66 60 01:23 05.06.2022
1745 Clouds 13 1021 80 10000 5.66 60 22:45 04.06.2022
1746 Clouds 14 1021 76 10000 7.6 60 21:21 04.06.2022
1747 Clouds 15 1022 72 10000 8.23 60 18:58 04.06.2022
1748 Clouds 14 1023 72 10000 7.72 60 16:48 04.06.2022
1749 Clouds 15 1023 71 10000 9.26 60 16:20 04.06.2022
1750 Clouds 14 1023 74 10000 8.75 70 15:35 04.06.2022
1751 Clouds 14 1024 76 10000 9.26 70 13:57 04.06.2022
1752 Clouds 12 1024 81 10000 8.75 60 11:28 04.06.2022
1753 Clouds 12 1024 81 10000 8.23 60 10:52 04.06.2022
1754 Clouds 12 1024 81 10000 8.23 70 09:46 04.06.2022
1755 Clouds 12 1024 83 10000 8.23 80 08:50 04.06.2022
1756 Clouds 12 1024 84 10000 8.23 80 08:31 04.06.2022
1757 Clouds 12 1023 86 10000 7.2 60 06:20 04.06.2022
1758 Clouds 13 1022 82 10000 6.71 60 03:37 04.06.2022
1759 Clouds 13 1022 80 10000 5.66 40 00:21 04.06.2022
1760 Clouds 13 1021 79 10000 5.14 20 22:54 03.06.2022
1761 Clouds 14 1021 77 10000 5.66 20 21:46 03.06.2022
1762 Clouds 14 1021 73 10000 6.17 40 20:40 03.06.2022
1763 Clouds 15 1021 75 10000 6.71 50 19:19 03.06.2022
1764 Clouds 15 1021 78 10000 7.2 60 16:56 03.06.2022
1765 Clouds 14 1020 79 10000 6.17 70 15:52 03.06.2022
1766 Clouds 14 1020 84 10000 5.14 70 13:58 03.06.2022
1767 Drizzle 13 1019 86 10000 3.6 70 11:54 03.06.2022
1768 Clouds 12 1019 92 10000 2.06 30 09:56 03.06.2022
1769 Clouds 12 1018 93 10000 1.54 0 09:29 03.06.2022
1770 Clouds 11 1018 95 10000 2.57 70 07:43 03.06.2022
1771 Rain 10 1018 94 10000 2.57 10 06:49 03.06.2022
1772 Rain 10 1018 96 10000 3.09 40 06:27 03.06.2022
1773 Mist 11 1018 95 7000 1.54 350 02:58 03.06.2022
1774 Clouds 11 1018 94 7000 2.57 90 23:39 02.06.2022
1775 Rain 11 1018 90 6000 3.09 320 21:58 02.06.2022
1776 Rain 13 1017 84 8000 4.63 280 20:38 02.06.2022
1777 Clouds 13 1017 82 10000 5.66 290 19:55 02.06.2022
1778 Clouds 15 1017 75 10000 4.12 290 19:37 02.06.2022
1779 Clouds 16 1017 60 10000 3.09 110 18:39 02.06.2022
1780 Clouds 17 1017 59 10000 3.09 200 16:28 02.06.2022
1781 Clouds 16 1018 60 10000 3.6 220 15:46 02.06.2022
1782 Clouds 16 1018 63 10000 4.12 130 13:30 02.06.2022
1783 Clouds 16 1018 63 10000 3.6 130 12:46 02.06.2022
1784 Clouds 15 1019 69 10000 3.09 80 10:34 02.06.2022
1785 Clouds 14 1019 72 10000 3.09 160 09:29 02.06.2022
1786 Clouds 12 1019 78 10000 2.06 140 08:39 02.06.2022
1787 Clouds 11 1019 79 10000 2.06 140 08:19 02.06.2022
1788 Clouds 7 1019 87 10000 3.09 190 06:20 02.06.2022
1789 Clear 7 1020 89 10000 2.06 130 03:49 02.06.2022
1790 Clouds 9 1020 82 10000 2.06 140 00:47 02.06.2022
1791 Clouds 11 1020 72 10000 2.06 150 22:57 01.06.2022
1792 Clouds 11 1020 72 10000 2.06 150 22:57 01.06.2022
1793 Clouds 13 1019 63 10000 2.57 100 21:52 01.06.2022
1794 Clouds 14 1019 62 10000 3.09 100 21:24 01.06.2022
1795 Clouds 15 1019 58 10000 2.57 140 20:38 01.06.2022
1796 Clouds 16 1019 57 10000 3.09 110 19:50 01.06.2022
1797 Clouds 16 1019 58 10000 3.09 90 18:28 01.06.2022
1798 Clouds 16 1019 61 10000 4.12 90 16:56 01.06.2022
1799 Clouds 16 1019 66 10000 4.12 90 15:42 01.06.2022
1800 Clouds 16 1018 66 10000 2.57 50 14:46 01.06.2022
1801 Clouds 14 1018 68 10000 2.57 330 13:18 01.06.2022
1802 Clouds 11 1018 81 10000 3.6 340 10:44 01.06.2022
1803 Clouds 10 1018 87 10000 4.12 310 09:28 01.06.2022
1804 Clouds 9 1017 93 10000 4.63 300 07:59 01.06.2022
1805 Clouds 8 1017 92 10000 4.12 300 07:20 01.06.2022
1806 Rain 9 1016 91 10000 5.14 280 03:22 01.06.2022
1807 Clouds 10 1015 89 10000 4.63 280 23:47 31.05.2022
1808 Clouds 10 1015 90 10000 4.12 290 22:38 31.05.2022
1809 Clouds 10 1015 88 10000 4.12 290 22:19 31.05.2022
1810 Clouds 11 1015 86 10000 5.66 320 21:23 31.05.2022
1811 Clouds 11 1014 88 10000 4.63 290 20:43 31.05.2022
1812 Clouds 12 1014 85 10000 6.17 310 19:22 31.05.2022
1813 Rain 13 1014 79 6000 8.75 320 18:19 31.05.2022
1814 Clouds 14 1013 69 10000 7.72 280 17:37 31.05.2022
1815 Clouds 13 1013 76 10000 7.72 280 15:45 31.05.2022
1816 Clouds 14 1013 64 10000 6.17 290 15:22 31.05.2022
1817 Clouds 13 1013 69 10000 5.66 320 12:41 31.05.2022
1818 Clouds 12 1013 71 10000 5.81 310 12:18 31.05.2022
1819 Clouds 11 1013 79 10000 6.17 300 10:22 31.05.2022
1820 Clouds 7 1012 91 10000 4.12 270 07:43 31.05.2022
1821 Clouds 6 1012 91 10000 4.12 280 06:19 31.05.2022
1822 Clouds 7 1012 93 10000 3.6 300 03:49 31.05.2022
1823 Clouds 8 1011 89 10000 3.58 290 23:45 30.05.2022
1824 Clouds 8 1011 89 10000 3.58 290 23:23 30.05.2022
1825 Clouds 9 1011 89 10000 3.6 260 22:33 30.05.2022
1826 Clouds 9 1010 90 10000 1.79 204 21:40 30.05.2022
1827 Clouds 9 1011 84 7000 3.6 260 20:43 30.05.2022
1828 Clouds 12 1010 80 10000 4.63 270 19:40 30.05.2022
1829 Clouds 11 1011 85 7000 6.69 270 17:48 30.05.2022
1830 Clouds 12 1011 83 10000 6.71 320 17:20 30.05.2022
1831 Rain 13 1011 75 10000 7.2 270 15:51 30.05.2022
1832 Clouds 14 1012 60 10000 6.69 280 13:21 30.05.2022
1833 Clouds 12 1013 74 10000 6.17 280 11:39 30.05.2022
1834 Clouds 10 1014 83 10000 6.17 270 09:45 30.05.2022
1835 Clouds 9 1015 84 10000 5.66 280 07:34 30.05.2022
1836 Clouds 8 1015 85 10000 3.6 290 05:54 30.05.2022
1837 Clouds 9 1017 79 10000 1.79 265 03:22 30.05.2022
1838 Clouds 9 1019 79 10000 2.06 350 23:58 29.05.2022
1839 Clouds 10 1019 73 10000 3.09 80 22:40 29.05.2022
1840 Clouds 12 1018 66 10000 2.68 80 21:44 29.05.2022
1841 Clouds 13 1020 60 10000 4.12 50 20:21 29.05.2022
1842 Clouds 13 1020 62 10000 4.63 50 19:28 29.05.2022
1843 Clouds 14 1020 63 10000 4.92 70 17:56 29.05.2022
1844 Clouds 14 1022 69 10000 6.69 50 16:20 29.05.2022
1845 Clouds 13 1022 73 10000 6.17 50 15:41 29.05.2022
1846 Clouds 13 1022 74 10000 8.05 50 14:49 29.05.2022
1847 Clouds 12 1022 77 10000 6.17 350 12:21 29.05.2022
1848 Clouds 12 1021 76 10000 5.66 360 11:19 29.05.2022
1849 Clouds 11 1023 78 10000 4.63 340 09:54 29.05.2022
1850 Clouds 8 1023 87 10000 3.6 320 07:55 29.05.2022
1851 Clouds 6 1024 89 10000 3.6 300 04:58 29.05.2022
1852 Clouds 6 1024 89 10000 3.6 310 04:32 29.05.2022
1853 Clouds 8 1025 85 10000 2.06 60 00:53 29.05.2022
1854 Clouds 9 1026 80 10000 2.57 70 23:47 28.05.2022
1855 Clouds 9 1026 79 10000 2.57 70 23:18 28.05.2022
1856 Clouds 13 1026 73 10000 3.6 80 21:52 28.05.2022
1857 Clouds 14 1026 72 10000 3.6 110 20:46 28.05.2022
1858 Clouds 16 1026 65 10000 3.13 116 19:19 28.05.2022
1859 Clouds 16 1027 63 10000 3.58 30 18:21 28.05.2022
1860 Clouds 16 1027 62 10000 3.09 330 17:30 28.05.2022
1861 Clouds 15 1028 63 10000 3.6 340 15:45 28.05.2022
1862 Clouds 15 1028 64 10000 3.6 10 15:19 28.05.2022
1863 Clouds 15 1028 62 10000 3.09 60 13:27 28.05.2022
1864 Clouds 15 1028 62 10000 3.09 60 13:27 28.05.2022
1865 Clouds 15 1028 64 10000 2.68 51 12:42 28.05.2022
1866 Clouds 14 1028 64 10000 2.57 10 11:28 28.05.2022
1867 Clouds 13 1029 66 10000 3.6 350 10:34 28.05.2022
1868 Clouds 12 1028 71 10000 3.09 340 09:46 28.05.2022
1869 Clouds 8 1029 85 10000 2.57 300 07:56 28.05.2022
1870 Clouds 6 1029 88 10000 2.57 300 06:32 28.05.2022
1871 Clouds 7 1029 89 10000 2.06 300 04:39 28.05.2022
1872 Clouds 8 1029 77 10000 3.09 330 01:46 28.05.2022
1873 Clouds 10 1029 78 10000 3.09 320 23:55 27.05.2022
1874 Clouds 12 1028 72 10000 4.12 350 22:37 27.05.2022
1875 Clouds 16 1028 55 10000 5.14 320 21:22 27.05.2022
1876 Clouds 16 1028 55 10000 5.14 330 20:42 27.05.2022
1877 Clouds 17 1028 53 10000 5.66 320 20:18 27.05.2022
1878 Clouds 17 1027 52 10000 7.15 290 19:34 27.05.2022
1879 Clouds 18 1027 51 10000 7.2 290 18:41 27.05.2022
1880 Clouds 16 1028 54 10000 6.17 280 16:43 27.05.2022
1881 Clouds 16 1028 54 10000 7.6 280 15:47 27.05.2022
1882 Clouds 16 1028 57 10000 7.72 280 14:46 27.05.2022
1883 Clouds 15 1028 60 10000 8.75 280 13:36 27.05.2022
1884 Clouds 14 1027 61 10000 8.75 290 11:48 27.05.2022
1885 Clouds 14 1027 60 10000 8.75 270 11:26 27.05.2022
1886 Clouds 12 1027 64 10000 6.17 270 10:35 27.05.2022
1887 Clouds 12 1026 66 10000 6.17 260 09:42 27.05.2022
1888 Clouds 11 1026 70 10000 5.66 260 08:48 27.05.2022
1889 Clouds 8 1025 78 10000 5.66 260 06:58 27.05.2022
1890 Clouds 9 1024 77 10000 5.66 260 02:57 27.05.2022
1891 Clouds 10 1024 76 10000 6.17 270 00:54 27.05.2022
1892 Clouds 12 1022 64 10000 7.72 260 22:53 26.05.2022
1893 Clouds 14 1020 64 10000 8.49 280 21:45 26.05.2022
1894 Clouds 16 1020 62 10000 8.75 280 20:59 26.05.2022
1895 Clouds 17 1019 57 10000 9.39 270 19:29 26.05.2022
1896 Clouds 18 1019 57 10000 9.77 270 18:24 26.05.2022
1897 Clouds 18 1019 61 10000 11.32 270 16:59 26.05.2022
1898 Clouds 18 1018 68 10000 8.75 270 15:52 26.05.2022
1899 Clouds 17 1018 69 10000 10.8 270 15:18 26.05.2022
1900 Clouds 16 1018 78 10000 9.77 260 13:46 26.05.2022
1901 Clouds 15 1017 88 8000 8.23 250 11:47 26.05.2022
1902 Clouds 15 1016 84 5000 9.26 240 10:39 26.05.2022
1903 Clouds 15 1016 86 5000 8.75 240 09:37 26.05.2022
1904 Clouds 14 1015 88 6000 9.26 230 08:38 26.05.2022
1905 Clouds 12 1015 88 8000 6.17 220 05:25 26.05.2022
1906 Clouds 12 1016 79 10000 6.69 240 01:26 26.05.2022
1907 Clouds 12 1016 76 10000 6.69 240 23:41 25.05.2022
1908 Clouds 13 1015 74 10000 6.69 250 22:48 25.05.2022
1909 Clouds 14 1014 69 10000 10.29 260 21:37 25.05.2022
1910 Clouds 15 1013 65 10000 9.26 260 20:43 25.05.2022
1911 Clouds 16 1013 64 10000 9.77 270 19:31 25.05.2022
1912 Clouds 16 1011 63 10000 9.39 280 18:23 25.05.2022
1913 Clouds 17 1011 62 10000 10.28 270 16:42 25.05.2022
1914 Clouds 16 1010 65 10000 9.77 270 16:21 25.05.2022
1915 Clouds 17 1010 65 10000 9.77 270 15:24 25.05.2022
1916 Clouds 17 1009 67 10000 9.77 260 14:38 25.05.2022
1917 Clouds 17 1009 69 10000 8.75 270 14:19 25.05.2022
1918 Clouds 15 1008 78 10000 8.75 270 12:52 25.05.2022
1919 Clouds 14 1007 78 10000 8.23 250 11:31 25.05.2022
1920 Clouds 14 1007 81 10000 8.23 260 10:22 25.05.2022
1921 Clouds 13 1006 84 10000 4.92 249 08:45 25.05.2022
1922 Clouds 12 1004 85 10000 4.02 195 07:23 25.05.2022
1923 Clouds 11 1005 87 10000 8.75 210 05:23 25.05.2022
1924 Clouds 12 1008 74 10000 5.66 240 00:31 25.05.2022
1925 Clouds 12 1008 71 10000 6.69 250 23:47 24.05.2022
1926 Clouds 13 1008 69 10000 7.6 270 22:52 24.05.2022
1927 Clouds 13 1008 64 10000 7.72 270 21:46 24.05.2022
1928 Clouds 14 1007 63 10000 7.2 270 21:21 24.05.2022
1929 Clouds 15 1007 59 10000 7.72 260 20:38 24.05.2022
1930 Clouds 15 1007 58 10000 8.75 260 18:59 24.05.2022
1931 Clouds 17 1007 53 10000 5.66 260 17:19 24.05.2022
1932 Clouds 16 1007 60 10000 6.71 300 16:29 24.05.2022
1933 Clouds 16 1007 56 10000 8.23 280 15:20 24.05.2022
1934 Clouds 15 1007 66 10000 8.23 290 14:36 24.05.2022
1935 Clouds 15 1006 61 10000 6.69 270 13:34 24.05.2022
1936 Clouds 14 1006 66 10000 5.66 270 11:53 24.05.2022
1937 Clouds 12 1006 82 10000 6.17 270 09:49 24.05.2022
1938 Clouds 10 1005 88 10000 5.14 270 08:51 24.05.2022
1939 Clouds 10 1005 89 10000 5.66 270 07:32 24.05.2022
1940 Clouds 8 1003 93 10000 5.14 270 06:27 24.05.2022
1941 Clouds 9 1003 91 10000 4.63 260 02:58 24.05.2022
1942 Clouds 9 1003 89 10000 4.63 260 01:44 24.05.2022
1943 Clouds 10 1003 87 7000 4.63 280 23:59 23.05.2022
1944 Clouds 11 1002 84 10000 3.09 250 22:24 23.05.2022
1945 Clouds 11 1001 84 10000 4.63 270 21:45 23.05.2022
1946 Rain 11 1002 83 10000 7.2 280 20:45 23.05.2022
1947 Clouds 12 1002 82 10000 4.63 280 19:47 23.05.2022
1948 Rain 12 1002 78 10000 8.23 320 19:18 23.05.2022
1949 Clouds 15 1001 67 10000 5.14 280 18:40 23.05.2022
1950 Clouds 14 1002 69 10000 4.63 310 17:56 23.05.2022
1951 Clouds 14 1002 75 10000 4.63 300 15:55 23.05.2022
1952 Clouds 16 1002 62 10000 5.14 290 13:56 23.05.2022
1953 Clouds 14 1003 72 10000 5.14 300 11:41 23.05.2022
1954 Clouds 13 1003 73 10000 4.63 290 10:45 23.05.2022
1955 Clouds 13 1004 79 10000 3.6 270 09:47 23.05.2022
1956 Clouds 11 1003 86 10000 5.66 280 08:46 23.05.2022
1957 Clouds 11 1003 86 10000 5.66 280 08:46 23.05.2022
1958 Clouds 11 1003 90 10000 4.63 240 06:49 23.05.2022
1959 Clouds 11 1003 89 7000 4.63 240 06:31 23.05.2022
1960 Clouds 12 1004 82 10000 4.12 230 03:27 23.05.2022
1961 Clouds 11 1004 79 10000 6.17 240 01:52 23.05.2022
1962 Clouds 12 1005 77 10000 6.17 240 01:26 23.05.2022
1963 Clouds 13 1004 83 10000 4.63 220 22:49 22.05.2022
1964 Clouds 14 1005 81 10000 4.63 220 22:22 22.05.2022
1965 Clouds 14 1005 79 10000 4.63 220 21:51 22.05.2022
1966 Clouds 15 1005 77 10000 6.17 220 20:43 22.05.2022
1967 Clouds 15 1005 77 10000 6.17 220 20:20 22.05.2022
1968 Clouds 16 1006 73 10000 6.17 230 19:19 22.05.2022
1969 Clouds 16 1006 68 10000 8.75 230 18:46 22.05.2022
1970 Clouds 17 1006 67 10000 8.75 230 18:20 22.05.2022
1971 Clouds 17 1006 64 10000 7.72 230 16:51 22.05.2022
1972 Clouds 18 1007 62 10000 9.77 220 15:25 22.05.2022
1973 Clouds 17 1007 64 10000 7.72 240 14:44 22.05.2022
1974 Clouds 16 1008 70 10000 4.12 210 12:54 22.05.2022
1975 Clouds 16 1008 74 10000 5.66 240 12:31 22.05.2022
1976 Clouds 15 1009 79 10000 6.69 220 10:53 22.05.2022
1977 Clouds 15 1010 82 10000 6.17 220 09:31 22.05.2022
1978 Drizzle 14 1010 83 10000 6.69 210 07:49 22.05.2022
1979 Drizzle 14 1011 84 10000 6.69 210 07:20 22.05.2022
1980 Clouds 14 1012 84 10000 6.17 210 04:30 22.05.2022
1981 Clouds 14 1014 79 10000 5.14 210 01:19 22.05.2022
1982 Clouds 14 1014 73 10000 4.63 200 23:57 21.05.2022
1983 Clouds 14 1014 73 10000 4.63 200 23:29 21.05.2022
1984 Clouds 15 1014 70 10000 6.17 210 21:59 21.05.2022
1985 Clouds 15 1014 69 10000 6.17 210 21:38 21.05.2022
1986 Clouds 16 1015 69 10000 5.66 200 20:47 21.05.2022
1987 Clouds 17 1015 68 10000 6.17 210 19:55 21.05.2022
1988 Clouds 17 1015 69 10000 3.6 230 19:21 21.05.2022
1989 Clouds 17 1016 70 10000 5.14 230 17:29 21.05.2022
1990 Clouds 16 1017 73 10000 5.81 230 14:58 21.05.2022
1991 Clouds 15 1018 80 10000 4.63 210 14:24 21.05.2022
1992 Clouds 15 1018 74 10000 4.63 220 13:34 21.05.2022
1993 Clouds 15 1018 73 10000 5.66 220 12:39 21.05.2022
1994 Clouds 14 1018 76 10000 6.17 220 11:45 21.05.2022
1995 Rain 13 1018 75 10000 5.14 220 10:22 21.05.2022
1996 Rain 12 1018 79 10000 5.66 220 09:18 21.05.2022
1997 Clouds 12 1018 80 10000 6.17 220 08:39 21.05.2022
1998 Clouds 11 1017 82 10000 2.24 230 06:21 21.05.2022
1999 Clouds 12 1017 80 10000 5.14 230 01:59 21.05.2022
2000 Clouds 13 1016 78 10000 7.2 250 23:36 20.05.2022
2001 Clouds 13 1015 74 10000 7.72 250 22:41 20.05.2022
2002 Clouds 13 1015 74 10000 7.72 250 22:18 20.05.2022
2003 Clouds 14 1014 69 10000 7.2 240 21:19 20.05.2022
2004 Rain 15 1014 64 10000 9.26 260 20:47 20.05.2022
2005 Clouds 16 1013 63 10000 10.29 260 19:47 20.05.2022
2006 Clouds 16 1012 65 10000 9.77 250 18:58 20.05.2022
2007 Clouds 16 1012 66 10000 9.77 250 18:23 20.05.2022
2008 Clouds 14 1011 82 10000 7.72 250 16:27 20.05.2022
2009 Clouds 16 1011 74 10000 5.66 230 15:54 20.05.2022
2010 Clouds 15 1011 81 10000 7.2 220 15:20 20.05.2022
2011 Rain 14 1011 81 10000 9.26 220 14:27 20.05.2022
2012 Clouds 15 1011 63 10000 9.77 210 12:37 20.05.2022
2013 Clouds 14 1012 70 10000 8.75 200 10:47 20.05.2022
2014 Clouds 13 1013 73 10000 7.72 200 09:31 20.05.2022
2015 Clouds 12 1013 74 10000 6.17 200 08:27 20.05.2022
2016 Clouds 11 1014 77 10000 5.66 210 06:43 20.05.2022
2017 Clouds 11 1014 76 10000 4.12 200 05:40 20.05.2022
2018 Clouds 12 1015 77 10000 5.14 200 02:41 20.05.2022
2019 Clouds 13 1016 70 10000 7.2 200 23:47 19.05.2022
2020 Clouds 13 1016 69 10000 8.23 200 22:36 19.05.2022
2021 Clouds 14 1016 66 10000 7.72 200 21:50 19.05.2022
2022 Clouds 15 1016 65 10000 7.72 200 21:24 19.05.2022
2023 Clouds 15 1015 61 10000 9.26 210 20:52 19.05.2022
2024 Clouds 17 1016 55 10000 8.23 210 19:54 19.05.2022
2025 Clouds 17 1016 53 10000 8.23 210 19:18 19.05.2022
2026 Clouds 18 1015 51 10000 9.26 200 17:44 19.05.2022
2027 Clouds 18 1015 53 10000 8.23 200 15:51 19.05.2022
2028 Clouds 18 1015 54 10000 8.75 200 14:47 19.05.2022
2029 Clouds 17 1015 54 10000 10.29 200 14:20 19.05.2022
2030 Clouds 15 1016 61 10000 9.26 0 11:54 19.05.2022
2031 Clouds 14 1016 67 10000 7.72 0 10:31 19.05.2022
2032 Clouds 11 1015 75 10000 7.2 0 08:44 19.05.2022
2033 Clear 9 1014 83 10000 4.02 204 07:18 19.05.2022
2034 Clouds 10 1013 82 10000 4.63 210 03:41 19.05.2022
2035 Clouds 12 1011 79 10000 10.29 210 00:58 19.05.2022
2036 Clouds 12 1011 80 10000 8.23 0 23:40 18.05.2022
2037 Clouds 12 1010 79 10000 8.75 190 22:43 18.05.2022
2038 Rain 12 1010 83 10000 9.77 180 21:43 18.05.2022
2039 Rain 12 1008 82 10000 8.75 160 21:23 18.05.2022
2040 Rain 15 1008 72 10000 11.83 170 20:21 18.05.2022
2041 Clouds 17 1009 68 10000 11.83 170 18:56 18.05.2022
2042 Clouds 17 1010 69 10000 9.77 160 17:56 18.05.2022
2043 Clouds 16 1011 70 10000 10.8 160 17:36 18.05.2022
2044 Clouds 17 1012 68 10000 10.8 160 17:18 18.05.2022
2045 Clouds 16 1012 68 10000 8.75 170 15:52 18.05.2022
2046 Clouds 16 1012 69 10000 9.26 170 15:33 18.05.2022
2047 Clouds 16 1013 72 10000 7.72 150 14:21 18.05.2022
2048 Clouds 17 1014 62 10000 8.23 180 12:54 18.05.2022
2049 Clouds 16 1014 65 10000 6.17 190 11:48 18.05.2022
2050 Clouds 15 1014 67 10000 6.69 200 11:30 18.05.2022
2051 Clouds 14 1014 74 10000 5.14 190 10:43 18.05.2022
2052 Clouds 12 1013 78 10000 7.2 190 08:19 18.05.2022
2053 Clouds 11 1012 82 10000 8.75 210 07:27 18.05.2022
2054 Clouds 11 1010 84 10000 8.23 200 03:40 18.05.2022
2055 Clouds 11 1009 88 5000 5.66 150 00:51 18.05.2022
2056 Clouds 11 1010 86 10000 3.09 130 23:33 17.05.2022
2057 Clouds 12 1009 84 10000 5.14 200 21:21 17.05.2022
2058 Clouds 12 1009 88 10000 3.6 210 20:43 17.05.2022
2059 Clouds 12 1009 92 10000 3.6 250 19:31 17.05.2022
2060 Rain 12 1009 93 7000 2.57 270 18:46 17.05.2022
2061 Rain 12 1009 93 6000 4.63 240 17:34 17.05.2022
2062 Rain 12 1010 91 8000 4.12 0 16:55 17.05.2022
2063 Rain 13 1010 91 8000 6.17 210 15:58 17.05.2022
2064 Rain 14 1010 90 6000 4.63 140 14:55 17.05.2022
2065 Rain 15 1010 84 8000 4.63 130 14:28 17.05.2022
2066 Clouds 17 1011 74 10000 6.17 200 12:39 17.05.2022
2067 Clouds 16 1011 79 10000 7.2 0 10:39 17.05.2022
2068 Clouds 14 1011 85 8000 5.66 190 08:51 17.05.2022
2069 Rain 14 1010 85 8000 5.66 0 07:46 17.05.2022
2070 Clouds 14 1010 83 8000 8.23 180 06:21 17.05.2022
2071 Clouds 14 1011 79 10000 3.6 150 00:47 17.05.2022
2072 Clouds 15 1012 71 10000 5.14 0 23:35 16.05.2022
2073 Clouds 15 1011 71 10000 6.17 190 22:33 16.05.2022
2074 Clouds 17 1010 65 10000 8.75 200 20:56 16.05.2022
2075 Clouds 18 1009 64 10000 8.75 200 20:37 16.05.2022
2076 Clouds 20 1009 58 10000 8.75 200 18:46 16.05.2022
2077 Clouds 20 1008 68 10000 7.72 0 16:42 16.05.2022
2078 Clouds 18 1009 81 10000 6.69 150 14:58 16.05.2022
2079 Clouds 19 1008 73 10000 6.17 0 13:45 16.05.2022
2080 Clouds 18 1008 78 10000 8.75 200 12:37 16.05.2022
2081 Clouds 15 1007 94 8000 4.63 150 10:36 16.05.2022
2082 Rain 13 1006 95 400 3.6 130 07:48 16.05.2022
2083 Fog 13 1006 94 500 3.09 120 05:44 16.05.2022
2084 Rain 14 1009 86 10000 4.12 120 00:44 16.05.2022
2085 Clouds 15 1009 82 10000 3.6 140 22:44 15.05.2022
2086 Clouds 15 1009 80 10000 3.09 110 21:58 15.05.2022
2087 Clouds 15 1009 80 10000 3.6 90 21:36 15.05.2022
2088 Clouds 16 1009 80 10000 4.12 70 20:43 15.05.2022
2089 Clouds 15 1010 78 10000 5.14 0 18:39 15.05.2022
2090 Clouds 16 1012 75 10000 7.72 0 16:54 15.05.2022
2091 Clouds 15 1013 72 10000 4.63 0 14:29 15.05.2022
2092 Clouds 15 1013 72 10000 4.63 110 13:45 15.05.2022
2093 Clouds 14 1014 80 10000 4.63 100 11:55 15.05.2022
2094 Clouds 14 1015 76 10000 4.12 80 10:47 15.05.2022
2095 Clouds 13 1015 83 10000 3.09 50 09:46 15.05.2022
2096 Mist 11 1016 92 2000 2.57 10 07:22 15.05.2022
2097 Clouds 10 1016 92 8000 1.03 80 06:42 15.05.2022
2098 Rain 11 1017 90 4000 3.6 100 02:43 15.05.2022
2099 Mist 10 1018 90 2500 4.12 120 00:24 15.05.2022
2100 Clouds 10 1018 90 8000 3.09 100 23:36 14.05.2022
2101 Clouds 12 1018 83 10000 4.12 80 21:50 14.05.2022
2102 Clouds 13 1018 80 10000 4.12 80 21:25 14.05.2022
2103 Clouds 14 1018 76 10000 4.12 80 20:26 14.05.2022
2104 Clouds 15 1019 73 10000 4.12 110 19:20 14.05.2022
2105 Clouds 16 1019 73 10000 4.12 80 18:57 14.05.2022
2106 Clouds 16 1019 71 8000 4.12 110 17:44 14.05.2022
2107 Clouds 16 1020 70 10000 4.63 130 15:58 14.05.2022
2108 Clouds 15 1020 70 10000 4.92 94 14:38 14.05.2022
2109 Clouds 16 1020 70 10000 4.63 130 13:27 14.05.2022
2110 Clouds 16 1020 68 10000 2.68 133 11:46 14.05.2022
2111 Clouds 14 1020 72 10000 2.57 220 10:44 14.05.2022
2112 Clouds 14 1020 73 10000 2.57 220 10:18 14.05.2022
2113 Clouds 13 1020 77 10000 2.57 210 09:23 14.05.2022
2114 Clouds 10 1019 86 10000 3.6 210 07:32 14.05.2022
2115 Clouds 11 1019 83 10000 4.63 250 04:35 14.05.2022
2116 Clouds 13 1018 67 10000 6.17 260 00:27 14.05.2022
2117 Clouds 13 1019 62 10000 5.66 250 23:25 13.05.2022
2118 Clouds 13 1019 62 10000 5.66 240 22:55 13.05.2022
2119 Clouds 15 1017 63 10000 5.66 240 22:21 13.05.2022
2120 Clouds 17 1017 50 10000 8.23 260 20:59 13.05.2022
2121 Clouds 17 1016 45 10000 8.23 260 20:37 13.05.2022
2122 Clouds 18 1016 53 10000 8.23 260 20:19 13.05.2022
2123 Clouds 18 1016 50 10000 10.29 260 18:56 13.05.2022
2124 Clouds 18 1016 51 10000 9.77 260 17:42 13.05.2022
2125 Clouds 19 1016 53 10000 9.77 260 17:22 13.05.2022
2126 Clouds 18 1016 56 10000 11.32 260 15:46 13.05.2022
2127 Clouds 16 1015 63 10000 11.32 260 14:38 13.05.2022
2128 Clouds 14 1015 71 10000 9.26 240 12:52 13.05.2022
2129 Clouds 14 1015 72 10000 10.29 240 11:54 13.05.2022
2130 Clouds 12 1014 75 10000 5.66 240 09:55 13.05.2022
2131 Clouds 12 1014 76 10000 9.77 230 09:29 13.05.2022
2132 Clouds 11 1013 78 10000 7.72 230 07:51 13.05.2022
2133 Clouds 11 1014 79 10000 5.81 223 07:18 13.05.2022
2134 Clouds 11 1014 80 10000 6.17 230 05:23 13.05.2022
2135 Clouds 11 1014 80 10000 7.72 230 00:59 13.05.2022
2136 Clouds 11 1014 84 10000 7.2 250 22:59 12.05.2022
2137 Clouds 11 1014 84 10000 7.2 250 22:34 12.05.2022
2138 Clouds 11 1014 82 6000 9.77 260 21:24 12.05.2022
2139 Clouds 13 1013 69 10000 7.2 250 19:49 12.05.2022
2140 Clouds 13 1014 76 10000 8.23 260 18:25 12.05.2022
2141 Clouds 13 1014 76 10000 8.23 260 18:25 12.05.2022
2142 Clouds 15 1014 65 10000 8.23 230 16:44 12.05.2022
2143 Clouds 16 1015 59 10000 9.26 230 14:57 12.05.2022
2144 Clouds 14 1015 61 10000 8.23 230 13:48 12.05.2022
2145 Clouds 13 1016 68 10000 7.2 230 11:48 12.05.2022
2146 Clouds 12 1016 72 10000 6.17 230 10:32 12.05.2022
2147 Clouds 10 1016 79 10000 5.66 230 08:52 12.05.2022
2148 Clouds 10 1016 79 10000 5.66 230 08:52 12.05.2022
2149 Clouds 10 1016 79 10000 5.66 230 08:52 12.05.2022
2150 Clouds 10 1016 79 10000 5.66 230 08:52 12.05.2022
2151 Clouds 9 1016 84 10000 5.14 240 07:59 12.05.2022
2152 Clouds 8 1015 86 10000 5.14 240 07:22 12.05.2022
2153 Clouds 8 1015 85 10000 5.66 230 03:50 12.05.2022
2154 Clouds 10 1014 79 10000 5.14 240 01:29 12.05.2022
2155 Clouds 11 1012 78 10000 5.66 250 22:59 11.05.2022
2156 Clouds 11 1012 77 10000 5.66 250 22:18 11.05.2022
2157 Clouds 12 1011 75 10000 4.63 260 21:24 11.05.2022
2158 Clouds 12 1011 75 10000 4.63 260 21:24 11.05.2022
2159 Clouds 13 1010 70 10000 7.15 280 20:20 11.05.2022
2160 Clouds 15 1008 60 10000 9.26 270 17:33 11.05.2022
2161 Clouds 15 1008 64 10000 8.23 280 16:19 11.05.2022
2162 Clouds 16 1007 54 10000 8.23 270 14:47 11.05.2022
2163 Clouds 15 1007 55 10000 8.23 260 14:24 11.05.2022
2164 Clouds 14 1006 65 10000 8.23 290 12:54 11.05.2022
2165 Clouds 12 1005 75 10000 7.2 280 11:48 11.05.2022
2166 Clouds 11 1004 79 10000 6.17 220 09:29 11.05.2022
2167 Clouds 10 1004 82 10000 8.75 230 06:30 11.05.2022
2168 Clouds 12 1005 75 10000 7.2 220 02:18 11.05.2022
2169 Clouds 13 1007 77 10000 7.72 220 22:58 10.05.2022
2170 Clouds 13 1006 75 10000 7.72 220 22:24 10.05.2022
2171 Clouds 13 1008 71 10000 6.17 220 21:26 10.05.2022
2172 Clouds 14 1007 67 10000 8.23 230 20:26 10.05.2022
2173 Clouds 15 1009 70 10000 7.2 230 18:49 10.05.2022
2174 Clouds 17 1009 57 10000 7.72 230 17:38 10.05.2022
2175 Clouds 17 1009 56 10000 9.77 230 16:24 10.05.2022
2176 Clouds 16 1009 62 10000 10.8 240 13:19 10.05.2022
2177 Clouds 15 1009 65 10000 12.35 230 11:53 10.05.2022
2178 Clouds 14 1009 68 10000 10.8 240 11:30 10.05.2022
2179 Clouds 14 1009 70 10000 9.77 240 10:56 10.05.2022
2180 Clouds 13 1009 77 10000 8.75 220 09:36 10.05.2022
2181 Clouds 11 1009 81 10000 7.2 220 07:58 10.05.2022
2182 Clouds 11 1009 81 10000 6.69 220 05:54 10.05.2022
2183 Clouds 11 1010 85 10000 6.69 230 01:53 10.05.2022
2184 Clouds 12 1011 84 10000 9.26 270 23:45 09.05.2022
2185 Clouds 15 1009 85 8000 10.8 210 22:35 09.05.2022
2186 Clouds 15 1009 81 10000 9.77 220 21:38 09.05.2022
2187 Clouds 16 1010 79 10000 10.8 210 19:56 09.05.2022
2188 Clouds 16 1010 80 10000 11.83 210 18:25 09.05.2022
2189 Clouds 15 1011 85 10000 11.32 210 17:25 09.05.2022
2190 Clouds 15 1012 80 10000 10.8 210 16:18 09.05.2022
2191 Rain 15 1012 80 10000 10.8 210 15:47 09.05.2022
2192 Rain 14 1013 82 10000 8.75 200 14:33 09.05.2022
2193 Rain 14 1015 79 10000 10.29 200 13:56 09.05.2022
2194 Clouds 15 1014 75 10000 9.77 200 12:55 09.05.2022
2195 Rain 14 1015 76 10000 8.23 200 11:52 09.05.2022
2196 Rain 14 1016 78 10000 7.72 200 10:47 09.05.2022
2197 Clouds 14 1017 78 10000 9.77 190 10:20 09.05.2022
2198 Clouds 13 1017 73 10000 7.72 210 07:56 09.05.2022
2199 Clouds 12 1020 82 10000 3.6 130 04:35 09.05.2022
2200 Clouds 12 1023 81 10000 4.12 190 00:23 09.05.2022
2201 Clouds 13 1023 77 10000 5.14 220 23:27 08.05.2022
2202 Clouds 13 1023 77 10000 5.66 210 22:29 08.05.2022
2203 Clouds 16 1023 65 10000 7.2 200 20:53 08.05.2022
2204 Clouds 17 1023 61 10000 7.2 200 20:22 08.05.2022
2205 Clouds 19 1023 52 10000 6.69 220 19:32 08.05.2022
2206 Clouds 20 1023 48 10000 6.17 210 18:35 08.05.2022
2207 Clouds 20 1024 61 10000 6.69 150 17:22 08.05.2022
2208 Clouds 20 1024 55 10000 5.14 230 15:44 08.05.2022
2209 Clouds 20 1024 54 10000 5.14 230 15:20 08.05.2022
2210 Clouds 17 1026 63 10000 3.6 130 12:46 08.05.2022
2211 Clouds 16 1026 70 10000 4.12 140 10:56 08.05.2022
2212 Clouds 15 1027 69 10000 3.09 140 10:22 08.05.2022
2213 Clouds 13 1027 75 10000 2.57 130 09:51 08.05.2022
2214 Clear 8 1027 91 10000 0.51 90 07:41 08.05.2022
2215 Clouds 7 1027 90 10000 2.06 90 04:56 08.05.2022
2216 Clouds 8 1027 87 10000 2.06 260 03:20 08.05.2022
2217 Clouds 9 1028 88 10000 2.57 80 00:31 08.05.2022
2218 Clouds 10 1028 86 10000 2.06 110 23:54 07.05.2022
2219 Clouds 11 1028 82 10000 2.57 110 22:58 07.05.2022
2220 Clouds 11 1028 80 10000 2.57 80 22:34 07.05.2022
2221 Clouds 12 1028 76 10000 3.6 80 21:44 07.05.2022
2222 Clouds 13 1028 76 10000 3.6 80 20:56 07.05.2022
2223 Clouds 14 1028 74 10000 4.12 100 19:59 07.05.2022
2224 Clouds 15 1028 73 10000 3.6 100 18:38 07.05.2022
2225 Clouds 14 1029 81 10000 3.6 90 15:58 07.05.2022
2226 Clouds 14 1029 81 8000 4.12 100 14:44 07.05.2022
2227 Mist 13 1029 90 10000 2.06 300 11:19 07.05.2022
2228 Mist 10 1028 95 1200 3.09 270 09:39 07.05.2022
2229 Mist 10 1028 94 5000 2.57 260 07:54 07.05.2022
2230 Clouds 10 1027 94 8000 2.06 270 06:44 07.05.2022
2231 Mist 9 1026 94 2000 2.57 270 05:34 07.05.2022
2232 Fog 10 1027 93 8000 2.57 280 03:32 07.05.2022
2233 Clouds 13 1025 92 10000 4.12 280 23:38 06.05.2022
2234 Rain 13 1025 87 10000 2.57 220 22:33 06.05.2022
2235 Clouds 13 1024 87 10000 3.09 260 21:47 06.05.2022
2236 Clouds 14 1024 86 10000 4.12 290 20:37 06.05.2022
2237 Clouds 14 1023 87 10000 5.14 300 19:42 06.05.2022
2238 Clouds 14 1023 88 10000 5.14 300 19:19 06.05.2022
2239 Clouds 13 1023 92 10000 5.14 300 18:24 06.05.2022
2240 Rain 13 1023 92 10000 4.63 240 16:57 06.05.2022
2241 Drizzle 15 1022 83 6000 8.75 230 15:47 06.05.2022
2242 Rain 15 1022 87 10000 7.72 230 14:54 06.05.2022
2243 Rain 14 1022 89 8000 6.69 220 13:26 06.05.2022
2244 Drizzle 14 1022 85 4000 6.69 220 12:40 06.05.2022
2245 Drizzle 15 1022 80 10000 6.69 220 11:49 06.05.2022
2246 Clouds 14 1022 79 10000 6.69 230 10:34 06.05.2022
2247 Clouds 14 1023 80 10000 7.2 220 09:46 06.05.2022
2248 Clouds 13 1023 81 10000 3.6 220 08:43 06.05.2022
2249 Clouds 12 1022 85 10000 4.12 220 06:50 06.05.2022
2250 Clouds 13 1023 83 10000 5.14 230 05:37 06.05.2022
2251 Clouds 14 1024 82 10000 2.06 220 02:50 06.05.2022
2252 Clouds 14 1024 79 10000 3.09 260 00:26 06.05.2022
2253 Clouds 16 1024 74 10000 2.57 220 22:28 05.05.2022
2254 Clouds 16 1024 73 10000 3.09 240 21:22 05.05.2022
2255 Clouds 17 1024 69 10000 3.6 260 19:55 05.05.2022
2256 Clouds 17 1024 68 10000 4.63 240 18:34 05.05.2022
2257 Clouds 17 1024 68 10000 5.66 270 16:33 05.05.2022
2258 Clouds 16 1024 71 10000 5.14 250 14:50 05.05.2022
2259 Clouds 16 1024 73 10000 4.12 250 13:22 05.05.2022
2260 Clouds 16 1024 73 10000 4.12 240 12:49 05.05.2022
2261 Clouds 14 1024 82 10000 4.63 230 10:48 05.05.2022
2262 Clouds 12 1023 84 10000 4.12 230 09:40 05.05.2022
2263 Clouds 10 1023 88 10000 4.63 230 07:35 05.05.2022
2264 Clouds 10 1023 87 10000 4.63 230 05:19 05.05.2022
2265 Clouds 11 1022 88 10000 4.12 250 01:56 05.05.2022
2266 Clouds 11 1022 85 10000 4.12 250 01:27 05.05.2022
2267 Clouds 12 1022 82 10000 2.06 350 23:50 04.05.2022
2268 Clouds 12 1021 82 10000 2.06 350 22:42 04.05.2022
2269 Clouds 14 1020 74 10000 3.58 340 21:50 04.05.2022
2270 Clouds 15 1020 70 10000 3.6 340 21:26 04.05.2022
2271 Clouds 17 1020 64 10000 4.63 290 20:25 04.05.2022
2272 Clouds 17 1020 62 10000 5.14 290 19:53 04.05.2022
2273 Clouds 18 1020 62 10000 5.14 300 18:56 04.05.2022
2274 Clouds 18 1019 62 10000 6.17 300 18:22 04.05.2022
2275 Clouds 17 1020 62 10000 6.17 290 17:42 04.05.2022
2276 Clouds 16 1019 64 10000 7.6 290 15:41 04.05.2022
2277 Clouds 16 1019 65 10000 7.72 290 15:23 04.05.2022
2278 Clouds 15 1019 68 10000 7.72 300 14:21 04.05.2022
2279 Clouds 14 1019 71 10000 7.72 280 13:33 04.05.2022
2280 Clouds 13 1019 75 10000 7.2 290 12:33 04.05.2022
2281 Clouds 13 1019 79 10000 7.72 290 10:41 04.05.2022
2282 Clouds 12 1018 83 10000 6.69 290 09:43 04.05.2022
2283 Clouds 12 1018 86 10000 6.69 280 08:46 04.05.2022
2284 Clouds 12 1017 89 10000 6.17 250 06:47 04.05.2022
2285 Clouds 12 1017 84 10000 5.14 240 02:59 04.05.2022
2286 Clouds 12 1018 82 10000 5.66 260 00:38 04.05.2022
2287 Clouds 14 1018 81 10000 3.09 240 22:37 03.05.2022
2288 Clouds 15 1018 81 10000 3.09 250 21:46 03.05.2022
2289 Clouds 16 1018 75 10000 3.09 230 20:54 03.05.2022
2290 Clouds 16 1018 76 10000 1.54 0 19:59 03.05.2022
2291 Clouds 16 1019 72 10000 3.58 276 18:54 03.05.2022
2292 Clouds 17 1019 70 10000 3.09 260 18:21 03.05.2022
2293 Clouds 16 1019 73 10000 3.6 120 16:44 03.05.2022
2294 Clouds 16 1020 74 10000 3.6 140 15:38 03.05.2022
2295 Clouds 15 1021 79 10000 3.09 270 12:47 03.05.2022
2296 Clouds 15 1021 79 10000 3.09 270 12:27 03.05.2022
2297 Clouds 14 1021 87 10000 2.06 160 10:57 03.05.2022
2298 Clouds 11 1021 93 8000 1.54 0 09:34 03.05.2022
2299 Mist 10 1021 93 3000 1.54 110 07:33 03.05.2022
2300 Drizzle 10 1021 94 8000 1.03 0 06:44 03.05.2022
2301 Clouds 11 1022 92 10000 1.03 0 01:47 03.05.2022
2302 Clouds 12 1022 90 10000 2.06 120 22:39 02.05.2022
2303 Clouds 11 1022 89 10000 3.6 130 21:52 02.05.2022
2304 Clouds 11 1022 90 10000 2.57 70 20:51 02.05.2022
2305 Clouds 12 1022 86 10000 2.57 90 18:44 02.05.2022
2306 Clouds 12 1022 86 10000 3.09 100 18:25 02.05.2022
2307 Clouds 13 1022 85 10000 2.68 111 17:37 02.05.2022
2308 Clouds 14 1022 79 10000 4.12 60 16:23 02.05.2022
2309 Clouds 14 1022 81 10000 2.06 50 15:31 02.05.2022
2310 Clouds 13 1022 86 7000 3.09 360 13:52 02.05.2022
2311 Clouds 12 1022 91 7000 1.54 0 12:20 02.05.2022
2312 Mist 11 1022 94 5000 1.54 0 10:51 02.05.2022
2313 Fog 10 1021 96 800 1.03 0 09:29 02.05.2022
2314 Fog 10 1021 96 500 2.06 360 07:51 02.05.2022
2315 Fog 9 1020 96 600 1.03 0 03:53 02.05.2022
2316 Clouds 9 1020 94 10000 1.54 300 00:24 02.05.2022
2317 Clouds 10 1020 95 10000 1.54 340 23:52 01.05.2022
2318 Clouds 11 1020 90 10000 1.54 220 22:33 01.05.2022
2319 Clouds 12 1019 89 10000 2.06 150 21:22 01.05.2022
2320 Drizzle 13 1019 84 8000 1.54 0 19:53 01.05.2022
2321 Clouds 13 1019 84 8000 3.6 260 18:58 01.05.2022
2322 Clouds 13 1019 83 10000 3.6 260 18:28 01.05.2022
2323 Clouds 13 1019 85 10000 4.63 270 17:29 01.05.2022
2324 Clouds 12 1019 89 10000 4.63 280 16:23 01.05.2022
2325 Clouds 12 1019 92 10000 5.14 270 15:36 01.05.2022
2326 Rain 11 1020 94 5000 5.14 270 13:47 01.05.2022
2327 Clouds 12 1019 89 7000 6.17 230 11:23 01.05.2022
2328 Rain 11 1019 89 5000 7.2 230 09:31 01.05.2022
2329 Rain 11 1020 89 5000 6.69 230 08:42 01.05.2022
2330 Clouds 11 1022 89 10000 6.69 230 03:44 01.05.2022
2331 Rain 10 1023 92 8000 5.66 230 00:29 01.05.2022
2332 Rain 11 1024 92 6000 4.12 240 21:49 30.04.2022
2333 Rain 12 1024 92 7000 4.12 240 21:18 30.04.2022
2334 Rain 12 1025 91 6000 3.6 260 19:42 30.04.2022
2335 Rain 12 1025 89 8000 4.63 240 18:28 30.04.2022
2336 Rain 13 1026 85 10000 6.17 230 16:50 30.04.2022
2337 Rain 12 1027 89 9000 5.14 230 15:47 30.04.2022
2338 Rain 12 1027 86 9000 6.17 230 14:53 30.04.2022
2339 Rain 11 1028 88 9000 3.6 230 13:20 30.04.2022
2340 Rain 11 1030 89 8000 3.6 240 11:34 30.04.2022
2341 Rain 11 1030 87 10000 3.6 220 10:45 30.04.2022
2342 Rain 11 1030 84 10000 4.63 220 09:41 30.04.2022
2343 Clouds 8 1029 89 10000 1.03 0 06:43 30.04.2022
2344 Clouds 8 1031 85 10000 2.06 140 02:55 30.04.2022
2345 Clouds 6 1032 87 10000 2.57 100 23:37 29.04.2022
2346 Clouds 7 1032 83 10000 3.6 80 22:31 29.04.2022
2347 Clouds 8 1032 81 10000 3.6 90 21:53 29.04.2022
2348 Clouds 10 1031 74 10000 4.12 90 20:49 29.04.2022
2349 Clouds 11 1032 73 10000 4.63 80 19:47 29.04.2022
2350 Clouds 12 1032 70 10000 4.92 90 17:59 29.04.2022
2351 Clouds 12 1032 70 10000 5.14 90 17:23 29.04.2022
2352 Clouds 13 1032 66 10000 4.63 100 15:49 29.04.2022
2353 Clouds 12 1032 67 10000 4.02 90 14:22 29.04.2022
2354 Clouds 12 1033 69 10000 4.12 90 13:21 29.04.2022
2355 Clouds 10 1033 73 10000 4.12 80 11:49 29.04.2022
2356 Clouds 6 1033 88 10000 2.06 350 08:51 29.04.2022
2357 Clouds 3 1032 89 10000 1.03 0 07:28 29.04.2022
2358 Clouds 3 1032 90 10000 1.03 0 06:39 29.04.2022
2359 Clouds 3 1033 91 10000 1.03 340 04:53 29.04.2022
2360 Clouds 4 1033 86 10000 2.57 90 00:45 29.04.2022
2361 Clouds 6 1033 83 10000 3.09 90 23:28 28.04.2022
2362 Clouds 6 1033 81 10000 3.6 90 22:41 28.04.2022
2363 Clouds 7 1033 78 10000 4.12 90 21:47 28.04.2022
2364 Clouds 8 1033 75 10000 4.47 100 21:19 28.04.2022
2365 Clouds 9 1032 71 10000 4.63 100 20:25 28.04.2022
2366 Clouds 10 1032 69 10000 4.92 90 19:41 28.04.2022
2367 Clouds 10 1032 69 10000 4.92 90 19:22 28.04.2022
2368 Clouds 11 1032 68 10000 5.14 90 18:35 28.04.2022
2369 Clouds 12 1033 64 10000 4.12 90 17:20 28.04.2022
2370 Clouds 12 1033 63 10000 4.63 90 16:40 28.04.2022
2371 Clouds 12 1032 65 10000 5.14 80 16:18 28.04.2022
2372 Clouds 12 1032 66 10000 4.63 90 15:27 28.04.2022
2373 Clouds 11 1032 71 10000 3.13 101 13:44 28.04.2022
2374 Clouds 11 1032 73 10000 3.6 140 12:44 28.04.2022
2375 Clouds 11 1032 75 10000 3.09 130 11:56 28.04.2022
2376 Clouds 10 1032 83 10000 3.09 130 10:46 28.04.2022
2377 Clouds 8 1032 87 10000 2.06 100 09:54 28.04.2022
2378 Clear 6 1031 91 10000 0.51 0 08:31 28.04.2022
2379 Clear 4 1030 91 10000 1.03 0 06:59 28.04.2022
2380 Clouds 4 1031 89 10000 2.06 310 05:55 28.04.2022
2381 Clouds 4 1031 90 10000 2.06 300 05:37 28.04.2022
2382 Clouds 5 1031 89 10000 2.06 90 04:38 28.04.2022
2383 Clouds 5 1031 86 10000 3.09 70 00:22 28.04.2022
2384 Clouds 7 1031 79 10000 4.12 100 22:38 27.04.2022
2385 Clouds 8 1030 75 10000 4.12 90 21:54 27.04.2022
2386 Clouds 9 1030 70 10000 5.14 80 20:59 27.04.2022
2387 Clouds 10 1030 69 10000 5.14 90 20:37 27.04.2022
2388 Clouds 11 1029 71 10000 5.14 100 19:37 27.04.2022
2389 Clouds 11 1029 69 10000 5.66 90 18:56 27.04.2022
2390 Clouds 12 1029 70 10000 6.17 80 18:22 27.04.2022
2391 Clouds 12 1029 74 10000 5.66 90 16:29 27.04.2022
2392 Clouds 12 1029 74 10000 5.66 80 14:31 27.04.2022
2393 Clouds 12 1029 78 10000 4.63 110 11:45 27.04.2022
2394 Clouds 11 1028 81 10000 4.63 80 11:20 27.04.2022
2395 Clear 9 1027 92 10000 3.09 50 09:19 27.04.2022
2396 Clouds 6 1027 89 6000 3.09 10 07:18 27.04.2022
2397 Clear 6 1026 89 10000 2.57 20 04:30 27.04.2022
2398 Clear 5 1026 91 10000 3.09 100 01:32 27.04.2022
2399 Clear 6 1026 91 10000 3.6 80 00:36 27.04.2022
2400 Clear 7 1025 88 10000 3.6 70 23:25 26.04.2022
2401 Clear 7 1025 87 10000 3.6 80 22:58 26.04.2022
2402 Clear 8 1025 85 10000 3.6 80 22:39 26.04.2022
2403 Clear 10 1024 79 10000 4.63 100 21:26 26.04.2022
2404 Clear 10 1024 79 10000 4.63 100 21:26 26.04.2022
2405 Clouds 11 1024 76 10000 5.14 80 20:41 26.04.2022
2406 Clouds 11 1024 72 10000 6.17 80 19:53 26.04.2022
2407 Clouds 12 1024 70 10000 6.17 80 19:32 26.04.2022
2408 Clouds 12 1024 68 10000 5.66 90 18:44 26.04.2022
2409 Clouds 13 1024 69 10000 6.17 90 17:54 26.04.2022
2410 Clouds 13 1023 71 10000 5.66 90 16:48 26.04.2022
2411 Clouds 12 1023 77 10000 5.14 80 13:59 26.04.2022
2412 Clouds 12 1023 76 10000 5.14 130 13:32 26.04.2022
2413 Clouds 13 1022 78 10000 5.66 90 11:49 26.04.2022
2414 Clouds 10 1022 87 10000 3.6 110 10:34 26.04.2022
2415 Clouds 8 1021 88 10000 3.09 90 08:54 26.04.2022
2416 Mist 6 1020 89 5000 2.57 90 07:22 26.04.2022
2417 Clouds 5 1020 90 10000 1.03 0 04:23 26.04.2022
2418 Clouds 5 1020 87 10000 1.03 340 01:22 26.04.2022
2419 Clouds 6 1020 85 10000 2.57 120 00:26 26.04.2022
2420 Clouds 7 1019 77 10000 3.6 70 22:33 25.04.2022
2421 Clouds 8 1019 73 10000 4.63 80 21:40 25.04.2022
2422 Clouds 9 1019 69 10000 4.63 70 20:39 25.04.2022
2423 Clouds 10 1019 66 10000 5.14 80 18:55 25.04.2022
2424 Clouds 11 1019 68 10000 5.14 90 17:52 25.04.2022
2425 Clouds 11 1019 68 10000 5.14 90 16:55 25.04.2022
2426 Clouds 11 1019 64 10000 6.17 80 15:29 25.04.2022
2427 Clouds 12 1019 66 10000 6.17 90 14:38 25.04.2022
2428 Clouds 11 1019 68 10000 6.17 100 13:32 25.04.2022
2429 Clouds 11 1018 71 10000 6.69 70 11:37 25.04.2022
2430 Clouds 10 1018 75 10000 6.69 80 10:23 25.04.2022
2431 Clouds 8 1017 86 10000 3.58 80 08:35 25.04.2022
2432 Clouds 8 1016 89 10000 3.09 80 06:38 25.04.2022
2433 Clouds 8 1017 85 10000 5.14 70 03:47 25.04.2022
2434 Clear 9 1016 85 10000 6.17 70 00:43 25.04.2022
2435 Clouds 9 1016 84 10000 5.14 60 23:51 24.04.2022
2436 Clouds 10 1015 77 10000 7.2 60 22:41 24.04.2022
2437 Clouds 10 1015 75 10000 6.17 50 22:18 24.04.2022
2438 Clouds 11 1015 69 10000 6.17 60 21:24 24.04.2022
2439 Clouds 12 1015 67 10000 7.2 50 20:48 24.04.2022
2440 Clouds 13 1015 64 10000 6.69 60 20:22 24.04.2022
2441 Clouds 13 1014 62 10000 8.23 50 19:19 24.04.2022
2442 Clouds 13 1013 62 10000 8.75 60 18:20 24.04.2022
2443 Clouds 13 1014 64 10000 8.75 50 17:27 24.04.2022
2444 Clouds 13 1015 65 10000 9.77 50 16:58 24.04.2022
2445 Clouds 13 1015 66 10000 9.26 50 16:30 24.04.2022
2446 Clouds 13 1015 68 10000 9.77 50 15:53 24.04.2022
2447 Clouds 12 1015 70 10000 8.23 70 14:57 24.04.2022
2448 Clouds 11 1014 73 10000 7.2 60 13:45 24.04.2022
2449 Clouds 12 1014 75 10000 7.72 50 13:23 24.04.2022
2450 Clouds 11 1014 75 10000 8.75 60 11:55 24.04.2022
2451 Clouds 11 1014 75 10000 8.75 50 11:22 24.04.2022
2452 Clouds 10 1013 83 10000 8.23 40 09:47 24.04.2022
2453 Clouds 9 1013 88 10000 6.71 50 08:31 24.04.2022
2454 Clouds 8 1012 83 10000 6.17 50 05:46 24.04.2022
2455 Clouds 9 1012 85 10000 6.71 50 02:59 24.04.2022
2456 Clouds 10 1011 76 10000 7.2 50 00:55 24.04.2022
2457 Clouds 11 1011 75 10000 5.66 50 23:55 23.04.2022
2458 Clouds 11 1011 75 10000 6.69 60 23:25 23.04.2022
2459 Clouds 11 1011 74 10000 7.72 50 22:40 23.04.2022
2460 Clouds 11 1010 74 10000 7.72 50 21:48 23.04.2022
2461 Clouds 11 1010 74 10000 6.17 50 21:29 23.04.2022
2462 Clouds 13 1009 72 10000 8.23 50 20:27 23.04.2022
2463 Clouds 13 1009 74 10000 7.72 50 19:21 23.04.2022
2464 Clouds 13 1009 74 10000 8.75 50 18:54 23.04.2022
2465 Clouds 13 1009 74 10000 9.77 50 18:32 23.04.2022
2466 Clouds 13 1009 74 10000 9.77 50 18:32 23.04.2022
2467 Clouds 12 1010 75 10000 8.75 50 17:47 23.04.2022
2468 Clouds 12 1009 76 10000 8.75 50 16:46 23.04.2022
2469 Clouds 12 1010 76 10000 9.26 40 15:52 23.04.2022
2470 Clouds 12 1010 76 10000 9.26 40 15:52 23.04.2022
2471 Clouds 13 1010 74 10000 9.77 50 13:33 23.04.2022
2472 Clouds 11 1010 81 10000 8.23 40 11:30 23.04.2022
2473 Clouds 10 1009 84 10000 7.72 40 10:32 23.04.2022
2474 Clouds 9 1010 84 10000 7.72 50 08:27 23.04.2022
2475 Clouds 8 1009 82 10000 7.72 60 04:18 23.04.2022
2476 Clouds 8 1011 81 10000 8.23 60 03:27 23.04.2022
2477 Clouds 11 1010 77 10000 6.71 40 23:37 22.04.2022
2478 Clouds 11 1010 77 10000 6.71 40 23:18 22.04.2022
2479 Clouds 12 1010 72 10000 7.2 60 21:58 22.04.2022
2480 Clouds 12 1010 74 10000 6.17 40 21:39 22.04.2022
2481 Clouds 13 1010 69 10000 6.71 40 20:34 22.04.2022
2482 Clouds 14 1010 64 10000 9.26 50 19:26 22.04.2022
2483 Clouds 14 1010 67 10000 8.23 30 18:56 22.04.2022
2484 Clouds 14 1010 66 10000 9.26 40 18:24 22.04.2022
2485 Clouds 14 1011 69 10000 9.77 50 16:54 22.04.2022
2486 Clouds 12 1012 73 10000 7.2 30 15:58 22.04.2022
2487 Clouds 12 1013 75 10000 7.2 40 15:24 22.04.2022
2488 Clouds 11 1012 79 10000 6.71 30 14:38 22.04.2022
2489 Clouds 11 1013 78 10000 7.2 30 13:41 22.04.2022
2490 Rain 10 1013 80 10000 9.26 70 12:36 22.04.2022
2491 Clouds 10 1014 75 10000 8.23 50 11:23 22.04.2022
2492 Clouds 10 1014 76 10000 7.2 50 10:56 22.04.2022
2493 Clouds 10 1014 80 10000 7.72 70 10:32 22.04.2022
2494 Clouds 10 1014 81 10000 6.17 60 09:54 22.04.2022
2495 Clouds 9 1014 86 8000 7.72 70 08:56 22.04.2022
2496 Clouds 9 1014 86 10000 7.72 70 08:36 22.04.2022
2497 Clouds 8 1014 86 10000 6.69 70 06:21 22.04.2022
2498 Clouds 11 1014 78 10000 8.75 80 00:56 22.04.2022
2499 Clouds 12 1013 74 10000 7.72 60 23:31 21.04.2022
2500 Clouds 11 1013 75 10000 6.17 60 22:36 21.04.2022
2501 Clouds 12 1013 74 10000 7.2 60 21:25 21.04.2022
2502 Clouds 12 1013 71 10000 7.2 70 20:29 21.04.2022
2503 Clouds 13 1013 67 10000 7.2 80 18:49 21.04.2022
2504 Clouds 13 1013 67 10000 6.69 70 18:49 21.04.2022
2505 Clouds 14 1013 66 10000 7.72 90 18:19 21.04.2022
2506 Clouds 13 1013 73 10000 6.69 90 16:56 21.04.2022
2507 Clouds 13 1013 72 10000 7.72 90 15:24 21.04.2022
2508 Clouds 12 1013 74 10000 7.72 90 14:51 21.04.2022
2509 Clouds 13 1013 72 10000 7.72 100 13:59 21.04.2022
2510 Clouds 13 1013 72 10000 7.72 100 13:21 21.04.2022
2511 Clouds 12 1013 73 10000 6.17 90 11:46 21.04.2022
2512 Clouds 11 1012 80 10000 6.69 100 09:24 21.04.2022
2513 Clear 10 1012 86 10000 6.69 120 08:29 21.04.2022
2514 Clouds 8 1012 91 9000 3.6 100 06:26 21.04.2022
2515 Clear 7 1012 87 10000 3.6 80 03:39 21.04.2022
2516 Clear 7 1012 87 10000 3.6 80 03:39 21.04.2022
2517 Mist 7 1012 88 4000 3.6 80 03:18 21.04.2022
2518 Clouds 7 1012 89 8000 1.54 0 02:43 21.04.2022
2519 Clear 7 1013 85 10000 1.54 0 00:27 21.04.2022
2520 Clear 8 1014 82 10000 4.12 110 23:25 20.04.2022
2521 Clear 8 1014 82 10000 2.57 100 22:58 20.04.2022
2522 Clear 8 1014 81 10000 2.57 100 22:32 20.04.2022
2523 Clouds 10 1014 75 10000 4.12 100 21:35 20.04.2022
2524 Clouds 11 1014 73 10000 4.63 100 20:43 20.04.2022
2525 Clouds 11 1014 71 10000 4.12 90 20:20 20.04.2022
2526 Clouds 13 1014 65 10000 5.66 100 19:38 20.04.2022
2527 Clouds 13 1015 65 10000 6.17 100 18:42 20.04.2022
2528 Clouds 14 1016 60 10000 6.17 100 16:59 20.04.2022
2529 Clouds 15 1016 59 10000 6.17 90 16:39 20.04.2022
2530 Clouds 13 1017 64 10000 5.66 100 14:52 20.04.2022
2531 Clouds 12 1019 70 10000 3.6 110 11:57 20.04.2022
2532 Clouds 11 1019 73 10000 3.6 80 11:36 20.04.2022
2533 Clouds 9 1020 81 10000 2.57 90 10:30 20.04.2022
2534 Clouds 6 1020 88 10000 1.54 0 09:27 20.04.2022
2535 Fog 3 1020 89 10000 1.54 0 08:25 20.04.2022
2536 Fog 4 1021 86 10000 0.51 360 07:44 20.04.2022
2537 Clouds 3 1021 89 10000 1.54 0 04:49 20.04.2022
2538 Clouds 5 1021 87 10000 1.03 180 01:20 20.04.2022
2539 Clear 5 1021 86 10000 0.45 223 01:20 20.04.2022
2540 Clouds 6 1021 86 10000 1.03 240 00:20 20.04.2022
2541 Clouds 7 1021 79 10000 2.57 80 22:44 19.04.2022
2542 Clouds 8 1021 77 10000 1.54 0 22:22 19.04.2022
2543 Clouds 8 1020 75 10000 2.57 110 21:38 19.04.2022
2544 Clouds 10 1020 71 10000 3.6 80 20:56 19.04.2022
2545 Clouds 10 1020 69 10000 3.6 80 20:36 19.04.2022
2546 Clouds 12 1019 66 10000 3.6 120 19:32 19.04.2022
2547 Clouds 12 1019 64 10000 4.12 110 18:26 19.04.2022
2548 Clouds 12 1019 67 10000 3.6 110 16:47 19.04.2022
2549 Clouds 11 1019 70 10000 3.6 110 16:24 19.04.2022
2550 Clouds 12 1019 66 10000 3.6 320 15:23 19.04.2022
2551 Clouds 12 1020 61 10000 3.6 340 14:32 19.04.2022
2552 Clouds 11 1020 68 10000 4.12 290 12:52 19.04.2022
2553 Clouds 10 1020 70 10000 3.6 270 12:26 19.04.2022
2554 Clouds 9 1019 77 10000 4.12 280 11:23 19.04.2022
2555 Clouds 6 1019 84 10000 3.09 260 09:27 19.04.2022
2556 Clouds 4 1018 89 10000 3.09 240 07:26 19.04.2022
2557 Clouds 5 1017 83 10000 3.6 260 04:23 19.04.2022
2558 Clouds 6 1017 80 10000 3.09 260 01:18 19.04.2022
2559 Clouds 7 1016 76 10000 4.12 270 23:40 18.04.2022
2560 Clouds 8 1016 74 10000 3.09 260 21:56 18.04.2022
2561 Clouds 10 1016 71 10000 3.09 280 21:24 18.04.2022
2562 Clouds 11 1015 52 10000 5.14 260 20:38 18.04.2022
2563 Clouds 11 1015 50 10000 5.14 260 20:38 18.04.2022
2564 Clouds 12 1015 61 10000 5.66 270 19:59 18.04.2022
2565 Clouds 12 1015 67 10000 5.66 270 19:29 18.04.2022
2566 Clouds 11 1015 67 10000 3.6 260 18:37 18.04.2022
2567 Clouds 10 1015 74 10000 4.02 286 17:39 18.04.2022
2568 Clouds 10 1015 74 10000 4.02 286 17:39 18.04.2022
2569 Clouds 10 1016 77 10000 4.02 274 17:19 18.04.2022
2570 Rain 10 1016 77 10000 6.17 210 16:36 18.04.2022
2571 Clouds 10 1016 73 10000 3.6 180 15:30 18.04.2022
2572 Clouds 12 1016 69 10000 3.6 250 13:55 18.04.2022
2573 Clouds 11 1016 70 10000 5.14 260 12:41 18.04.2022
2574 Clouds 10 1016 75 10000 4.12 240 11:48 18.04.2022
2575 Clouds 9 1016 80 10000 4.12 240 10:46 18.04.2022
2576 Clouds 8 1016 85 10000 3.6 210 09:31 18.04.2022
2577 Clouds 8 1016 85 10000 3.6 210 09:31 18.04.2022
2578 Clouds 7 1015 86 10000 3.6 220 08:37 18.04.2022
2579 Clouds 7 1015 87 10000 3.6 230 06:25 18.04.2022
2580 Clouds 8 1014 87 10000 5.14 230 02:27 18.04.2022
2581 Clouds 10 1013 84 10000 4.63 220 22:55 17.04.2022
2582 Clouds 10 1013 85 10000 4.63 220 22:32 17.04.2022
2583 Rain 10 1013 84 10000 5.66 230 21:34 17.04.2022
2584 Clouds 11 1013 78 10000 6.69 200 20:51 17.04.2022
2585 Clouds 13 1012 76 10000 6.69 210 20:18 17.04.2022
2586 Clouds 13 1013 80 10000 6.17 200 18:42 17.04.2022
2587 Drizzle 12 1013 87 4500 2.57 170 17:20 17.04.2022
2588 Drizzle 12 1015 89 4000 4.12 200 15:34 17.04.2022
2589 Rain 12 1015 85 7000 5.66 190 14:45 17.04.2022
2590 Clouds 12 1016 85 9000 5.14 220 13:28 17.04.2022
2591 Clouds 12 1017 84 8000 4.12 140 12:31 17.04.2022
2592 Mist 11 1018 86 5000 3.6 140 10:51 17.04.2022
2593 Mist 11 1018 88 5000 3.6 140 10:29 17.04.2022
2594 Mist 11 1018 88 5000 4.12 140 09:51 17.04.2022
2595 Clouds 11 1019 88 6000 4.63 150 09:18 17.04.2022
2596 Clouds 11 1020 89 8000 5.66 140 08:31 17.04.2022
2597 Clouds 11 1021 86 10000 3.6 190 05:33 17.04.2022
2598 Clouds 11 1023 83 10000 2.57 200 01:52 17.04.2022
2599 Clouds 11 1024 81 10000 3.6 200 00:37 17.04.2022
2600 Clouds 12 1024 80 10000 3.09 180 23:19 16.04.2022
2601 Clouds 13 1024 76 10000 3.6 210 21:46 16.04.2022
2602 Clouds 13 1024 75 10000 6.17 210 20:54 16.04.2022
2603 Clouds 14 1024 71 10000 4.63 200 19:24 16.04.2022
2604 Clouds 14 1024 72 10000 6.17 210 18:43 16.04.2022
2605 Clouds 16 1024 64 10000 7.72 200 16:51 16.04.2022
2606 Clouds 16 1025 63 10000 6.69 210 15:51 16.04.2022
2607 Clouds 16 1025 65 10000 7.2 210 14:58 16.04.2022
2608 Clouds 16 1025 65 10000 7.2 210 14:37 16.04.2022
2609 Clouds 16 1025 66 10000 6.17 210 13:49 16.04.2022
2610 Clouds 15 1025 67 10000 3.6 120 12:43 16.04.2022
2611 Clouds 13 1026 74 10000 3.09 160 11:33 16.04.2022
2612 Clouds 11 1026 80 10000 2.57 180 10:29 16.04.2022
2613 Clouds 10 1026 89 10000 1.54 0 09:36 16.04.2022
2614 Clouds 9 1026 90 10000 1.03 0 08:51 16.04.2022
2615 Clouds 8 1025 90 8000 2.06 130 07:21 16.04.2022
2616 Clouds 9 1026 93 8000 4.12 200 04:58 16.04.2022
2617 Clouds 11 1025 90 10000 1.03 0 01:23 16.04.2022
2618 Clouds 12 1025 88 10000 2.06 240 23:45 15.04.2022
2619 Clouds 13 1024 84 10000 2.06 110 22:48 15.04.2022
2620 Clouds 13 1024 84 10000 2.57 100 22:28 15.04.2022
2621 Clouds 16 1024 74 10000 3.09 100 21:20 15.04.2022
2622 Clouds 16 1024 68 10000 4.12 280 20:38 15.04.2022
2623 Clouds 17 1024 66 10000 5.14 260 19:43 15.04.2022
2624 Clouds 18 1023 66 10000 6.69 230 18:58 15.04.2022
2625 Clouds 18 1023 68 10000 6.69 230 18:26 15.04.2022
2626 Clouds 18 1023 67 10000 4.63 210 17:57 15.04.2022
2627 Clouds 18 1023 66 10000 4.63 210 17:24 15.04.2022
2628 Clouds 16 1023 73 10000 6.17 200 16:24 15.04.2022
2629 Clouds 16 1023 74 10000 5.66 200 15:42 15.04.2022
2630 Clouds 16 1023 74 10000 5.66 200 15:42 15.04.2022
2631 Clouds 15 1022 78 10000 7.2 200 13:55 15.04.2022
2632 Clouds 15 1022 76 10000 6.17 210 12:52 15.04.2022
2633 Clouds 15 1022 77 10000 6.17 210 12:24 15.04.2022
2634 Clouds 15 1022 77 10000 6.17 200 11:50 15.04.2022
2635 Clouds 14 1022 81 10000 4.12 140 10:46 15.04.2022
2636 Clouds 13 1022 81 8000 3.6 120 09:59 15.04.2022
2637 Clouds 12 1021 86 8000 3.09 120 09:22 15.04.2022
2638 Clouds 12 1021 90 6000 4.12 140 08:39 15.04.2022
2639 Clouds 11 1020 89 7000 4.02 130 06:48 15.04.2022
2640 Clouds 11 1021 86 10000 3.6 140 04:43 15.04.2022
2641 Clouds 12 1021 79 10000 5.14 200 00:34 15.04.2022
2642 Clouds 12 1020 82 10000 2.57 140 23:22 14.04.2022
2643 Clouds 11 1020 84 10000 3.09 160 22:45 14.04.2022
2644 Clouds 12 1020 81 10000 4.12 150 22:27 14.04.2022
2645 Clouds 12 1019 79 10000 4.12 150 21:50 14.04.2022
2646 Clouds 14 1019 72 10000 4.63 200 19:41 14.04.2022
2647 Rain 14 1019 72 10000 4.63 200 19:20 14.04.2022
2648 Rain 15 1019 73 10000 5.66 210 17:45 14.04.2022
2649 Rain 15 1019 73 10000 6.17 210 16:51 14.04.2022
2650 Rain 15 1019 72 10000 7.2 200 15:52 14.04.2022
2651 Clouds 15 1019 70 10000 5.66 190 13:53 14.04.2022
2652 Clouds 15 1019 72 10000 5.66 190 13:21 14.04.2022
2653 Clouds 13 1019 75 10000 4.12 180 12:32 14.04.2022
2654 Clouds 13 1019 77 10000 4.63 190 11:43 14.04.2022
2655 Clouds 12 1019 79 10000 5.14 170 11:18 14.04.2022
2656 Clouds 11 1019 86 10000 3.09 210 10:31 14.04.2022
2657 Clouds 9 1019 91 10000 4.12 190 09:30 14.04.2022
2658 Clouds 8 1018 91 10000 1.54 0 08:24 14.04.2022
2659 Clouds 7 1018 91 10000 3.6 240 05:57 14.04.2022
2660 Clouds 10 1017 85 10000 1.54 0 00:59 14.04.2022
2661 Clouds 12 1017 81 10000 3.09 160 22:38 13.04.2022
2662 Clouds 13 1017 74 10000 2.06 170 21:43 13.04.2022
2663 Clouds 14 1017 72 10000 2.57 190 20:45 13.04.2022
2664 Clouds 16 1016 67 10000 4.12 210 19:54 13.04.2022
2665 Clouds 16 1016 68 10000 4.12 220 18:39 13.04.2022
2666 Clouds 16 1015 67 10000 4.12 230 17:41 13.04.2022
2667 Clouds 16 1015 67 10000 4.12 230 17:23 13.04.2022
2668 Clouds 16 1015 69 10000 3.09 230 16:18 13.04.2022
2669 Clouds 16 1014 67 10000 3.6 210 15:29 13.04.2022
2670 Clouds 16 1014 69 10000 4.12 260 14:40 13.04.2022
2671 Clouds 15 1014 73 10000 4.63 260 13:54 13.04.2022
2672 Clouds 15 1013 76 10000 4.12 280 12:57 13.04.2022
2673 Clouds 13 1013 80 10000 4.63 240 11:58 13.04.2022
2674 Clouds 12 1013 85 10000 4.63 230 10:41 13.04.2022
2675 Mist 10 1011 90 5000 3.6 250 08:49 13.04.2022
2676 Clouds 10 1011 90 6000 3.6 250 08:24 13.04.2022
2677 Clouds 10 1009 90 6000 3.6 220 06:50 13.04.2022
2678 Mist 10 1009 90 5000 3.6 220 06:24 13.04.2022
2679 Drizzle 9 1008 91 4500 3.6 230 02:27 13.04.2022
2680 Mist 9 1007 90 5000 3.6 270 00:20 13.04.2022
2681 Mist 9 1006 91 5000 3.09 220 22:36 12.04.2022
2682 Mist 9 1006 92 5000 2.06 250 21:56 12.04.2022
2683 Clouds 9 1005 91 6000 2.06 280 20:48 12.04.2022
2684 Clouds 9 1005 92 9000 2.57 330 20:22 12.04.2022
2685 Mist 9 1004 92 8000 3.09 330 19:40 12.04.2022
2686 Mist 9 1004 92 8000 3.09 330 19:18 12.04.2022
2687 Drizzle 9 1003 94 4000 3.6 350 17:49 12.04.2022
2688 Clouds 9 1003 94 2500 3.09 20 16:48 12.04.2022
2689 Clouds 9 1002 95 3500 4.12 40 15:38 12.04.2022
2690 Clouds 9 1002 95 3500 4.12 40 15:20 12.04.2022
2691 Rain 9 1002 94 2500 4.12 30 13:53 12.04.2022
2692 Rain 9 1002 94 2000 4.12 40 13:27 12.04.2022
2693 Rain 9 1003 93 3500 3.6 50 12:21 12.04.2022
2694 Drizzle 9 1003 94 6000 3.6 80 11:39 12.04.2022
2695 Rain 9 1003 93 10000 3.6 80 09:52 12.04.2022
2696 Rain 9 1003 92 10000 1.54 120 08:51 12.04.2022
2697 Clouds 9 1002 91 10000 1.54 50 07:20 12.04.2022
2698 Clouds 9 1002 90 10000 2.57 120 05:41 12.04.2022
2699 Clouds 10 1003 89 10000 3.09 150 02:49 12.04.2022
2700 Clouds 11 1002 84 10000 4.12 150 23:25 11.04.2022
2701 Clouds 11 1002 82 10000 5.66 140 22:33 11.04.2022
2702 Clouds 11 1002 82 10000 4.63 160 21:23 11.04.2022
2703 Clouds 11 1002 80 10000 6.69 150 20:35 11.04.2022
2704 Clouds 12 1002 78 10000 4.12 140 19:59 11.04.2022
2705 Clouds 12 1002 77 10000 4.63 140 19:27 11.04.2022
2706 Clouds 11 1001 76 10000 6.17 130 18:56 11.04.2022
2707 Clouds 12 1001 74 10000 8.75 120 17:58 11.04.2022
2708 Clouds 12 1001 73 10000 9.26 130 17:39 11.04.2022
2709 Clouds 12 1001 73 10000 9.26 130 17:39 11.04.2022
2710 Clouds 11 1001 76 10000 9.77 120 16:36 11.04.2022
2711 Clouds 10 1001 76 10000 10.8 110 14:59 11.04.2022
2712 Rain 9 1002 82 9000 9.77 100 13:36 11.04.2022
2713 Rain 11 1004 67 10000 10.8 100 12:40 11.04.2022
2714 Rain 11 1004 68 10000 10.8 100 12:21 11.04.2022
2715 Clouds 11 1004 66 10000 10.29 110 10:41 11.04.2022
2716 Clouds 10 1004 70 10000 9.77 120 09:57 11.04.2022
2717 Clear 9 1007 73 10000 7.2 120 07:59 11.04.2022
2718 Clouds 8 1009 75 10000 3.6 140 04:35 11.04.2022
2719 Clouds 9 1010 76 10000 6.69 140 23:30 10.04.2022
2720 Clouds 9 1010 81 10000 6.17 130 22:27 10.04.2022
2721 Clouds 9 1011 82 10000 5.66 140 21:52 10.04.2022
2722 Clouds 9 1011 78 10000 8.23 140 20:52 10.04.2022
2723 Clouds 10 1012 74 10000 5.66 160 19:56 10.04.2022
2724 Clouds 10 1012 75 10000 6.69 160 19:34 10.04.2022
2725 Clouds 10 1012 76 10000 7.2 150 18:48 10.04.2022
2726 Clouds 10 1012 76 10000 7.2 150 18:48 10.04.2022
2727 Clouds 9 1011 77 10000 7.2 140 18:25 10.04.2022
2728 Clouds 10 1011 75 10000 7.2 140 17:43 10.04.2022
2729 Clouds 10 1013 73 10000 7.2 140 16:52 10.04.2022
2730 Clouds 10 1014 69 10000 6.69 160 15:38 10.04.2022
2731 Clouds 10 1014 69 10000 6.69 150 14:40 10.04.2022
2732 Clouds 9 1015 74 10000 6.71 150 12:58 10.04.2022
2733 Clouds 9 1015 75 10000 5.66 140 12:26 10.04.2022
2734 Clouds 8 1015 75 10000 6.69 150 11:35 10.04.2022
2735 Clouds 8 1015 75 10000 6.69 150 10:58 10.04.2022
2736 Clouds 7 1016 75 10000 6.69 150 10:22 10.04.2022
2737 Clouds 7 1016 74 10000 4.12 160 09:40 10.04.2022
2738 Clouds 6 1015 74 10000 4.63 160 08:25 10.04.2022
2739 Clouds 6 1015 74 10000 4.12 150 07:47 10.04.2022
2740 Clear 5 1015 76 10000 2.68 125 06:43 10.04.2022
2741 Clear 3 1017 76 10000 4.63 180 02:48 10.04.2022
2742 Clouds 4 1018 80 10000 4.12 220 00:51 10.04.2022
2743 Clouds 5 1018 76 10000 4.12 180 23:50 09.04.2022
2744 Clouds 5 1018 76 10000 4.12 170 22:50 09.04.2022
2745 Clouds 6 1018 74 10000 3.6 150 21:48 09.04.2022
2746 Clouds 7 1017 71 10000 5.14 150 20:57 09.04.2022
2747 Clouds 8 1017 68 10000 4.12 150 20:26 09.04.2022
2748 Clouds 8 1017 64 10000 4.63 150 19:42 09.04.2022
2749 Clouds 9 1017 62 10000 4.12 140 19:18 09.04.2022
2750 Clouds 9 1017 64 10000 4.12 150 19:18 09.04.2022
2751 Clouds 10 1017 62 10000 2.68 140 18:21 09.04.2022
2752 Clouds 9 1018 59 10000 2.57 0 17:39 09.04.2022
2753 Clouds 10 1017 50 10000 3.09 230 16:53 09.04.2022
2754 Clouds 10 1018 50 10000 3.6 290 15:59 09.04.2022
2755 Clouds 10 1018 51 10000 3.6 320 15:41 09.04.2022
2756 Clouds 9 1018 53 10000 4.12 290 14:44 09.04.2022
2757 Clouds 9 1018 56 10000 4.12 290 14:23 09.04.2022
2758 Clouds 8 1018 63 10000 5.66 300 13:20 09.04.2022
2759 Clouds 8 1018 67 10000 5.66 300 12:50 09.04.2022
2760 Clouds 6 1018 75 10000 5.66 280 11:38 09.04.2022
2761 Clouds 4 1017 79 10000 6.17 280 10:21 09.04.2022
2762 Clouds 2 1017 82 10000 4.63 260 09:42 09.04.2022
2763 Clouds 2 1016 84 10000 4.12 230 08:54 09.04.2022
2764 Clouds 1 1016 86 10000 4.12 240 07:29 09.04.2022
2765 Clear 2 1014 81 10000 4.63 270 02:53 09.04.2022
2766 Clouds 2 1012 80 10000 5.14 280 23:53 08.04.2022
2767 Clouds 3 1010 78 10000 4.12 290 22:55 08.04.2022
2768 Clouds 5 1010 72 10000 3.6 300 21:32 08.04.2022
2769 Clouds 6 1009 67 10000 5.14 310 20:40 08.04.2022
2770 Clouds 5 1008 75 10000 7.72 320 19:32 08.04.2022
2771 Clouds 8 1006 57 10000 6.69 330 18:31 08.04.2022
2772 Clouds 7 1006 66 10000 6.17 310 17:52 08.04.2022
2773 Clouds 6 1006 74 10000 8.23 310 17:26 08.04.2022
2774 Clouds 7 1005 64 10000 7.2 310 16:49 08.04.2022
2775 Clouds 8 1004 62 10000 4.12 10 15:59 08.04.2022
2776 Clouds 7 1004 68 10000 6.69 350 15:27 08.04.2022
2777 Rain 8 1003 64 10000 5.66 330 14:39 08.04.2022
2778 Clouds 8 1002 67 10000 7.2 340 13:48 08.04.2022
2779 Rain 8 1003 62 10000 6.17 10 13:29 08.04.2022
2780 Clouds 7 1003 68 10000 6.17 340 12:18 08.04.2022
2781 Clouds 5 1001 80 10000 4.63 320 10:37 08.04.2022
2782 Clouds 3 1001 87 10000 4.63 320 09:38 08.04.2022
2783 Clouds 2 1000 89 10000 5.14 320 08:58 08.04.2022
2784 Clouds 1 1000 90 10000 4.12 300 07:31 08.04.2022
2785 Clouds 1 1000 88 10000 4.12 290 05:23 08.04.2022
2786 Clouds 4 1000 83 10000 4.12 290 01:45 08.04.2022
2787 Clouds 5 1000 79 10000 4.12 270 00:25 08.04.2022
2788 Clouds 6 1000 76 10000 4.12 270 22:59 07.04.2022
2789 Clouds 6 1000 77 10000 4.12 270 22:59 07.04.2022
2790 Clouds 6 1000 77 10000 4.12 270 22:40 07.04.2022
2791 Clouds 6 999 77 10000 4.12 270 22:22 07.04.2022
2792 Clouds 7 999 72 10000 5.66 280 21:56 07.04.2022
2793 Clouds 8 998 65 10000 6.69 300 21:19 07.04.2022
2794 Clouds 9 998 65 10000 7.72 290 20:38 07.04.2022
2795 Clouds 9 996 64 10000 10.29 300 18:48 07.04.2022
2796 Clouds 11 995 52 10000 8.75 290 17:27 07.04.2022
2797 Clouds 10 993 58 10000 7.72 290 16:45 07.04.2022
2798 Clouds 10 994 50 10000 9.26 320 16:23 07.04.2022
2799 Clouds 10 992 51 10000 10.29 310 14:50 07.04.2022
2800 Clouds 9 992 62 10000 13.86 300 13:45 07.04.2022
2801 Clouds 9 990 64 10000 12.35 300 12:58 07.04.2022
2802 Clouds 8 988 71 10000 13.89 290 11:40 07.04.2022
2803 Clouds 7 986 73 10000 13.89 280 10:27 07.04.2022
2804 Clouds 7 984 76 10000 13.38 280 08:38 07.04.2022
2805 Clouds 6 982 78 10000 10.8 270 06:57 07.04.2022
2806 Clouds 7 980 75 10000 14.4 250 02:58 07.04.2022
2807 Clouds 8 980 74 10000 14.4 250 02:28 07.04.2022
2808 Clouds 8 980 77 10000 14.92 250 00:42 07.04.2022
2809 Clouds 7 981 75 10000 16.46 250 22:54 06.04.2022
2810 Clouds 8 981 75 10000 16.46 250 22:30 06.04.2022
2811 Clouds 8 981 74 10000 10.8 240 21:45 06.04.2022
2812 Clouds 8 983 80 8000 12.35 260 20:40 06.04.2022
2813 Clouds 9 983 80 10000 13.89 240 19:57 06.04.2022
2814 Clouds 9 984 83 9000 9.77 250 18:52 06.04.2022
2815 Clouds 9 985 83 10000 9.77 250 18:33 06.04.2022
2816 Clouds 11 985 66 10000 11.83 230 17:35 06.04.2022
2817 Clouds 12 987 65 10000 8.94 237 16:39 06.04.2022
2818 Clouds 12 988 64 10000 10.8 240 15:49 06.04.2022
2819 Clouds 12 988 68 10000 11.83 240 15:21 06.04.2022
2820 Clouds 11 989 73 10000 9.26 240 13:28 06.04.2022
2821 Clouds 10 990 75 10000 9.77 230 12:27 06.04.2022
2822 Clouds 8 991 85 10000 7.2 220 10:52 06.04.2022
2823 Rain 7 992 86 10000 7.72 220 10:30 06.04.2022
2824 Clouds 7 992 86 10000 7.72 220 09:42 06.04.2022
2825 Rain 7 993 88 10000 7.2 230 08:36 06.04.2022
2826 Clouds 7 994 89 10000 8.75 240 07:54 06.04.2022
2827 Clouds 8 995 82 10000 9.77 240 04:31 06.04.2022
2828 Clouds 11 999 85 10000 10.29 240 23:56 05.04.2022
2829 Clouds 11 1000 85 10000 5.36 231 23:22 05.04.2022
2830 Clouds 11 1002 89 10000 8.75 240 21:29 05.04.2022
2831 Clouds 11 1002 86 9000 9.77 240 20:26 05.04.2022
2832 Clouds 11 1003 84 10000 11.83 230 19:52 05.04.2022
2833 Clouds 12 1004 74 10000 10.29 240 18:24 05.04.2022
2834 Clouds 12 1005 70 10000 10.29 250 16:55 05.04.2022
2835 Clouds 13 1005 68 10000 9.77 260 16:35 05.04.2022
2836 Clouds 13 1006 65 10000 10.29 250 15:43 05.04.2022
2837 Clouds 13 1006 65 10000 10.29 250 15:43 05.04.2022
2838 Clouds 13 1007 64 10000 10.29 250 15:24 05.04.2022
2839 Clouds 11 1008 75 10000 9.26 250 13:38 05.04.2022
2840 Clouds 11 1009 79 10000 9.26 250 11:51 05.04.2022
2841 Clouds 10 1009 79 10000 9.26 250 11:33 05.04.2022
2842 Clouds 10 1009 81 10000 9.26 270 10:52 05.04.2022
2843 Clouds 10 1010 78 10000 8.75 250 08:55 05.04.2022
2844 Clouds 9 1010 80 10000 9.26 250 07:32 05.04.2022
2845 Clouds 11 1012 85 10000 8.23 250 02:43 05.04.2022
2846 Clouds 11 1013 90 10000 8.75 270 23:18 04.04.2022
2847 Clouds 11 1013 88 10000 9.26 280 22:29 04.04.2022
2848 Clouds 11 1013 87 10000 8.75 270 21:22 04.04.2022
2849 Drizzle 11 1013 87 10000 9.77 280 20:53 04.04.2022
2850 Clouds 12 1012 86 10000 11.32 280 20:35 04.04.2022
2851 Clouds 12 1012 84 10000 11.32 280 19:26 04.04.2022
2852 Clouds 12 1012 83 10000 13.38 280 18:39 04.04.2022
2853 Clouds 13 1012 80 10000 12.35 280 17:19 04.04.2022
2854 Clouds 13 1013 79 10000 12.86 280 16:26 04.04.2022
2855 Clouds 13 1013 81 10000 12.35 280 15:33 04.04.2022
2856 Clouds 13 1013 80 10000 11.83 280 14:46 04.04.2022
2857 Clouds 13 1012 84 10000 10.8 280 13:58 04.04.2022
2858 Clouds 12 1013 86 10000 10.8 280 12:41 04.04.2022
2859 Clouds 11 1013 89 10000 10.29 280 11:29 04.04.2022
2860 Clouds 11 1014 90 10000 8.75 270 09:53 04.04.2022
2861 Drizzle 10 1015 92 7000 9.26 280 05:34 04.04.2022
2862 Clouds 10 1017 93 6000 8.75 270 02:51 04.04.2022
2863 Clouds 9 1019 79 10000 6.69 250 22:54 03.04.2022
2864 Clouds 10 1020 75 10000 8.75 250 21:59 03.04.2022
2865 Clouds 11 1021 64 10000 8.75 250 21:25 03.04.2022
2866 Clouds 12 1021 53 10000 6.17 270 20:21 03.04.2022
2867 Clouds 12 1023 51 10000 6.17 270 18:37 03.04.2022
2868 Clouds 12 1023 50 10000 5.81 280 17:55 03.04.2022
2869 Clouds 12 1024 51 10000 5.66 270 17:35 03.04.2022
2870 Clouds 12 1024 51 10000 6.17 280 16:49 03.04.2022
2871 Clouds 11 1025 57 10000 6.17 270 15:46 03.04.2022
2872 Clouds 10 1026 63 10000 5.66 260 14:20 03.04.2022
2873 Clouds 9 1027 64 10000 4.63 270 12:59 03.04.2022
2874 Clouds 7 1028 76 10000 4.12 260 11:39 03.04.2022
2875 Clouds 3 1028 86 10000 2.57 250 09:52 03.04.2022
2876 Clouds 1 1028 91 10000 2.57 260 08:57 03.04.2022
2877 Clouds 1 1028 89 10000 2.57 190 05:45 03.04.2022
2878 Clouds 1 1028 88 10000 2.57 280 05:45 03.04.2022
2879 Clouds 1 1028 88 10000 2.57 290 02:55 03.04.2022
2880 Clouds 2 1027 85 10000 1.54 0 23:35 02.04.2022
2881 Clouds 4 1027 80 10000 1.54 70 22:43 02.04.2022
2882 Clouds 5 1026 80 10000 2.57 60 21:55 02.04.2022
2883 Clouds 6 1026 77 10000 3.09 70 21:19 02.04.2022
2884 Clouds 6 1025 75 10000 5.14 70 20:36 02.04.2022
2885 Clouds 8 1025 72 10000 5.66 70 18:47 02.04.2022
2886 Clouds 8 1025 71 10000 5.66 70 18:19 02.04.2022
2887 Clouds 8 1024 71 10000 6.17 40 16:50 02.04.2022
2888 Clouds 8 1024 74 10000 7.2 30 15:42 02.04.2022
2889 Clouds 9 1024 73 10000 7.2 30 15:18 02.04.2022
2890 Clouds 9 1024 67 10000 5.14 20 14:26 02.04.2022
2891 Clouds 8 1024 71 10000 5.14 350 13:31 02.04.2022
2892 Clouds 7 1024 83 10000 4.63 310 12:21 02.04.2022
2893 Rain 5 1024 90 9000 5.14 300 10:31 02.04.2022
2894 Drizzle 4 1023 89 10000 4.63 290 07:52 02.04.2022
2895 Clouds 4 1023 89 10000 3.6 290 04:59 02.04.2022
2896 Clouds 5 1023 89 10000 4.63 280 02:37 02.04.2022
2897 Rain 5 1024 88 10000 4.63 300 23:54 01.04.2022
2898 Rain 5 1024 87 10000 5.66 310 22:47 01.04.2022
2899 Rain 6 1023 88 10000 5.81 310 21:22 01.04.2022
2900 Rain 6 1022 87 10000 6.17 310 20:46 01.04.2022
2901 Rain 6 1022 84 10000 5.14 290 19:45 01.04.2022
2902 Rain 6 1023 82 10000 5.14 300 19:26 01.04.2022
2903 Rain 8 1023 68 10000 6.17 300 18:37 01.04.2022
2904 Clouds 8 1023 58 10000 4.63 350 17:39 01.04.2022
2905 Clouds 9 1024 47 10000 4.12 350 15:46 01.04.2022
2906 Clouds 8 1024 48 10000 5.36 340 14:53 01.04.2022
2907 Clouds 7 1025 52 10000 5.66 360 13:42 01.04.2022
2908 Clouds 7 1024 54 10000 5.66 360 13:20 01.04.2022
2909 Clouds 6 1024 62 10000 6.17 360 12:24 01.04.2022
2910 Clouds 3 1025 77 10000 4.12 300 10:52 01.04.2022
2911 Clouds 1 1024 83 10000 3.6 300 09:41 01.04.2022
2912 Clouds 0 1022 87 10000 4.63 320 07:41 01.04.2022
2913 Clouds 0 1021 86 10000 5.66 310 05:38 01.04.2022
2914 Clouds 0 1022 83 10000 5.66 310 04:41 01.04.2022
2915 Clouds 1 1022 82 10000 4.12 320 03:19 01.04.2022
2916 Clouds 2 1021 78 10000 4.63 310 01:51 01.04.2022
2917 Clouds 4 1020 64 10000 5.14 340 22:34 31.03.2022
2918 Clouds 5 1019 57 10000 4.12 340 21:44 31.03.2022
2919 Clouds 6 1017 55 10000 4.12 360 20:51 31.03.2022
2920 Clouds 7 1020 53 10000 4.12 30 20:28 31.03.2022
2921 Clouds 8 1019 52 10000 4.63 40 19:43 31.03.2022
2922 Clouds 8 1019 50 10000 5.66 360 18:34 31.03.2022
2923 Clouds 8 1019 51 10000 5.66 20 16:53 31.03.2022
2924 Clouds 7 1019 55 10000 6.17 20 15:57 31.03.2022
2925 Clouds 7 1019 56 10000 5.66 20 15:29 31.03.2022
2926 Clouds 6 1020 56 10000 6.17 30 14:49 31.03.2022
2927 Clouds 6 1020 53 10000 8.23 30 13:53 31.03.2022
2928 Clouds 5 1019 63 10000 7.72 30 11:31 31.03.2022
2929 Clouds 4 1018 67 10000 7.72 20 10:26 31.03.2022
2930 Clouds 4 1017 71 10000 8.23 20 09:40 31.03.2022
2931 Clouds 3 1015 69 10000 7.15 30 07:49 31.03.2022
2932 Clouds 4 1014 69 10000 6.17 30 03:30 31.03.2022
2933 Clouds 5 1012 68 10000 5.66 40 23:25 30.03.2022
2934 Rain 3 1012 86 10000 4.12 10 22:19 30.03.2022
2935 Rain 3 1011 85 7000 8.75 40 21:31 30.03.2022
2936 Clouds 5 1010 78 10000 8.49 30 20:44 30.03.2022
2937 Clouds 6 1010 70 10000 7.72 30 19:48 30.03.2022
2938 Clouds 6 1009 73 10000 7.72 40 18:44 30.03.2022
2939 Clouds 6 1009 78 10000 7.2 30 17:52 30.03.2022
2940 Clouds 6 1009 78 10000 8.23 40 17:23 30.03.2022
2941 Clouds 7 1009 76 10000 7.72 30 16:41 30.03.2022
2942 Clouds 7 1009 75 10000 7.72 40 15:59 30.03.2022
2943 Clouds 8 1009 79 10000 7.2 30 14:36 30.03.2022
2944 Clouds 7 1009 80 10000 7.2 30 13:23 30.03.2022
2945 Clouds 8 1009 83 10000 6.69 30 12:32 30.03.2022
2946 Mist 8 1009 89 10000 5.66 40 10:48 30.03.2022
2947 Mist 8 1008 88 8000 4.63 40 09:58 30.03.2022
2948 Mist 7 1008 89 4000 3.09 300 08:27 30.03.2022
2949 Mist 6 1008 89 4500 3.09 260 07:28 30.03.2022
2950 Clouds 7 1009 90 8000 1.54 220 05:40 30.03.2022
2951 Clouds 7 1010 92 6000 1.54 290 02:32 30.03.2022
2952 Clouds 7 1011 89 10000 2.06 110 22:42 29.03.2022
2953 Clouds 8 1011 86 10000 2.06 80 21:49 29.03.2022
2954 Clouds 9 1011 83 10000 2.06 50 21:28 29.03.2022
2955 Clouds 11 1011 78 10000 2.57 90 20:26 29.03.2022
2956 Clouds 12 1011 77 10000 3.09 100 19:32 29.03.2022
2957 Clouds 12 1011 76 10000 3.6 70 18:53 29.03.2022
2958 Clouds 13 1011 74 7000 3.6 30 17:52 29.03.2022
2959 Clouds 13 1012 75 7000 3.6 50 17:18 29.03.2022
2960 Clouds 13 1012 76 7000 3.09 50 16:52 29.03.2022
2961 Clouds 12 1012 78 7000 4.12 60 15:29 29.03.2022
2962 Clouds 12 1013 80 7000 3.6 20 14:43 29.03.2022
2963 Clouds 10 1014 90 6000 3.09 10 13:34 29.03.2022
2964 Mist 9 1014 93 4000 3.6 20 12:21 29.03.2022
2965 Mist 9 1014 95 3000 2.06 330 10:59 29.03.2022
2966 Fog 8 1015 95 700 2.06 300 09:51 29.03.2022
2967 Fog 8 1014 95 200 2.06 300 08:43 29.03.2022
2968 Fog 7 1015 95 200 1.03 0 06:21 29.03.2022
2969 Fog 7 1017 93 150 2.57 100 02:19 29.03.2022
2970 Clear 8 1018 89 10000 2.06 80 23:26 28.03.2022
2971 Clear 8 1018 89 10000 2.57 70 22:56 28.03.2022
2972 Clouds 7 1018 90 8000 2.57 70 22:31 28.03.2022
2973 Clouds 9 1019 87 8000 2.57 70 21:38 28.03.2022
2974 Clouds 10 1019 85 8000 3.6 80 20:32 28.03.2022
2975 Clouds 12 1019 77 10000 4.63 90 19:47 28.03.2022
2976 Clouds 12 1019 78 10000 4.63 90 19:29 28.03.2022
2977 Clouds 13 1019 77 10000 4.12 90 18:40 28.03.2022
2978 Clouds 14 1020 73 10000 4.63 60 17:40 28.03.2022
2979 Clouds 14 1020 69 10000 4.63 70 16:38 28.03.2022
2980 Clouds 15 1021 67 10000 3.6 20 14:50 28.03.2022
2981 Clouds 15 1022 66 10000 2.57 10 14:22 28.03.2022
2982 Clouds 13 1023 65 10000 1.79 331 12:41 28.03.2022
2983 Clouds 11 1023 81 10000 0.89 227 11:42 28.03.2022
2984 Fog 5 1024 94 900 2.06 290 09:47 28.03.2022
2985 Clear 5 1024 90 10000 1.34 283 09:20 28.03.2022
2986 Fog 5 1024 90 500 2.06 300 08:23 28.03.2022
2987 Fog 5 1024 91 500 2.06 290 07:56 28.03.2022
2988 Clear 7 1026 84 10000 1.03 120 04:27 28.03.2022
2989 Clear 7 1028 83 10000 2.06 90 23:53 27.03.2022
2990 Clear 8 1028 84 10000 3.58 90 22:25 27.03.2022
2991 Clear 8 1028 84 10000 3.58 90 22:25 27.03.2022
2992 Clear 8 1028 84 10000 3.58 90 22:25 27.03.2022
2993 Clouds 9 1029 83 10000 3.58 90 21:42 27.03.2022
2994 Clouds 10 1029 82 9000 4.12 90 20:58 27.03.2022
2995 Clouds 12 1028 70 10000 4.12 110 19:53 27.03.2022
2996 Clouds 14 1029 65 10000 4.12 120 19:30 27.03.2022
2997 Clouds 14 1029 65 10000 3.6 130 18:29 27.03.2022
2998 Clouds 14 1029 69 10000 4.12 70 17:42 27.03.2022
2999 Clouds 13 1029 71 10000 4.12 70 17:23 27.03.2022
3000 Clouds 13 1031 75 10000 3.6 40 15:39 27.03.2022
3001 Clouds 12 1031 77 10000 4.12 70 13:56 27.03.2022
3002 Clouds 12 1032 77 8000 4.12 80 12:41 27.03.2022
3003 Clouds 12 1032 80 9000 3.6 90 11:21 27.03.2022
3004 Clouds 6 1033 89 9000 3.09 50 09:21 27.03.2022
3005 Clear 7 1033 85 10000 2.06 80 06:44 27.03.2022
3006 Clouds 8 1034 82 10000 2.57 90 01:41 27.03.2022
3007 Clear 8 1034 81 10000 4.12 110 00:24 27.03.2022
3008 Clear 8 1034 80 10000 1.03 130 22:43 26.03.2022
3009 Clear 8 1034 81 10000 0.51 0 21:46 26.03.2022
3010 Clear 8 1033 80 10000 2.24 40 21:25 26.03.2022
3011 Clear 10 1033 77 10000 4.63 50 19:31 26.03.2022
3012 Clear 14 1033 57 10000 4.63 50 17:54 26.03.2022
3013 Clouds 14 1033 53 10000 4.63 60 17:33 26.03.2022
3014 Clouds 14 1033 53 10000 4.63 60 17:33 26.03.2022
3015 Clear 15 1034 50 10000 4.12 70 16:27 26.03.2022
3016 Clear 15 1034 58 10000 4.63 70 15:21 26.03.2022
3017 Clouds 15 1035 59 10000 4.63 80 13:53 26.03.2022
3018 Clouds 15 1035 61 10000 4.63 80 13:18 26.03.2022
3019 Mist 13 1035 74 5000 3.09 60 11:41 26.03.2022
3020 Mist 13 1035 74 5000 3.09 60 11:41 26.03.2022
3021 Mist 13 1035 74 5000 3.09 60 11:41 26.03.2022
3022 Mist 11 1034 82 3500 2.57 70 10:28 26.03.2022
3023 Fog 5 1035 90 800 1.54 80 08:44 26.03.2022
3024 Fog 6 1033 82 900 1.54 0 06:25 26.03.2022
3025 Clouds 6 1033 85 10000 1.54 100 05:22 26.03.2022
3026 Clouds 7 1033 86 7000 3.09 70 00:28 26.03.2022
3027 Clouds 8 1033 84 8000 2.57 40 21:49 25.03.2022
3028 Clouds 9 1032 81 10000 3.09 70 20:46 25.03.2022
3029 Clouds 11 1031 75 10000 3.09 100 19:38 25.03.2022
3030 Clouds 13 1031 71 10000 3.6 80 18:47 25.03.2022
3031 Clouds 14 1031 69 10000 4.63 70 17:47 25.03.2022
3032 Clouds 14 1031 69 10000 4.63 70 17:27 25.03.2022
3033 Clouds 15 1031 66 10000 3.6 100 16:18 25.03.2022
3034 Clouds 14 1032 68 10000 3.6 80 14:26 25.03.2022
3035 Clouds 15 1032 70 10000 3.09 90 12:57 25.03.2022
3036 Clouds 11 1032 80 10000 2.06 50 10:22 25.03.2022
3037 Clouds 11 1032 84 10000 1.54 50 09:28 25.03.2022
3038 Clouds 8 1031 89 10000 0.51 0 07:54 25.03.2022
3039 Clouds 8 1031 89 10000 0.51 0 07:27 25.03.2022
3040 Clouds 8 1031 89 10000 2.06 280 05:55 25.03.2022
3041 Clouds 9 1030 86 10000 1.54 240 00:46 25.03.2022
3042 Clear 9 1030 85 10000 2.06 350 22:39 24.03.2022
3043 Clouds 9 1030 83 10000 1.54 0 21:42 24.03.2022
3044 Clouds 11 1029 76 10000 1.03 0 19:51 24.03.2022
3045 Clouds 12 1029 74 10000 1.03 0 19:33 24.03.2022
3046 Clouds 15 1029 65 10000 2.57 110 17:46 24.03.2022
3047 Clouds 15 1029 64 10000 3.09 270 17:19 24.03.2022
3048 Clouds 16 1029 60 10000 3.09 200 15:21 24.03.2022
3049 Clear 16 1029 59 10000 3.6 220 14:43 24.03.2022
3050 Clear 16 1029 57 10000 2.57 240 14:18 24.03.2022
3051 Clear 15 1030 62 10000 3.6 220 12:47 24.03.2022
3052 Clear 13 1030 68 10000 3.6 260 11:33 24.03.2022
3053 Clear 10 1029 80 10000 1.03 0 09:51 24.03.2022
3054 Clear 8 1029 84 10000 1.03 310 08:41 24.03.2022
3055 Clear 8 1029 83 10000 2.24 280 06:48 24.03.2022
3056 Clear 9 1029 83 10000 2.06 250 02:18 24.03.2022
3057 Clear 9 1029 80 10000 1.54 160 23:18 23.03.2022
3058 Clear 12 1029 67 10000 2.57 130 21:27 23.03.2022
3059 Clear 12 1029 74 10000 2.06 150 20:49 23.03.2022
3060 Clouds 12 1028 66 10000 3.09 200 19:45 23.03.2022
3061 Clouds 15 1028 63 10000 5.14 200 18:36 23.03.2022
3062 Clouds 16 1027 57 10000 4.92 152 17:36 23.03.2022
3063 Clouds 16 1028 57 10000 4.63 140 16:21 23.03.2022
3064 Clouds 16 1028 58 10000 4.63 140 14:50 23.03.2022
3065 Clouds 16 1028 59 10000 4.63 140 14:23 23.03.2022
3066 Clear 15 1028 63 10000 4.12 140 12:45 23.03.2022
3067 Clear 10 1028 77 10000 3.09 100 09:38 23.03.2022
3068 Clear 7 1027 75 10000 4.12 120 06:41 23.03.2022
3069 Clear 8 1026 72 10000 1.03 120 04:31 23.03.2022
3070 Clear 10 1026 70 10000 3.6 190 00:29 23.03.2022
3071 Clear 8 1026 88 10000 2.57 120 22:33 22.03.2022
3072 Clouds 9 1026 87 8000 3.09 110 21:29 22.03.2022
3073 Clear 10 1025 86 10000 3.6 90 20:39 22.03.2022
3074 Clear 11 1025 82 10000 3.09 80 19:39 22.03.2022
3075 Clear 12 1025 79 10000 4.12 70 19:18 22.03.2022
3076 Clouds 14 1024 70 10000 6.69 130 17:58 22.03.2022
3077 Clouds 15 1024 67 10000 8.23 130 17:29 22.03.2022
3078 Clouds 17 1024 64 10000 8.23 140 15:59 22.03.2022
3079 Clouds 16 1024 66 10000 6.17 140 15:22 22.03.2022
3080 Clouds 16 1025 64 10000 6.17 130 14:46 22.03.2022
3081 Clouds 15 1024 66 10000 5.81 140 14:26 22.03.2022
3082 Clouds 15 1025 69 10000 7.2 140 12:55 22.03.2022
3083 Clouds 15 1025 69 10000 5.66 110 11:48 22.03.2022
3084 Clouds 13 1024 76 10000 6.17 100 10:35 22.03.2022
3085 Clouds 9 1024 87 6000 5.81 118 07:57 22.03.2022
3086 Clouds 9 1023 88 6000 5.36 140 05:21 22.03.2022
3087 Clouds 9 1024 91 10000 4.47 135 03:41 22.03.2022
3088 Clouds 8 1025 87 10000 3.6 90 23:49 21.03.2022
3089 Clouds 8 1024 85 10000 5.14 100 22:29 21.03.2022
3090 Clouds 9 1024 82 10000 4.63 110 20:47 21.03.2022
3091 Clouds 9 1024 81 10000 4.12 120 20:27 21.03.2022
3092 Clouds 9 1024 80 10000 4.92 140 19:57 21.03.2022
3093 Clouds 10 1024 78 10000 4.92 140 19:25 21.03.2022
3094 Clouds 11 1023 73 10000 5.14 140 17:53 21.03.2022
3095 Clouds 11 1023 73 10000 5.66 140 17:18 21.03.2022
3096 Clouds 12 1023 71 10000 6.69 140 16:39 21.03.2022
3097 Clouds 13 1023 67 10000 5.66 130 15:47 21.03.2022
3098 Clouds 13 1024 69 10000 5.66 110 14:51 21.03.2022
3099 Clouds 12 1024 70 10000 6.69 110 13:46 21.03.2022
3100 Clouds 12 1024 71 10000 6.17 140 12:34 21.03.2022
3101 Clouds 11 1024 71 10000 5.66 120 11:44 21.03.2022
3102 Clouds 10 1024 72 10000 5.14 140 10:34 21.03.2022
3103 Clouds 8 1023 81 10000 5.14 140 08:29 21.03.2022
3104 Clouds 8 1023 79 10000 4.63 140 06:36 21.03.2022
3105 Clouds 8 1023 77 10000 3.6 140 02:48 21.03.2022
3106 Clouds 8 1024 75 10000 3.09 140 23:41 20.03.2022
3107 Clouds 8 1024 74 10000 3.09 110 22:43 20.03.2022
3108 Clouds 8 1024 77 10000 3.6 120 21:50 20.03.2022
3109 Clouds 8 1024 71 10000 3.09 140 21:20 20.03.2022
3110 Clouds 8 1024 72 10000 2.57 130 20:43 20.03.2022
3111 Clouds 8 1024 72 10000 4.63 130 19:57 20.03.2022
3112 Clouds 9 1024 70 10000 4.63 130 19:26 20.03.2022
3113 Clouds 10 1024 65 10000 6.17 140 17:52 20.03.2022
3114 Clouds 10 1024 65 10000 6.17 140 17:30 20.03.2022
3115 Clouds 11 1024 65 10000 6.69 130 16:52 20.03.2022
3116 Clouds 11 1024 66 10000 7.6 140 15:27 20.03.2022
3117 Clouds 11 1025 68 10000 7.72 140 14:23 20.03.2022
3118 Clouds 10 1025 70 10000 7.6 140 12:29 20.03.2022
3119 Clouds 9 1026 70 10000 7.15 140 10:55 20.03.2022
3120 Clouds 7 1027 77 10000 8.23 120 08:42 20.03.2022
3121 Clear 7 1026 74 10000 4.12 150 06:55 20.03.2022
3122 Clear 8 1027 71 10000 7.2 140 04:23 20.03.2022
3123 Clear 9 1028 66 10000 5.14 140 01:29 20.03.2022
3124 Clear 10 1028 64 10000 7.2 150 00:37 20.03.2022
3125 Clouds 11 1028 61 10000 7.2 130 22:56 19.03.2022
3126 Clouds 11 1028 59 10000 9.77 120 21:27 19.03.2022
3127 Clouds 11 1028 63 10000 7.72 100 20:28 19.03.2022
3128 Clouds 12 1030 61 10000 7.15 100 18:44 19.03.2022
3129 Clouds 12 1029 57 10000 7.2 100 18:23 19.03.2022
3130 Clouds 13 1030 53 10000 7.2 100 17:35 19.03.2022
3131 Clouds 14 1031 49 10000 8.23 120 15:43 19.03.2022
3132 Clouds 13 1032 50 10000 9.26 120 14:33 19.03.2022
3133 Clouds 13 1034 57 10000 9.26 120 12:58 19.03.2022
3134 Clouds 13 1033 57 10000 10.29 110 12:38 19.03.2022
3135 Clouds 12 1034 64 10000 8.23 110 11:51 19.03.2022
3136 Clouds 11 1035 69 10000 8.23 120 10:44 19.03.2022
3137 Clouds 8 1037 79 10000 8.75 130 06:27 19.03.2022
3138 Clouds 9 1038 80 10000 6.69 130 03:21 19.03.2022
3139 Clouds 7 1038 91 9000 3.09 90 01:33 19.03.2022
3140 Clouds 8 1039 91 10000 3.6 130 23:36 18.03.2022
3141 Clouds 8 1040 86 10000 4.63 110 22:26 18.03.2022
3142 Clouds 9 1039 80 10000 3.6 120 21:19 18.03.2022
3143 Clouds 11 1039 72 10000 4.12 150 19:50 18.03.2022
3144 Clouds 11 1039 70 10000 4.63 140 19:21 18.03.2022
3145 Clouds 13 1039 68 10000 6.17 180 17:39 18.03.2022
3146 Clouds 13 1039 68 10000 6.71 164 16:46 18.03.2022
3147 Clouds 14 1039 69 10000 5.66 140 14:45 18.03.2022
3148 Clouds 14 1040 70 10000 5.81 140 14:20 18.03.2022
3149 Clouds 13 1040 71 10000 6.69 150 12:23 18.03.2022
3150 Clouds 10 1039 79 10000 5.14 140 10:47 18.03.2022
3151 Clouds 8 1039 75 10000 3.58 140 09:28 18.03.2022
3152 Clouds 4 1039 86 10000 2.06 130 07:59 18.03.2022
3153 Clouds 3 1039 86 10000 2.06 150 06:34 18.03.2022
3154 Clouds 3 1037 84 10000 2.57 210 02:51 18.03.2022
3155 Clouds 6 1036 78 10000 2.24 245 00:22 18.03.2022
3156 Clouds 7 1036 79 10000 2.57 250 23:20 17.03.2022
3157 Clouds 7 1035 84 10000 2.06 140 22:23 17.03.2022
3158 Clouds 7 1034 86 10000 3.6 230 21:47 17.03.2022
3159 Clear 7 1033 86 10000 1.79 280 21:20 17.03.2022
3160 Clouds 8 1032 82 10000 3.6 250 20:41 17.03.2022
3161 Clouds 9 1031 80 10000 5.36 290 19:45 17.03.2022
3162 Clouds 11 1030 74 10000 7.72 270 18:57 17.03.2022
3163 Clouds 13 1029 68 10000 9.26 280 17:56 17.03.2022
3164 Clouds 14 1028 65 10000 10.29 270 16:43 17.03.2022
3165 Clouds 14 1027 61 10000 9.26 250 15:44 17.03.2022
3166 Clouds 14 1026 61 10000 9.26 250 15:23 17.03.2022
3167 Clouds 13 1026 69 10000 4.92 196 13:50 17.03.2022
3168 Clouds 12 1025 69 10000 9.77 230 12:49 17.03.2022
3169 Clouds 12 1025 69 10000 9.77 230 12:21 17.03.2022
3170 Clouds 11 1024 75 10000 10.8 220 11:25 17.03.2022
3171 Clouds 9 1023 77 10000 10.8 210 09:48 17.03.2022
3172 Clouds 8 1024 79 10000 9.77 200 08:34 17.03.2022
3173 Clouds 8 1024 78 10000 9.77 200 08:34 17.03.2022
3174 Rain 7 1024 75 10000 8.75 210 07:32 17.03.2022
3175 Clouds 6 1024 80 10000 6.17 210 05:47 17.03.2022
3176 Clouds 4 1025 81 10000 3.09 220 00:46 17.03.2022
3177 Clouds 4 1024 80 10000 2.57 240 23:39 16.03.2022
3178 Clouds 5 1024 76 10000 3.09 280 22:44 16.03.2022
3179 Clouds 6 1024 74 10000 3.09 280 22:21 16.03.2022
3180 Clouds 6 1023 72 10000 2.06 250 21:34 16.03.2022
3181 Clouds 9 1022 62 10000 4.63 280 19:27 16.03.2022
3182 Clouds 9 1022 59 10000 2.24 334 18:58 16.03.2022
3183 Clouds 9 1021 57 10000 5.14 290 18:24 16.03.2022
3184 Clouds 10 1021 54 10000 5.66 290 17:37 16.03.2022
3185 Clouds 10 1021 53 10000 5.66 280 16:50 16.03.2022
3186 Clouds 10 1021 53 10000 6.17 300 15:53 16.03.2022
3187 Clouds 9 1021 62 10000 5.14 310 14:24 16.03.2022
3188 Clouds 8 1021 68 10000 4.12 300 13:22 16.03.2022
3189 Clouds 7 1020 83 10000 4.63 300 11:51 16.03.2022
3190 Clouds 6 1020 86 10000 4.63 290 11:19 16.03.2022
3191 Clouds 6 1020 89 10000 4.63 300 10:18 16.03.2022
3192 Rain 5 1018 93 10000 3.6 290 08:38 16.03.2022
3193 Rain 7 1016 90 10000 4.12 260 04:35 16.03.2022
3194 Clouds 9 1015 80 10000 5.14 210 00:42 16.03.2022
3195 Clouds 9 1015 78 10000 5.66 210 22:37 15.03.2022
3196 Clouds 9 1015 77 10000 5.14 210 21:50 15.03.2022
3197 Clouds 9 1014 74 10000 6.69 200 19:47 15.03.2022
3198 Clouds 10 1014 72 10000 5.14 210 18:41 15.03.2022
3199 Clouds 11 1014 69 10000 7.2 230 16:47 15.03.2022
3200 Clouds 11 1014 70 10000 6.69 210 16:18 15.03.2022
3201 Clouds 11 1015 68 10000 8.23 190 14:55 15.03.2022
3202 Clouds 11 1016 71 10000 7.72 200 14:30 15.03.2022
3203 Clouds 11 1016 71 10000 7.72 200 13:24 15.03.2022
3204 Clouds 10 1017 72 10000 8.23 210 11:56 15.03.2022
3205 Clouds 10 1017 70 10000 7.2 200 11:19 15.03.2022
3206 Clear 8 1018 69 10000 7.72 200 09:31 15.03.2022
3207 Clear 6 1018 71 10000 6.17 210 08:32 15.03.2022
3208 Clear 6 1018 69 10000 6.17 190 07:44 15.03.2022
3209 Clear 5 1018 71 10000 4.63 210 06:32 15.03.2022
3210 Clear 5 1021 83 10000 3.09 210 01:59 15.03.2022
3211 Clear 4 1023 83 10000 4.12 170 23:32 14.03.2022
3212 Clear 5 1023 81 10000 2.57 180 22:54 14.03.2022
3213 Clear 5 1023 82 10000 3.09 200 21:57 14.03.2022
3214 Clear 5 1023 83 10000 3.09 200 21:20 14.03.2022
3215 Clear 6 1023 83 10000 2.06 210 20:31 14.03.2022
3216 Clouds 7 1023 81 10000 2.57 240 19:47 14.03.2022
3217 Clouds 10 1022 74 10000 4.12 230 18:20 14.03.2022
3218 Clouds 10 1022 75 10000 5.81 260 17:42 14.03.2022
3219 Clouds 11 1022 71 10000 6.69 250 16:37 14.03.2022
3220 Drizzle 9 1021 80 10000 6.69 230 14:58 14.03.2022
3221 Clouds 9 1021 83 10000 7.72 230 13:58 14.03.2022
3222 Clouds 6 1019 88 10000 9.26 230 11:27 14.03.2022
3223 Rain 6 1018 84 9000 7.72 230 09:58 14.03.2022
3224 Rain 6 1018 84 9000 7.72 230 09:58 14.03.2022
3225 Rain 7 1018 80 10000 9.26 220 09:38 14.03.2022
3226 Rain 6 1017 81 10000 8.23 220 08:58 14.03.2022
3227 Clouds 6 1016 81 10000 8.23 220 08:30 14.03.2022
3228 Clouds 6 1016 81 10000 5.36 230 07:19 14.03.2022
3229 Clouds 6 1014 81 10000 6.69 210 03:36 14.03.2022
3230 Clouds 6 1012 79 10000 6.69 210 01:42 14.03.2022
3231 Clouds 7 1010 77 10000 6.69 220 00:29 14.03.2022
3232 Clouds 8 1007 76 10000 6.17 230 21:51 13.03.2022
3233 Clouds 8 1007 75 10000 6.17 230 21:22 13.03.2022
3234 Clouds 8 1005 74 10000 6.17 230 20:46 13.03.2022
3235 Clouds 8 1005 75 10000 6.69 250 20:22 13.03.2022
3236 Clouds 9 1003 72 10000 8.23 260 19:42 13.03.2022
3237 Clouds 9 1003 72 10000 8.23 260 19:42 13.03.2022
3238 Clouds 9 1003 73 10000 8.23 260 19:22 13.03.2022
3239 Clouds 9 1002 72 10000 10.29 240 18:45 13.03.2022
3240 Clouds 10 1001 70 10000 10.29 240 18:26 13.03.2022
3241 Clouds 10 1000 69 10000 11.32 250 17:38 13.03.2022
3242 Clouds 10 999 74 10000 5.81 296 16:45 13.03.2022
3243 Clouds 10 998 75 10000 7.2 220 16:23 13.03.2022
3244 Clouds 11 999 70 10000 6.69 230 15:42 13.03.2022
3245 Clouds 12 998 69 10000 8.23 220 14:41 13.03.2022
3246 Clouds 11 994 76 10000 7.2 220 13:28 13.03.2022
3247 Clouds 10 993 78 10000 5.66 160 12:23 13.03.2022
3248 Clouds 10 995 80 10000 7.72 190 11:39 13.03.2022
3249 Clouds 9 992 83 10000 9.26 180 10:50 13.03.2022
3250 Clouds 9 991 85 10000 9.26 180 10:28 13.03.2022
3251 Rain 8 990 89 10000 9.77 160 09:42 13.03.2022
3252 Rain 8 993 89 9000 12.35 160 08:49 13.03.2022
3253 Clouds 8 989 89 7000 12.35 160 08:29 13.03.2022
3254 Clouds 8 988 87 8000 14.4 150 06:41 13.03.2022
3255 Clouds 8 991 88 7000 13.89 140 04:51 13.03.2022
3256 Clouds 8 991 90 10000 10.29 150 01:46 13.03.2022
3257 Clouds 7 993 89 10000 10.29 150 23:26 12.03.2022
3258 Clouds 7 994 90 5000 9.77 140 21:32 12.03.2022
3259 Rain 7 994 92 4000 9.77 130 20:19 12.03.2022
3260 Rain 7 995 91 4000 11.32 120 19:44 12.03.2022
3261 Rain 6 996 90 8000 9.26 100 18:38 12.03.2022
3262 Rain 7 997 88 7000 10.29 120 17:48 12.03.2022
3263 Clouds 9 999 79 10000 6.69 130 16:28 12.03.2022
3264 Rain 9 1000 79 10000 5.14 130 15:48 12.03.2022
3265 Clouds 9 1000 75 10000 5.66 160 15:19 12.03.2022
3266 Clouds 10 1001 63 10000 4.63 180 13:53 12.03.2022
3267 Clouds 9 1001 68 10000 5.66 200 12:27 12.03.2022
3268 Clouds 9 1001 71 10000 5.14 200 11:52 12.03.2022
3269 Clouds 9 1001 73 10000 5.14 200 11:32 12.03.2022
3270 Clouds 7 1000 81 10000 1.34 190 10:18 12.03.2022
3271 Clouds 6 1000 85 10000 5.14 210 09:41 12.03.2022
3272 Clouds 6 998 86 10000 6.69 220 07:52 12.03.2022
3273 Clouds 7 997 90 10000 5.14 210 05:46 12.03.2022
3274 Clouds 7 996 90 10000 3.6 220 00:31 12.03.2022
3275 Rain 7 996 91 10000 2.57 190 23:38 11.03.2022
3276 Clouds 7 995 91 10000 3.6 200 22:29 11.03.2022
3277 Clouds 8 994 89 10000 3.6 190 21:23 11.03.2022
3278 Rain 9 994 88 10000 2.24 204 20:42 11.03.2022
3279 Clouds 9 994 88 10000 3.09 230 20:19 11.03.2022
3280 Clouds 9 993 84 10000 3.09 230 19:29 11.03.2022
3281 Clouds 11 992 79 10000 6.69 200 17:50 11.03.2022
3282 Clouds 11 991 76 10000 6.69 200 17:21 11.03.2022
3283 Clouds 12 991 78 10000 6.69 210 15:57 11.03.2022
3284 Clouds 12 990 82 10000 7.72 220 15:29 11.03.2022
3285 Clouds 9 990 93 6000 7.72 120 13:27 11.03.2022
3286 Rain 9 991 92 6000 6.71 140 12:23 11.03.2022
3287 Rain 8 992 91 7000 7.72 120 11:57 11.03.2022
3288 Clouds 8 993 90 6000 9.26 140 10:24 11.03.2022
3289 Clouds 9 994 90 10000 8.23 120 09:32 11.03.2022
3290 Clouds 9 994 86 10000 7.2 140 08:25 11.03.2022
3291 Clouds 8 995 85 10000 7.72 140 07:46 11.03.2022
3292 Clouds 8 996 85 10000 8.23 110 06:22 11.03.2022
3293 Clouds 7 998 85 10000 9.26 130 04:24 11.03.2022
3294 Clouds 8 1003 79 10000 6.69 160 00:21 11.03.2022
3295 Clouds 8 1004 69 10000 6.69 170 22:31 10.03.2022
3296 Clouds 8 1004 67 10000 6.17 140 21:50 10.03.2022
3297 Clouds 8 1005 68 10000 6.17 140 21:23 10.03.2022
3298 Clouds 7 1006 73 10000 6.17 170 19:54 10.03.2022
3299 Clouds 8 1006 71 10000 6.17 150 18:56 10.03.2022
3300 Clouds 9 1006 68 10000 8.75 170 17:36 10.03.2022
3301 Clouds 11 1007 64 10000 8.75 200 16:37 10.03.2022
3302 Clouds 11 1007 60 10000 6.69 180 15:26 10.03.2022
3303 Clouds 10 1009 65 10000 6.17 200 13:30 10.03.2022
3304 Clouds 8 1011 70 10000 5.14 210 12:34 10.03.2022
3305 Clouds 6 1010 83 10000 7.72 220 11:22 10.03.2022
3306 Clouds 4 1009 93 8000 4.63 230 09:27 10.03.2022
3307 Clouds 4 1009 96 7000 4.12 230 07:43 10.03.2022
3308 Clouds 5 1008 96 6000 3.09 270 04:47 10.03.2022
3309 Clouds 5 1009 95 6000 5.14 10 01:50 10.03.2022
3310 Clouds 5 1009 94 5000 2.57 330 23:29 09.03.2022
3311 Clouds 4 1009 93 10000 3.09 10 21:54 09.03.2022
3312 Clouds 4 1009 93 10000 2.06 340 21:34 09.03.2022
3313 Rain 4 1009 92 10000 3.6 300 19:55 09.03.2022
3314 Rain 5 1008 92 7000 6.17 320 18:34 09.03.2022
3315 Rain 5 1006 92 8000 4.63 320 17:27 09.03.2022
3316 Rain 5 1006 92 10000 4.12 310 16:31 09.03.2022
3317 Rain 6 1005 92 10000 5.66 300 15:28 09.03.2022
3318 Rain 7 1003 92 6000 5.14 290 13:54 09.03.2022
3319 Rain 9 1002 89 8000 9.26 170 12:47 09.03.2022
3320 Rain 10 1003 89 9000 9.26 170 11:54 09.03.2022
3321 Rain 10 1003 89 9000 9.77 160 11:35 09.03.2022
3322 Clouds 10 1002 87 10000 11.32 180 10:26 09.03.2022
3323 Clouds 9 1002 85 10000 10.29 170 08:54 09.03.2022
3324 Clouds 9 1002 82 10000 12.86 180 07:38 09.03.2022
3325 Clouds 9 1003 76 10000 9.77 170 02:57 09.03.2022
3326 Clouds 8 1004 80 10000 4.02 173 00:42 09.03.2022
3327 Clouds 7 1005 80 10000 5.66 150 22:47 08.03.2022
3328 Clouds 7 1005 81 10000 5.14 180 22:26 08.03.2022
3329 Clouds 7 1005 78 10000 7.2 190 21:23 08.03.2022
3330 Clouds 8 1005 74 10000 7.2 190 20:35 08.03.2022
3331 Clouds 8 1004 78 10000 7.2 200 19:35 08.03.2022
3332 Clouds 9 1002 77 10000 8.75 200 18:44 08.03.2022
3333 Clouds 9 1001 81 10000 11.83 190 17:30 08.03.2022
3334 Clouds 10 1000 79 10000 11.32 180 15:45 08.03.2022
3335 Rain 8 1000 87 6000 12.35 150 14:19 08.03.2022
3336 Clouds 8 1001 85 7000 12.35 150 12:43 08.03.2022
3337 Clouds 8 1001 80 8000 12.35 150 11:45 08.03.2022
3338 Clouds 7 1002 80 10000 11.83 140 10:44 08.03.2022
3339 Clouds 6 1003 77 10000 11.83 130 09:43 08.03.2022
3340 Clouds 6 1004 71 10000 9.26 140 06:43 08.03.2022
3341 Clouds 5 1006 72 10000 8.75 130 04:47 08.03.2022
3342 Clouds 6 1012 68 10000 8.75 130 23:36 07.03.2022
3343 Clouds 6 1014 69 10000 6.69 120 21:50 07.03.2022
3344 Clouds 6 1014 69 10000 6.17 110 21:31 07.03.2022
3345 Clouds 6 1015 70 10000 5.66 130 20:44 07.03.2022
3346 Clouds 5 1017 72 10000 5.66 130 19:55 07.03.2022
3347 Clouds 5 1017 72 10000 5.66 140 19:29 07.03.2022
3348 Clouds 5 1016 70 10000 6.69 130 18:40 07.03.2022
3349 Clouds 6 1017 67 10000 8.75 130 17:41 07.03.2022
3350 Clouds 6 1018 68 10000 9.77 140 16:55 07.03.2022
3351 Clouds 6 1020 68 10000 8.75 150 15:27 07.03.2022
3352 Clouds 6 1023 68 10000 7.72 160 12:54 07.03.2022
3353 Clouds 6 1023 68 10000 6.69 160 12:21 07.03.2022
3354 Clouds 5 1024 71 10000 8.23 130 10:36 07.03.2022
3355 Clouds 3 1024 76 10000 5.14 150 08:39 07.03.2022
3356 Clouds 3 1028 87 10000 2.06 110 02:58 07.03.2022
3357 Clouds 3 1029 85 10000 1.54 0 00:22 07.03.2022
3358 Clouds 3 1030 85 10000 2.57 180 23:29 06.03.2022
3359 Clouds 2 1030 85 10000 2.06 150 22:32 06.03.2022
3360 Clouds 2 1030 85 10000 1.54 0 21:45 06.03.2022
3361 Clouds 3 1030 83 10000 2.57 120 20:30 06.03.2022
3362 Clouds 4 1029 78 10000 3.09 110 19:50 06.03.2022
3363 Clouds 6 1029 73 10000 1.79 104 18:51 06.03.2022
3364 Clouds 7 1030 69 10000 5.14 100 17:49 06.03.2022
3365 Clouds 8 1030 69 10000 5.66 90 17:20 06.03.2022
3366 Clouds 8 1030 65 10000 5.81 80 16:40 06.03.2022
3367 Clouds 8 1031 65 10000 5.66 80 15:37 06.03.2022
3368 Clouds 9 1032 65 10000 5.66 90 14:48 06.03.2022
3369 Clouds 8 1032 65 10000 5.14 100 14:26 06.03.2022
3370 Clouds 8 1033 68 10000 2.68 51 12:40 06.03.2022
3371 Clouds 7 1033 70 10000 5.66 100 11:46 06.03.2022
3372 Clouds 6 1033 76 10000 4.12 100 10:43 06.03.2022
3373 Clouds 2 1033 88 10000 2.57 100 09:25 06.03.2022
3374 Clouds 1 1033 92 10000 3.09 70 08:28 06.03.2022
3375 Clouds 0 1033 90 10000 1.54 180 07:33 06.03.2022
3376 Clouds 2 1033 84 10000 2.57 330 03:18 06.03.2022
3377 Clouds 2 1033 87 10000 2.57 350 00:41 06.03.2022
3378 Clouds 2 1033 86 10000 2.57 350 00:22 06.03.2022
3379 Clouds 2 1033 83 10000 2.06 20 23:19 05.03.2022
3380 Clouds 2 1033 83 10000 2.57 10 22:35 05.03.2022
3381 Clouds 3 1033 78 10000 2.57 340 21:31 05.03.2022
3382 Clouds 4 1033 75 10000 2.57 30 20:39 05.03.2022
3383 Clouds 6 1031 70 10000 1.34 37 19:23 05.03.2022
3384 Clouds 6 1032 67 10000 5.14 40 18:48 05.03.2022
3385 Clouds 8 1031 61 10000 5.81 40 17:35 05.03.2022
3386 Clouds 8 1031 61 10000 6.17 50 16:19 05.03.2022
3387 Clouds 8 1031 63 10000 6.17 30 15:20 05.03.2022
3388 Clouds 8 1031 67 10000 6.69 50 15:20 05.03.2022
3389 Clouds 8 1032 66 10000 6.69 30 14:36 05.03.2022
3390 Clouds 8 1032 68 10000 6.69 20 13:44 05.03.2022
3391 Clouds 7 1032 70 10000 6.17 20 12:45 05.03.2022
3392 Clouds 5 1032 76 10000 4.63 340 11:21 05.03.2022
3393 Clouds 4 1032 81 10000 4.12 330 10:52 05.03.2022
3394 Clouds 2 1031 86 10000 4.63 300 09:33 05.03.2022
3395 Clouds 0 1030 89 10000 4.02 290 08:28 05.03.2022
3396 Clouds 0 1029 87 10000 3.6 300 07:22 05.03.2022
3397 Clouds 0 1028 89 10000 3.6 300 05:25 05.03.2022
3398 Clouds 2 1026 84 10000 3.6 300 00:49 05.03.2022
3399 Clouds 2 1026 83 10000 4.63 320 22:58 04.03.2022
3400 Clouds 2 1026 82 10000 3.6 300 22:38 04.03.2022
3401 Clouds 3 1026 79 10000 3.6 310 21:43 04.03.2022
3402 Clouds 4 1025 76 10000 3.09 310 20:42 04.03.2022
3403 Clouds 5 1024 74 10000 4.12 310 19:37 04.03.2022
3404 Clouds 7 1024 60 10000 4.63 300 18:56 04.03.2022
3405 Rain 7 1023 60 10000 5.14 310 18:33 04.03.2022
3406 Clouds 8 1023 55 10000 5.14 320 17:29 04.03.2022
3407 Clouds 9 1023 55 10000 6.17 320 15:54 04.03.2022
3408 Clouds 8 1023 59 10000 5.66 320 15:24 04.03.2022
3409 Clouds 8 1024 66 10000 6.69 310 13:35 04.03.2022
3410 Clouds 7 1024 73 10000 6.17 290 12:38 04.03.2022
3411 Clouds 6 1024 79 10000 6.69 280 11:37 04.03.2022
3412 Clouds 4 1024 85 10000 5.14 290 10:25 04.03.2022
3413 Clouds 2 1023 88 10000 5.66 280 09:27 04.03.2022
3414 Clouds 2 1022 89 10000 6.69 280 07:48 04.03.2022
3415 Clouds 3 1022 88 10000 5.14 270 05:49 04.03.2022
3416 Clouds 5 1020 89 10000 4.63 250 01:23 04.03.2022
3417 Clouds 6 1020 85 10000 4.12 270 23:35 03.03.2022
3418 Clouds 6 1019 83 10000 4.12 290 22:18 03.03.2022
3419 Clouds 7 1019 81 10000 3.6 260 21:36 03.03.2022
3420 Clouds 6 1018 83 10000 1.03 0 20:44 03.03.2022
3421 Clouds 8 1017 73 10000 0.45 89 19:22 03.03.2022
3422 Clouds 9 1016 69 10000 2.57 340 18:25 03.03.2022
3423 Clouds 10 1016 66 10000 2.57 310 17:31 03.03.2022
3424 Clouds 10 1016 62 10000 3.6 330 16:41 03.03.2022
3425 Clouds 10 1016 64 10000 4.12 330 15:44 03.03.2022
3426 Clouds 10 1015 64 10000 4.12 340 14:44 03.03.2022
3427 Clouds 10 1015 63 10000 4.63 350 14:25 03.03.2022
3428 Clouds 9 1015 73 10000 4.12 300 12:33 03.03.2022
3429 Clouds 7 1014 80 10000 5.14 280 11:23 03.03.2022
3430 Clouds 6 1014 82 10000 4.63 260 10:21 03.03.2022
3431 Clouds 5 1012 84 10000 4.63 230 08:42 03.03.2022
3432 Clouds 6 1012 84 10000 6.69 240 06:57 03.03.2022
3433 Clouds 7 1010 84 10000 5.66 240 05:37 03.03.2022
3434 Clouds 9 1009 88 10000 5.66 150 23:57 02.03.2022
3435 Clouds 9 1009 85 10000 6.17 160 23:00 02.03.2022
3436 Clouds 9 1009 85 10000 5.66 180 22:40 02.03.2022
3437 Rain 9 1009 88 10000 5.66 210 21:22 02.03.2022
3438 Rain 9 1009 91 10000 5.14 130 20:26 02.03.2022
3439 Drizzle 9 1010 94 6000 6.71 150 19:41 02.03.2022
3440 Drizzle 9 1009 93 6000 6.69 150 19:23 02.03.2022
3441 Drizzle 9 1009 93 5000 9.26 150 18:37 02.03.2022
3442 Clouds 9 1009 93 3800 6.69 140 17:45 02.03.2022
3443 Drizzle 9 1010 94 3700 7.2 150 16:53 02.03.2022
3444 Clouds 10 1012 93 2300 6.69 140 16:18 02.03.2022
3445 Clouds 9 1012 93 3500 6.69 130 14:32 02.03.2022
3446 Rain 8 1013 94 3500 6.69 120 12:58 02.03.2022
3447 Clouds 8 1014 94 10000 6.17 120 12:35 02.03.2022
3448 Clouds 7 1015 93 7000 4.92 120 11:28 02.03.2022
3449 Clouds 7 1015 93 7000 6.17 90 10:50 02.03.2022
3450 Clouds 7 1017 96 7000 6.17 90 09:37 02.03.2022
3451 Rain 6 1017 96 8000 6.69 90 08:36 02.03.2022
3452 Clouds 7 1018 92 5000 5.14 120 07:24 02.03.2022
3453 Clouds 7 1018 88 10000 5.14 100 05:42 02.03.2022
3454 Clouds 7 1023 81 10000 7.2 100 00:42 02.03.2022
3455 Clouds 6 1024 83 10000 6.69 90 23:35 01.03.2022
3456 Clouds 6 1025 83 10000 6.69 80 22:40 01.03.2022
3457 Clouds 6 1026 83 10000 5.14 80 21:53 01.03.2022
3458 Clouds 5 1026 82 10000 4.63 60 20:41 01.03.2022
3459 Clouds 5 1026 81 10000 4.63 60 20:20 01.03.2022
3460 Clouds 6 1027 76 10000 5.66 70 18:58 01.03.2022
3461 Clouds 7 1027 72 10000 6.17 70 18:25 01.03.2022
3462 Clouds 7 1026 72 10000 7.2 70 17:54 01.03.2022
3463 Clouds 8 1027 71 10000 7.2 80 16:39 01.03.2022
3464 Clouds 8 1028 72 10000 5.66 60 15:48 01.03.2022
3465 Clouds 8 1028 69 10000 5.66 60 14:54 01.03.2022
3466 Clouds 8 1029 70 10000 5.66 50 14:31 01.03.2022
3467 Clouds 8 1029 74 10000 5.14 70 13:26 01.03.2022
3468 Clouds 8 1030 79 10000 3.6 60 12:38 01.03.2022
3469 Clouds 6 1030 81 10000 2.06 30 11:38 01.03.2022
3470 Clear 2 1031 87 10000 1.03 0 09:53 01.03.2022
3471 Clouds 0 1030 91 10000 2.57 310 08:30 01.03.2022
3472 Clouds 0 1030 90 10000 2.06 290 07:19 01.03.2022
3473 Clouds 1 1029 88 10000 2.57 260 03:27 01.03.2022
3474 Clouds 2 1027 86 10000 3.6 280 00:48 01.03.2022
3475 Clouds 3 1027 85 10000 3.09 290 23:46 28.02.2022
3476 Clouds 3 1026 86 10000 2.57 290 22:43 28.02.2022
3477 Clouds 4 1026 86 10000 2.57 290 21:48 28.02.2022
3478 Clouds 5 1024 84 10000 3.6 300 20:54 28.02.2022
3479 Clouds 6 1023 82 10000 4.12 270 19:51 28.02.2022
3480 Clouds 8 1022 79 10000 2.24 269 18:56 28.02.2022
3481 Clouds 9 1020 81 10000 4.12 230 17:43 28.02.2022
3482 Clouds 8 1020 83 10000 4.12 230 17:23 28.02.2022
3483 Clouds 8 1020 85 10000 4.12 230 16:25 28.02.2022
3484 Rain 9 1020 81 10000 4.63 270 14:33 28.02.2022
3485 Clouds 10 1019 80 10000 3.6 250 13:56 28.02.2022
3486 Rain 10 1019 82 10000 3.6 240 13:24 28.02.2022
3487 Rain 9 1017 85 10000 3.6 220 12:29 28.02.2022
3488 Clouds 10 1017 88 10000 4.12 250 11:20 28.02.2022
3489 Clouds 10 1015 88 10000 4.63 240 10:23 28.02.2022
3490 Clouds 10 1015 89 10000 3.09 230 09:51 28.02.2022
3491 Clouds 9 1015 90 10000 3.6 220 09:23 28.02.2022
3492 Clouds 9 1014 92 10000 4.12 220 08:21 28.02.2022
3493 Clouds 9 1013 93 10000 6.17 210 06:31 28.02.2022
3494 Clouds 9 1012 89 6000 9.77 190 04:31 28.02.2022
3495 Clouds 9 1012 79 10000 10.8 200 01:24 28.02.2022
3496 Rain 9 1012 77 10000 9.77 190 22:55 27.02.2022
3497 Rain 9 1014 76 10000 9.77 190 22:32 27.02.2022
3498 Clouds 9 1012 74 10000 10.29 200 21:42 27.02.2022
3499 Clouds 8 1013 77 10000 5.14 180 20:50 27.02.2022
3500 Clouds 8 1013 78 10000 4.63 160 20:22 27.02.2022
3501 Clouds 8 1013 81 10000 6.69 190 19:50 27.02.2022
3502 Clouds 9 1013 79 10000 2.68 124 19:22 27.02.2022
3503 Clouds 9 1013 84 10000 8.23 200 18:37 27.02.2022
3504 Drizzle 9 1013 88 8000 8.23 160 17:52 27.02.2022
3505 Drizzle 9 1015 86 10000 8.75 160 16:30 27.02.2022
3506 Clouds 9 1015 82 10000 8.23 160 15:39 27.02.2022
3507 Clouds 9 1015 80 10000 6.69 170 12:43 27.02.2022
3508 Clouds 9 1015 81 10000 7.72 150 12:25 27.02.2022
3509 Clouds 8 1018 81 10000 10.29 160 10:37 27.02.2022
3510 Clouds 8 1015 81 10000 9.77 160 09:58 27.02.2022
3511 Clouds 8 1015 82 10000 7.2 170 09:24 27.02.2022
3512 Clouds 8 1015 82 10000 8.23 160 08:51 27.02.2022
3513 Clouds 8 1015 79 10000 7.2 150 06:42 27.02.2022
3514 Clouds 8 1016 75 10000 5.66 160 04:19 27.02.2022
3515 Clouds 8 1016 73 10000 10.29 190 00:34 27.02.2022
3516 Clouds 8 1016 74 10000 10.29 180 22:50 26.02.2022
3517 Clouds 9 1016 74 10000 10.29 180 21:34 26.02.2022
3518 Clouds 8 1016 74 10000 12.35 180 20:43 26.02.2022
3519 Clouds 9 1016 74 10000 10.29 170 19:58 26.02.2022
3520 Clouds 9 1016 74 10000 10.8 180 19:33 26.02.2022
3521 Clouds 9 1016 74 10000 5.36 130 18:40 26.02.2022
3522 Drizzle 9 1016 75 10000 9.77 180 17:38 26.02.2022
3523 Drizzle 9 1017 77 10000 10.29 180 16:48 26.02.2022
3524 Clouds 10 1017 76 10000 11.83 190 15:45 26.02.2022
3525 Clouds 10 1017 74 10000 11.83 190 15:20 26.02.2022
3526 Clouds 10 1018 71 10000 11.83 190 14:51 26.02.2022
3527 Clouds 10 1018 72 10000 11.83 180 14:24 26.02.2022
3528 Clouds 10 1019 72 10000 11.83 200 12:59 26.02.2022
3529 Clouds 10 1018 71 10000 10.29 200 11:54 26.02.2022
3530 Clouds 10 1019 73 10000 10.29 200 11:27 26.02.2022
3531 Clouds 9 1020 73 10000 7.72 210 10:31 26.02.2022
3532 Clouds 9 1020 75 10000 10.8 190 08:45 26.02.2022
3533 Clouds 9 1021 76 10000 7.72 210 06:46 26.02.2022
3534 Clouds 8 1024 78 10000 8.23 210 00:26 26.02.2022
3535 Clouds 8 1025 76 10000 6.69 180 22:44 25.02.2022
3536 Clouds 9 1025 79 10000 6.17 190 21:33 25.02.2022
3537 Clouds 9 1025 78 10000 6.17 200 20:57 25.02.2022
3538 Clouds 9 1026 76 10000 6.17 200 20:28 25.02.2022
3539 Clouds 10 1025 68 10000 5.14 210 18:18 25.02.2022
3540 Clouds 11 1025 68 10000 6.17 220 17:21 25.02.2022
3541 Clouds 11 1026 68 10000 6.17 220 16:20 25.02.2022
3542 Clouds 11 1026 68 10000 6.17 220 15:42 25.02.2022
3543 Clouds 11 1026 70 10000 6.69 210 15:18 25.02.2022
3544 Clouds 11 1026 68 10000 7.2 220 14:39 25.02.2022
3545 Clouds 10 1026 72 10000 6.17 220 13:30 25.02.2022
3546 Clouds 9 1026 77 10000 5.14 230 12:42 25.02.2022
3547 Clouds 8 1026 78 10000 6.17 220 11:23 25.02.2022
3548 Clouds 6 1025 80 10000 5.66 230 10:28 25.02.2022
3549 Clouds 4 1025 83 10000 5.66 230 09:52 25.02.2022
3550 Clouds 3 1024 86 10000 5.66 260 08:44 25.02.2022
3551 Clouds 4 1022 86 10000 6.69 230 07:36 25.02.2022
3552 Clouds 4 1021 85 10000 7.72 240 05:45 25.02.2022
3553 Clouds 4 1019 84 10000 7.72 240 02:58 25.02.2022
3554 Clouds 4 1014 84 10000 7.72 250 22:56 24.02.2022
3555 Clouds 4 1013 83 10000 10.8 240 21:54 24.02.2022
3556 Rain 5 1013 81 10000 10.8 240 21:31 24.02.2022
3557 Rain 4 1012 80 10000 9.77 240 20:57 24.02.2022
3558 Clouds 4 1010 79 10000 9.77 230 19:38 24.02.2022
3559 Clouds 4 1010 81 10000 4.02 204 18:37 24.02.2022
3560 Clouds 4 1010 81 10000 10.8 250 18:18 24.02.2022
3561 Rain 4 1010 79 10000 8.23 230 17:33 24.02.2022
3562 Rain 6 1009 69 10000 10.29 250 16:29 24.02.2022
3563 Clouds 6 1009 75 10000 11.32 270 15:47 24.02.2022
3564 Clouds 6 1009 72 10000 9.26 260 14:53 24.02.2022
3565 Clouds 5 1008 74 10000 11.32 250 14:24 24.02.2022
3566 Clouds 5 1008 74 10000 10.29 250 13:39 24.02.2022
3567 Clouds 4 1008 77 10000 8.75 240 12:33 24.02.2022
3568 Rain 1 1006 88 10000 7.2 240 10:40 24.02.2022
3569 Clouds 1 1004 87 10000 8.75 230 08:56 24.02.2022
3570 Clouds 1 1004 86 10000 8.75 230 08:38 24.02.2022
3571 Clouds 3 1003 81 10000 7.72 230 05:52 24.02.2022
3572 Clouds 4 1005 81 10000 8.23 240 01:56 24.02.2022
3573 Clouds 5 1007 85 10000 7.72 240 22:38 23.02.2022
3574 Clouds 5 1007 89 10000 9.77 270 21:37 23.02.2022
3575 Clouds 6 1007 88 10000 10.8 270 20:31 23.02.2022
3576 Clouds 8 1005 83 10000 7.72 240 19:44 23.02.2022
3577 Clouds 9 1006 80 10000 10.29 230 18:32 23.02.2022
3578 Clouds 10 1006 82 10000 8.75 230 17:30 23.02.2022
3579 Clouds 12 1008 68 10000 11.83 220 14:34 23.02.2022
3580 Clouds 11 1009 69 10000 12.35 220 12:42 23.02.2022
3581 Clouds 10 1011 73 10000 13.38 220 11:24 23.02.2022
3582 Clouds 9 1013 77 10000 11.32 220 10:31 23.02.2022
3583 Clouds 8 1013 80 10000 12.35 220 08:59 23.02.2022
3584 Clouds 8 1014 79 10000 12.35 210 07:58 23.02.2022
3585 Clouds 7 1018 69 10000 10.29 210 03:48 23.02.2022
3586 Clouds 7 1019 74 10000 9.77 230 00:26 23.02.2022
3587 Clouds 7 1020 79 10000 8.75 230 23:35 22.02.2022
3588 Clouds 7 1020 80 10000 8.23 240 22:31 22.02.2022
3589 Clouds 7 1020 79 10000 7.2 230 21:49 22.02.2022
3590 Clouds 7 1020 79 10000 7.2 230 21:30 22.02.2022
3591 Clouds 7 1020 80 10000 8.75 240 20:52 22.02.2022
3592 Clouds 7 1019 79 10000 8.75 240 20:29 22.02.2022
3593 Clouds 8 1019 79 10000 8.23 270 19:36 22.02.2022
3594 Clouds 8 1018 77 10000 8.23 270 19:18 22.02.2022
3595 Clouds 9 1018 72 10000 9.26 270 17:46 22.02.2022
3596 Clouds 9 1018 73 10000 8.94 270 17:20 22.02.2022
3597 Clouds 10 1017 67 10000 10.29 270 16:36 22.02.2022
3598 Clouds 10 1016 70 10000 9.26 270 15:39 22.02.2022
3599 Clouds 9 1016 75 10000 10.29 270 14:44 22.02.2022
3600 Clouds 9 1014 77 10000 10.29 270 12:21 22.02.2022
3601 Clouds 8 1012 84 10000 8.23 240 10:39 22.02.2022
3602 Rain 11 1008 88 8000 11.32 220 07:52 22.02.2022
3603 Rain 11 1007 86 8000 11.32 220 07:25 22.02.2022
3604 Clouds 11 1013 83 10000 9.77 220 02:52 22.02.2022
3605 Clouds 10 1015 86 10000 8.75 210 00:49 22.02.2022
3606 Clouds 9 1017 85 10000 6.69 220 22:41 21.02.2022
3607 Drizzle 8 1018 85 6000 6.17 220 21:30 21.02.2022
3608 Drizzle 8 1018 80 10000 4.12 230 20:34 21.02.2022
3609 Drizzle 8 1018 80 10000 4.12 230 20:34 21.02.2022
3610 Clouds 9 1019 72 10000 6.69 270 18:42 21.02.2022
3611 Clouds 10 1018 67 10000 9.26 280 16:50 21.02.2022
3612 Clouds 10 1016 71 10000 11.32 290 14:52 21.02.2022
3613 Clouds 10 1016 71 10000 11.32 290 14:52 21.02.2022
3614 Clouds 10 1016 74 10000 10.29 290 14:21 21.02.2022
3615 Clouds 9 1015 76 10000 11.83 280 12:59 21.02.2022
3616 Clouds 9 1014 79 10000 12.35 270 12:23 21.02.2022
3617 Rain 7 1012 84 8000 15.43 280 10:51 21.02.2022
3618 Rain 7 1009 84 8000 15.43 280 09:30 21.02.2022
3619 Clouds 7 1009 84 8000 15.43 280 09:30 21.02.2022
3620 Clouds 5 1000 78 10000 12.86 240 02:58 21.02.2022
3621 Clouds 2 1000 84 10000 10.8 250 23:29 20.02.2022
3622 Rain 2 999 89 10000 10.29 260 22:19 20.02.2022
3623 Rain 2 999 89 10000 11.83 250 21:41 20.02.2022
3624 Rain 3 998 87 10000 11.32 270 20:52 20.02.2022
3625 Clouds 3 998 82 10000 12.35 270 20:22 20.02.2022
3626 Clouds 4 997 82 10000 14.92 260 19:29 20.02.2022
3627 Clouds 5 995 80 10000 9.39 261 18:49 20.02.2022
3628 Clouds 5 995 77 10000 14.92 260 18:30 20.02.2022
3629 Rain 6 993 82 10000 13.89 280 17:30 20.02.2022
3630 Clouds 9 990 85 8000 10.8 250 15:30 20.02.2022
3631 Rain 9 992 89 7000 11.83 260 14:39 20.02.2022
3632 Rain 12 991 91 7000 11.83 230 13:22 20.02.2022
3633 Rain 12 991 91 7000 11.83 230 13:22 20.02.2022
3634 Rain 12 991 91 7000 11.83 230 13:22 20.02.2022
3635 Rain 12 993 88 7000 13.89 230 11:56 20.02.2022
3636 Rain 12 993 88 7000 13.89 230 11:56 20.02.2022
3637 Rain 12 993 88 7000 13.89 230 11:56 20.02.2022
3638 Rain 12 995 90 8000 12.35 230 10:21 20.02.2022
3639 Rain 12 995 90 8000 12.35 230 10:21 20.02.2022
3640 Rain 12 995 90 8000 12.35 230 09:46 20.02.2022
3641 Rain 11 997 87 8000 12.86 230 06:30 20.02.2022
3642 Clouds 11 1001 88 6000 11.32 240 00:32 20.02.2022
3643 Rain 10 1002 90 7000 9.77 230 23:33 19.02.2022
3644 Clouds 10 1002 90 7000 9.77 230 22:24 19.02.2022
3645 Clouds 9 1003 90 10000 10.29 210 21:47 19.02.2022
3646 Rain 8 1004 89 10000 5.66 210 20:28 19.02.2022
3647 Rain 7 1006 85 10000 5.14 230 19:35 19.02.2022
3648 Clouds 8 1006 81 10000 5.14 230 18:40 19.02.2022
3649 Clouds 8 1006 81 10000 5.14 230 18:40 19.02.2022
3650 Clouds 8 1005 81 10000 5.66 240 17:57 19.02.2022
3651 Clouds 7 1005 82 10000 6.17 260 17:21 19.02.2022
3652 Clouds 6 1006 83 10000 7.2 270 15:59 19.02.2022
3653 Clouds 5 1005 86 10000 6.69 280 14:54 19.02.2022
3654 Clouds 4 1005 88 10000 9.77 290 13:57 19.02.2022
3655 Clouds 8 999 87 10000 9.77 240 11:47 19.02.2022
3656 Clouds 7 998 90 6000 9.26 220 10:48 19.02.2022
3657 Clouds 3 1002 93 7000 4.63 190 08:56 19.02.2022
3658 Rain 4 1005 85 10000 8.23 220 06:48 19.02.2022
3659 Clouds 2 1006 81 10000 8.23 230 00:38 19.02.2022
3660 Clouds 2 1005 82 10000 9.26 230 22:24 18.02.2022
3661 Clouds 2 1004 83 10000 6.26 255 21:21 18.02.2022
3662 Rain 2 1003 87 10000 9.26 250 19:57 18.02.2022
3663 Clouds 2 1001 87 5000 14.92 290 18:51 18.02.2022
3664 Rain 3 1000 79 10000 12.35 270 18:28 18.02.2022
3665 Clouds 4 998 76 10000 13.89 270 17:56 18.02.2022
3666 Clouds 5 995 68 10000 15.43 270 15:57 18.02.2022
3667 Clouds 5 992 79 10000 17.43 290 13:56 18.02.2022
3668 Clouds 4 991 85 8000 18.01 290 13:32 18.02.2022
3669 Clouds 4 989 86 10000 17.49 290 12:48 18.02.2022
3670 Clouds 3 985 86 10000 16.98 290 11:56 18.02.2022
3671 Clouds 4 980 87 10000 12.86 280 10:42 18.02.2022
3672 Rain 5 980 84 10000 7.72 190 07:20 18.02.2022
3673 Clouds 7 982 77 10000 9.77 220 05:43 18.02.2022
3674 Clouds 7 985 95 6000 10.29 130 03:47 18.02.2022
3675 Rain 7 1004 73 10000 4.63 180 21:56 17.02.2022
3676 Clouds 7 1004 74 10000 4.63 180 21:27 17.02.2022
3677 Clouds 7 1005 75 10000 7.72 230 20:40 17.02.2022
3678 Clouds 7 1005 77 10000 6.69 230 19:54 17.02.2022
3679 Clouds 7 1006 79 10000 7.72 230 18:57 17.02.2022
3680 Clouds 7 1007 77 10000 7.2 260 17:59 17.02.2022
3681 Clouds 7 1007 81 10000 7.72 250 16:43 17.02.2022
3682 Clouds 7 1007 82 4000 11.32 270 15:44 17.02.2022
3683 Clouds 7 1007 86 10000 8.23 260 14:29 17.02.2022
3684 Clouds 5 1007 90 10000 4.02 270 12:51 17.02.2022
3685 Clouds 5 1007 82 10000 5.14 260 11:30 17.02.2022
3686 Clouds 6 1006 79 10000 7.2 220 09:30 17.02.2022
3687 Clouds 6 1002 82 10000 8.23 250 04:41 17.02.2022
3688 Clouds 8 995 80 10000 13.89 260 23:21 16.02.2022
3689 Rain 8 994 77 10000 13.38 250 22:20 16.02.2022
3690 Clouds 9 992 74 10000 13.89 260 20:19 16.02.2022
3691 Clouds 11 989 71 10000 15.95 250 18:43 16.02.2022
3692 Clouds 11 989 72 10000 15.95 260 17:53 16.02.2022
3693 Clouds 11 987 87 10000 15.43 260 15:55 16.02.2022
3694 Rain 11 987 91 3800 15.95 260 15:19 16.02.2022
3695 Clouds 14 987 90 6000 11.83 230 13:31 16.02.2022
3696 Clouds 14 988 87 6000 12.86 230 12:20 16.02.2022
3697 Clouds 13 988 85 10000 10.29 220 11:31 16.02.2022
3698 Clouds 13 990 81 8000 8.75 220 10:34 16.02.2022
3699 Clouds 12 991 80 10000 9.77 230 08:24 16.02.2022
3700 Clouds 12 991 77 10000 10.29 240 06:43 16.02.2022
3701 Clouds 11 988 89 10000 10.8 220 23:45 15.02.2022
3702 Clouds 8 991 92 8000 6.69 210 22:33 15.02.2022
3703 Rain 7 994 91 10000 6.17 200 21:48 15.02.2022
3704 Rain 8 994 89 10000 6.17 200 21:29 15.02.2022
3705 Rain 7 996 87 10000 6.17 210 20:56 15.02.2022
3706 Rain 8 997 86 8000 5.66 220 19:59 15.02.2022
3707 Rain 8 998 85 8000 5.66 220 19:21 15.02.2022
3708 Rain 8 998 78 10000 7.72 220 18:23 15.02.2022
3709 Clouds 8 998 80 10000 4.63 230 17:50 15.02.2022
3710 Rain 8 999 80 10000 6.69 220 17:19 15.02.2022
3711 Clouds 9 1000 75 10000 7.72 230 15:30 15.02.2022
3712 Clouds 8 1001 76 10000 8.23 250 13:28 15.02.2022
3713 Clouds 8 1001 78 10000 8.23 250 12:37 15.02.2022
3714 Clouds 7 1000 80 10000 8.23 260 11:40 15.02.2022
3715 Clouds 7 1001 82 10000 7.72 250 09:47 15.02.2022
3716 Clouds 9 998 86 10000 10.29 220 06:59 15.02.2022
3717 Clouds 9 998 85 10000 11.83 210 05:32 15.02.2022
3718 Clouds 6 1007 81 10000 5.66 220 23:33 14.02.2022
3719 Clouds 5 1008 82 10000 5.66 230 21:47 14.02.2022
3720 Clouds 5 1008 81 10000 4.12 260 20:40 14.02.2022
3721 Clouds 5 1007 82 10000 6.69 260 19:44 14.02.2022
3722 Clouds 5 1007 82 10000 6.69 260 19:25 14.02.2022
3723 Clouds 6 1006 77 10000 8.23 280 18:23 14.02.2022
3724 Clouds 7 1005 73 10000 8.75 300 17:26 14.02.2022
3725 Clouds 8 1005 74 10000 10.8 300 16:25 14.02.2022
3726 Clouds 8 1003 70 10000 11.32 310 14:31 14.02.2022
3727 Clouds 8 1003 76 10000 10.8 310 13:33 14.02.2022
3728 Clouds 8 1003 76 10000 10.8 310 13:33 14.02.2022
3729 Clouds 7 1002 79 10000 10.8 300 12:52 14.02.2022
3730 Clouds 7 1001 84 10000 9.26 290 11:55 14.02.2022
3731 Clouds 6 1000 89 10000 9.26 290 10:56 14.02.2022
3732 Clouds 6 997 92 10000 9.26 290 08:45 14.02.2022
3733 Clouds 5 996 93 10000 8.23 280 07:32 14.02.2022
3734 Clouds 5 994 91 10000 7.2 260 05:56 14.02.2022
3735 Clouds 6 992 91 10000 7.72 290 22:43 13.02.2022
3736 Clouds 6 991 91 10000 6.71 280 22:25 13.02.2022
3737 Clouds 6 991 93 10000 7.2 260 21:32 13.02.2022
3738 Clouds 6 989 91 10000 7.72 270 20:40 13.02.2022
3739 Clouds 7 989 94 7000 8.75 280 19:45 13.02.2022
3740 Clouds 7 988 93 7000 5.66 270 18:54 13.02.2022
3741 Clouds 7 988 92 8000 4.63 270 18:35 13.02.2022
3742 Clouds 8 989 85 10000 7.2 290 16:34 13.02.2022
3743 Clouds 9 989 84 10000 7.72 290 15:25 13.02.2022
3744 Clouds 9 987 86 10000 7.2 290 14:36 13.02.2022
3745 Clouds 9 987 87 10000 5.81 244 12:51 13.02.2022
3746 Clouds 9 987 92 10000 5.66 230 11:58 13.02.2022
3747 Rain 8 988 92 10000 3.09 200 10:35 13.02.2022
3748 Clouds 8 989 90 10000 5.66 210 09:47 13.02.2022
3749 Rain 8 991 95 5000 6.17 80 07:51 13.02.2022
3750 Clouds 9 1004 83 10000 7.2 220 00:36 13.02.2022
3751 Clouds 9 1004 82 10000 6.17 210 23:53 12.02.2022
3752 Clouds 9 1005 82 10000 5.66 220 22:33 12.02.2022
3753 Clouds 9 1005 80 10000 5.66 220 21:36 12.02.2022
3754 Clouds 9 1005 80 10000 5.66 240 20:52 12.02.2022
3755 Clouds 9 1005 79 10000 6.17 230 19:47 12.02.2022
3756 Clouds 9 1005 79 10000 6.69 230 18:53 12.02.2022
3757 Clouds 10 1005 77 10000 6.69 230 18:35 12.02.2022
3758 Clouds 10 1005 76 10000 7.72 230 17:37 12.02.2022
3759 Clouds 11 1005 80 10000 7.72 240 16:43 12.02.2022
3760 Clouds 11 1005 79 10000 8.75 240 15:51 12.02.2022
3761 Rain 12 1006 78 10000 9.77 230 14:55 12.02.2022
3762 Clouds 12 1006 79 10000 9.77 230 14:24 12.02.2022
3763 Clouds 11 1008 83 5000 9.26 210 11:18 12.02.2022
3764 Clouds 10 1008 82 10000 13.38 210 10:23 12.02.2022
3765 Clouds 9 1008 85 10000 13.38 210 09:32 12.02.2022
3766 Clouds 10 1009 83 10000 13.89 200 08:45 12.02.2022
3767 Clouds 9 1011 82 10000 14.4 200 05:41 12.02.2022
3768 Clouds 8 1013 83 10000 14.4 200 04:36 12.02.2022
3769 Rain 8 1016 81 10000 10.29 200 02:19 12.02.2022
3770 Clouds 8 1018 74 10000 10.8 200 22:57 11.02.2022
3771 Clouds 8 1019 73 10000 10.8 200 22:20 11.02.2022
3772 Rain 8 1021 73 10000 11.32 210 20:52 11.02.2022
3773 Rain 7 1022 73 10000 8.23 200 19:50 11.02.2022
3774 Rain 7 1022 73 10000 8.23 200 19:27 11.02.2022
3775 Clouds 7 1023 72 10000 8.23 200 18:28 11.02.2022
3776 Clouds 8 1024 72 10000 8.23 200 17:26 11.02.2022
3777 Clouds 8 1025 71 10000 8.23 200 16:26 11.02.2022
3778 Clouds 9 1027 67 10000 8.75 190 14:59 11.02.2022
3779 Clouds 9 1027 68 10000 8.75 200 14:37 11.02.2022
3780 Clouds 8 1028 68 10000 8.75 200 14:18 11.02.2022
3781 Clouds 8 1029 68 10000 5.66 200 13:39 11.02.2022
3782 Clouds 6 1029 72 10000 5.66 200 12:20 11.02.2022
3783 Clouds 3 1030 83 10000 3.09 170 10:29 11.02.2022
3784 Clouds 1 1030 88 10000 4.63 210 09:19 11.02.2022
3785 Clouds 1 1030 87 10000 4.63 210 08:28 11.02.2022
3786 Clouds 2 1030 88 10000 2.57 240 07:34 11.02.2022
3787 Clouds 3 1029 86 10000 6.17 230 02:40 11.02.2022
3788 Clouds 3 1029 85 10000 6.17 230 02:20 11.02.2022
3789 Clouds 3 1028 85 10000 5.14 230 23:36 10.02.2022
3790 Clouds 3 1027 85 10000 6.69 250 21:53 10.02.2022
3791 Clouds 3 1027 84 10000 6.69 250 21:26 10.02.2022
3792 Clouds 3 1026 86 10000 6.71 270 20:48 10.02.2022
3793 Clouds 4 1025 83 10000 6.17 270 19:37 10.02.2022
3794 Clouds 4 1025 83 10000 6.17 270 19:18 10.02.2022
3795 Clouds 5 1024 80 10000 10.29 270 17:39 10.02.2022
3796 Clouds 5 1024 80 10000 9.26 280 17:19 10.02.2022
3797 Rain 6 1024 77 10000 9.26 270 16:20 10.02.2022
3798 Clouds 7 1023 68 10000 9.77 280 15:33 10.02.2022
3799 Clouds 7 1022 69 10000 9.77 260 14:49 10.02.2022
3800 Clouds 7 1022 71 10000 9.26 280 14:29 10.02.2022
3801 Clouds 6 1022 71 10000 8.75 270 13:33 10.02.2022
3802 Clouds 6 1022 74 10000 9.26 270 12:51 10.02.2022
3803 Clouds 4 1022 78 10000 7.72 240 11:38 10.02.2022
3804 Clouds 4 1022 80 10000 7.72 240 11:20 10.02.2022
3805 Clouds 3 1021 84 10000 8.23 230 10:19 10.02.2022
3806 Clouds 3 1021 84 10000 8.23 230 09:25 10.02.2022
3807 Clouds 3 1020 86 10000 8.23 230 07:40 10.02.2022
3808 Clouds 3 1020 84 10000 6.17 220 05:52 10.02.2022
3809 Clouds 4 1021 84 10000 6.17 220 01:57 10.02.2022
3810 Clouds 4 1021 84 10000 6.69 230 00:50 10.02.2022
3811 Clouds 4 1021 84 10000 6.69 230 00:50 10.02.2022
3812 Clouds 4 1021 84 10000 6.69 230 00:29 10.02.2022
3813 Clouds 4 1021 83 10000 6.17 230 23:26 09.02.2022
3814 Clouds 5 1022 82 10000 5.66 240 22:37 09.02.2022
3815 Clouds 5 1022 83 10000 5.14 230 21:52 09.02.2022
3816 Clouds 5 1022 83 10000 5.14 230 21:30 09.02.2022
3817 Clouds 5 1022 81 10000 6.17 240 20:51 09.02.2022
3818 Clouds 5 1022 81 10000 6.17 240 20:31 09.02.2022
3819 Clouds 5 1022 82 10000 7.72 240 19:56 09.02.2022
3820 Clouds 6 1022 81 10000 7.72 240 19:32 09.02.2022
3821 Clouds 7 1022 74 10000 9.77 260 17:38 09.02.2022
3822 Clouds 7 1021 74 10000 6.69 270 16:52 09.02.2022
3823 Clouds 8 1022 71 10000 8.75 250 15:51 09.02.2022
3824 Clouds 8 1022 71 10000 6.17 260 14:42 09.02.2022
3825 Clouds 7 1023 77 10000 7.2 250 12:28 09.02.2022
3826 Clouds 7 1022 81 10000 6.17 240 10:55 09.02.2022
3827 Clouds 6 1022 84 10000 6.69 230 10:30 09.02.2022
3828 Clouds 6 1022 86 10000 5.66 230 09:40 09.02.2022
3829 Clouds 6 1022 85 10000 5.66 230 09:40 09.02.2022
3830 Clouds 6 1022 86 10000 5.66 230 09:19 09.02.2022
3831 Clouds 6 1021 88 10000 6.69 240 07:55 09.02.2022
3832 Clouds 7 1020 88 10000 7.15 270 05:30 09.02.2022
3833 Clouds 7 1020 88 10000 7.15 270 05:30 09.02.2022
3834 Clouds 8 1019 87 10000 8.23 240 03:50 09.02.2022
3835 Clouds 8 1019 91 10000 6.17 230 00:44 09.02.2022
3836 Clouds 8 1019 93 10000 6.17 230 23:32 08.02.2022
3837 Clouds 8 1019 93 10000 6.17 230 23:32 08.02.2022
3838 Clouds 8 1019 93 10000 6.17 230 23:32 08.02.2022
3839 Clouds 8 1019 93 10000 6.17 230 23:32 08.02.2022
3840 Rain 8 1019 94 8000 6.17 260 22:46 08.02.2022
3841 Drizzle 9 1019 94 6000 4.92 248 22:21 08.02.2022
3842 Rain 9 1019 93 6000 6.69 270 21:42 08.02.2022
3843 Clouds 10 1019 94 6000 6.69 270 21:20 08.02.2022
3844 Drizzle 10 1019 94 6000 4.63 240 20:43 08.02.2022
3845 Clouds 10 1019 94 6000 5.66 240 19:46 08.02.2022
3846 Clouds 11 1019 93 5000 5.14 240 18:38 08.02.2022
3847 Clouds 11 1019 93 8000 6.17 240 17:42 08.02.2022
3848 Clouds 11 1020 94 6000 6.17 250 16:30 08.02.2022
3849 Clouds 11 1020 93 4000 6.69 250 15:30 08.02.2022
3850 Clouds 11 1020 93 4000 6.69 250 15:30 08.02.2022
3851 Drizzle 11 1021 93 8000 5.66 250 14:32 08.02.2022
3852 Drizzle 10 1022 93 8000 8.23 250 13:20 08.02.2022
3853 Drizzle 10 1021 91 10000 8.75 270 11:33 08.02.2022
3854 Drizzle 12 1020 88 8000 9.26 230 10:23 08.02.2022
3855 Clouds 12 1020 90 8000 10.29 230 10:23 08.02.2022
3856 Clouds 12 1020 90 8000 10.29 230 09:44 08.02.2022
3857 Clouds 11 1020 87 10000 9.77 230 07:51 08.02.2022
3858 Clouds 11 1019 86 10000 10.8 230 05:40 08.02.2022
3859 Clouds 11 1020 86 10000 11.32 230 04:39 08.02.2022
3860 Clouds 11 1020 86 10000 11.32 230 04:21 08.02.2022
3861 Clouds 12 1020 86 10000 11.83 230 03:36 08.02.2022
3862 Clouds 11 1019 85 10000 6.69 230 03:18 08.02.2022
3863 Clouds 12 1020 85 10000 11.83 230 02:58 08.02.2022
3864 Clouds 12 1020 85 10000 11.83 230 02:36 08.02.2022
3865 Clouds 12 1020 85 10000 11.83 230 02:18 08.02.2022
3866 Clouds 11 1019 84 10000 10.29 230 01:43 08.02.2022
3867 Clouds 11 1019 84 10000 10.29 230 01:24 08.02.2022
3868 Clouds 11 1020 83 10000 12.86 230 00:53 08.02.2022
3869 Clouds 11 1020 82 10000 10.29 230 23:54 07.02.2022
3870 Clouds 11 1020 82 10000 10.29 230 23:36 07.02.2022
3871 Clouds 12 1020 82 10000 10.29 230 23:18 07.02.2022
3872 Clouds 11 1020 80 10000 6.71 258 22:19 07.02.2022
3873 Clouds 11 1020 80 10000 9.77 230 21:53 07.02.2022
3874 Clouds 11 1020 81 10000 9.77 230 21:29 07.02.2022
3875 Clouds 11 1020 82 10000 10.8 230 20:56 07.02.2022
3876 Clouds 11 1020 81 10000 10.8 230 20:38 07.02.2022
3877 Clouds 11 1020 79 10000 9.26 240 19:49 07.02.2022
3878 Clouds 11 1020 79 10000 9.26 240 19:31 07.02.2022
3879 Clouds 12 1020 76 10000 9.77 230 17:41 07.02.2022
3880 Clouds 12 1021 77 10000 10.8 240 16:52 07.02.2022
3881 Clouds 12 1021 78 10000 9.77 250 15:49 07.02.2022
3882 Clouds 11 1021 86 10000 9.77 250 14:44 07.02.2022
3883 Clouds 12 1022 83 10000 10.29 230 13:28 07.02.2022
3884 Drizzle 12 1022 87 10000 4.92 245 12:38 07.02.2022
3885 Drizzle 11 1021 89 10000 4.92 243 11:55 07.02.2022
3886 Drizzle 11 1021 90 10000 6.26 238 11:33 07.02.2022
3887 Drizzle 10 1021 89 10000 4.02 269 10:47 07.02.2022
3888 Drizzle 10 1021 90 10000 4.92 279 10:28 07.02.2022
3889 Drizzle 9 1021 91 10000 4.92 255 09:52 07.02.2022
3890 Clouds 8 1021 91 10000 3.58 276 09:18 07.02.2022
3891 Clouds 7 1022 88 9000 0.89 157 08:20 07.02.2022
3892 Clouds 5 1022 86 10000 0.89 45 06:35 07.02.2022
3893 Clouds 5 1021 85 10000 1.34 230 05:47 07.02.2022
3894 Clouds 4 1021 87 10000 1.34 252 02:56 07.02.2022
3895 Clouds 5 1020 83 10000 2.68 259 00:33 07.02.2022
3896 Clouds 5 1017 83 10000 3.13 258 23:40 06.02.2022
3897 Clouds 5 1017 83 10000 2.24 248 22:46 06.02.2022
3898 Clouds 5 1016 84 10000 4.02 244 21:51 06.02.2022
3899 Clouds 5 1016 83 10000 4.92 285 21:21 06.02.2022
3900 Clouds 5 1015 82 10000 4.47 226 20:52 06.02.2022
3901 Clouds 5 1014 82 10000 4.02 262 20:24 06.02.2022
3902 Clouds 6 1012 79 10000 4.47 254 19:30 06.02.2022
3903 Clouds 6 1011 77 10000 6.26 299 18:35 06.02.2022
3904 Clouds 7 1010 74 10000 6.71 265 17:54 06.02.2022
3905 Clouds 7 1008 78 10000 8.49 310 16:52 06.02.2022
3906 Clouds 6 1008 81 10000 6.26 296 16:30 06.02.2022
3907 Rain 8 1006 72 8000 6.71 282 15:47 06.02.2022
3908 Clouds 8 1006 72 10000 5.36 279 15:25 06.02.2022
3909 Clouds 9 1005 72 10000 9.83 245 14:25 06.02.2022
3910 Clouds 8 1004 75 10000 7.6 248 13:24 06.02.2022
3911 Clouds 8 1004 80 10000 4.47 245 12:34 06.02.2022
3912 Clouds 8 1003 82 10000 4.92 258 11:19 06.02.2022
3913 Clouds 7 1003 85 10000 6.71 265 09:48 06.02.2022
3914 Clouds 6 1003 85 10000 6.26 231 08:46 06.02.2022
3915 Clouds 7 1002 85 10000 4.47 276 07:36 06.02.2022
3916 Rain 8 1002 89 10000 4.47 269 05:29 06.02.2022
3917 Rain 9 1003 90 9000 5.81 265 02:26 06.02.2022
3918 Clouds 10 1004 82 10000 6.26 221 00:51 06.02.2022
3919 Clouds 9 1004 82 10000 6.71 279 00:24 06.02.2022
3920 Clouds 9 1005 85 10000 8.94 216 21:59 05.02.2022
3921 Rain 8 1007 88 10000 6.26 300 20:48 05.02.2022
3922 Rain 8 1007 88 10000 6.26 255 20:23 05.02.2022
3923 Rain 9 1007 88 10000 4.92 258 19:44 05.02.2022
3924 Rain 9 1007 87 5000 6.26 238 18:45 05.02.2022
3925 Clouds 9 1007 87 5000 5.36 245 17:36 05.02.2022
3926 Clouds 9 1008 86 5000 7.15 258 16:33 05.02.2022
3927 Clouds 9 1009 83 10000 7.15 257 15:31 05.02.2022
3928 Clouds 9 1010 85 8000 8.05 265 13:57 05.02.2022
3929 Clouds 9 1010 83 5000 5.81 235 12:46 05.02.2022
3930 Clouds 9 1011 81 8000 8.49 234 11:47 05.02.2022
3931 Clouds 8 1011 85 8000 6.71 221 10:44 05.02.2022
3932 Clouds 7 1012 82 10000 7.6 252 09:51 05.02.2022
3933 Clouds 7 1013 82 10000 7.15 258 08:51 05.02.2022
3934 Clouds 6 1014 84 10000 8.05 245 07:27 05.02.2022
3935 Clouds 6 1015 85 10000 7.15 182 06:55 05.02.2022
3936 Clouds 4 1018 85 10000 3.58 233 02:43 05.02.2022
3937 Clouds 4 1018 83 10000 4.47 252 01:18 05.02.2022
3938 Clouds 4 1018 83 10000 2.24 258 00:36 05.02.2022
3939 Clouds 4 1018 81 10000 4.92 262 23:33 04.02.2022
3940 Clouds 4 1018 83 10000 4.92 271 22:50 04.02.2022
3941 Clouds 4 1017 83 10000 4.47 254 21:36 04.02.2022
3942 Clouds 4 1017 83 10000 4.02 290 21:18 04.02.2022
3943 Clouds 4 1016 84 10000 4.92 271 20:37 04.02.2022
3944 Clouds 4 1015 84 10000 3.13 271 19:19 04.02.2022
3945 Clouds 4 1013 87 10000 4.02 286 16:44 04.02.2022
3946 Clouds 5 1012 84 10000 4.47 300 15:19 04.02.2022
3947 Rain 7 1012 73 10000 5.81 262 14:47 04.02.2022
3948 Clouds 6 1011 79 10000 5.36 281 12:43 04.02.2022
3949 Clouds 5 1011 82 10000 4.47 275 11:45 04.02.2022
3950 Clouds 4 1010 85 10000 5.36 276 10:56 04.02.2022
3951 Clouds 3 1010 87 10000 5.81 266 10:22 04.02.2022
3952 Clouds 3 1009 87 10000 6.71 279 08:30 04.02.2022
3953 Clouds 5 1007 89 10000 3.13 278 03:47 04.02.2022
3954 Rain 5 1007 89 10000 2.68 279 02:36 04.02.2022
3955 Rain 5 1007 90 10000 2.24 293 23:40 03.02.2022
3956 Rain 6 1007 91 10000 2.68 296 22:50 03.02.2022
3957 Rain 7 1005 91 8000 4.02 279 21:52 03.02.2022
3958 Clouds 8 1005 90 8000 4.02 271 21:22 03.02.2022
3959 Clouds 11 1003 78 10000 7.6 216 20:22 03.02.2022
3960 Clouds 11 1003 78 10000 7.6 216 20:22 03.02.2022
3961 Clouds 11 1004 78 10000 6.26 230 19:42 03.02.2022
3962 Clouds 11 1004 77 10000 5.36 238 18:56 03.02.2022
3963 Clouds 11 1005 76 10000 5.81 197 17:55 03.02.2022
3964 Clouds 12 1006 78 10000 4.02 241 16:48 03.02.2022
3965 Clouds 11 1007 79 10000 4.02 245 15:28 03.02.2022
3966 Clouds 11 1009 82 10000 5.81 258 13:45 03.02.2022
3967 Clouds 10 1010 81 10000 4.92 197 11:47 03.02.2022
3968 Clouds 8 1011 87 10000 4.92 255 08:55 03.02.2022
3969 Clouds 8 1011 88 10000 4.47 283 07:41 03.02.2022
3970 Rain 9 1016 90 10000 0.89 279 00:47 03.02.2022
3971 Clouds 9 1017 89 10000 2.24 248 00:22 03.02.2022
3972 Clouds 9 1017 89 10000 1.79 233 22:38 02.02.2022
3973 Clouds 9 1018 88 10000 1.79 178 21:45 02.02.2022
3974 Clouds 9 1018 88 10000 2.24 238 21:27 02.02.2022
3975 Rain 9 1019 89 10000 1.79 276 20:24 02.02.2022
3976 Rain 10 1019 89 10000 3.58 220 19:46 02.02.2022
3977 Clouds 10 1019 88 10000 3.13 269 18:56 02.02.2022
3978 Drizzle 10 1019 87 10000 2.24 293 18:24 02.02.2022
3979 Rain 10 1020 82 10000 2.68 262 17:20 02.02.2022
3980 Clouds 10 1020 83 10000 2.68 282 16:54 02.02.2022
3981 Clouds 11 1021 82 10000 2.68 262 14:42 02.02.2022
3982 Clouds 10 1023 87 10000 5.36 257 12:30 02.02.2022
3983 Clouds 10 1023 89 10000 5.36 252 11:44 02.02.2022
3984 Clouds 10 1023 89 10000 3.13 249 11:24 02.02.2022
3985 Clouds 9 1022 90 10000 4.47 274 08:29 02.02.2022
3986 Clouds 9 1022 91 10000 5.81 255 01:46 02.02.2022
3987 Drizzle 10 1023 94 9000 5.36 248 22:29 01.02.2022
3988 Drizzle 10 1024 91 10000 4.92 262 20:50 01.02.2022
3989 Clouds 10 1022 91 10000 5.81 276 18:55 01.02.2022
3990 Drizzle 11 1023 90 6000 6.26 265 16:46 01.02.2022
3991 Drizzle 11 1022 91 10000 8.49 310 15:44 01.02.2022
3992 Drizzle 11 1024 93 10000 6.71 258 12:56 01.02.2022
3993 Drizzle 10 1024 94 7000 6.71 234 11:51 01.02.2022
3994 Drizzle 10 1022 96 8000 7.6 262 08:37 01.02.2022
3995 Clouds 9 1024 86 10000 6.26 202 02:20 01.02.2022
3996 Clouds 9 1025 84 10000 6.71 248 23:37 31.01.2022
3997 Clouds 9 1026 84 10000 5.81 262 22:33 31.01.2022
3998 Clouds 9 1027 84 10000 6.71 285 21:34 31.01.2022
3999 Clouds 9 1028 82 10000 4.02 244 20:34 31.01.2022
4000 Clouds 9 1028 82 10000 2.68 261 19:52 31.01.2022
4001 Clouds 8 1029 83 10000 4.02 276 18:31 31.01.2022
4002 Clouds 8 1029 82 10000 3.13 265 17:55 31.01.2022
4003 Clouds 8 1029 83 10000 3.13 285 16:58 31.01.2022
4004 Clouds 8 1029 82 10000 2.68 201 16:20 31.01.2022
4005 Clouds 8 1030 83 10000 1.79 231 14:49 31.01.2022
4006 Clouds 8 1030 80 10000 4.92 302 12:57 31.01.2022
4007 Clouds 7 1030 82 10000 4.02 288 12:36 31.01.2022
4008 Clouds 6 1029 84 10000 4.02 269 10:58 31.01.2022
4009 Clouds 6 1029 84 10000 4.02 299 10:37 31.01.2022
4010 Clouds 5 1029 87 10000 4.47 286 09:36 31.01.2022
4011 Clouds 5 1028 87 10000 4.92 254 08:54 31.01.2022
4012 Clouds 5 1027 84 10000 4.02 269 08:20 31.01.2022
4013 Clouds 5 1027 84 10000 4.92 302 07:29 31.01.2022
4014 Clouds 5 1026 83 10000 3.58 288 05:24 31.01.2022
4015 Clouds 6 1023 82 10000 5.36 244 23:37 30.01.2022
4016 Clouds 6 1023 83 10000 8.05 259 22:31 30.01.2022
4017 Clouds 7 1023 83 10000 6.71 244 21:44 30.01.2022
4018 Clouds 7 1023 83 10000 6.26 286 21:22 30.01.2022
4019 Clouds 7 1022 82 10000 5.81 265 20:51 30.01.2022
4020 Clouds 7 1022 82 10000 6.26 252 20:30 30.01.2022
4021 Clouds 8 1022 84 10000 6.71 286 19:54 30.01.2022
4022 Clouds 9 1020 89 10000 8.94 250 18:51 30.01.2022
4023 Drizzle 9 1020 92 8000 8.49 255 18:21 30.01.2022
4024 Clouds 9 1020 88 10000 5.81 223 17:30 30.01.2022
4025 Drizzle 9 1021 83 10000 6.26 231 16:42 30.01.2022
4026 Clouds 9 1022 83 10000 7.15 237 16:22 30.01.2022
4027 Clouds 8 1023 85 10000 6.71 231 15:54 30.01.2022
4028 Drizzle 8 1024 84 10000 4.47 228 15:32 30.01.2022
4029 Drizzle 8 1025 77 8000 5.81 245 14:47 30.01.2022
4030 Clouds 9 1027 69 10000 4.92 189 13:37 30.01.2022
4031 Clouds 8 1029 71 10000 3.58 293 12:41 30.01.2022
4032 Clouds 5 1031 84 10000 2.24 209 10:38 30.01.2022
4033 Clouds 3 1032 87 10000 2.57 220 09:57 30.01.2022
4034 Clouds 3 1032 88 10000 0.89 269 09:21 30.01.2022
4035 Clouds 3 1033 88 10000 0.45 331 07:57 30.01.2022
4036 Clouds 3 1035 87 10000 0.45 216 02:43 30.01.2022
4037 Clouds 3 1035 88 10000 0.89 285 01:52 30.01.2022
4038 Clouds 5 1033 82 10000 2.68 283 23:45 29.01.2022
4039 Clouds 5 1034 81 10000 4.02 286 22:37 29.01.2022
4040 Clouds 6 1034 79 10000 3.13 285 21:27 29.01.2022
4041 Clouds 6 1032 80 10000 2.68 310 20:48 29.01.2022
4042 Clouds 7 1033 75 10000 2.68 293 19:47 29.01.2022
4043 Clouds 7 1033 73 10000 3.13 292 19:25 29.01.2022
4044 Clouds 8 1032 67 10000 2.68 271 18:39 29.01.2022
4045 Clouds 9 1032 67 10000 4.47 269 17:42 29.01.2022
4046 Clouds 10 1031 67 10000 5.81 310 16:42 29.01.2022
4047 Clouds 10 1029 66 10000 5.36 259 14:52 29.01.2022
4048 Clouds 10 1028 70 10000 7.15 289 13:46 29.01.2022
4049 Clouds 10 1028 70 10000 7.6 241 13:25 29.01.2022
4050 Clouds 10 1028 73 10000 5.81 314 12:40 29.01.2022
4051 Clouds 10 1027 75 10000 7.6 271 11:38 29.01.2022
4052 Clouds 11 1024 91 4000 8.05 227 10:25 29.01.2022
4053 Clouds 12 1023 80 10000 6.26 255 07:24 29.01.2022
4054 Drizzle 11 1026 87 10000 8.05 279 01:35 29.01.2022
4055 Drizzle 11 1026 87 10000 4.92 254 00:31 29.01.2022
4056 Drizzle 11 1027 85 10000 4.47 264 22:53 28.01.2022
4057 Clouds 11 1027 85 10000 6.71 274 22:29 28.01.2022
4058 Clouds 11 1027 87 8000 5.81 265 21:53 28.01.2022
4059 Drizzle 11 1027 87 10000 4.02 223 20:40 28.01.2022
4060 Clouds 11 1027 87 10000 3.58 250 19:44 28.01.2022
4061 Clouds 11 1028 83 10000 5.81 283 18:48 28.01.2022
4062 Clouds 11 1028 81 10000 7.6 238 17:45 28.01.2022
4063 Drizzle 12 1027 83 10000 5.36 258 15:45 28.01.2022
4064 Drizzle 12 1029 85 10000 5.81 223 14:18 28.01.2022
4065 Drizzle 11 1030 86 10000 5.36 238 12:33 28.01.2022
4066 Clouds 10 1031 88 10000 4.02 220 11:38 28.01.2022
4067 Clouds 8 1032 91 5000 2.57 210 10:21 28.01.2022
4068 Drizzle 8 1032 90 10000 2.68 247 09:44 28.01.2022
4069 Clouds 7 1032 86 10000 3.58 245 07:39 28.01.2022
4070 Clouds 5 1033 88 10000 0.45 234 05:23 28.01.2022
4071 Clouds 6 1033 87 10000 0.89 145 03:47 28.01.2022
4072 Clouds 6 1034 86 10000 0.89 209 02:23 28.01.2022
4073 Clouds 6 1034 86 10000 1.34 245 01:33 28.01.2022
4074 Clouds 5 1033 86 10000 1.34 250 23:30 27.01.2022
4075 Clouds 6 1032 84 10000 1.34 226 21:49 27.01.2022
4076 Clouds 7 1032 84 10000 1.34 244 21:29 27.01.2022
4077 Clouds 7 1032 83 10000 1.34 269 20:44 27.01.2022
4078 Clouds 8 1031 82 10000 2.68 289 19:21 27.01.2022
4079 Clouds 9 1031 83 10000 2.24 296 17:56 27.01.2022
4080 Clouds 11 1030 77 10000 5.36 282 15:18 27.01.2022
4081 Clouds 10 1030 83 10000 5.36 288 13:36 27.01.2022
4082 Clouds 10 1030 83 10000 4.02 276 12:40 27.01.2022
4083 Clouds 9 1028 89 10000 2.68 293 10:24 27.01.2022
4084 Clouds 9 1026 88 10000 3.58 306 08:56 27.01.2022
4085 Clouds 9 1026 90 10000 4.02 296 08:31 27.01.2022
4086 Drizzle 10 1024 93 10000 3.13 276 05:59 27.01.2022
4087 Clouds 11 1024 92 6000 3.58 248 02:43 27.01.2022
4088 Clouds 10 1024 87 8000 4.92 226 23:32 26.01.2022
4089 Clouds 10 1024 85 10000 6.71 234 21:57 26.01.2022
4090 Clouds 10 1025 85 10000 4.92 247 21:33 26.01.2022
4091 Clouds 10 1025 83 10000 5.81 219 20:36 26.01.2022
4092 Clouds 10 1025 82 10000 7.15 244 19:59 26.01.2022
4093 Clouds 10 1025 81 10000 4.47 286 19:20 26.01.2022
4094 Clouds 10 1025 80 10000 4.92 262 18:45 26.01.2022
4095 Clouds 10 1026 79 10000 4.92 221 17:50 26.01.2022
4096 Clouds 10 1026 77 10000 4.92 230 17:22 26.01.2022
4097 Clouds 10 1027 74 10000 3.58 245 16:31 26.01.2022
4098 Clouds 10 1027 73 10000 3.58 202 15:49 26.01.2022
4099 Clouds 9 1029 71 10000 4.47 271 13:58 26.01.2022
4100 Clouds 9 1030 75 10000 2.68 227 11:48 26.01.2022
4101 Clouds 7 1032 79 10000 2.68 208 10:27 26.01.2022
4102 Clouds 7 1032 79 10000 2.24 249 09:45 26.01.2022
4103 Clouds 7 1032 84 10000 2.57 250 07:37 26.01.2022
4104 Clouds 5 1033 87 10000 1.34 227 01:53 26.01.2022
4105 Clouds 4 1033 86 10000 0.89 245 23:54 25.01.2022
4106 Clouds 5 1033 85 10000 0.89 250 22:50 25.01.2022
4107 Clouds 5 1033 85 10000 1.34 269 22:21 25.01.2022
4108 Clear 5 1033 85 10000 2.24 279 21:41 25.01.2022
4109 Clouds 5 1033 83 10000 1.79 252 20:46 25.01.2022
4110 Clouds 5 1033 82 10000 1.79 230 20:22 25.01.2022
4111 Clouds 5 1033 84 10000 1.79 259 19:44 25.01.2022
4112 Clouds 6 1033 78 10000 0.89 0 18:22 25.01.2022
4113 Clouds 7 1032 77 10000 1.34 298 17:42 25.01.2022
4114 Clouds 8 1032 76 10000 1.34 178 16:35 25.01.2022
4115 Clouds 8 1032 76 10000 0.45 221 15:44 25.01.2022
4116 Clouds 8 1032 75 10000 1.34 303 15:26 25.01.2022
4117 Clouds 8 1033 76 10000 0.89 219 14:57 25.01.2022
4118 Clouds 7 1033 78 10000 0.89 286 13:28 25.01.2022
4119 Clouds 6 1033 82 10000 0.89 152 10:35 25.01.2022
4120 Clouds 6 1032 83 10000 0.45 213 08:33 25.01.2022
4121 Clouds 6 1032 84 10000 0.89 230 07:28 25.01.2022
4122 Clouds 5 1032 84 10000 0.89 269 06:22 25.01.2022
4123 Clouds 6 1033 84 10000 1.79 135 01:36 25.01.2022
4124 Clouds 6 1033 86 10000 1.34 189 23:36 24.01.2022
4125 Clouds 6 1033 86 10000 1.79 178 23:18 24.01.2022
4126 Clouds 6 1033 86 10000 0.89 148 22:59 24.01.2022
4127 Clouds 6 1033 86 10000 0.89 111 22:41 24.01.2022
4128 Clouds 6 1033 86 10000 1.79 199 21:45 24.01.2022
4129 Clouds 6 1032 86 9000 0.89 128 21:27 24.01.2022
4130 Clouds 6 1032 86 9000 2.24 142 20:29 24.01.2022
4131 Clouds 6 1032 87 10000 0.89 117 19:39 24.01.2022
4132 Clouds 6 1032 85 10000 0.45 56 19:19 24.01.2022
4133 Clouds 6 1031 86 8000 1.34 109 17:44 24.01.2022
4134 Clouds 6 1031 86 8000 0.89 140 17:23 24.01.2022
4135 Clouds 7 1031 84 9000 1.34 51 16:33 24.01.2022
4136 Clouds 7 1031 82 8000 2.24 128 15:52 24.01.2022
4137 Clouds 8 1031 78 10000 0.45 136 14:27 24.01.2022
4138 Clouds 7 1032 81 10000 0.45 1 12:36 24.01.2022
4139 Clouds 6 1032 86 10000 0.45 223 11:53 24.01.2022
4140 Clouds 5 1031 88 10000 1.03 0 10:25 24.01.2022
4141 Clouds 4 1031 94 7000 1.54 120 09:47 24.01.2022
4142 Clouds 5 1030 89 9000 0.45 184 08:19 24.01.2022
4143 Clouds 7 1030 80 10000 3.6 180 02:51 24.01.2022
4144 Clouds 7 1030 78 10000 2.57 160 01:28 24.01.2022
4145 Clouds 7 1030 78 10000 3.6 170 00:34 24.01.2022
4146 Clouds 7 1030 78 10000 3.6 170 23:47 23.01.2022
4147 Clouds 7 1030 78 10000 3.09 180 22:21 23.01.2022
4148 Clouds 7 1030 80 10000 0.89 102 21:42 23.01.2022
4149 Clouds 7 1030 79 10000 0.45 117 21:24 23.01.2022
4150 Clouds 7 1030 76 10000 1.79 145 20:29 23.01.2022
4151 Clouds 7 1030 79 10000 1.79 199 19:21 23.01.2022
4152 Clouds 7 1031 79 10000 2.24 172 18:44 23.01.2022
4153 Clouds 7 1031 76 10000 1.79 227 17:27 23.01.2022
4154 Clouds 7 1031 76 10000 2.68 234 16:27 23.01.2022
4155 Clouds 7 1031 74 10000 0.89 1 14:56 23.01.2022
4156 Clouds 7 1031 76 10000 0.45 1 14:19 23.01.2022
4157 Clouds 7 1033 77 10000 0.45 124 12:49 23.01.2022
4158 Clouds 7 1033 77 10000 1.34 178 12:21 23.01.2022
4159 Clouds 7 1033 77 10000 1.79 231 11:51 23.01.2022
4160 Clouds 6 1033 78 10000 3.13 214 11:18 23.01.2022
4161 Clouds 5 1033 81 10000 3.09 210 10:26 23.01.2022
4162 Clouds 5 1033 75 10000 2.57 220 09:37 23.01.2022
4163 Clouds 5 1033 75 10000 3.09 210 08:51 23.01.2022
4164 Clouds 5 1035 79 10000 3.6 220 05:37 23.01.2022
4165 Clouds 6 1035 81 10000 2.57 220 01:46 23.01.2022
4166 Clouds 6 1035 81 10000 2.06 200 01:23 23.01.2022
4167 Clouds 7 1036 76 10000 1.03 0 00:22 23.01.2022
4168 Clouds 7 1036 82 10000 0.45 216 23:19 22.01.2022
4169 Clouds 7 1036 82 10000 0.45 248 22:34 22.01.2022
4170 Clouds 7 1037 84 10000 1.54 0 22:34 22.01.2022
4171 Clouds 7 1036 83 10000 1.79 247 21:19 22.01.2022
4172 Clouds 7 1037 85 10000 1.34 291 19:49 22.01.2022
4173 Clouds 7 1037 85 10000 1.79 286 18:45 22.01.2022
4174 Clouds 8 1036 85 10000 0.89 259 17:56 22.01.2022
4175 Clouds 8 1036 85 10000 1.34 252 17:35 22.01.2022
4176 Clouds 8 1036 86 10000 2.24 250 16:55 22.01.2022
4177 Clouds 8 1037 84 10000 2.68 241 15:49 22.01.2022
4178 Clouds 8 1037 85 10000 3.58 272 14:57 22.01.2022
4179 Clouds 7 1038 89 10000 4.02 262 13:36 22.01.2022
4180 Clouds 7 1038 89 10000 3.13 221 12:48 22.01.2022
4181 Clouds 7 1038 90 8000 2.68 245 12:24 22.01.2022
4182 Clouds 6 1038 91 10000 2.24 254 10:56 22.01.2022
4183 Clouds 6 1038 90 10000 1.34 262 10:28 22.01.2022
4184 Drizzle 6 1038 92 10000 2.24 188 09:57 22.01.2022
4185 Clouds 6 1037 93 10000 3.13 265 08:51 22.01.2022
4186 Clouds 5 1038 94 8000 2.24 262 07:29 22.01.2022
4187 Drizzle 6 1038 89 9000 1.79 238 04:52 22.01.2022
4188 Clouds 6 1039 81 10000 2.68 269 01:34 22.01.2022
4189 Clouds 6 1039 81 10000 1.79 254 23:35 21.01.2022
4190 Clouds 5 1039 82 10000 0.45 305 22:20 21.01.2022
4191 Clouds 6 1039 79 10000 1.34 279 20:20 21.01.2022
4192 Clouds 6 1039 77 10000 2.68 279 18:36 21.01.2022
4193 Clouds 6 1039 76 10000 4.47 272 17:25 21.01.2022
4194 Clouds 7 1040 77 10000 3.58 278 15:30 21.01.2022
4195 Clouds 6 1041 79 10000 3.13 278 13:29 21.01.2022
4196 Clouds 6 1041 82 10000 2.68 316 12:37 21.01.2022
4197 Clouds 6 1041 85 10000 1.79 303 11:27 21.01.2022
4198 Clouds 5 1041 86 10000 0.89 305 10:18 21.01.2022
4199 Clouds 5 1042 91 10000 0.89 254 08:23 21.01.2022
4200 Clouds 5 1041 81 10000 0.45 269 04:49 21.01.2022
4201 Clouds 5 1041 81 10000 0.89 258 04:49 21.01.2022
4202 Clouds 5 1041 83 10000 0.45 250 23:31 20.01.2022
4203 Clouds 5 1041 84 10000 0.45 254 22:24 20.01.2022
4204 Clouds 5 1041 82 10000 0.45 210 21:43 20.01.2022
4205 Clouds 6 1041 81 10000 1.54 0 20:43 20.01.2022
4206 Clouds 6 1041 80 10000 0.45 321 19:19 20.01.2022
4207 Clouds 6 1041 79 10000 0.45 296 18:44 20.01.2022
4208 Clouds 7 1040 80 10000 0.89 296 16:58 20.01.2022
4209 Clouds 7 1040 82 10000 1.79 254 15:41 20.01.2022
4210 Clouds 6 1041 84 10000 1.34 152 14:41 20.01.2022
4211 Clouds 6 1041 86 10000 1.79 234 13:41 20.01.2022
4212 Clouds 4 1041 90 10000 1.79 278 12:34 20.01.2022
4213 Clouds 4 1040 90 10000 1.79 276 11:50 20.01.2022
4214 Clouds 3 1040 92 10000 3.13 261 10:39 20.01.2022
4215 Clouds 2 1039 92 10000 2.68 279 09:36 20.01.2022
4216 Clouds 2 1039 95 10000 2.24 283 07:51 20.01.2022
4217 Clear 4 1036 89 10000 2.68 283 00:46 20.01.2022
4218 Clouds 4 1035 87 10000 3.13 264 22:59 19.01.2022
4219 Clouds 5 1035 87 10000 2.24 290 22:21 19.01.2022
4220 Clouds 5 1034 86 10000 3.13 293 21:23 19.01.2022
4221 Clouds 5 1034 86 10000 2.68 262 20:46 19.01.2022
4222 Clouds 6 1034 85 10000 3.58 286 19:42 19.01.2022
4223 Clouds 6 1032 82 10000 3.58 258 18:18 19.01.2022
4224 Clouds 7 1032 80 10000 2.68 330 17:44 19.01.2022
4225 Clouds 8 1031 78 10000 4.02 255 16:46 19.01.2022
4226 Clouds 8 1030 74 10000 4.02 278 14:42 19.01.2022
4227 Clouds 8 1030 73 10000 5.36 289 12:42 19.01.2022
4228 Clouds 8 1029 73 10000 4.02 276 11:39 19.01.2022
4229 Clouds 7 1028 84 10000 2.68 285 10:20 19.01.2022
4230 Clouds 7 1027 86 10000 2.68 279 09:34 19.01.2022
4231 Clouds 9 1025 90 10000 4.47 271 06:45 19.01.2022
4232 Clouds 10 1026 89 10000 3.13 252 02:38 19.01.2022
4233 Clouds 10 1028 89 10000 0.45 164 23:19 18.01.2022
4234 Clouds 9 1028 87 10000 3.13 199 22:19 18.01.2022
4235 Clouds 9 1029 86 10000 5.36 192 20:58 18.01.2022
4236 Clouds 9 1029 85 10000 1.79 220 19:54 18.01.2022
4237 Clouds 9 1030 84 10000 3.13 237 19:36 18.01.2022
4238 Clouds 9 1030 83 10000 2.68 185 18:51 18.01.2022
4239 Clouds 9 1029 82 10000 2.68 216 17:58 18.01.2022
4240 Drizzle 9 1031 79 10000 0.89 152 16:40 18.01.2022
4241 Clouds 10 1032 76 10000 3.13 189 15:41 18.01.2022
4242 Clouds 10 1032 76 10000 3.58 178 15:21 18.01.2022
4243 Clouds 8 1033 84 10000 1.03 0 12:33 18.01.2022
4244 Clouds 7 1033 86 10000 0.89 326 10:47 18.01.2022
4245 Clouds 5 1034 89 10000 2.06 120 08:49 18.01.2022
4246 Clear 5 1034 90 10000 2.06 180 07:49 18.01.2022
4247 Clouds 2 1035 87 10000 0.89 255 02:33 18.01.2022
4248 Clouds 1 1036 89 10000 1.03 0 23:38 17.01.2022
4249 Clouds 2 1037 89 10000 1.54 0 22:26 17.01.2022
4250 Clouds 2 1036 89 10000 0.89 258 21:33 17.01.2022
4251 Clouds 3 1036 88 10000 0.45 178 19:57 17.01.2022
4252 Clouds 3 1037 87 10000 0.51 360 18:29 17.01.2022
4253 Clouds 5 1037 79 10000 0.45 118 17:25 17.01.2022
4254 Clouds 7 1037 75 10000 0.45 321 16:35 17.01.2022
4255 Clouds 7 1037 72 10000 1.34 336 15:18 17.01.2022
4256 Clouds 7 1038 74 10000 1.34 289 14:43 17.01.2022
4257 Clouds 6 1039 80 10000 1.79 269 13:20 17.01.2022
4258 Clouds 5 1039 82 10000 1.34 1 12:55 17.01.2022
4259 Clouds 3 1039 87 10000 0 0 11:48 17.01.2022
4260 Clouds 1 1039 89 10000 2.06 290 10:21 17.01.2022
4261 Clear 0 1038 91 10000 2.57 270 09:34 17.01.2022
4262 Clear 0 1038 91 10000 2.57 270 07:23 17.01.2022
4263 Clear 1 1037 85 10000 1.34 230 02:55 17.01.2022
4264 Clouds 2 1036 85 10000 1.34 238 00:55 17.01.2022
4265 Clouds 3 1035 83 10000 1.34 265 22:22 16.01.2022
4266 Clouds 5 1034 78 10000 0.89 241 20:35 16.01.2022
4267 Clouds 5 1033 79 10000 1.79 283 18:51 16.01.2022
4268 Clouds 6 1032 73 10000 2.68 292 17:59 16.01.2022
4269 Clouds 7 1032 71 10000 3.13 248 16:59 16.01.2022
4270 Clouds 8 1032 70 10000 2.68 305 16:31 16.01.2022
4271 Clouds 8 1030 69 10000 4.02 289 14:31 16.01.2022
4272 Clouds 7 1030 70 10000 1.79 265 13:45 16.01.2022
4273 Clouds 7 1030 76 10000 2.24 316 12:44 16.01.2022
4274 Clouds 7 1029 85 10000 3.58 279 11:40 16.01.2022
4275 Clouds 7 1028 88 10000 2.68 279 10:53 16.01.2022
4276 Clouds 7 1026 91 10000 2.24 278 09:59 16.01.2022
4277 Clouds 7 1026 91 10000 2.68 327 09:40 16.01.2022
4278 Clouds 7 1025 92 10000 2.68 255 09:22 16.01.2022
4279 Clouds 7 1022 93 10000 3.58 293 07:25 16.01.2022
4280 Clouds 6 1021 86 10000 0.45 269 00:38 16.01.2022
4281 Clouds 7 1021 87 10000 1.34 272 23:34 15.01.2022
4282 Clouds 8 1020 83 10000 1.34 223 21:23 15.01.2022
4283 Clouds 8 1020 83 10000 2.68 196 20:56 15.01.2022
4284 Clouds 8 1020 83 10000 1.79 149 20:36 15.01.2022
4285 Clouds 7 1020 81 10000 2.24 189 19:28 15.01.2022
4286 Clouds 7 1020 79 10000 0.89 209 18:28 15.01.2022
4287 Clouds 8 1020 78 10000 1.79 178 16:49 15.01.2022
4288 Clouds 8 1021 82 10000 0.89 196 14:48 15.01.2022
4289 Clouds 7 1022 89 10000 1.79 165 13:29 15.01.2022
4290 Drizzle 7 1022 95 5000 1.54 0 11:33 15.01.2022
4291 Drizzle 6 1023 96 9000 0.45 314 09:46 15.01.2022
4292 Clouds 5 1025 92 10000 1.34 37 05:26 15.01.2022
4293 Clouds 3 1029 92 10000 0.89 314 23:40 14.01.2022
4294 Clouds 5 1030 90 10000 0.89 62 21:19 14.01.2022
4295 Clouds 4 1031 89 10000 0.45 176 20:37 14.01.2022
4296 Clouds 4 1031 91 10000 0.89 157 19:55 14.01.2022
4297 Clouds 5 1032 90 10000 1.34 103 18:42 14.01.2022
4298 Clouds 6 1032 85 10000 0.89 85 17:39 14.01.2022
4299 Clouds 7 1032 82 10000 1.79 99 16:43 14.01.2022
4300 Clouds 7 1033 79 10000 1.79 51 15:33 14.01.2022
4301 Clouds 7 1034 77 10000 1.34 351 14:28 14.01.2022
4302 Clouds 6 1035 81 10000 0.45 117 12:58 14.01.2022
4303 Clouds 5 1036 87 10000 0.45 285 11:52 14.01.2022
4304 Clouds 4 1036 90 10000 0.89 296 10:39 14.01.2022
4305 Clouds 3 1036 89 10000 0.45 279 08:53 14.01.2022
4306 Clouds 3 1036 88 10000 0.45 175 07:30 14.01.2022
4307 Clouds 4 1039 87 10000 1.54 0 02:27 14.01.2022
4308 Clouds 3 1039 87 10000 1.34 209 00:22 14.01.2022
4309 Clouds 3 1039 88 10000 0.89 178 21:47 13.01.2022
4310 Clouds 3 1038 87 10000 0.45 286 21:29 13.01.2022
4311 Clouds 4 1039 85 10000 0.89 197 19:47 13.01.2022
4312 Clouds 4 1039 84 10000 0.89 216 19:29 13.01.2022
4313 Clouds 5 1039 83 10000 1.34 216 18:40 13.01.2022
4314 Clouds 6 1039 81 10000 2.68 220 16:53 13.01.2022
4315 Clouds 6 1039 81 10000 2.24 254 15:39 13.01.2022
4316 Clouds 6 1040 81 10000 2.68 259 15:20 13.01.2022
4317 Clouds 6 1040 82 10000 3.13 254 13:29 13.01.2022
4318 Clouds 5 1040 90 10000 2.68 254 10:49 13.01.2022
4319 Clouds 3 1040 92 10000 2.24 243 09:23 13.01.2022
4320 Clouds 3 1040 92 10000 0.89 255 08:29 13.01.2022
4321 Clouds 3 1040 91 10000 1.79 244 07:58 13.01.2022
4322 Clouds 2 1040 90 10000 1.34 316 07:19 13.01.2022
4323 Clouds 4 1040 87 10000 0.45 286 05:20 13.01.2022
4324 Clouds 4 1040 86 10000 2.24 264 03:48 13.01.2022
4325 Clouds 4 1041 86 10000 0.45 290 01:38 13.01.2022
4326 Clouds 4 1041 87 10000 0.89 199 23:53 12.01.2022
4327 Clouds 5 1041 86 10000 0.89 171 23:34 12.01.2022
4328 Clouds 5 1041 84 10000 0.89 279 22:22 12.01.2022
4329 Clouds 5 1041 84 10000 0.89 274 21:43 12.01.2022
4330 Clouds 5 1041 84 10000 0.45 296 21:18 12.01.2022
4331 Clouds 6 1041 84 10000 0.45 56 20:44 12.01.2022
4332 Clouds 6 1040 85 10000 0.89 178 18:49 12.01.2022
4333 Clouds 7 1040 84 10000 0.45 296 18:18 12.01.2022
4334 Clouds 9 1040 76 10000 0.89 276 16:52 12.01.2022
4335 Clouds 10 1040 75 10000 1.79 245 14:50 12.01.2022
4336 Clouds 10 1041 76 10000 1.34 241 14:19 12.01.2022
4337 Clouds 10 1041 78 10000 2.68 238 12:57 12.01.2022
4338 Clouds 7 1039 84 10000 1.34 276 09:48 12.01.2022
4339 Clouds 7 1039 86 10000 2.68 245 07:58 12.01.2022
4340 Clouds 7 1039 86 10000 2.68 237 07:33 12.01.2022
4341 Clouds 7 1039 86 10000 2.68 258 07:33 12.01.2022
4342 Clouds 7 1037 86 10000 2.68 269 02:38 12.01.2022
4343 Clouds 6 1037 85 10000 2.68 220 23:27 11.01.2022
4344 Clouds 6 1036 84 10000 2.68 227 22:39 11.01.2022
4345 Clouds 6 1036 84 10000 2.68 207 22:18 11.01.2022
4346 Clouds 6 1035 84 10000 2.24 248 20:40 11.01.2022
4347 Clouds 6 1034 85 10000 2.68 258 19:35 11.01.2022
4348 Clouds 7 1033 85 10000 1.79 276 17:54 11.01.2022
4349 Clouds 8 1032 79 10000 2.24 269 16:40 11.01.2022
4350 Clouds 8 1032 79 10000 2.24 269 16:40 11.01.2022
4351 Clouds 8 1032 79 10000 1.79 227 16:18 11.01.2022
4352 Clouds 9 1031 77 10000 1.79 235 14:53 11.01.2022
4353 Clouds 9 1031 77 10000 2.68 243 14:34 11.01.2022
4354 Clouds 8 1031 76 10000 3.58 259 13:52 11.01.2022
4355 Clouds 8 1031 76 10000 3.13 197 13:28 11.01.2022
4356 Clouds 8 1031 78 10000 2.24 292 12:34 11.01.2022
4357 Clouds 5 1029 85 10000 0.45 223 10:32 11.01.2022
4358 Clouds 5 1027 86 10000 1.34 285 07:55 11.01.2022
4359 Clouds 7 1024 89 10000 2.68 265 03:51 11.01.2022
4360 Clouds 8 1022 89 10000 2.68 293 00:27 11.01.2022
4361 Clouds 8 1022 90 10000 3.13 271 23:39 10.01.2022
4362 Clouds 9 1020 90 10000 3.13 248 22:39 10.01.2022
4363 Clouds 9 1020 90 10000 3.58 276 22:18 10.01.2022
4364 Clouds 10 1020 88 10000 1.79 283 21:33 10.01.2022
4365 Clouds 10 1019 90 10000 2.68 272 20:59 10.01.2022
4366 Clouds 11 1019 89 10000 1.79 279 20:41 10.01.2022
4367 Clouds 11 1019 89 10000 2.68 245 20:19 10.01.2022
4368 Clouds 11 1016 90 8000 2.68 316 19:38 10.01.2022
4369 Clouds 12 1016 89 8000 4.02 254 19:19 10.01.2022
4370 Clouds 12 1016 89 8000 4.02 254 19:19 10.01.2022
4371 Clouds 12 1015 88 10000 3.58 237 18:46 10.01.2022
4372 Clouds 13 1013 85 10000 2.24 264 16:48 10.01.2022
4373 Clouds 13 1013 85 10000 2.68 210 16:26 10.01.2022
4374 Clouds 13 1012 84 10000 2.24 217 14:44 10.01.2022
4375 Clouds 12 1012 85 10000 3.58 166 13:35 10.01.2022
4376 Clouds 11 1013 92 10000 3.58 221 11:56 10.01.2022
4377 Clouds 11 1012 94 10000 1.79 220 10:49 10.01.2022
4378 Drizzle 10 1011 95 8000 2.68 228 09:37 10.01.2022
4379 Clouds 8 1008 96 5000 0.45 145 05:52 10.01.2022
4380 Clouds 7 1007 94 10000 0.45 89 02:32 10.01.2022
4381 Clouds 7 1007 89 10000 0.89 83 01:21 10.01.2022
4382 Rain 7 1007 90 10000 2.57 240 00:21 10.01.2022
4383 Clouds 7 1005 86 10000 1.79 298 22:47 09.01.2022
4384 Clouds 7 1005 86 10000 1.79 286 22:21 09.01.2022
4385 Clouds 7 1005 86 10000 2.24 283 21:41 09.01.2022
4386 Clouds 7 1005 86 10000 2.68 276 21:22 09.01.2022
4387 Clouds 7 1004 87 10000 2.68 283 20:47 09.01.2022
4388 Clouds 7 1004 87 10000 2.24 261 20:28 09.01.2022
4389 Clouds 7 1003 86 10000 2.24 241 19:41 09.01.2022
4390 Clouds 7 1003 86 10000 2.68 240 19:21 09.01.2022
4391 Clouds 7 1003 86 10000 3.13 276 18:41 09.01.2022
4392 Clouds 7 1002 85 10000 3.58 250 18:23 09.01.2022
4393 Clouds 7 1002 85 10000 3.13 231 17:30 09.01.2022
4394 Clouds 7 1001 83 10000 3.13 238 16:50 09.01.2022
4395 Clouds 8 1001 82 10000 4.02 258 15:51 09.01.2022
4396 Clouds 7 1001 82 10000 4.02 233 15:32 09.01.2022
4397 Clouds 7 1001 82 10000 4.47 238 14:39 09.01.2022
4398 Clouds 7 1000 82 10000 3.58 234 13:49 09.01.2022
4399 Clouds 6 1000 83 10000 4.02 230 12:19 09.01.2022
4400 Clouds 5 999 85 10000 3.58 230 11:45 09.01.2022
4401 Clouds 4 998 87 10000 4.02 240 09:55 09.01.2022
4402 Clouds 4 998 86 10000 4.92 221 09:29 09.01.2022
4403 Clouds 4 998 87 10000 4.92 257 08:18 09.01.2022
4404 Clouds 3 997 86 10000 5.81 233 01:31 09.01.2022
4405 Clouds 3 997 87 10000 4.92 266 00:53 09.01.2022
4406 Clouds 3 997 86 10000 4.02 269 23:37 08.01.2022
4407 Clouds 3 996 85 10000 4.47 255 22:58 08.01.2022
4408 Clouds 3 996 87 10000 4.92 230 21:32 08.01.2022
4409 Clouds 4 996 85 10000 4.92 265 20:44 08.01.2022
4410 Clouds 4 996 86 10000 4.02 283 20:23 08.01.2022
4411 Clouds 4 996 85 10000 5.36 312 19:46 08.01.2022
4412 Clouds 5 995 82 10000 4.02 319 17:49 08.01.2022
4413 Clouds 5 994 80 10000 4.47 290 16:57 08.01.2022
4414 Clouds 6 994 77 10000 5.36 275 15:35 08.01.2022
4415 Clouds 7 994 77 10000 6.26 298 14:38 08.01.2022
4416 Clouds 7 996 83 10000 4.02 264 12:36 08.01.2022
4417 Clouds 7 996 89 10000 4.02 255 10:46 08.01.2022
4418 Clouds 7 996 90 10000 3.58 269 10:24 08.01.2022
4419 Rain 9 995 88 10000 7.15 248 09:34 08.01.2022
4420 Clouds 10 994 90 10000 7.6 231 07:18 08.01.2022
4421 Clouds 8 1005 90 10000 4.92 182 01:52 08.01.2022
4422 Clouds 6 1008 92 10000 4.02 213 00:25 08.01.2022
4423 Clouds 6 1010 88 10000 1.79 203 22:39 07.01.2022
4424 Clouds 4 1010 90 10000 2.68 230 20:40 07.01.2022
4425 Clouds 4 1010 89 10000 3.58 248 19:39 07.01.2022
4426 Clouds 4 1010 91 8000 2.68 214 18:53 07.01.2022
4427 Clouds 4 1010 91 10000 2.24 257 18:30 07.01.2022
4428 Clouds 4 1010 91 10000 4.02 250 17:25 07.01.2022
4429 Clouds 3 1009 89 10000 5.36 276 16:22 07.01.2022
4430 Rain 2 1008 91 8000 3.13 257 13:53 07.01.2022
4431 Snow 2 1008 91 3000 1.79 276 13:18 07.01.2022
4432 Rain 3 1007 87 10000 3.58 259 12:25 07.01.2022
4433 Clouds 2 1005 89 10000 5.36 237 06:47 07.01.2022
4434 Clouds 2 1005 86 10000 5.36 204 02:54 07.01.2022
4435 Clouds 2 1004 89 10000 4.02 212 01:52 07.01.2022
4436 Clouds 2 1004 88 10000 3.58 230 01:27 07.01.2022
4437 Rain 2 1004 86 10000 4.02 219 00:55 07.01.2022
4438 Clouds 2 1004 90 10000 4.47 220 22:42 06.01.2022
4439 Rain 3 1004 87 5000 3.13 238 21:22 06.01.2022
4440 Rain 4 1003 83 10000 7.6 223 20:20 06.01.2022
4441 Clouds 4 1003 81 10000 4.47 0 19:40 06.01.2022
4442 Clouds 5 1003 81 10000 5.36 240 17:53 06.01.2022
4443 Clouds 6 1002 81 10000 6.26 223 17:32 06.01.2022
4444 Clouds 6 1002 81 8000 4.02 245 16:40 06.01.2022
4445 Clouds 7 1002 80 8000 4.02 238 15:45 06.01.2022
4446 Clouds 7 1002 82 8000 2.68 276 15:23 06.01.2022
4447 Clouds 9 1002 82 10000 6.71 264 14:21 06.01.2022
4448 Clouds 9 1002 82 10000 4.02 221 13:46 06.01.2022
4449 Clouds 8 1002 88 10000 4.02 233 12:41 06.01.2022
4450 Clouds 9 1003 86 10000 5.81 165 11:41 06.01.2022
4451 Clouds 9 1005 84 10000 3.13 185 11:21 06.01.2022
4452 Rain 6 1008 83 10000 7.15 188 08:50 06.01.2022
4453 Clouds 0 1019 77 10000 1.34 162 00:42 06.01.2022
4454 Clouds 0 1019 78 10000 1.34 135 23:36 05.01.2022
4455 Clouds 1 1019 78 10000 1.34 164 22:51 05.01.2022
4456 Clouds 1 1019 78 10000 1.34 189 22:30 05.01.2022
4457 Clouds 1 1020 79 10000 1.79 190 21:46 05.01.2022
4458 Clouds 1 1020 81 10000 1.34 220 20:49 05.01.2022
4459 Clouds 2 1020 83 10000 0.89 245 19:58 05.01.2022
4460 Clouds 2 1020 83 10000 0.89 276 18:33 05.01.2022
4461 Clouds 3 1019 81 10000 0.89 241 17:23 05.01.2022
4462 Clouds 4 1019 79 10000 1.34 234 16:38 05.01.2022
4463 Clouds 5 1018 76 10000 2.68 290 15:20 05.01.2022
4464 Clouds 4 1018 80 10000 2.68 269 13:39 05.01.2022
4465 Clouds 4 1018 80 10000 3.58 286 12:51 05.01.2022
4466 Clouds 1 1012 85 10000 3.13 243 09:30 05.01.2022
4467 Clouds 1 1013 88 10000 2.68 265 07:42 05.01.2022
4468 Clouds 0 1012 87 10000 4.02 257 04:58 05.01.2022
4469 Clouds 1 1009 89 10000 4.02 257 00:44 05.01.2022
4470 Clouds 1 1011 88 10000 4.47 269 23:27 04.01.2022
4471 Clouds 1 1010 87 10000 3.58 257 22:40 04.01.2022
4472 Clouds 2 1010 85 10000 4.02 232 21:18 04.01.2022
4473 Clouds 2 1007 85 10000 4.47 245 19:19 04.01.2022
4474 Clouds 3 1009 81 10000 4.47 269 17:39 04.01.2022
4475 Clouds 4 1008 78 10000 4.02 270 16:41 04.01.2022
4476 Clouds 4 1008 78 10000 5.36 286 16:22 04.01.2022
4477 Clouds 5 1007 73 10000 4.47 286 14:53 04.01.2022
4478 Clouds 4 1007 75 10000 4.02 243 14:34 04.01.2022
4479 Clouds 3 1007 78 10000 4.02 275 13:27 04.01.2022
4480 Clouds 1 1005 89 10000 4.02 279 10:41 04.01.2022
4481 Clouds 1 1005 89 10000 2.68 244 09:20 04.01.2022
4482 Clouds 1 1005 88 10000 3.13 261 08:25 04.01.2022
4483 Clouds 4 1002 80 10000 2.24 307 02:28 04.01.2022
4484 Drizzle 3 1002 84 10000 3.58 32 00:40 04.01.2022
4485 Clouds 3 1001 91 8000 2.24 23 23:18 03.01.2022
4486 Clouds 4 1000 92 3700 3.58 39 21:50 03.01.2022
4487 Clouds 4 1001 92 3200 4.02 1 21:32 03.01.2022
4488 Clouds 9 998 76 10000 3.13 250 19:47 03.01.2022
4489 Clouds 9 999 75 10000 2.68 300 18:47 03.01.2022
4490 Clouds 9 998 76 10000 4.02 210 18:24 03.01.2022
4491 Clouds 10 998 76 10000 4.02 215 16:58 03.01.2022
4492 Drizzle 10 999 78 10000 4.47 275 14:56 03.01.2022
4493 Drizzle 10 1000 77 10000 3.58 223 14:30 03.01.2022
4494 Clouds 9 1000 78 10000 5.81 241 12:39 03.01.2022
4495 Clouds 9 1000 77 10000 6.26 209 11:35 03.01.2022
4496 Clouds 8 1000 78 10000 6.71 230 10:26 03.01.2022
4497 Clouds 8 999 77 10000 6.71 232 08:47 03.01.2022
4498 Clouds 9 999 77 10000 7.6 238 07:34 03.01.2022
4499 Clouds 9 1002 77 10000 6.71 250 23:55 02.01.2022
4500 Clouds 9 1002 76 10000 5.36 202 23:20 02.01.2022
4501 Clouds 10 1001 76 10000 4.47 254 22:43 02.01.2022
4502 Clouds 10 1001 77 10000 5.81 265 21:39 02.01.2022
4503 Clouds 10 1002 77 10000 4.47 272 20:31 02.01.2022
4504 Clouds 10 1001 77 10000 6.26 238 19:53 02.01.2022
4505 Clouds 10 1000 77 10000 6.71 221 19:26 02.01.2022
4506 Clouds 10 999 78 10000 7.6 259 18:38 02.01.2022
4507 Clouds 10 999 78 10000 7.6 259 18:38 02.01.2022
4508 Clouds 10 999 76 10000 5.81 259 17:43 02.01.2022
4509 Clouds 10 999 75 10000 6.26 236 17:22 02.01.2022
4510 Clouds 10 999 78 10000 5.81 257 16:53 02.01.2022
4511 Clouds 10 1001 79 10000 5.81 243 16:23 02.01.2022
4512 Clouds 11 999 72 10000 7.15 242 14:19 02.01.2022
4513 Clouds 10 1001 73 10000 6.26 243 12:39 02.01.2022
4514 Clouds 11 1001 73 10000 7.15 247 11:57 02.01.2022
4515 Clouds 11 1001 76 10000 8.05 202 11:20 02.01.2022
4516 Clouds 10 1001 80 10000 7.15 232 10:37 02.01.2022
4517 Clouds 10 1000 80 10000 5.81 236 08:42 02.01.2022
4518 Clouds 10 1003 81 10000 0.89 221 03:25 02.01.2022
4519 Clouds 11 1005 82 10000 1.34 279 23:58 01.01.2022
4520 Clouds 10 1004 84 10000 2.24 171 23:39 01.01.2022
4521 Clouds 11 1005 80 10000 1.34 99 22:45 01.01.2022
4522 Clouds 10 1006 81 10000 1.79 245 22:18 01.01.2022
4523 Clouds 11 1005 79 10000 1.34 328 21:43 01.01.2022
4524 Clouds 11 1004 78 10000 4.02 232 20:52 01.01.2022
4525 Clouds 12 1006 79 10000 5.36 226 19:55 01.01.2022
4526 Clouds 12 1006 77 10000 7.6 225 18:58 01.01.2022
4527 Drizzle 13 1006 77 10000 8.05 246 17:56 01.01.2022
4528 Clouds 13 1005 73 10000 6.71 196 16:35 01.01.2022
4529 Clouds 13 1003 71 10000 7.15 227 15:57 01.01.2022
4530 Clouds 13 1004 72 10000 7.6 219 14:57 01.01.2022
4531 Clouds 13 1006 72 10000 7.6 212 13:42 01.01.2022
4532 Clouds 13 1004 73 10000 7.6 216 12:43 01.01.2022
4533 Clouds 13 1004 75 10000 5.36 238 11:47 01.01.2022
4534 Clouds 13 1004 73 10000 7.15 183 11:19 01.01.2022
4535 Clouds 13 1003 74 10000 8.94 226 09:49 01.01.2022
4536 Clouds 13 1002 75 10000 7.6 200 09:20 01.01.2022
4537 Clouds 15 1005 76 10000 8.94 207 08:22 01.01.2022
4538 Clouds 15 1000 80 10000 9.83 205 07:41 01.01.2022
4539 Clouds 14 1005 81 10000 8.94 178 06:45 01.01.2022
4540 Clouds 15 1001 74 10000 8.94 162 05:25 01.01.2022
4541 Clouds 13 1002 78 10000 8.05 175 04:37 01.01.2022
4542 Clouds 13 1006 84 10000 4.47 160 00:41 01.01.2022
4543 Clouds 13 1010 86 10000 3.58 182 22:59 31.12.2021
4544 Clouds 14 1008 82 10000 1.79 43 21:51 31.12.2021
4545 Clouds 14 1011 81 10000 2.24 51 20:28 31.12.2021
4546 Clouds 14 1009 80 10000 1.34 279 19:28 31.12.2021
4547 Clouds 13 1010 82 10000 6.17 210 18:30 31.12.2021
4548 Clouds 14 1010 83 10000 4.02 230 17:37 31.12.2021
4549 Rain 14 1010 83 10000 4.02 230 17:18 31.12.2021
4550 Clouds 14 1009 80 10000 3.58 219 16:19 31.12.2021
4551 Clouds 14 1009 82 10000 2.24 178 15:51 31.12.2021
4552 Clouds 14 1008 81 10000 2.24 178 15:28 31.12.2021
4553 Clouds 14 1008 78 10000 3.58 182 14:41 31.12.2021
4554 Clouds 15 1009 77 10000 3.58 185 13:58 31.12.2021
4555 Clouds 14 1008 80 10000 3.58 212 13:23 31.12.2021
4556 Clouds 14 1007 79 10000 3.58 198 12:33 31.12.2021
4557 Clouds 13 1006 79 10000 4.47 203 11:42 31.12.2021
4558 Clouds 13 1005 80 10000 5.81 296 10:58 31.12.2021
4559 Clouds 13 1004 81 10000 6.71 273 10:29 31.12.2021
4560 Clouds 13 1003 82 10000 4.47 200 09:35 31.12.2021
4561 Clouds 13 1002 82 10000 5.81 235 08:55 31.12.2021
4562 Clouds 13 1002 82 10000 5.81 196 08:25 31.12.2021
4563 Drizzle 14 1001 82 10000 3.13 234 06:39 31.12.2021
4564 Clouds 13 1001 91 10000 5.36 243 23:23 30.12.2021
4565 Rain 13 1002 92 10000 4.92 198 22:32 30.12.2021
4566 Rain 13 1002 93 10000 4.02 240 21:41 30.12.2021
4567 Drizzle 13 1002 94 7000 3.13 189 21:22 30.12.2021
4568 Clouds 13 1002 94 7000 1.79 211 20:43 30.12.2021
4569 Clouds 13 1002 95 2500 2.68 142 20:23 30.12.2021
4570 Clouds 12 1003 94 2500 1.34 93 19:36 30.12.2021
4571 Rain 12 1003 93 6000 0.89 101 18:29 30.12.2021
4572 Mist 12 1005 93 3500 0.89 137 17:38 30.12.2021
4573 Rain 13 1003 91 8000 0.45 93 15:55 30.12.2021
4574 Rain 13 1003 90 10000 0.89 119 15:36 30.12.2021
4575 Rain 14 1003 86 10000 2.68 221 14:37 30.12.2021
4576 Rain 14 1004 88 10000 2.68 183 13:32 30.12.2021
4577 Drizzle 14 1003 91 10000 2.24 255 11:59 30.12.2021
4578 Clouds 13 1003 92 7000 3.13 207 10:44 30.12.2021
4579 Drizzle 14 1003 89 10000 3.13 249 09:54 30.12.2021
4580 Drizzle 14 1001 90 10000 5.36 228 07:42 30.12.2021
4581 Drizzle 14 1000 90 10000 5.81 221 06:51 30.12.2021
4582 Clouds 13 999 87 10000 4.92 237 03:41 30.12.2021
4583 Clouds 14 998 87 10000 4.47 168 02:38 30.12.2021
4584 Clouds 13 1000 86 10000 4.47 207 23:41 29.12.2021
4585 Clouds 13 999 86 10000 3.58 168 22:59 29.12.2021
4586 Clouds 13 998 84 10000 4.02 207 22:18 29.12.2021
4587 Clouds 12 998 82 10000 3.13 234 21:27 29.12.2021
4588 Clouds 12 998 81 10000 4.47 265 20:31 29.12.2021
4589 Clouds 12 998 82 10000 3.58 221 19:44 29.12.2021
4590 Clouds 11 998 80 10000 3.13 219 18:45 29.12.2021
4591 Clouds 11 998 80 10000 3.58 241 17:53 29.12.2021
4592 Clouds 12 998 79 10000 3.13 235 17:27 29.12.2021
4593 Clouds 12 997 76 10000 5.36 214 16:23 29.12.2021
4594 Clouds 12 996 76 10000 7.15 223 15:42 29.12.2021
4595 Clouds 12 996 77 10000 6.71 227 13:55 29.12.2021
4596 Clouds 12 993 77 10000 7.6 244 12:36 29.12.2021
4597 Clouds 12 991 80 10000 8.05 277 11:27 29.12.2021
4598 Clouds 14 988 88 10000 8.49 223 09:56 29.12.2021
4599 Clouds 10 992 93 10000 2.68 119 07:51 29.12.2021
4600 Clouds 9 991 94 10000 5.36 162 06:38 29.12.2021
4601 Rain 9 994 95 10000 2.24 182 05:59 29.12.2021
4602 Rain 8 995 95 10000 4.02 139 05:36 29.12.2021
4603 Clouds 8 997 90 10000 0.89 9 02:40 29.12.2021
4604 Clouds 7 998 88 10000 0.89 309 00:22 29.12.2021
4605 Clouds 6 999 91 10000 0.45 184 23:34 28.12.2021
4606 Clouds 6 999 91 10000 0.89 221 22:42 28.12.2021
4607 Rain 6 999 91 10000 0.89 273 22:23 28.12.2021
4608 Clouds 5 998 91 10000 0.89 129 21:36 28.12.2021
4609 Clouds 5 998 91 10000 0.45 126 20:36 28.12.2021
4610 Clouds 6 999 90 10000 0.45 168 19:22 28.12.2021
4611 Clouds 6 999 90 10000 2.24 257 18:35 28.12.2021
4612 Clouds 6 998 90 10000 2.68 267 17:59 28.12.2021
4613 Clouds 7 997 89 10000 3.58 268 16:34 28.12.2021
4614 Clouds 8 996 90 10000 2.68 268 15:49 28.12.2021
4615 Clouds 8 995 88 10000 2.68 257 15:20 28.12.2021
4616 Clouds 8 996 89 10000 2.68 281 14:47 28.12.2021
4617 Clouds 8 995 91 10000 4.02 259 14:20 28.12.2021
4618 Clouds 8 995 91 10000 4.02 252 13:42 28.12.2021
4619 Clouds 8 994 92 10000 4.02 281 13:24 28.12.2021
4620 Clouds 7 994 92 10000 3.13 243 12:49 28.12.2021
4621 Clouds 7 992 94 10000 2.68 244 11:33 28.12.2021
4622 Drizzle 8 984 96 4000 3.13 11 07:41 28.12.2021
4623 Rain 8 983 97 3000 1.34 277 06:41 28.12.2021
4624 Clouds 9 986 93 10000 0.45 309 23:43 27.12.2021
4625 Clouds 9 985 92 10000 0.89 9 22:59 27.12.2021
4626 Clouds 9 985 92 10000 0.89 9 21:38 27.12.2021
4627 Clouds 9 985 93 10000 1.79 50 20:57 27.12.2021
4628 Clouds 9 985 93 10000 2.68 56 19:58 27.12.2021
4629 Clouds 9 984 93 10000 2.24 16 19:39 27.12.2021
4630 Clouds 9 984 92 10000 3.13 61 18:23 27.12.2021
4631 Drizzle 9 984 92 10000 1.79 65 17:46 27.12.2021
4632 Clouds 9 984 91 10000 2.68 59 16:40 27.12.2021
4633 Clouds 10 985 88 10000 2.68 134 15:52 27.12.2021
4634 Clouds 9 985 90 10000 3.13 121 14:32 27.12.2021
4635 Clouds 9 986 89 10000 4.02 92 13:39 27.12.2021
4636 Clouds 9 987 94 10000 3.13 85 12:19 27.12.2021
4637 Clouds 7 988 96 10000 1.34 157 10:31 27.12.2021
4638 Clouds 6 987 97 10000 1.34 124 09:47 27.12.2021
4639 Mist 5 989 98 5000 2.06 80 07:35 27.12.2021
4640 Clouds 5 990 98 10000 1.03 0 06:56 27.12.2021
4641 Clouds 6 992 93 10000 0.45 165 02:18 27.12.2021
4642 Clouds 6 993 90 10000 1.54 160 23:58 26.12.2021
4643 Clouds 5 993 93 10000 0.89 59 23:35 26.12.2021
4644 Clouds 8 995 90 10000 0.89 178 21:59 26.12.2021
4645 Clouds 8 995 91 10000 2.24 234 20:54 26.12.2021
4646 Clouds 8 996 90 10000 0.45 152 19:47 26.12.2021
4647 Clouds 8 995 90 10000 0.45 264 18:24 26.12.2021
4648 Clouds 9 995 87 10000 1.34 193 16:20 26.12.2021
4649 Clouds 10 995 84 10000 2.24 210 14:27 26.12.2021
4650 Clouds 10 996 88 10000 1.79 288 13:40 26.12.2021
4651 Clouds 10 996 90 10000 0.89 282 13:19 26.12.2021
4652 Clouds 9 997 94 10000 0.45 145 12:32 26.12.2021
4653 Clouds 8 998 96 10000 0.45 124 10:32 26.12.2021
4654 Drizzle 8 996 96 8000 0.45 1 09:19 26.12.2021
4655 Clouds 7 995 96 10000 0.45 212 08:43 26.12.2021
4656 Clouds 7 997 94 10000 0.89 102 07:49 26.12.2021
4657 Clouds 9 997 96 10000 0.89 9 01:27 26.12.2021
4658 Drizzle 9 994 95 10000 0.89 341 23:54 25.12.2021
4659 Drizzle 9 994 95 4600 4.02 115 23:27 25.12.2021
4660 Clouds 9 994 96 6000 4.02 43 22:26 25.12.2021
4661 Rain 8 994 95 4000 4.02 63 20:57 25.12.2021
4662 Drizzle 8 994 94 8000 4.47 109 19:26 25.12.2021
4663 Rain 8 994 94 7000 5.36 90 18:55 25.12.2021
4664 Drizzle 8 996 93 6000 5.36 125 17:33 25.12.2021
4665 Drizzle 8 995 94 8000 5.81 140 16:36 25.12.2021
4666 Clouds 8 995 94 5000 5.36 130 15:18 25.12.2021
4667 Rain 8 996 92 5000 5.36 132 13:30 25.12.2021
4668 Rain 8 996 92 5000 5.36 128 13:30 25.12.2021
4669 Drizzle 8 997 93 10000 5.36 128 11:51 25.12.2021
4670 Rain 8 998 93 6000 5.36 132 09:54 25.12.2021
4671 Drizzle 8 998 93 9000 5.81 109 09:34 25.12.2021
4672 Clouds 9 997 94 9000 4.02 90 04:34 25.12.2021
4673 Mist 7 998 95 2000 0.45 75 01:23 25.12.2021
4674 Clouds 8 998 93 9000 1.34 85 23:40 24.12.2021
4675 Clouds 10 997 95 9000 2.68 146 19:45 24.12.2021
4676 Clouds 10 997 95 10000 3.13 115 19:23 24.12.2021
4677 Clouds 10 996 93 10000 3.13 104 16:53 24.12.2021
4678 Rain 10 996 92 8000 4.47 137 16:21 24.12.2021
4679 Drizzle 10 996 91 10000 4.47 150 15:48 24.12.2021
4680 Clouds 10 996 92 10000 4.92 133 14:47 24.12.2021
4681 Clouds 10 996 91 10000 5.36 144 14:24 24.12.2021
4682 Rain 10 997 93 10000 5.36 111 13:39 24.12.2021
4683 Clouds 10 997 93 10000 4.47 140 12:48 24.12.2021
4684 Clouds 10 998 93 10000 4.47 107 11:58 24.12.2021
4685 Clouds 10 998 94 10000 4.47 137 11:27 24.12.2021
4686 Clouds 10 998 95 9000 3.13 123 10:53 24.12.2021
4687 Clouds 10 999 95 9000 1.79 115 10:28 24.12.2021
4688 Clouds 8 999 94 10000 1.34 99 08:26 24.12.2021
4689 Clouds 7 999 95 10000 2.24 116 07:50 24.12.2021
4690 Clouds 8 1000 87 10000 0.45 16 03:21 24.12.2021
4691 Clouds 9 1001 87 10000 2.68 228 00:19 24.12.2021
4692 Clouds 10 1001 85 10000 0.89 64 23:23 23.12.2021
4693 Clouds 10 1002 87 10000 1.34 243 22:39 23.12.2021
4694 Clouds 9 1002 87 10000 1.79 312 22:20 23.12.2021
4695 Clouds 10 1001 85 10000 1.34 187 21:34 23.12.2021
4696 Clouds 10 1001 86 10000 0.89 200 20:20 23.12.2021
4697 Clouds 10 1001 83 10000 2.24 167 18:53 23.12.2021
4698 Clouds 10 1002 84 10000 1.34 123 17:57 23.12.2021
4699 Clouds 11 1002 82 10000 3.13 177 16:57 23.12.2021
4700 Clouds 11 1001 81 10000 1.79 196 16:25 23.12.2021
4701 Clouds 12 1000 81 10000 3.13 221 15:32 23.12.2021
4702 Clouds 13 1001 80 10000 2.24 268 14:54 23.12.2021
4703 Clouds 12 1001 83 10000 2.24 254 14:36 23.12.2021
4704 Clouds 13 1001 83 10000 3.58 239 13:19 23.12.2021
4705 Clouds 13 999 87 10000 2.68 250 10:53 23.12.2021
4706 Clouds 12 1000 89 10000 2.24 130 09:47 23.12.2021
4707 Clouds 11 1000 92 10000 2.24 110 09:19 23.12.2021
4708 Clouds 12 1001 90 10000 2.24 148 06:59 23.12.2021
4709 Drizzle 11 1001 91 10000 3.58 182 04:35 23.12.2021
4710 Clouds 10 1005 93 8000 2.24 129 23:26 22.12.2021
4711 Clouds 10 1004 93 8000 2.68 117 23:26 22.12.2021
4712 Clouds 10 1005 93 10000 3.13 88 22:47 22.12.2021
4713 Clouds 10 1006 92 10000 3.13 129 21:56 22.12.2021
4714 Clouds 10 1007 92 10000 2.24 111 21:29 22.12.2021
4715 Clouds 10 1007 91 10000 2.24 135 20:47 22.12.2021
4716 Clouds 10 1007 91 10000 2.68 137 20:26 22.12.2021
4717 Clouds 9 1007 91 10000 3.58 117 19:28 22.12.2021
4718 Clouds 9 1008 91 10000 3.13 103 17:50 22.12.2021
4719 Clouds 9 1009 90 10000 2.24 144 16:40 22.12.2021
4720 Clouds 8 1009 90 10000 2.68 137 15:40 22.12.2021
4721 Clouds 8 1011 88 10000 3.58 126 13:37 22.12.2021
4722 Clouds 7 1010 89 8000 4.92 49 12:41 22.12.2021
4723 Rain 6 1013 91 7000 3.13 63 10:36 22.12.2021
4724 Rain 6 1012 92 10000 3.58 25 09:39 22.12.2021
4725 Rain 6 1014 86 10000 4.02 188 07:30 22.12.2021
4726 Clouds 6 1016 83 10000 5.81 123 05:50 22.12.2021
4727 Clouds 6 1016 83 10000 4.92 133 05:26 22.12.2021
4728 Clouds 6 1015 82 10000 5.36 142 04:50 22.12.2021
4729 Clouds 6 1015 82 10000 4.47 153 04:29 22.12.2021
4730 Clouds 6 1017 82 10000 3.13 169 03:33 22.12.2021
4731 Clouds 7 1017 83 10000 3.58 129 00:50 22.12.2021
4732 Clouds 6 1018 83 10000 1.34 126 23:25 21.12.2021
4733 Clouds 6 1020 82 10000 2.68 90 22:28 21.12.2021
4734 Clouds 7 1019 82 10000 3.13 102 21:44 21.12.2021
4735 Clouds 7 1019 82 10000 2.68 183 21:22 21.12.2021
4736 Clouds 7 1019 81 10000 2.68 98 20:21 21.12.2021
4737 Clouds 7 1019 82 10000 3.58 165 19:42 21.12.2021
4738 Clouds 7 1020 82 10000 1.79 107 18:46 21.12.2021
4739 Clouds 7 1019 82 10000 2.24 159 18:21 21.12.2021
4740 Clouds 7 1019 83 10000 2.24 102 17:42 21.12.2021
4741 Clouds 7 1020 82 10000 3.58 130 16:26 21.12.2021
4742 Clouds 7 1020 81 10000 3.58 115 15:24 21.12.2021
4743 Clouds 6 1021 82 10000 2.68 137 13:50 21.12.2021
4744 Clouds 6 1022 80 10000 1.79 134 13:30 21.12.2021
4745 Clouds 6 1022 82 10000 1.79 113 11:49 21.12.2021
4746 Clouds 6 1022 82 10000 2.68 121 10:24 21.12.2021
4747 Clouds 6 1023 82 10000 1.79 146 09:27 21.12.2021
4748 Clouds 6 1022 83 10000 2.24 128 07:59 21.12.2021
4749 Clouds 6 1022 81 10000 3.13 138 07:29 21.12.2021
4750 Clouds 6 1022 82 10000 1.79 108 06:50 21.12.2021
4751 Clouds 6 1024 81 10000 2.24 110 02:51 21.12.2021
4752 Clouds 6 1025 82 10000 2.68 155 23:59 20.12.2021
4753 Clouds 6 1025 82 10000 2.24 137 23:29 20.12.2021
4754 Clouds 6 1026 81 10000 1.34 110 22:30 20.12.2021
4755 Clouds 6 1025 82 10000 2.24 184 21:47 20.12.2021
4756 Clouds 7 1025 83 10000 2.68 126 21:23 20.12.2021
4757 Clouds 7 1025 85 10000 2.24 113 20:44 20.12.2021
4758 Clouds 7 1025 85 10000 1.34 167 19:53 20.12.2021
4759 Clouds 7 1025 85 10000 1.79 116 19:53 20.12.2021
4760 Clouds 7 1025 86 10000 1.79 120 19:31 20.12.2021
4761 Clouds 7 1025 86 10000 1.34 111 18:54 20.12.2021
4762 Clouds 7 1025 85 10000 1.34 123 17:52 20.12.2021
4763 Clouds 7 1026 86 10000 0.89 117 17:25 20.12.2021
4764 Clouds 7 1026 86 10000 0.89 117 17:25 20.12.2021
4765 Clouds 7 1026 84 10000 1.79 128 16:40 20.12.2021
4766 Clouds 7 1026 85 10000 2.24 137 15:50 20.12.2021
4767 Clouds 8 1027 87 10000 2.68 128 14:43 20.12.2021
4768 Clouds 7 1027 89 10000 0.89 123 12:53 20.12.2021
4769 Clouds 7 1027 92 10000 2.24 93 11:19 20.12.2021
4770 Clouds 6 1028 94 10000 2.24 42 09:47 20.12.2021
4771 Mist 6 1028 94 8000 2.24 100 09:28 20.12.2021
4772 Mist 6 1028 96 8000 1.79 93 08:41 20.12.2021
4773 Mist 6 1029 96 8000 1.34 89 07:49 20.12.2021
4774 Mist 6 1028 95 8000 1.79 59 07:25 20.12.2021
4775 Mist 7 1029 94 10000 1.34 334 03:59 20.12.2021
4776 Clouds 7 1031 92 9000 1.34 85 23:58 19.12.2021
4777 Clouds 7 1031 92 9000 1.34 77 22:45 19.12.2021
4778 Clouds 7 1031 93 8000 1.34 83 21:50 19.12.2021
4779 Clouds 7 1031 94 8000 1.79 132 21:29 19.12.2021
4780 Mist 7 1032 94 4500 1.79 41 20:30 19.12.2021
4781 Mist 7 1032 95 4500 1.34 124 19:46 19.12.2021
4782 Mist 6 1032 94 4500 1.79 120 18:58 19.12.2021
4783 Mist 6 1032 94 4500 2.24 41 18:29 19.12.2021
4784 Mist 6 1032 95 3000 1.79 63 17:51 19.12.2021
4785 Mist 6 1033 94 1600 1.79 100 17:18 19.12.2021
4786 Mist 7 1032 94 2200 1.34 51 16:25 19.12.2021
4787 Mist 7 1033 92 3500 2.24 103 15:28 19.12.2021
4788 Mist 8 1033 91 4000 1.79 13 14:57 19.12.2021
4789 Mist 8 1033 91 4500 1.79 124 14:36 19.12.2021
4790 Clouds 8 1033 92 6000 1.34 82 13:22 19.12.2021
4791 Clouds 8 1035 93 6000 1.79 8 12:33 19.12.2021
4792 Clouds 8 1034 93 5000 0.89 93 11:42 19.12.2021
4793 Clouds 6 1034 97 7000 0.89 31 10:58 19.12.2021
4794 Clouds 5 1035 97 7000 0.89 118 10:25 19.12.2021
4795 Clouds 5 1035 95 9000 0.45 120 09:26 19.12.2021
4796 Fog 5 1035 95 8000 1.34 247 07:50 19.12.2021
4797 Fog 5 1035 95 100 0.89 162 04:44 19.12.2021
4798 Clouds 6 1036 93 9000 0.89 80 00:56 19.12.2021
4799 Clouds 6 1036 94 9000 0.45 265 00:28 19.12.2021
4800 Clouds 7 1037 92 10000 0.45 20 22:32 18.12.2021
4801 Clouds 6 1036 93 10000 0.45 131 21:54 18.12.2021
4802 Clouds 6 1036 93 9000 0.45 137 21:34 18.12.2021
4803 Clouds 6 1036 93 9000 0.45 132 20:44 18.12.2021
4804 Clouds 6 1036 92 10000 0.89 123 19:51 18.12.2021
4805 Clouds 7 1036 91 10000 1.79 93 19:19 18.12.2021
4806 Clouds 7 1036 91 10000 1.79 93 18:19 18.12.2021
4807 Clouds 7 1037 90 10000 2.68 45 17:47 18.12.2021
4808 Clouds 8 1036 88 10000 2.24 78 16:25 18.12.2021
4809 Clouds 9 1036 86 10000 2.68 108 15:26 18.12.2021
4810 Clouds 9 1037 86 10000 2.68 74 14:22 18.12.2021
4811 Clouds 9 1037 90 10000 1.34 137 12:39 18.12.2021
4812 Mist 7 1037 94 6000 1.34 111 10:52 18.12.2021
4813 Mist 6 1037 94 8000 1.34 146 09:33 18.12.2021
4814 Mist 6 1037 96 7000 1.79 93 08:42 18.12.2021
4815 Mist 6 1037 97 7000 1.79 133 08:18 18.12.2021
4816 Clouds 6 1038 87 10000 0.89 117 01:48 18.12.2021
4817 Mist 6 1038 88 10000 1.34 126 00:27 18.12.2021
4818 Clouds 7 1039 86 9000 1.79 124 23:37 17.12.2021
4819 Clouds 7 1039 87 10000 1.79 129 21:55 17.12.2021
4820 Clouds 7 1039 86 10000 1.34 170 20:51 17.12.2021
4821 Clouds 7 1039 86 10000 3.13 125 20:31 17.12.2021
4822 Clouds 8 1039 85 10000 2.24 128 18:58 17.12.2021
4823 Clouds 7 1039 86 10000 2.24 146 18:38 17.12.2021
4824 Clouds 8 1039 85 10000 3.13 78 17:26 17.12.2021
4825 Clouds 8 1039 84 10000 3.13 138 16:44 17.12.2021
4826 Clouds 8 1039 84 10000 2.68 131 16:19 17.12.2021
4827 Clouds 8 1039 84 10000 3.13 117 15:19 17.12.2021
4828 Clouds 8 1039 84 10000 3.13 160 14:34 17.12.2021
4829 Clouds 8 1040 85 10000 3.13 141 12:45 17.12.2021
4830 Clouds 8 1039 85 10000 2.68 155 11:22 17.12.2021
4831 Fog 8 1039 87 10000 3.58 144 09:55 17.12.2021
4832 Clouds 7 1039 86 10000 2.68 156 08:58 17.12.2021
4833 Clouds 8 1038 84 10000 2.24 138 08:20 17.12.2021
4834 Clouds 8 1039 85 10000 2.68 138 05:25 17.12.2021
4835 Clouds 9 1039 83 10000 1.79 108 02:52 17.12.2021
4836 Clouds 9 1038 86 10000 0.89 119 23:20 16.12.2021
4837 Clouds 9 1038 86 10000 0.45 108 22:23 16.12.2021
4838 Clouds 9 1038 86 10000 0.45 108 22:23 16.12.2021
4839 Clouds 9 1039 86 10000 0.89 121 21:47 16.12.2021
4840 Clouds 9 1038 85 10000 0.45 61 21:20 16.12.2021
4841 Clouds 9 1038 83 10000 0.45 291 20:27 16.12.2021
4842 Clouds 9 1038 81 10000 0.89 257 19:35 16.12.2021
4843 Clouds 9 1038 82 10000 2.24 186 18:38 16.12.2021
4844 Clouds 9 1038 83 10000 0.89 140 17:49 16.12.2021
4845 Clouds 9 1038 81 10000 1.54 0 17:19 16.12.2021
4846 Clouds 10 1037 79 10000 1.79 265 16:20 16.12.2021
4847 Clouds 11 1037 78 10000 1.79 265 14:50 16.12.2021
4848 Clouds 11 1036 80 10000 1.79 208 12:57 16.12.2021
4849 Clouds 10 1036 85 10000 2.24 219 11:19 16.12.2021
4850 Clouds 9 1036 89 10000 1.34 281 10:48 16.12.2021
4851 Clouds 9 1035 91 10000 1.79 194 09:59 16.12.2021
4852 Clouds 8 1033 91 10000 0.89 165 07:21 16.12.2021
4853 Clouds 7 1033 92 10000 1.34 221 06:19 16.12.2021
4854 Clouds 9 1031 86 10000 2.24 271 00:53 16.12.2021
4855 Clouds 10 1030 84 10000 2.24 246 23:21 15.12.2021
4856 Clouds 10 1030 84 10000 2.68 247 22:29 15.12.2021
4857 Clouds 10 1030 83 10000 2.24 225 21:49 15.12.2021
4858 Clouds 10 1029 84 10000 1.34 208 21:26 15.12.2021
4859 Clouds 10 1029 85 10000 3.58 229 19:55 15.12.2021
4860 Clouds 10 1028 84 10000 3.13 234 19:23 15.12.2021
4861 Clouds 10 1028 81 10000 4.02 211 18:26 15.12.2021
4862 Clouds 10 1027 82 10000 1.34 226 17:49 15.12.2021
4863 Clouds 10 1027 82 10000 3.13 242 17:27 15.12.2021
4864 Clouds 11 1027 83 10000 2.24 208 16:26 15.12.2021
4865 Clouds 11 1026 81 10000 3.58 196 15:45 15.12.2021
4866 Clouds 11 1026 81 10000 4.02 235 15:27 15.12.2021
4867 Clouds 12 1026 79 10000 2.24 196 13:59 15.12.2021
4868 Clouds 12 1026 79 10000 3.58 229 11:57 15.12.2021
4869 Clouds 10 1024 83 10000 5.36 223 10:24 15.12.2021
4870 Clouds 10 1024 82 10000 5.36 218 08:48 15.12.2021
4871 Clouds 9 1022 85 10000 4.92 225 05:59 15.12.2021
4872 Clouds 9 1023 86 10000 5.81 251 00:47 15.12.2021
4873 Clouds 8 1022 86 10000 4.02 257 23:41 14.12.2021
4874 Clouds 8 1022 86 10000 1.79 248 22:47 14.12.2021
4875 Clouds 9 1022 78 10000 3.58 196 21:48 14.12.2021
4876 Clouds 9 1021 78 10000 3.58 200 20:26 14.12.2021
4877 Clouds 8 1021 79 10000 3.13 223 19:40 14.12.2021
4878 Clouds 9 1021 78 10000 3.13 201 18:42 14.12.2021
4879 Clouds 9 1021 80 10000 3.58 227 17:58 14.12.2021
4880 Clouds 9 1021 81 10000 3.58 242 16:58 14.12.2021
4881 Clouds 9 1021 81 10000 3.58 218 16:35 14.12.2021
4882 Clouds 10 1021 78 10000 3.58 0 14:39 14.12.2021
4883 Clouds 9 1022 79 10000 4.02 190 13:24 14.12.2021
4884 Clouds 8 1022 85 10000 2.68 223 11:56 14.12.2021
4885 Clouds 7 1022 89 10000 3.58 214 11:22 14.12.2021
4886 Clouds 5 1021 84 10000 2.24 183 09:55 14.12.2021
4887 Clouds 5 1021 96 8000 2.24 247 09:22 14.12.2021
4888 Clouds 5 1021 95 8000 2.24 233 08:23 14.12.2021
4889 Clouds 5 1021 95 8000 2.68 202 08:23 14.12.2021
4890 Clouds 5 1021 96 8000 2.68 238 07:42 14.12.2021
4891 Clouds 4 1022 90 10000 1.54 210 01:46 14.12.2021
4892 Clouds 3 1021 93 10000 0.89 200 22:49 13.12.2021
4893 Clouds 4 1021 93 10000 0.89 273 21:51 13.12.2021
4894 Clouds 4 1021 91 10000 0.45 227 20:59 13.12.2021
4895 Clouds 5 1021 90 10000 0.45 265 20:31 13.12.2021
4896 Clouds 6 1020 89 10000 0.89 119 19:52 13.12.2021
4897 Clouds 7 1020 88 10000 0.89 313 17:56 13.12.2021
4898 Rain 7 1020 89 10000 2.24 51 17:23 13.12.2021
4899 Rain 7 1020 89 10000 2.24 51 17:23 13.12.2021
4900 Rain 8 1020 85 10000 0.45 282 15:49 13.12.2021
4901 Rain 8 1020 84 10000 0.89 286 15:18 13.12.2021
4902 Clouds 8 1020 81 10000 0.89 301 13:38 13.12.2021
4903 Clouds 8 1020 84 10000 0.89 257 12:42 13.12.2021
4904 Clouds 7 1020 87 10000 0.45 221 11:54 13.12.2021
4905 Clouds 7 1020 87 10000 0.45 250 11:35 13.12.2021
4906 Clouds 6 1019 89 10000 0.45 265 10:43 13.12.2021
4907 Rain 7 1017 86 10000 0.45 279 08:52 13.12.2021
4908 Rain 7 1017 87 10000 1.34 236 07:38 13.12.2021
4909 Clouds 7 1016 84 10000 1.79 242 05:34 13.12.2021
4910 Clouds 9 1012 78 10000 4.47 302 00:43 13.12.2021
4911 Clouds 13 1007 82 10000 5.36 218 21:59 12.12.2021
4912 Drizzle 13 1006 83 10000 5.81 146 21:35 12.12.2021
4913 Clouds 13 1006 81 10000 4.47 177 19:40 12.12.2021
4914 Clouds 13 1007 80 10000 5.81 177 18:35 12.12.2021
4915 Clouds 13 1008 82 10000 5.81 193 16:58 12.12.2021
4916 Clouds 13 1008 81 10000 4.02 208 16:27 12.12.2021
4917 Clouds 13 1008 82 10000 4.02 177 15:41 12.12.2021
4918 Clouds 14 1010 82 10000 5.81 195 15:22 12.12.2021
4919 Clouds 14 1010 83 10000 4.02 223 14:30 12.12.2021
4920 Clouds 14 1010 83 10000 4.92 194 14:30 12.12.2021
4921 Clouds 13 1010 85 10000 4.47 196 12:56 12.12.2021
4922 Clouds 13 1010 84 10000 4.92 225 12:26 12.12.2021
4923 Clouds 13 1010 90 10000 3.13 178 11:43 12.12.2021
4924 Fog 11 1011 94 450 3.13 231 10:56 12.12.2021
4925 Fog 10 1012 95 900 2.24 111 10:22 12.12.2021
4926 Drizzle 10 1011 93 6000 1.79 144 08:53 12.12.2021
4927 Clouds 9 1011 92 10000 0.45 126 07:31 12.12.2021
4928 Drizzle 9 1011 93 10000 1.79 189 05:56 12.12.2021
4929 Drizzle 10 1011 88 10000 2.68 257 04:55 12.12.2021
4930 Clouds 10 1010 86 10000 2.24 196 02:56 12.12.2021
4931 Clouds 11 1011 87 10000 3.13 228 23:30 11.12.2021
4932 Clouds 11 1010 90 10000 3.13 221 22:21 11.12.2021
4933 Drizzle 11 1010 90 10000 2.68 245 21:50 11.12.2021
4934 Clouds 13 1008 94 8000 3.58 281 20:24 11.12.2021
4935 Drizzle 13 1008 89 6000 4.02 275 19:21 11.12.2021
4936 Drizzle 14 1007 90 6000 4.47 224 18:50 11.12.2021
4937 Drizzle 13 1007 90 8000 4.47 201 18:19 11.12.2021
4938 Drizzle 13 1007 89 10000 4.92 277 16:59 11.12.2021
4939 Drizzle 13 1006 90 10000 4.47 223 15:48 11.12.2021
4940 Drizzle 13 1006 90 10000 5.36 213 14:54 11.12.2021
4941 Clouds 12 1007 88 10000 4.92 203 12:42 11.12.2021
4942 Clouds 10 1007 94 10000 3.58 203 11:24 11.12.2021
4943 Drizzle 9 1009 91 8000 1.34 67 09:45 11.12.2021
4944 Clouds 9 1009 91 8000 1.34 67 09:45 11.12.2021
4945 Drizzle 9 1009 91 8000 1.34 67 09:45 11.12.2021
4946 Clouds 9 1009 91 8000 1.34 67 09:45 11.12.2021
4947 Clouds 7 1008 87 10000 0.89 238 07:30 11.12.2021
4948 Clouds 6 1010 84 10000 2.24 261 00:50 11.12.2021
4949 Clouds 5 1009 83 10000 3.13 232 23:49 10.12.2021
4950 Clouds 5 1008 84 10000 1.34 200 23:18 10.12.2021
4951 Clouds 5 1008 84 10000 3.58 214 21:52 10.12.2021
4952 Clouds 5 1009 84 10000 4.02 225 20:56 10.12.2021
4953 Clouds 5 1006 85 10000 4.92 262 19:20 10.12.2021
4954 Clouds 5 1006 82 10000 4.47 265 17:54 10.12.2021
4955 Clouds 5 1005 81 10000 4.47 267 16:55 10.12.2021
4956 Clouds 6 1004 79 10000 5.81 277 15:51 10.12.2021
4957 Clouds 6 1004 79 10000 4.02 279 15:29 10.12.2021
4958 Clouds 6 1004 79 10000 3.58 229 14:59 10.12.2021
4959 Clouds 6 1004 80 10000 4.02 248 13:51 10.12.2021
4960 Clouds 5 1004 82 10000 5.36 229 13:25 10.12.2021
4961 Clouds 5 1003 82 10000 5.36 289 12:23 10.12.2021
4962 Clouds 4 1002 84 10000 4.92 247 11:28 10.12.2021
4963 Clouds 3 1001 87 10000 4.47 259 09:54 10.12.2021
4964 Clouds 3 1000 87 10000 6.26 245 08:30 10.12.2021
4965 Clouds 2 998 87 10000 5.36 248 05:56 10.12.2021
4966 Clouds 4 996 87 10000 5.81 268 02:47 10.12.2021
4967 Clouds 5 995 89 10000 4.47 233 23:44 09.12.2021
4968 Clouds 6 994 88 10000 4.47 275 22:59 09.12.2021
4969 Clouds 6 994 87 10000 4.92 239 22:24 09.12.2021
4970 Clouds 7 994 86 10000 4.47 219 21:48 09.12.2021
4971 Drizzle 7 994 87 10000 4.47 266 20:41 09.12.2021
4972 Drizzle 7 993 87 10000 5.81 284 20:20 09.12.2021
4973 Clouds 8 992 90 10000 4.92 262 19:21 09.12.2021
4974 Clouds 8 992 89 10000 4.02 257 18:25 09.12.2021
4975 Drizzle 8 991 91 10000 4.02 259 17:51 09.12.2021
4976 Clouds 8 991 93 9000 5.36 250 17:25 09.12.2021
4977 Clouds 9 991 91 3000 6.26 254 16:51 09.12.2021
4978 Clouds 10 991 87 10000 3.58 230 15:31 09.12.2021
4979 Drizzle 10 991 87 10000 4.47 242 14:44 09.12.2021
4980 Clouds 8 994 87 10000 0.45 174 13:18 09.12.2021
4981 Clouds 7 996 86 10000 1.79 168 12:34 09.12.2021
4982 Clouds 6 997 84 10000 0.89 178 10:50 09.12.2021
4983 Clouds 5 1000 83 10000 2.68 231 08:38 09.12.2021
4984 Clouds 4 999 83 10000 4.47 275 05:54 09.12.2021
4985 Clouds 4 1000 83 10000 5.81 276 02:49 09.12.2021
4986 Clouds 5 998 78 10000 5.36 290 23:42 08.12.2021
4987 Clouds 5 997 77 10000 5.81 249 23:20 08.12.2021
4988 Clouds 5 997 76 10000 6.26 261 22:45 08.12.2021
4989 Clouds 5 996 74 10000 6.26 255 21:39 08.12.2021
4990 Clouds 5 995 74 10000 6.26 237 20:59 08.12.2021
4991 Clouds 6 994 72 10000 7.6 289 19:58 08.12.2021
4992 Clouds 6 994 72 10000 6.71 286 19:33 08.12.2021
4993 Clouds 6 993 73 10000 7.6 265 18:30 08.12.2021
4994 Clouds 6 991 74 10000 9.39 289 17:26 08.12.2021
4995 Rain 6 991 79 6000 11.62 281 15:46 08.12.2021
4996 Rain 6 989 74 10000 9.39 277 15:23 08.12.2021
4997 Clouds 6 988 72 10000 9.39 234 14:26 08.12.2021
4998 Clouds 4 985 87 10000 8.49 254 10:53 08.12.2021
4999 Clouds 4 984 89 10000 7.6 273 10:28 08.12.2021
5000 Clouds 4 982 89 10000 8.05 244 08:54 08.12.2021
5001 Clouds 4 980 92 10000 9.39 263 07:21 08.12.2021
5002 Rain 4 971 90 10000 7.6 228 01:21 08.12.2021
5003 Rain 3 969 92 10000 7.15 254 23:33 07.12.2021
5004 Clouds 5 966 90 6000 8.05 301 21:26 07.12.2021
5005 Clouds 6 965 89 10000 5.81 255 20:54 07.12.2021
5006 Clouds 6 963 89 10000 5.36 261 19:50 07.12.2021
5007 Clouds 5 961 88 8000 7.15 215 18:39 07.12.2021
5008 Clouds 5 961 82 10000 7.6 187 17:27 07.12.2021
5009 Clouds 5 961 82 10000 7.6 187 17:27 07.12.2021
5010 Clouds 6 961 79 10000 7.6 163 16:57 07.12.2021
5011 Clouds 6 962 80 10000 9.83 200 16:28 07.12.2021
5012 Clouds 7 965 73 10000 8.05 168 14:50 07.12.2021
5013 Clouds 7 967 74 10000 10.28 175 13:46 07.12.2021
5014 Clouds 8 970 80 10000 9.39 157 12:41 07.12.2021
5015 Clouds 8 974 87 3000 8.49 185 11:23 07.12.2021
5016 Rain 8 978 93 3000 8.49 135 09:44 07.12.2021
5017 Rain 6 987 89 9000 6.26 140 07:54 07.12.2021
5018 Rain 5 997 79 10000 5.81 185 05:55 07.12.2021
5019 Rain 5 998 76 10000 4.47 118 05:27 07.12.2021
5020 Clouds 3 1005 82 10000 4.02 250 23:41 06.12.2021
5021 Clouds 3 1006 84 10000 4.02 262 22:44 06.12.2021
5022 Clouds 3 1006 83 10000 4.02 237 22:18 06.12.2021
5023 Clouds 3 1006 84 10000 4.92 286 21:37 06.12.2021
5024 Clouds 3 1006 83 10000 4.47 229 20:33 06.12.2021
5025 Clouds 4 1005 82 10000 4.92 279 19:27 06.12.2021
5026 Clouds 4 1005 82 10000 4.02 232 18:57 06.12.2021
5027 Clouds 5 1004 80 10000 4.47 236 17:55 06.12.2021
5028 Clouds 4 1004 79 10000 4.92 237 17:34 06.12.2021
5029 Clouds 5 1004 79 10000 4.92 200 17:34 06.12.2021
5030 Clouds 6 1004 79 10000 4.92 235 16:21 06.12.2021
5031 Clouds 6 1003 79 10000 5.36 262 14:51 06.12.2021
5032 Clouds 6 1004 80 10000 4.47 261 13:36 06.12.2021
5033 Clouds 7 1004 80 10000 4.47 289 12:39 06.12.2021
5034 Clouds 6 1004 88 10000 3.13 269 10:30 06.12.2021
5035 Clouds 8 1004 90 10000 4.47 275 07:41 06.12.2021
5036 Clouds 6 1009 86 5000 1.34 84 03:52 06.12.2021
5037 Clouds 4 1015 88 10000 0.45 113 22:28 05.12.2021
5038 Clouds 3 1015 89 10000 0.89 172 21:26 05.12.2021
5039 Clouds 3 1015 91 10000 0.45 255 20:58 05.12.2021
5040 Clouds 2 1017 90 10000 0.89 232 20:18 05.12.2021
5041 Clouds 2 1016 91 10000 0.45 164 19:26 05.12.2021
5042 Clouds 3 1015 89 10000 1.34 210 18:37 05.12.2021
5043 Clouds 4 1017 89 10000 0.89 255 17:53 05.12.2021
5044 Clouds 4 1016 87 10000 0.89 283 17:34 05.12.2021
5045 Clouds 6 1016 81 10000 2.24 277 16:41 05.12.2021
5046 Clouds 6 1015 80 10000 1.79 261 16:22 05.12.2021
5047 Clouds 7 1017 80 10000 1.79 300 14:48 05.12.2021
5048 Clouds 7 1017 80 10000 2.68 309 14:30 05.12.2021
5049 Clouds 6 1016 82 10000 2.68 281 13:37 05.12.2021
5050 Clouds 5 1015 83 10000 4.02 270 12:47 05.12.2021
5051 Clouds 5 1017 85 10000 3.58 244 12:29 05.12.2021
5052 Clouds 4 1016 86 10000 3.13 254 11:47 05.12.2021
5053 Clouds 3 1015 90 10000 3.58 250 10:44 05.12.2021
5054 Clouds 3 1015 90 10000 2.24 265 09:51 05.12.2021
5055 Clouds 3 1013 91 10000 3.13 262 06:31 05.12.2021
5056 Clouds 3 1009 89 10000 3.13 275 01:38 05.12.2021
5057 Clouds 3 1007 87 10000 4.47 266 23:25 04.12.2021
5058 Clouds 3 1006 86 10000 4.47 286 21:52 04.12.2021
5059 Clouds 3 1005 87 10000 4.92 228 20:47 04.12.2021
5060 Clouds 3 1004 88 10000 4.92 252 19:54 04.12.2021
5061 Clouds 3 1004 86 10000 5.36 262 19:31 04.12.2021
5062 Clouds 4 1002 84 10000 5.36 265 17:58 04.12.2021
5063 Clouds 4 1001 83 10000 5.36 263 17:36 04.12.2021
5064 Clouds 5 1001 81 10000 5.36 259 16:47 04.12.2021
5065 Clouds 5 1001 81 10000 5.36 259 16:47 04.12.2021
5066 Clouds 5 1000 80 10000 5.36 252 16:28 04.12.2021
5067 Clouds 6 999 80 10000 6.71 281 14:23 04.12.2021
5068 Clouds 5 999 80 10000 6.26 259 11:45 04.12.2021
5069 Clouds 5 999 80 10000 5.36 238 11:20 04.12.2021
5070 Clouds 4 998 83 10000 5.81 279 10:42 04.12.2021
5071 Rain 4 997 85 10000 6.26 247 08:42 04.12.2021
5072 Clouds 4 996 84 10000 6.71 255 05:47 04.12.2021
5073 Clouds 4 996 81 10000 6.71 277 04:41 04.12.2021
5074 Clouds 7 996 91 8000 4.92 261 23:49 03.12.2021
5075 Clouds 7 996 91 8000 4.92 261 23:49 03.12.2021
5076 Drizzle 7 996 92 7000 4.47 230 22:57 03.12.2021
5077 Drizzle 7 997 92 9000 3.58 211 22:38 03.12.2021
5078 Clouds 7 997 86 10000 3.58 236 21:25 03.12.2021
5079 Clouds 7 998 84 10000 3.58 236 20:44 03.12.2021
5080 Clouds 7 998 86 10000 2.24 265 19:36 03.12.2021
5081 Clouds 7 999 87 10000 0.89 198 18:26 03.12.2021
5082 Clouds 7 999 89 10000 0.45 221 17:44 03.12.2021
5083 Clouds 8 1001 87 10000 2.24 257 14:23 03.12.2021
5084 Clouds 8 1003 87 10000 2.68 265 12:52 03.12.2021
5085 Clouds 7 1004 88 10000 2.68 269 11:24 03.12.2021
5086 Clouds 7 1004 90 10000 3.58 254 09:57 03.12.2021
5087 Clouds 7 1004 89 10000 3.13 267 08:24 03.12.2021
5088 Clouds 7 1004 89 10000 3.13 280 07:38 03.12.2021
5089 Drizzle 10 1003 95 5000 4.92 262 02:24 03.12.2021
5090 Drizzle 8 1004 94 5000 6.26 223 00:47 03.12.2021
5091 Clouds 8 1005 95 5000 4.47 344 23:46 02.12.2021
5092 Rain 6 1009 91 10000 0.89 43 21:42 02.12.2021
5093 Rain 6 1010 91 9000 0.89 207 20:57 02.12.2021
5094 Rain 6 1010 90 10000 0.89 137 20:38 02.12.2021
5095 Rain 6 1011 86 10000 2.68 213 19:25 02.12.2021
5096 Clouds 5 1014 81 10000 2.68 221 17:43 02.12.2021
5097 Clouds 6 1015 79 10000 3.13 261 15:42 02.12.2021
5098 Clouds 6 1016 82 10000 2.24 272 14:59 02.12.2021
5099 Clouds 6 1016 81 10000 3.58 275 14:33 02.12.2021
5100 Clouds 5 1015 88 10000 2.68 254 12:52 02.12.2021
5101 Clouds 4 1016 86 10000 3.13 305 12:18 02.12.2021
5102 Clouds 2 1015 94 10000 2.68 298 09:41 02.12.2021
5103 Clouds 3 1015 92 10000 1.79 269 08:52 02.12.2021
5104 Clouds 3 1014 91 10000 3.58 247 04:54 02.12.2021
5105 Clouds 3 1012 91 10000 3.13 265 00:53 02.12.2021
5106 Clouds 4 1012 88 10000 3.13 265 23:28 01.12.2021
5107 Clouds 4 1010 89 10000 2.24 236 22:24 01.12.2021
5108 Clouds 5 1009 85 10000 2.24 259 20:53 01.12.2021
5109 Clouds 5 1010 85 10000 4.02 280 19:57 01.12.2021
5110 Clouds 5 1010 85 10000 3.13 234 19:28 01.12.2021
5111 Clouds 6 1007 82 10000 3.58 313 17:45 01.12.2021
5112 Clouds 7 1006 81 10000 4.02 259 16:46 01.12.2021
5113 Clouds 7 1003 79 10000 5.36 250 14:54 01.12.2021
5114 Clouds 8 1003 78 10000 5.36 271 13:46 01.12.2021
5115 Rain 7 1003 77 10000 7.15 257 12:50 01.12.2021
5116 Clouds 7 1002 85 10000 5.81 230 10:42 01.12.2021
5117 Clouds 7 1001 87 10000 5.81 284 09:25 01.12.2021
5118 Clouds 6 1001 87 10000 5.81 268 08:30 01.12.2021
5119 Clouds 7 1002 87 10000 5.81 262 07:34 01.12.2021
5120 Clouds 7 1001 85 10000 5.36 250 06:59 01.12.2021
5121 Clouds 8 1001 86 10000 4.92 293 03:46 01.12.2021
5122 Clouds 9 999 86 10000 4.47 257 00:59 01.12.2021
5123 Clouds 10 998 89 10000 7.15 302 23:55 30.11.2021
5124 Clouds 10 997 90 10000 6.71 293 23:25 30.11.2021
5125 Clouds 10 996 90 10000 6.26 277 21:39 30.11.2021
5126 Drizzle 11 996 92 10000 6.71 273 20:44 30.11.2021
5127 Rain 11 996 92 6000 6.26 277 20:19 30.11.2021
5128 Rain 10 997 92 10000 6.26 214 19:38 30.11.2021
5129 Drizzle 11 999 90 10000 6.26 236 18:37 30.11.2021
5130 Clouds 11 1003 88 8000 4.02 213 16:50 30.11.2021
5131 Rain 12 1005 84 10000 4.47 255 15:44 30.11.2021
5132 Drizzle 11 1008 89 10000 4.92 257 14:20 30.11.2021
5133 Drizzle 11 1009 90 10000 5.36 247 13:27 30.11.2021
5134 Clouds 11 1011 91 10000 5.81 235 12:46 30.11.2021
5135 Clouds 10 1011 92 10000 5.36 225 11:50 30.11.2021
5136 Clouds 10 1012 92 8000 4.92 250 11:23 30.11.2021
5137 Clouds 10 1012 92 10000 6.26 255 10:33 30.11.2021
5138 Drizzle 10 1012 96 7000 6.26 246 08:53 30.11.2021
5139 Drizzle 10 1011 93 7000 5.81 234 08:26 30.11.2021
5140 Drizzle 10 1012 94 7000 5.36 280 07:47 30.11.2021
5141 Drizzle 9 1013 92 9000 5.36 254 02:41 30.11.2021
5142 Drizzle 9 1013 92 10000 5.36 282 01:42 30.11.2021
5143 Clouds 9 1014 92 8000 5.36 239 00:24 30.11.2021
5144 Clouds 9 1014 92 7000 4.92 225 23:24 29.11.2021
5145 Clouds 9 1014 92 5000 4.92 242 22:56 29.11.2021
5146 Clouds 9 1015 91 8000 3.58 264 22:33 29.11.2021
5147 Clouds 9 1014 91 10000 5.36 250 21:39 29.11.2021
5148 Drizzle 9 1014 91 10000 4.92 249 21:18 29.11.2021
5149 Drizzle 9 1014 90 10000 4.47 281 20:40 29.11.2021
5150 Clouds 9 1014 89 10000 4.47 280 19:56 29.11.2021
5151 Clouds 9 1014 91 10000 3.58 259 19:36 29.11.2021
5152 Clouds 9 1014 91 10000 3.58 259 19:36 29.11.2021
5153 Clouds 9 1014 91 10000 3.58 261 18:52 29.11.2021
5154 Clouds 7 1015 94 10000 4.31 256 17:55 29.11.2021
5155 Clouds 8 1015 94 10000 3.89 257 17:20 29.11.2021
5156 Clouds 9 1015 92 10000 3.98 258 16:29 29.11.2021
5157 Clouds 9 1015 92 10000 4.01 259 15:52 29.11.2021
5158 Clouds 9 1014 92 10000 3.94 257 14:43 29.11.2021
5159 Clouds 8 1015 93 10000 3.86 256 13:34 29.11.2021
5160 Clouds 7 1015 92 10000 3.47 253 12:37 29.11.2021
5161 Clouds 6 1015 90 10000 3.17 254 11:41 29.11.2021
5162 Clouds 5 1014 88 10000 2.81 237 10:58 29.11.2021
5163 Clouds 4 1014 93 5000 2.57 220 09:36 29.11.2021
5164 Clouds 3 1014 93 10000 2.06 250 06:21 29.11.2021
5165 Clouds 1 1014 100 10000 3.6 270 02:28 29.11.2021
5166 Clouds 2 1014 93 10000 3.6 290 00:43 29.11.2021
5167 Clouds 2 1013 100 10000 3.6 290 23:44 28.11.2021
5168 Clouds 2 1013 100 10000 3.6 290 23:24 28.11.2021
5169 Mist 2 1013 100 7000 3.09 280 21:52 28.11.2021
5170 Mist 2 1012 93 7000 4.63 290 21:23 28.11.2021
5171 Clouds 2 1012 93 10000 3.09 260 20:34 28.11.2021
5172 Clouds 3 1011 93 10000 3.6 290 19:25 28.11.2021
5173 Clouds 4 1011 93 10000 2.57 300 18:35 28.11.2021
5174 Clouds 4 1010 93 10000 3.09 290 17:55 28.11.2021
5175 Clouds 4 1010 93 10000 3.6 290 17:31 28.11.2021
5176 Drizzle 5 1009 93 10000 4.63 300 16:40 28.11.2021
5177 Drizzle 5 1009 93 10000 4.63 300 16:18 28.11.2021
5178 Clouds 4 1009 100 5000 6.17 290 15:32 28.11.2021
5179 Clouds 4 1009 100 10000 7.2 280 14:46 28.11.2021
5180 Clouds 3 1009 93 10000 6.17 250 13:22 28.11.2021
5181 Clouds 3 1009 93 10000 6.17 250 12:48 28.11.2021
5182 Clouds 3 1009 87 10000 5.14 250 11:18 28.11.2021
5183 Clouds 3 1010 87 10000 3.6 250 10:21 28.11.2021
5184 Clouds 2 1010 93 10000 4.12 260 09:37 28.11.2021
5185 Clouds 2 1011 93 10000 3.09 270 07:49 28.11.2021
5186 Clouds 1 1014 93 10000 5.66 300 23:58 27.11.2021
5187 Clouds 1 1015 86 10000 7.2 310 20:57 27.11.2021
5188 Clouds 1 1015 86 10000 5.66 300 19:23 27.11.2021
5189 Clouds 3 1014 70 10000 7.2 320 17:27 27.11.2021
5190 Clouds 4 1014 65 10000 7.2 330 15:58 27.11.2021
5191 Clouds 5 1013 65 10000 9.26 340 13:58 27.11.2021
5192 Clouds 4 1013 70 10000 8.75 340 12:57 27.11.2021
5193 Clouds 2 1012 75 10000 7.2 340 10:52 27.11.2021
5194 Clouds 2 1011 75 10000 8.75 330 09:53 27.11.2021
5195 Clouds 2 1009 75 10000 9.77 330 08:44 27.11.2021
5196 Clouds 3 1007 70 10000 11.83 330 06:34 27.11.2021
5197 Clouds 4 1003 65 10000 11.83 330 01:58 27.11.2021
5198 Clouds 3 1000 81 10000 11.32 320 23:38 26.11.2021
5199 Clouds 3 999 81 10000 12.35 310 22:25 26.11.2021
5200 Clouds 2 999 87 10000 11.32 300 21:38 26.11.2021
5201 Clouds 2 999 87 10000 11.32 300 21:18 26.11.2021
5202 Clouds 3 999 75 10000 11.83 300 20:30 26.11.2021
5203 Rain 3 999 75 10000 9.26 300 19:54 26.11.2021
5204 Clouds 3 999 75 10000 10.29 300 18:43 26.11.2021
5205 Rain 4 999 70 10000 10.8 310 17:24 26.11.2021
5206 Clouds 4 998 75 10000 9.26 300 17:24 26.11.2021
5207 Clouds 4 999 75 10000 10.8 310 16:29 26.11.2021
5208 Clouds 7 999 78 10000 5.81 300 13:37 26.11.2021
5209 Clouds 7 1000 77 10000 5.81 300 12:55 26.11.2021
5210 Clouds 7 1000 79 10000 6.26 288 10:42 26.11.2021
5211 Clouds 7 999 82 10000 6.71 284 09:29 26.11.2021
5212 Clouds 8 1000 86 10000 4.92 276 08:47 26.11.2021
5213 Clouds 8 1000 84 10000 5.36 303 08:19 26.11.2021
5214 Clouds 8 1000 92 7000 5.36 252 06:29 26.11.2021
5215 Drizzle 8 1002 90 10000 5.81 277 04:52 26.11.2021
5216 Clouds 8 1005 90 10000 6.26 272 03:32 26.11.2021
5217 Clouds 6 1012 84 10000 4.92 245 23:29 25.11.2021
5218 Clouds 5 1015 84 10000 4.47 221 21:58 25.11.2021
5219 Clouds 5 1017 86 10000 4.47 281 20:41 25.11.2021
5220 Clouds 5 1019 85 10000 4.92 273 19:21 25.11.2021
5221 Clouds 5 1021 83 10000 4.02 269 18:19 25.11.2021
5222 Clouds 5 1021 84 10000 3.13 257 17:27 25.11.2021
5223 Clouds 5 1021 82 10000 3.58 259 16:41 25.11.2021
5224 Clouds 6 1022 78 10000 4.02 323 15:58 25.11.2021
5225 Clouds 7 1022 79 10000 4.02 325 14:24 25.11.2021
5226 Clouds 5 1023 82 10000 2.68 252 12:55 25.11.2021
5227 Clouds 4 1024 85 10000 4.02 273 11:55 25.11.2021
5228 Clouds 2 1024 87 10000 2.68 279 10:34 25.11.2021
5229 Clouds 2 1023 91 10000 3.13 298 06:36 25.11.2021
5230 Clouds 2 1022 90 10000 1.79 286 02:56 25.11.2021
5231 Clouds 2 1021 89 10000 2.68 235 23:40 24.11.2021
5232 Clouds 3 1020 87 10000 2.68 275 22:29 24.11.2021
5233 Clouds 3 1020 90 10000 2.68 254 21:48 24.11.2021
5234 Clouds 3 1020 88 10000 2.24 265 21:21 24.11.2021
5235 Clouds 4 1019 87 10000 2.24 257 20:26 24.11.2021
5236 Clouds 4 1019 88 10000 2.24 234 19:20 24.11.2021
5237 Clouds 5 1019 85 10000 1.79 265 18:18 24.11.2021
5238 Clouds 7 1018 87 10000 3.13 300 16:21 24.11.2021
5239 Clouds 7 1018 90 10000 3.58 295 14:57 24.11.2021
5240 Rain 7 1019 90 10000 3.13 261 14:21 24.11.2021
5241 Rain 7 1020 92 10000 2.24 265 13:34 24.11.2021
5242 Drizzle 7 1020 92 3000 3.13 231 11:26 24.11.2021
5243 Drizzle 7 1020 90 3000 3.13 282 10:55 24.11.2021
5244 Clouds 7 1020 89 10000 3.13 255 10:35 24.11.2021
5245 Clouds 7 1021 88 10000 3.13 257 09:29 24.11.2021
5246 Clouds 6 1023 85 10000 3.13 279 07:39 24.11.2021
5247 Clouds 5 1024 87 10000 2.68 275 05:38 24.11.2021
5248 Clouds 4 1027 87 10000 2.24 227 03:32 24.11.2021
5249 Clouds 6 1030 90 10000 2.24 270 23:33 23.11.2021
5250 Clouds 6 1031 91 10000 1.79 270 22:38 23.11.2021
5251 Drizzle 6 1032 90 10000 0.89 231 21:45 23.11.2021
5252 Clouds 6 1032 89 10000 2.68 279 20:22 23.11.2021
5253 Clouds 6 1031 90 10000 2.68 246 19:33 23.11.2021
5254 Clouds 6 1032 85 10000 3.13 268 18:34 23.11.2021
5255 Clouds 6 1033 85 10000 2.68 296 17:31 23.11.2021
5256 Clouds 7 1032 84 10000 2.24 247 16:35 23.11.2021
5257 Clouds 7 1033 82 10000 2.68 275 15:27 23.11.2021
5258 Clouds 7 1033 82 10000 2.24 284 14:45 23.11.2021
5259 Clouds 7 1034 81 10000 1.34 274 13:20 23.11.2021
5260 Clouds 6 1034 89 10000 1.34 265 10:28 23.11.2021
5261 Clouds 6 1034 90 10000 0.89 290 09:47 23.11.2021
5262 Clouds 5 1034 89 10000 0.89 273 07:58 23.11.2021
5263 Clouds 5 1035 88 10000 1.34 270 04:53 23.11.2021
5264 Clouds 4 1036 90 10000 1.34 257 03:32 23.11.2021
5265 Clouds 3 1035 91 10000 1.34 243 23:38 22.11.2021
5266 Clouds 3 1035 90 10000 1.79 272 22:58 22.11.2021
5267 Clouds 3 1035 90 10000 1.34 247 22:30 22.11.2021
5268 Clouds 3 1035 90 10000 1.34 272 22:30 22.11.2021
5269 Clouds 3 1035 90 10000 1.34 242 21:44 22.11.2021
5270 Clouds 2 1036 91 10000 0.89 269 21:18 22.11.2021
5271 Clouds 3 1035 92 10000 1.34 244 20:26 22.11.2021
5272 Clouds 4 1035 91 10000 1.34 245 19:20 22.11.2021
5273 Clouds 4 1035 89 10000 0.89 235 18:40 22.11.2021
5274 Clouds 5 1034 88 10000 0.89 231 17:46 22.11.2021
5275 Clouds 8 1034 79 10000 1.79 301 16:30 22.11.2021
5276 Clouds 8 1035 78 10000 1.79 265 14:41 22.11.2021
5277 Clouds 6 1035 84 10000 1.34 269 12:48 22.11.2021
5278 Clouds 4 1035 91 10000 2.24 259 11:28 22.11.2021
5279 Clouds 2 1034 91 10000 0.45 265 10:19 22.11.2021
5280 Clouds 1 1033 94 10000 1.34 219 08:43 22.11.2021
5281 Clouds 2 1033 94 10000 2.57 320 07:33 22.11.2021
5282 Clouds 3 1031 91 10000 2.24 325 00:50 22.11.2021
5283 Clouds 4 1030 89 10000 1.79 285 23:19 21.11.2021
5284 Clouds 3 1030 90 10000 1.79 228 22:42 21.11.2021
5285 Clouds 5 1029 85 10000 1.34 249 20:44 21.11.2021
5286 Clouds 5 1029 84 10000 1.79 317 20:26 21.11.2021
5287 Clouds 6 1028 79 10000 2.24 340 18:49 21.11.2021
5288 Clouds 7 1027 73 10000 3.58 309 17:41 21.11.2021
5289 Clouds 7 1027 72 10000 3.58 293 17:19 21.11.2021
5290 Clouds 8 1026 70 10000 2.68 11 14:48 21.11.2021
5291 Clouds 8 1027 70 10000 3.58 342 14:18 21.11.2021
5292 Clouds 8 1026 74 10000 3.13 321 12:55 21.11.2021
5293 Clouds 7 1026 79 10000 3.58 319 12:19 21.11.2021
5294 Clouds 6 1026 85 10000 2.24 305 11:36 21.11.2021
5295 Clouds 4 1025 89 10000 1.79 275 10:19 21.11.2021
5296 Clouds 3 1025 88 10000 2.68 244 09:44 21.11.2021
5297 Clouds 3 1023 89 10000 2.24 272 08:31 21.11.2021
5298 Clouds 3 1023 89 10000 3.58 254 07:51 21.11.2021
5299 Clouds 3 1023 92 10000 3.13 265 06:26 21.11.2021
5300 Clouds 4 1023 88 10000 3.58 284 05:41 21.11.2021
5301 Clouds 4 1023 89 10000 2.24 229 03:21 21.11.2021
5302 Clouds 4 1023 89 10000 2.24 259 02:54 21.11.2021
5303 Clouds 5 1023 90 10000 1.79 277 01:25 21.11.2021
5304 Clouds 5 1023 89 10000 2.24 236 00:41 21.11.2021
5305 Clouds 7 1023 88 10000 2.68 269 22:30 20.11.2021
5306 Clouds 7 1022 87 10000 2.24 279 21:32 20.11.2021
5307 Clouds 8 1022 86 10000 2.68 265 19:56 20.11.2021
5308 Clouds 10 1021 86 10000 2.68 277 18:45 20.11.2021
5309 Clouds 10 1021 86 10000 3.13 338 18:23 20.11.2021
5310 Rain 10 1021 87 10000 2.68 300 17:22 20.11.2021
5311 Clouds 12 1021 89 10000 3.58 261 14:55 20.11.2021
5312 Drizzle 12 1021 85 10000 4.47 250 14:28 20.11.2021
5313 Clouds 12 1022 81 10000 5.36 285 13:46 20.11.2021
5314 Clouds 11 1023 82 10000 4.47 262 11:26 20.11.2021
5315 Drizzle 11 1024 79 10000 4.02 257 09:56 20.11.2021
5316 Clouds 11 1024 77 10000 2.68 221 08:35 20.11.2021
5317 Clouds 11 1025 76 10000 1.79 255 06:32 20.11.2021
5318 Clouds 11 1024 76 10000 3.13 214 05:18 20.11.2021
5319 Clouds 11 1024 76 10000 3.13 214 05:18 20.11.2021
5320 Clouds 11 1025 77 10000 2.68 207 04:49 20.11.2021
5321 Clouds 11 1025 79 10000 2.24 243 00:43 20.11.2021
5322 Clouds 11 1026 79 10000 1.79 249 23:57 19.11.2021
5323 Clouds 10 1027 77 10000 2.68 279 22:53 19.11.2021
5324 Clouds 10 1027 77 10000 3.13 225 21:28 19.11.2021
5325 Clouds 10 1027 78 10000 2.24 259 20:41 19.11.2021
5326 Clouds 10 1027 79 10000 2.24 187 20:23 19.11.2021
5327 Clouds 10 1027 80 10000 1.79 223 19:44 19.11.2021
5328 Clouds 11 1027 84 10000 2.68 221 18:46 19.11.2021
5329 Clouds 11 1027 87 10000 3.13 221 17:44 19.11.2021
5330 Drizzle 12 1027 85 10000 2.68 270 16:43 19.11.2021
5331 Drizzle 12 1027 85 10000 2.68 270 16:43 19.11.2021
5332 Clouds 12 1028 82 10000 3.13 265 15:21 19.11.2021
5333 Clouds 12 1029 85 10000 2.24 217 11:44 19.11.2021
5334 Clouds 12 1028 86 10000 3.58 254 10:25 19.11.2021
5335 Clouds 11 1028 90 10000 2.68 229 08:37 19.11.2021
5336 Clouds 11 1027 89 10000 2.68 238 06:29 19.11.2021
5337 Clouds 12 1027 87 10000 1.79 247 04:19 19.11.2021
5338 Clouds 13 1027 83 10000 3.58 225 23:54 18.11.2021
5339 Clouds 13 1027 82 10000 3.58 218 23:29 18.11.2021
5340 Clouds 13 1026 81 10000 3.58 241 21:21 18.11.2021
5341 Clouds 13 1027 81 10000 3.13 228 20:46 18.11.2021
5342 Clouds 13 1026 81 10000 4.02 225 20:23 18.11.2021
5343 Clouds 13 1026 82 10000 4.02 213 19:42 18.11.2021
5344 Clouds 13 1026 84 10000 4.02 254 18:38 18.11.2021
5345 Clouds 13 1026 85 10000 4.02 259 17:52 18.11.2021
5346 Clouds 13 1026 85 10000 4.02 234 17:31 18.11.2021
5347 Clouds 13 1025 85 10000 4.02 219 16:42 18.11.2021
5348 Clouds 14 1025 85 10000 4.92 255 15:23 18.11.2021
5349 Clouds 14 1026 85 7000 4.92 273 13:21 18.11.2021
5350 Clouds 13 1026 86 10000 5.36 263 11:45 18.11.2021
5351 Clouds 13 1026 88 10000 5.36 252 11:26 18.11.2021
5352 Drizzle 13 1025 89 10000 4.92 217 10:44 18.11.2021
5353 Drizzle 12 1025 92 6000 4.02 245 08:49 18.11.2021
5354 Drizzle 12 1024 93 6000 4.02 246 07:19 18.11.2021
5355 Drizzle 12 1023 90 8000 4.92 238 05:46 18.11.2021
5356 Clouds 11 1023 88 10000 4.92 244 01:27 18.11.2021
5357 Clouds 11 1023 88 10000 4.92 244 01:27 18.11.2021
5358 Clouds 11 1024 86 10000 4.92 248 23:46 17.11.2021
5359 Clouds 11 1023 85 10000 5.81 227 22:40 17.11.2021
5360 Clouds 11 1023 85 10000 4.92 227 22:20 17.11.2021
5361 Clouds 11 1023 83 10000 4.02 259 21:36 17.11.2021
5362 Clouds 11 1024 82 10000 3.58 178 20:18 17.11.2021
5363 Clouds 11 1023 79 10000 2.68 219 17:36 17.11.2021
5364 Clouds 11 1023 79 10000 2.68 220 16:45 17.11.2021
5365 Clouds 11 1023 76 10000 3.58 205 13:49 17.11.2021
5366 Clouds 11 1023 76 10000 4.92 265 12:38 17.11.2021
5367 Clouds 10 1023 78 10000 4.47 227 11:28 17.11.2021
5368 Clouds 9 1023 82 10000 3.13 232 09:58 17.11.2021
5369 Clouds 8 1022 82 10000 3.13 261 09:23 17.11.2021
5370 Clouds 8 1021 81 10000 4.47 232 07:41 17.11.2021
5371 Clouds 8 1020 83 10000 4.02 257 02:56 17.11.2021
5372 Clouds 9 1019 84 10000 3.58 246 00:42 17.11.2021
5373 Clouds 9 1019 84 10000 1.79 308 22:41 16.11.2021
5374 Clouds 11 1018 86 10000 3.58 267 20:20 16.11.2021
5375 Drizzle 11 1017 90 10000 4.02 294 19:57 16.11.2021
5376 Clouds 11 1016 88 8000 4.02 255 18:53 16.11.2021
5377 Clouds 11 1016 88 8000 3.13 244 18:29 16.11.2021
5378 Clouds 11 1015 85 10000 6.26 277 17:31 16.11.2021
5379 Clouds 11 1017 82 7000 4.92 216 16:31 16.11.2021
5380 Clouds 11 1016 82 10000 4.92 289 15:48 16.11.2021
5381 Clouds 11 1017 83 10000 3.58 259 13:49 16.11.2021
5382 Clouds 10 1019 82 10000 3.13 207 10:52 16.11.2021
5383 Clouds 10 1020 82 10000 3.58 219 09:44 16.11.2021
5384 Clouds 9 1020 81 10000 2.68 292 08:25 16.11.2021
5385 Clouds 8 1020 82 10000 0.89 265 07:31 16.11.2021
5386 Clouds 8 1024 87 10000 0.45 150 01:20 16.11.2021
5387 Clouds 8 1025 88 10000 0.45 265 22:48 15.11.2021
5388 Clouds 8 1026 88 10000 0.89 178 22:21 15.11.2021
5389 Clouds 8 1026 86 10000 1.79 178 21:52 15.11.2021
5390 Clouds 8 1026 88 10000 0.45 178 21:26 15.11.2021
5391 Clouds 9 1026 86 10000 0.89 217 19:41 15.11.2021
5392 Clouds 10 1026 85 10000 1.79 309 18:18 15.11.2021
5393 Clouds 11 1027 83 10000 2.24 258 16:19 15.11.2021
5394 Clouds 12 1026 83 10000 2.24 273 15:40 15.11.2021
5395 Clouds 12 1026 84 10000 2.24 279 15:20 15.11.2021
5396 Clouds 12 1027 87 10000 3.58 289 13:22 15.11.2021
5397 Clouds 11 1027 96 10000 0.89 291 10:57 15.11.2021
5398 Clouds 10 1026 98 10000 2.68 259 09:27 15.11.2021
5399 Clouds 11 1025 97 10000 1.79 298 07:45 15.11.2021
5400 Clouds 12 1024 96 4000 3.13 281 04:46 15.11.2021
5401 Fog 10 1025 96 500 1.54 280 23:37 14.11.2021
5402 Fog 10 1024 95 300 0.45 51 22:34 14.11.2021
5403 Clouds 12 1024 93 10000 0.45 239 19:53 14.11.2021
5404 Clouds 13 1023 93 10000 0.45 89 19:18 14.11.2021
5405 Clouds 13 1023 92 10000 0.45 296 18:54 14.11.2021
5406 Clouds 13 1023 91 10000 0.45 103 18:36 14.11.2021
5407 Clouds 14 1023 92 10000 1.54 0 18:18 14.11.2021
5408 Clouds 14 1023 92 10000 0.45 93 17:55 14.11.2021
5409 Clouds 14 1023 92 9000 0.45 34 17:37 14.11.2021
5410 Clouds 14 1023 92 9000 0.45 119 17:19 14.11.2021
5411 Clouds 14 1024 90 9000 2.06 140 16:45 14.11.2021
5412 Clouds 14 1023 89 9000 0.45 97 16:19 14.11.2021
5413 Clouds 15 1023 87 9000 1.34 41 15:22 14.11.2021
5414 Clouds 15 1023 88 8000 0.45 26 14:45 14.11.2021
5415 Clouds 15 1023 87 8000 0.89 9 14:26 14.11.2021
5416 Clouds 14 1023 89 8000 0.89 303 13:54 14.11.2021
5417 Clouds 14 1023 89 9000 0.89 309 13:35 14.11.2021
5418 Clouds 14 1023 89 10000 0.45 51 12:27 14.11.2021
5419 Clouds 13 1023 91 10000 0.45 303 11:41 14.11.2021
5420 Clouds 12 1023 94 10000 0.45 59 10:41 14.11.2021
5421 Fog 10 1024 95 2000 1.03 0 09:47 14.11.2021
5422 Clouds 11 1024 94 10000 0.51 0 08:53 14.11.2021
5423 Clouds 12 1021 95 10000 0.89 319 06:54 14.11.2021
5424 Clouds 12 1021 92 10000 0.45 137 23:34 13.11.2021
5425 Clouds 12 1020 93 10000 0.45 137 22:22 13.11.2021
5426 Clouds 12 1020 91 10000 0.45 309 21:50 13.11.2021
5427 Clouds 12 1020 89 10000 0.45 9 21:20 13.11.2021
5428 Clouds 12 1020 89 10000 2.06 230 19:38 13.11.2021
5429 Clouds 12 1020 89 10000 0.45 135 18:33 13.11.2021
5430 Clouds 12 1019 87 10000 0.45 137 17:50 13.11.2021
5431 Clouds 13 1018 86 10000 1.79 259 16:35 13.11.2021
5432 Clouds 12 1017 86 10000 3.13 252 14:57 13.11.2021
5433 Drizzle 12 1017 87 6000 2.24 265 14:19 13.11.2021
5434 Clouds 12 1017 89 10000 3.13 294 12:56 13.11.2021
5435 Clouds 12 1018 88 10000 2.68 265 12:20 13.11.2021
5436 Drizzle 11 1017 89 10000 3.13 269 11:28 13.11.2021
5437 Clouds 11 1018 90 10000 3.13 221 10:44 13.11.2021
5438 Clouds 10 1016 90 10000 2.24 262 09:53 13.11.2021
5439 Clouds 11 1017 90 10000 1.79 279 09:33 13.11.2021
5440 Clouds 11 1015 91 10000 3.13 269 08:56 13.11.2021
5441 Clouds 11 1016 91 10000 3.58 228 08:20 13.11.2021
5442 Clouds 10 1014 91 7000 4.92 255 04:43 13.11.2021
5443 Clouds 11 1014 89 10000 3.58 259 04:25 13.11.2021
5444 Clouds 11 1011 86 10000 5.36 305 00:38 13.11.2021
5445 Clouds 11 1010 84 10000 4.92 293 22:44 12.11.2021
5446 Clouds 12 1009 84 10000 4.02 281 21:32 12.11.2021
5447 Clouds 12 1008 83 10000 5.36 261 19:45 12.11.2021
5448 Clouds 12 1007 83 10000 4.92 267 19:27 12.11.2021
5449 Clouds 12 1006 80 10000 5.81 282 18:21 12.11.2021
5450 Clouds 13 1004 79 10000 6.26 263 16:20 12.11.2021
5451 Clouds 14 1003 83 10000 4.92 286 15:31 12.11.2021
5452 Clouds 12 1000 90 5000 4.92 202 11:32 12.11.2021
5453 Clouds 12 1000 89 4000 5.81 227 10:50 12.11.2021
5454 Clouds 11 1000 88 10000 6.71 211 09:36 12.11.2021
5455 Clouds 12 1000 83 10000 6.71 203 08:38 12.11.2021
5456 Clouds 13 1003 83 10000 3.58 182 02:25 12.11.2021
5457 Clouds 13 1005 83 10000 4.02 192 23:33 11.11.2021
5458 Clouds 14 1007 86 8000 4.47 199 22:30 11.11.2021
5459 Clouds 13 1008 90 10000 2.24 165 21:27 11.11.2021
5460 Clouds 13 1008 90 8000 2.68 93 20:38 11.11.2021
5461 Clouds 13 1009 84 10000 4.47 148 18:56 11.11.2021
5462 Drizzle 13 1011 86 10000 3.58 156 17:43 11.11.2021
5463 Clouds 13 1011 84 10000 4.47 186 16:40 11.11.2021
5464 Clouds 13 1015 85 10000 4.47 160 14:45 11.11.2021
5465 Clouds 14 1013 85 10000 5.81 198 14:26 11.11.2021
5466 Drizzle 14 1015 83 10000 4.02 161 13:37 11.11.2021
5467 Drizzle 14 1015 83 10000 4.02 161 13:37 11.11.2021
5468 Drizzle 14 1016 85 10000 1.34 142 12:48 11.11.2021
5469 Drizzle 12 1017 90 10000 3.13 105 10:35 11.11.2021
5470 Clouds 10 1018 88 10000 3.58 141 09:33 11.11.2021
5471 Clouds 8 1018 89 10000 0.89 93 07:38 11.11.2021
5472 Clouds 9 1021 85 10000 0.89 178 02:36 11.11.2021
5473 Clouds 9 1022 84 10000 0.89 171 22:59 10.11.2021
5474 Clouds 10 1021 83 10000 0.89 137 22:22 10.11.2021
5475 Clouds 10 1022 86 10000 1.54 170 21:18 10.11.2021
5476 Clouds 10 1021 86 10000 0.45 144 20:36 10.11.2021
5477 Clouds 10 1022 86 10000 0.89 185 19:46 10.11.2021
5478 Clouds 11 1021 84 10000 0.89 215 17:50 10.11.2021
5479 Clouds 11 1021 81 10000 1.34 221 16:33 10.11.2021
5480 Clouds 12 1022 82 10000 2.24 247 14:44 10.11.2021
5481 Clouds 12 1022 83 10000 1.79 247 13:40 10.11.2021
5482 Mist 11 1022 84 4000 1.34 270 12:44 10.11.2021
5483 Clouds 9 1022 94 10000 1.79 296 10:39 10.11.2021
5484 Clouds 8 1022 97 6000 0.45 126 08:45 10.11.2021
5485 Clouds 8 1021 94 10000 0.45 265 07:25 10.11.2021
5486 Clouds 9 1021 92 10000 1.34 271 06:26 10.11.2021
5487 Clouds 10 1020 91 10000 1.79 294 05:51 10.11.2021
5488 Rain 11 1019 85 10000 2.24 225 23:52 09.11.2021
5489 Rain 11 1019 84 10000 1.79 282 21:47 09.11.2021
5490 Clouds 11 1019 84 10000 0.89 280 20:31 09.11.2021
5491 Clouds 11 1018 83 10000 0.89 252 19:21 09.11.2021
5492 Clouds 12 1018 79 10000 1.79 272 17:31 09.11.2021
5493 Clouds 14 1017 79 10000 3.58 289 15:45 09.11.2021
5494 Clouds 14 1017 83 10000 3.58 223 14:29 09.11.2021
5495 Clouds 13 1018 91 10000 4.02 282 12:53 09.11.2021
5496 Drizzle 14 1018 93 7000 4.47 277 11:38 09.11.2021
5497 Drizzle 14 1016 93 7000 4.02 194 10:44 09.11.2021
5498 Drizzle 14 1016 92 10000 4.02 275 09:24 09.11.2021
5499 Drizzle 14 1015 91 10000 4.47 237 08:25 09.11.2021
5500 Drizzle 14 1015 85 10000 4.02 209 05:47 09.11.2021
5501 Clouds 14 1015 84 10000 4.92 223 02:22 09.11.2021
5502 Clouds 14 1015 86 10000 4.02 273 01:43 09.11.2021
5503 Clouds 14 1016 85 10000 4.02 221 23:36 08.11.2021
5504 Clouds 15 1016 85 10000 4.92 196 22:49 08.11.2021
5505 Clouds 14 1016 85 10000 4.47 182 21:55 08.11.2021
5506 Clouds 15 1016 85 10000 4.02 232 20:53 08.11.2021
5507 Clouds 15 1015 83 10000 5.36 223 19:49 08.11.2021
5508 Clouds 15 1015 82 10000 4.92 209 18:30 08.11.2021
5509 Clouds 16 1015 79 10000 4.02 232 16:22 08.11.2021
5510 Clouds 16 1016 79 10000 3.58 210 14:58 08.11.2021
5511 Clouds 16 1016 82 10000 4.47 241 14:38 08.11.2021
5512 Clouds 15 1017 85 10000 4.92 316 13:33 08.11.2021
5513 Drizzle 14 1017 91 10000 4.02 219 11:56 08.11.2021
5514 Drizzle 14 1017 93 10000 3.58 242 10:52 08.11.2021
5515 Drizzle 12 1018 96 3000 1.34 57 09:44 08.11.2021
5516 Clouds 12 1017 96 4000 0.89 19 08:54 08.11.2021
5517 Clouds 10 1018 96 10000 0.89 86 07:29 08.11.2021
5518 Drizzle 9 1020 91 10000 0.45 72 03:56 08.11.2021
5519 Drizzle 9 1020 90 10000 0.45 51 03:28 08.11.2021
5520 Clouds 6 1021 91 10000 0.45 149 23:46 07.11.2021
5521 Clouds 6 1021 88 10000 0.89 129 21:54 07.11.2021
5522 Clouds 7 1022 84 10000 1.79 243 21:20 07.11.2021
5523 Clouds 7 1022 87 10000 1.34 221 19:40 07.11.2021
5524 Clouds 9 1022 81 10000 0.89 275 18:22 07.11.2021
5525 Clouds 10 1022 77 10000 2.24 265 16:54 07.11.2021
5526 Clouds 11 1022 74 10000 3.58 233 15:48 07.11.2021
5527 Clouds 11 1022 73 10000 4.92 257 14:29 07.11.2021
5528 Clouds 11 1023 74 10000 4.47 269 13:35 07.11.2021
5529 Clouds 10 1022 78 10000 4.47 229 11:43 07.11.2021
5530 Clouds 8 1022 82 10000 4.47 284 09:52 07.11.2021
5531 Clouds 7 1021 83 10000 4.47 277 07:54 07.11.2021
5532 Clouds 8 1021 81 10000 4.47 252 02:38 07.11.2021
5533 Clouds 9 1020 83 10000 4.92 254 23:38 06.11.2021
5534 Clouds 9 1020 81 10000 3.58 271 22:48 06.11.2021
5535 Clouds 10 1019 82 10000 4.92 254 21:33 06.11.2021
5536 Clouds 10 1019 84 10000 4.92 248 20:50 06.11.2021
5537 Clouds 11 1018 78 10000 4.92 302 18:56 06.11.2021
5538 Clouds 14 1016 85 10000 7.15 310 16:47 06.11.2021
5539 Clouds 14 1016 85 10000 7.15 310 16:47 06.11.2021
5540 Clouds 14 1015 87 10000 7.15 300 16:47 06.11.2021
5541 Clouds 14 1015 87 10000 7.15 300 16:47 06.11.2021
5542 Clouds 14 1016 85 10000 7.15 310 16:47 06.11.2021
5543 Clouds 14 1014 91 3500 6.71 261 15:20 06.11.2021
5544 Clouds 13 1015 89 8000 7.15 196 13:38 06.11.2021
5545 Clouds 12 1016 84 10000 7.15 207 11:53 06.11.2021
5546 Clouds 11 1019 85 10000 6.26 213 09:25 06.11.2021
5547 Clouds 10 1021 86 10000 5.81 250 07:55 06.11.2021
5548 Clouds 10 1024 89 10000 2.68 309 02:36 06.11.2021
5549 Clouds 10 1025 90 10000 2.24 198 23:37 05.11.2021
5550 Clouds 10 1026 89 10000 3.13 231 22:34 05.11.2021
5551 Rain 10 1025 89 10000 2.68 223 21:50 05.11.2021
5552 Clouds 11 1026 89 10000 3.13 221 20:20 05.11.2021
5553 Clouds 10 1026 89 10000 3.13 272 19:48 05.11.2021
5554 Clouds 11 1026 87 10000 2.24 232 18:40 05.11.2021
5555 Clouds 11 1026 85 10000 2.24 235 17:28 05.11.2021
5556 Clouds 12 1026 84 10000 3.58 250 15:38 05.11.2021
5557 Clouds 11 1026 87 10000 3.58 196 13:37 05.11.2021
5558 Clouds 10 1026 87 10000 2.68 250 11:22 05.11.2021
5559 Clouds 8 1025 90 10000 3.13 250 08:40 05.11.2021
5560 Clouds 8 1025 90 10000 2.68 282 07:39 05.11.2021
5561 Clouds 8 1025 90 10000 2.24 272 05:32 05.11.2021
5562 Clouds 8 1024 87 10000 3.58 271 02:26 05.11.2021
5563 Clouds 8 1023 82 10000 2.68 262 00:51 05.11.2021
5564 Clouds 7 1024 85 10000 2.24 292 23:23 04.11.2021
5565 Clouds 8 1024 90 10000 2.68 296 22:19 04.11.2021
5566 Clouds 8 1023 91 10000 2.68 288 21:35 04.11.2021
5567 Clouds 8 1023 92 10000 3.13 271 20:41 04.11.2021
5568 Clouds 8 1023 93 10000 3.13 288 20:21 04.11.2021
5569 Clouds 8 1023 91 10000 2.68 265 19:44 04.11.2021
5570 Clouds 8 1022 85 8000 2.24 268 18:44 04.11.2021
5571 Clouds 9 1021 81 10000 3.13 297 17:54 04.11.2021
5572 Clouds 9 1021 76 10000 2.68 314 16:47 04.11.2021
5573 Clouds 10 1020 71 10000 3.58 297 14:38 04.11.2021
5574 Clouds 8 1018 78 10000 3.58 279 12:32 04.11.2021
5575 Clouds 6 1019 87 10000 3.13 265 09:37 04.11.2021
5576 Clouds 5 1019 88 10000 2.68 265 08:31 04.11.2021
5577 Clouds 5 1019 91 10000 2.24 234 07:34 04.11.2021
5578 Clouds 4 1017 93 10000 4.02 272 02:37 04.11.2021
5579 Clouds 6 1014 88 10000 2.24 265 22:50 03.11.2021
5580 Clouds 6 1014 87 10000 2.24 299 21:49 03.11.2021
5581 Clouds 6 1014 85 10000 2.68 248 21:30 03.11.2021
5582 Clouds 7 1013 86 10000 2.24 294 20:35 03.11.2021
5583 Clouds 7 1012 85 10000 2.68 267 19:58 03.11.2021
5584 Clouds 8 1011 83 10000 2.68 291 18:56 03.11.2021
5585 Clouds 8 1012 82 10000 2.68 207 18:23 03.11.2021
5586 Clouds 9 1011 79 10000 2.68 280 17:36 03.11.2021
5587 Clouds 9 1011 78 10000 3.13 309 16:26 03.11.2021
5588 Clouds 10 1009 75 10000 3.13 310 15:43 03.11.2021
5589 Clouds 10 1010 79 10000 4.02 269 13:57 03.11.2021
5590 Clouds 8 1008 87 10000 3.58 267 11:59 03.11.2021
5591 Clouds 8 1008 89 10000 3.58 298 11:25 03.11.2021
5592 Clouds 8 1008 91 10000 3.13 276 10:46 03.11.2021
5593 Clouds 5 1008 95 10000 2.68 283 09:30 03.11.2021
5594 Clouds 5 1007 97 10000 2.24 231 08:22 03.11.2021
5595 Clouds 5 1006 97 10000 3.58 275 07:39 03.11.2021
5596 Clouds 4 1005 95 10000 1.79 230 04:45 03.11.2021
5597 Clouds 5 1004 94 10000 2.24 280 02:28 03.11.2021
5598 Clouds 6 1003 94 10000 1.34 239 23:51 02.11.2021
5599 Clouds 6 1001 95 10000 2.24 232 22:35 02.11.2021
5600 Clouds 7 1001 95 10000 3.13 269 21:29 02.11.2021
5601 Clouds 7 1001 91 10000 1.79 290 20:33 02.11.2021
5602 Clouds 8 1000 89 10000 3.13 261 19:51 02.11.2021
5603 Clouds 8 999 88 10000 2.24 277 18:59 02.11.2021
5604 Clouds 8 999 87 10000 1.79 238 17:59 02.11.2021
5605 Clouds 9 999 84 10000 2.24 267 17:38 02.11.2021
5606 Clouds 10 999 79 10000 2.24 296 16:30 02.11.2021
5607 Clouds 10 998 86 10000 3.13 267 15:30 02.11.2021
5608 Clouds 8 998 87 10000 3.58 234 14:22 02.11.2021
5609 Clouds 8 998 90 10000 3.13 271 13:27 02.11.2021
5610 Fog 7 998 90 700 3.58 291 12:39 02.11.2021
5611 Clouds 7 998 89 10000 3.58 290 11:33 02.11.2021
5612 Fog 7 997 90 800 3.58 246 10:51 02.11.2021
5613 Fog 6 997 92 800 3.58 300 10:26 02.11.2021
5614 Clouds 5 996 93 10000 2.24 238 08:43 02.11.2021
5615 Clouds 5 995 91 10000 2.24 248 06:50 02.11.2021
5616 Clouds 5 995 89 10000 2.24 221 03:34 02.11.2021
5617 Clouds 6 996 87 10000 3.13 252 02:18 02.11.2021
5618 Clouds 6 995 86 10000 2.68 232 22:44 01.11.2021
5619 Clouds 7 995 87 10000 3.58 245 20:52 01.11.2021
5620 Clouds 7 994 87 10000 3.13 305 20:33 01.11.2021
5621 Clouds 7 994 87 10000 2.24 212 19:48 01.11.2021
5622 Clouds 7 994 87 10000 1.34 259 18:58 01.11.2021
5623 Rain 7 994 86 10000 3.58 280 18:20 01.11.2021
5624 Clouds 10 993 77 10000 3.13 211 17:19 01.11.2021
5625 Clouds 10 993 75 10000 4.47 279 16:43 01.11.2021
5626 Clouds 10 992 77 10000 4.02 262 15:46 01.11.2021
5627 Clouds 10 992 78 10000 4.47 261 15:20 01.11.2021
5628 Clouds 10 992 81 10000 4.47 245 14:41 01.11.2021
5629 Clouds 10 992 81 10000 4.47 277 14:19 01.11.2021
5630 Clouds 9 992 83 10000 4.92 277 13:18 01.11.2021
5631 Clouds 8 991 87 10000 4.02 234 11:56 01.11.2021
5632 Rain 8 990 90 10000 4.47 284 10:23 01.11.2021
5633 Rain 8 989 86 10000 5.81 272 08:43 01.11.2021
5634 Clouds 8 988 85 10000 5.81 292 07:47 01.11.2021
5635 Clouds 8 986 84 10000 6.26 270 03:58 01.11.2021
5636 Clouds 8 984 85 10000 6.26 271 03:39 01.11.2021
5637 Clouds 8 982 91 10000 6.26 298 23:58 31.10.2021
5638 Clouds 8 979 94 10000 4.47 261 21:31 31.10.2021
5639 Clouds 8 978 94 10000 4.47 232 20:24 31.10.2021
5640 Rain 9 976 92 10000 4.47 284 18:46 31.10.2021
5641 Rain 9 976 90 10000 2.24 265 18:23 31.10.2021
5642 Clouds 10 977 88 10000 3.13 309 16:48 31.10.2021
5643 Clouds 11 975 83 10000 3.58 282 15:18 31.10.2021
5644 Clouds 11 978 77 10000 3.58 190 12:58 31.10.2021
5645 Clouds 12 975 76 10000 2.24 153 12:25 31.10.2021
5646 Clouds 10 977 81 10000 1.34 76 10:51 31.10.2021
5647 Clouds 9 978 86 10000 1.34 119 09:26 31.10.2021
5648 Clouds 8 979 89 10000 0.45 97 08:47 31.10.2021
5649 Rain 10 981 89 10000 3.58 205 04:54 31.10.2021
5650 Clouds 9 991 82 10000 0.89 47 00:36 31.10.2021
5651 Clouds 8 992 83 10000 2.68 158 22:27 30.10.2021
5652 Clouds 8 993 83 10000 1.34 110 21:29 30.10.2021
5653 Clouds 10 994 78 10000 3.09 210 19:49 30.10.2021
5654 Clouds 11 992 73 10000 2.24 229 17:51 30.10.2021
5655 Clouds 12 991 75 10000 3.58 221 15:49 30.10.2021
5656 Clouds 11 991 78 10000 3.13 221 13:59 30.10.2021
5657 Clouds 11 991 79 10000 3.13 214 13:38 30.10.2021
5658 Clouds 11 990 80 10000 4.02 235 13:20 30.10.2021
5659 Clouds 9 990 84 10000 3.58 273 11:50 30.10.2021
5660 Clouds 8 989 86 10000 1.34 233 10:57 30.10.2021
5661 Clouds 7 989 92 10000 2.24 228 08:59 30.10.2021
5662 Clouds 7 990 92 10000 1.79 243 07:57 30.10.2021
5663 Clouds 7 989 92 10000 0.45 265 05:48 30.10.2021
5664 Clouds 9 987 90 10000 2.68 178 03:28 30.10.2021
5665 Rain 10 988 87 10000 0.89 76 23:21 29.10.2021
5666 Clouds 10 989 87 10000 2.68 173 22:35 29.10.2021
5667 Rain 10 992 84 10000 1.79 213 21:19 29.10.2021
5668 Rain 10 993 81 10000 2.68 220 20:33 29.10.2021
5669 Clouds 11 992 79 10000 1.79 175 19:30 29.10.2021
5670 Clouds 12 991 76 10000 2.24 178 17:48 29.10.2021
5671 Clouds 12 991 78 10000 3.13 167 15:50 29.10.2021
5672 Clouds 11 993 89 10000 1.79 202 13:19 29.10.2021
5673 Rain 9 990 95 10000 3.13 269 10:49 29.10.2021
5674 Rain 9 993 95 10000 2.24 276 10:31 29.10.2021
5675 Rain 11 995 96 10000 0.45 152 02:47 29.10.2021
5676 Clouds 11 995 94 10000 0.45 265 00:35 29.10.2021
5677 Clouds 12 996 89 10000 1.79 196 22:34 28.10.2021
5678 Clouds 12 997 90 10000 1.34 225 21:20 28.10.2021
5679 Clouds 12 994 90 7000 2.24 211 20:19 28.10.2021
5680 Clouds 14 995 86 10000 0.89 216 18:47 28.10.2021
5681 Clouds 15 994 86 10000 2.68 205 17:52 28.10.2021
5682 Clouds 15 994 89 8000 2.24 214 16:39 28.10.2021
5683 Clouds 14 995 95 10000 0.45 74 14:43 28.10.2021
5684 Clouds 13 996 96 10000 0.45 86 13:33 28.10.2021
5685 Rain 13 996 97 6000 1.34 70 12:50 28.10.2021
5686 Rain 13 997 97 8000 0.45 265 11:50 28.10.2021
5687 Rain 13 1000 97 10000 0.45 61 10:47 28.10.2021
5688 Drizzle 13 998 96 10000 1.34 32 09:37 28.10.2021
5689 Drizzle 13 999 96 8000 0.45 51 08:36 28.10.2021
5690 Drizzle 13 999 96 8000 0.45 162 07:41 28.10.2021
5691 Rain 15 1001 94 5000 0.89 108 03:51 28.10.2021
5692 Rain 16 1001 91 10000 4.92 180 22:57 27.10.2021
5693 Rain 16 1001 91 10000 4.92 194 22:26 27.10.2021
5694 Rain 16 1001 90 10000 6.26 156 21:32 27.10.2021
5695 Rain 16 1003 90 10000 4.47 202 20:46 27.10.2021
5696 Rain 16 1002 87 10000 3.13 169 19:48 27.10.2021
5697 Rain 16 1002 87 10000 5.81 184 18:56 27.10.2021
5698 Rain 16 1002 88 10000 4.92 207 18:36 27.10.2021
5699 Rain 17 1003 86 10000 6.26 229 16:25 27.10.2021
5700 Clouds 17 1003 84 10000 7.15 198 15:28 27.10.2021
5701 Clouds 17 1005 86 10000 5.36 199 14:28 27.10.2021
5702 Clouds 16 1006 86 10000 5.36 196 11:19 27.10.2021
5703 Rain 16 1005 90 10000 4.92 203 10:56 27.10.2021
5704 Rain 16 1005 91 10000 4.92 187 09:28 27.10.2021
5705 Clouds 16 1005 90 10000 6.26 194 07:51 27.10.2021
5706 Rain 15 1005 90 10000 5.36 175 06:34 27.10.2021
5707 Clouds 16 1006 78 10000 6.26 195 01:27 27.10.2021
5708 Clouds 16 1006 78 10000 4.02 215 00:55 27.10.2021
5709 Clouds 16 1007 78 10000 7.15 165 23:56 26.10.2021
5710 Clouds 16 1007 79 10000 6.71 219 22:55 26.10.2021
5711 Clouds 16 1007 80 10000 7.6 223 22:27 26.10.2021
5712 Clouds 16 1007 79 10000 7.6 232 21:51 26.10.2021
5713 Clouds 16 1007 80 10000 6.71 218 20:26 26.10.2021
5714 Clouds 16 1006 79 10000 6.71 201 19:25 26.10.2021
5715 Clouds 16 1007 79 10000 7.15 221 18:30 26.10.2021
5716 Clouds 17 1008 75 10000 8.05 158 15:53 26.10.2021
5717 Clouds 17 1008 78 10000 6.71 238 14:18 26.10.2021
5718 Clouds 15 1008 84 10000 5.36 198 11:31 26.10.2021
5719 Clouds 14 1008 87 10000 5.81 217 09:28 26.10.2021
5720 Clouds 13 1008 85 10000 6.26 211 07:23 26.10.2021
5721 Clouds 11 1012 80 10000 3.58 245 00:50 26.10.2021
5722 Clouds 10 1012 81 10000 2.68 208 23:48 25.10.2021
5723 Clouds 10 1012 82 10000 3.58 229 22:36 25.10.2021
5724 Clouds 10 1012 83 10000 2.68 271 21:48 25.10.2021
5725 Clouds 10 1012 84 10000 1.79 214 21:23 25.10.2021
5726 Clouds 10 1011 82 10000 1.79 243 19:45 25.10.2021
5727 Clouds 10 1011 81 10000 1.34 245 19:24 25.10.2021
5728 Clouds 11 1011 79 10000 2.24 214 18:50 25.10.2021
5729 Clouds 11 1010 80 10000 2.68 217 17:42 25.10.2021
5730 Clouds 13 1010 72 10000 3.58 221 15:31 25.10.2021
5731 Clouds 12 1011 76 10000 4.02 245 13:29 25.10.2021
5732 Clouds 10 1010 80 10000 4.47 232 11:25 25.10.2021
5733 Clouds 10 1008 82 10000 3.58 226 09:23 25.10.2021
5734 Clouds 10 1008 82 10000 4.02 228 07:26 25.10.2021
5735 Clouds 10 1008 83 10000 4.02 230 05:24 25.10.2021
5736 Clouds 11 1007 84 10000 4.02 221 00:52 25.10.2021
5737 Clouds 11 1008 84 10000 4.47 234 00:34 25.10.2021
5738 Clouds 11 1008 83 10000 3.13 202 00:34 25.10.2021
5739 Clouds 11 1008 83 10000 3.13 202 00:34 25.10.2021
5740 Clouds 12 1007 83 10000 3.58 209 23:44 24.10.2021
5741 Clouds 12 1007 83 10000 4.47 227 22:39 24.10.2021
5742 Clouds 12 1009 83 10000 4.02 209 22:20 24.10.2021
5743 Clouds 13 1009 82 10000 3.58 210 21:33 24.10.2021
5744 Clouds 13 1008 80 10000 3.58 189 20:42 24.10.2021
5745 Clouds 14 1006 77 10000 4.02 195 19:49 24.10.2021
5746 Clouds 14 1007 75 10000 3.58 229 18:30 24.10.2021
5747 Clouds 15 1007 71 10000 4.47 227 17:46 24.10.2021
5748 Clouds 16 1006 69 10000 4.47 241 15:57 24.10.2021
5749 Clouds 16 1006 68 10000 5.36 214 15:19 24.10.2021
5750 Clouds 15 1007 74 10000 4.47 196 13:23 24.10.2021
5751 Clouds 15 1007 78 10000 4.02 223 12:26 24.10.2021
5752 Clouds 14 1007 84 10000 4.92 205 11:36 24.10.2021
5753 Clouds 13 1009 87 10000 2.24 230 10:38 24.10.2021
5754 Clouds 13 1009 87 10000 2.24 230 10:38 24.10.2021
5755 Clouds 12 1007 91 10000 2.24 225 08:39 24.10.2021
5756 Rain 13 1009 82 10000 4.92 198 01:53 24.10.2021
5757 Rain 13 1010 81 10000 5.36 200 23:51 23.10.2021
5758 Rain 13 1010 81 10000 3.13 226 22:40 23.10.2021
5759 Clouds 13 1014 79 10000 4.02 156 20:43 23.10.2021
5760 Clouds 13 1012 79 10000 6.26 144 19:26 23.10.2021
5761 Clouds 13 1014 79 10000 5.81 165 18:43 23.10.2021
5762 Clouds 13 1013 79 10000 1.34 252 17:44 23.10.2021
5763 Clouds 13 1013 78 10000 4.02 210 16:53 23.10.2021
5764 Clouds 14 1016 76 10000 1.79 184 15:20 23.10.2021
5765 Clouds 14 1015 73 10000 1.79 111 13:18 23.10.2021
5766 Clouds 10 1021 82 10000 2.24 194 00:36 23.10.2021
5767 Clouds 10 1022 84 10000 2.24 198 23:28 22.10.2021
5768 Clouds 10 1022 82 10000 2.24 249 20:56 22.10.2021
5769 Clouds 11 1021 82 10000 2.68 219 19:24 22.10.2021
5770 Clouds 12 1021 79 10000 1.79 191 18:20 22.10.2021
5771 Clouds 12 1021 76 10000 2.24 222 16:18 22.10.2021
5772 Clouds 12 1022 78 10000 1.79 203 14:31 22.10.2021
5773 Clouds 11 1019 84 10000 4.47 271 12:41 22.10.2021
5774 Clouds 11 1019 84 10000 4.47 271 12:41 22.10.2021
5775 Clouds 9 1019 87 5000 4.02 214 10:52 22.10.2021
5776 Clouds 9 1019 90 8000 4.92 270 09:57 22.10.2021
5777 Clouds 9 1018 90 10000 4.47 277 09:32 22.10.2021
5778 Clouds 9 1017 88 8000 4.47 291 07:28 22.10.2021
5779 Clouds 9 1017 86 10000 4.02 175 06:19 22.10.2021
5780 Clouds 8 1018 75 10000 3.13 265 00:37 22.10.2021
5781 Clouds 7 1019 79 10000 3.58 262 23:48 21.10.2021
5782 Clouds 7 1017 83 10000 4.02 225 22:22 21.10.2021
5783 Clouds 8 1017 82 10000 2.68 221 21:19 21.10.2021
5784 Clouds 9 1016 79 10000 3.58 262 20:21 21.10.2021
5785 Clouds 9 1017 78 10000 4.02 265 19:30 21.10.2021
5786 Clouds 9 1017 78 10000 4.02 265 19:30 21.10.2021
5787 Clouds 10 1016 77 10000 3.13 275 18:52 21.10.2021
5788 Clouds 10 1015 75 10000 3.13 261 18:27 21.10.2021
5789 Clouds 10 1017 76 10000 3.58 281 17:42 21.10.2021
5790 Clouds 11 1016 66 10000 3.13 282 16:20 21.10.2021
5791 Clouds 11 1015 66 10000 3.13 291 15:21 21.10.2021
5792 Clouds 11 1015 67 10000 4.02 295 14:49 21.10.2021
5793 Clouds 10 1015 72 10000 4.02 301 13:27 21.10.2021
5794 Clouds 7 1013 80 10000 3.58 275 11:35 21.10.2021
5795 Clouds 4 1009 87 10000 3.13 270 09:23 21.10.2021
5796 Clouds 5 1007 87 10000 2.68 306 07:31 21.10.2021
5797 Clouds 6 1003 82 10000 3.58 281 05:33 21.10.2021
5798 Clouds 8 995 82 10000 4.92 261 23:56 20.10.2021
5799 Clouds 9 995 81 10000 4.02 241 22:21 20.10.2021
5800 Clouds 9 995 81 10000 3.58 279 21:45 20.10.2021
5801 Clouds 9 995 83 10000 3.13 257 20:57 20.10.2021
5802 Clouds 9 995 82 10000 1.79 267 20:36 20.10.2021
5803 Clouds 9 995 83 10000 1.34 229 19:59 20.10.2021
5804 Clouds 10 995 79 10000 1.34 226 18:59 20.10.2021
5805 Clouds 12 995 71 10000 2.68 269 17:54 20.10.2021
5806 Clouds 12 995 75 10000 3.13 295 15:47 20.10.2021
5807 Rain 10 997 93 8000 1.34 286 12:33 20.10.2021
5808 Clouds 10 997 95 8000 0.45 283 09:19 20.10.2021
5809 Clouds 10 999 87 10000 0.45 153 05:23 20.10.2021
5810 Clouds 13 1001 84 10000 2.68 221 00:48 20.10.2021
5811 Clouds 13 1001 83 10000 3.13 259 00:22 20.10.2021
5812 Clouds 15 999 77 10000 3.13 287 21:45 19.10.2021
5813 Clouds 16 999 78 10000 4.47 257 20:56 19.10.2021
5814 Clouds 17 999 79 10000 5.36 241 20:25 19.10.2021
5815 Clouds 17 998 77 10000 6.26 230 19:44 19.10.2021
5816 Clouds 17 998 78 10000 6.71 196 19:21 19.10.2021
5817 Clouds 18 998 79 10000 5.81 217 17:59 19.10.2021
5818 Clouds 19 999 83 10000 5.36 213 15:57 19.10.2021
5819 Drizzle 19 1000 84 10000 4.92 210 15:20 19.10.2021
5820 Clouds 19 1000 84 10000 7.15 203 14:27 19.10.2021
5821 Clouds 19 1001 84 10000 5.36 215 13:36 19.10.2021
5822 Clouds 18 1001 89 10000 4.02 302 11:37 19.10.2021
5823 Rain 15 1003 95 10000 1.34 137 10:39 19.10.2021
5824 Clouds 15 1002 96 8000 1.79 123 08:58 19.10.2021
5825 Clouds 15 1003 94 7000 1.34 67 07:50 19.10.2021
5826 Clouds 15 1008 90 10000 0.45 178 00:27 19.10.2021
5827 Clouds 15 1008 90 10000 0.45 208 23:56 18.10.2021
5828 Clouds 15 1008 90 10000 0.45 108 23:20 18.10.2021
5829 Clouds 16 1008 88 10000 0.45 329 22:54 18.10.2021
5830 Clouds 16 1008 87 10000 0.45 61 21:54 18.10.2021
5831 Clouds 17 1007 88 10000 1.79 185 20:42 18.10.2021
5832 Clouds 17 1007 86 10000 1.79 244 20:19 18.10.2021
5833 Clouds 18 1007 85 10000 2.24 221 19:30 18.10.2021
5834 Clouds 18 1005 85 10000 2.24 229 18:58 18.10.2021
5835 Clouds 19 1005 79 10000 4.92 226 15:56 18.10.2021
5836 Clouds 18 1006 84 10000 1.34 15 14:28 18.10.2021
5837 Clouds 17 1005 83 10000 1.79 103 10:55 18.10.2021
5838 Clouds 16 1005 87 10000 1.34 128 09:31 18.10.2021
5839 Clouds 15 1009 85 10000 1.79 96 05:32 18.10.2021
5840 Clouds 16 1012 84 10000 2.68 148 23:45 17.10.2021
5841 Clouds 14 1011 90 10000 1.34 168 21:58 17.10.2021
5842 Clouds 14 1011 90 10000 0.89 190 21:40 17.10.2021
5843 Clouds 14 1012 89 10000 0.89 102 20:40 17.10.2021
5844 Clouds 15 1011 88 10000 0.45 273 19:43 17.10.2021
5845 Clouds 15 1011 87 10000 0.45 68 19:24 17.10.2021
5846 Clouds 17 1011 81 10000 2.68 234 17:47 17.10.2021
5847 Clouds 17 1011 81 10000 3.13 201 15:54 17.10.2021
5848 Clouds 17 1011 81 10000 3.13 275 14:32 17.10.2021
5849 Clouds 17 1010 81 10000 3.13 261 13:56 17.10.2021
5850 Clouds 17 1010 82 10000 4.02 182 12:35 17.10.2021
5851 Clouds 16 1010 90 10000 3.13 265 10:44 17.10.2021
5852 Clouds 15 1009 92 10000 2.68 232 09:43 17.10.2021
5853 Clouds 15 1009 89 10000 3.58 208 07:42 17.10.2021
5854 Clouds 14 1010 87 10000 1.79 59 00:56 17.10.2021
5855 Clouds 13 1010 87 7000 1.34 265 00:24 17.10.2021
5856 Rain 13 1012 90 7000 1.79 10 22:31 16.10.2021
5857 Rain 14 1012 84 10000 0.89 111 20:35 16.10.2021
5858 Rain 15 1013 79 10000 0.89 344 19:55 16.10.2021
5859 Clouds 15 1013 77 10000 1.34 167 19:37 16.10.2021
5860 Clouds 15 1014 77 10000 2.68 131 19:18 16.10.2021
5861 Clouds 14 1012 79 10000 2.24 133 18:42 16.10.2021
5862 Clouds 15 1013 80 10000 5.14 200 18:19 16.10.2021
5863 Clouds 15 1013 76 10000 2.24 144 17:28 16.10.2021
5864 Clouds 15 1015 79 10000 2.68 115 15:38 16.10.2021
5865 Clouds 14 1016 78 10000 3.58 205 12:30 16.10.2021
5866 Clouds 12 1017 87 10000 1.03 0 10:48 16.10.2021
5867 Clouds 10 1018 93 10000 0.45 127 08:32 16.10.2021
5868 Clouds 11 1020 95 10000 1.03 0 01:26 16.10.2021
5869 Drizzle 11 1020 93 10000 0.45 98 23:57 15.10.2021
5870 Drizzle 11 1020 92 10000 0.45 111 23:24 15.10.2021
5871 Clouds 11 1020 87 10000 0.45 203 22:20 15.10.2021
5872 Clouds 11 1020 86 10000 0.89 178 21:32 15.10.2021
5873 Clouds 11 1020 82 10000 0.45 250 20:50 15.10.2021
5874 Clouds 11 1020 79 10000 0.89 171 19:38 15.10.2021
5875 Clouds 12 1021 76 10000 0.89 127 18:45 15.10.2021
5876 Clouds 12 1020 73 10000 1.79 129 17:58 15.10.2021
5877 Clouds 13 1021 66 10000 1.34 51 15:37 15.10.2021
5878 Clouds 13 1021 69 10000 1.79 80 13:34 15.10.2021
5879 Clouds 11 1021 80 10000 1.34 48 11:46 15.10.2021
5880 Clouds 9 1021 86 10000 0.45 232 10:58 15.10.2021
5881 Clouds 8 1021 88 10000 0.45 241 10:19 15.10.2021
5882 Clouds 10 1020 90 10000 0.89 36 06:47 15.10.2021
5883 Clouds 12 1018 92 7000 2.68 268 02:21 15.10.2021
5884 Clouds 13 1017 85 10000 4.47 257 00:22 15.10.2021
5885 Clouds 13 1017 85 10000 3.58 221 22:52 14.10.2021
5886 Clouds 13 1018 83 10000 2.68 272 21:45 14.10.2021
5887 Clouds 14 1017 82 10000 3.13 219 20:50 14.10.2021
5888 Clouds 14 1018 82 10000 3.13 254 20:19 14.10.2021
5889 Clouds 14 1018 79 10000 2.68 232 19:40 14.10.2021
5890 Clouds 15 1018 75 10000 3.58 236 17:39 14.10.2021
5891 Clouds 14 1018 73 10000 3.58 219 16:56 14.10.2021
5892 Clouds 15 1019 72 10000 4.02 191 16:21 14.10.2021
5893 Clouds 14 1020 73 10000 3.58 252 14:43 14.10.2021
5894 Clouds 14 1020 76 10000 3.58 290 14:22 14.10.2021
5895 Clouds 13 1021 82 10000 2.24 254 11:50 14.10.2021
5896 Clouds 12 1022 85 10000 2.24 252 09:57 14.10.2021
5897 Clouds 11 1023 81 10000 2.68 240 07:37 14.10.2021
5898 Clouds 10 1025 87 10000 0.45 227 02:41 14.10.2021
5899 Clouds 10 1026 88 10000 0.45 165 00:29 14.10.2021
5900 Clouds 10 1026 86 10000 0.45 217 22:29 13.10.2021
5901 Clouds 11 1027 84 10000 1.34 210 21:33 13.10.2021
5902 Clouds 12 1026 80 10000 0.89 238 20:22 13.10.2021
5903 Clouds 13 1026 80 10000 1.34 284 18:59 13.10.2021
5904 Clouds 13 1026 80 10000 2.24 305 18:36 13.10.2021
5905 Clouds 13 1028 81 10000 4.63 270 15:32 13.10.2021
5906 Clouds 12 1028 81 10000 3.6 250 14:46 13.10.2021
5907 Clouds 12 1029 87 10000 3.6 250 14:22 13.10.2021
5908 Drizzle 12 1028 87 10000 2.68 279 12:23 13.10.2021
5909 Drizzle 12 1028 88 10000 2.24 261 11:35 13.10.2021
5910 Clouds 12 1027 90 10000 1.79 254 08:48 13.10.2021
5911 Clouds 12 1027 89 10000 1.34 282 07:36 13.10.2021
5912 Clouds 13 1027 90 10000 1.79 257 02:29 13.10.2021
5913 Clouds 13 1027 91 10000 2.24 265 01:47 13.10.2021
5914 Clouds 13 1027 88 10000 2.24 252 23:31 12.10.2021
5915 Clouds 13 1027 88 10000 2.24 252 23:31 12.10.2021
5916 Clouds 13 1027 90 10000 2.68 286 22:47 12.10.2021
5917 Clouds 13 1027 90 10000 2.24 250 22:23 12.10.2021
5918 Clouds 13 1027 87 10000 2.68 250 20:46 12.10.2021
5919 Clouds 13 1027 88 10000 2.68 286 20:18 12.10.2021
5920 Clouds 14 1027 84 10000 3.13 265 18:45 12.10.2021
5921 Clouds 15 1027 82 10000 3.13 280 17:57 12.10.2021
5922 Clouds 15 1027 82 10000 3.13 221 16:44 12.10.2021
5923 Clouds 15 1027 83 10000 3.13 243 15:58 12.10.2021
5924 Clouds 14 1027 83 10000 3.13 270 14:46 12.10.2021
5925 Clouds 13 1028 86 10000 3.13 286 13:44 12.10.2021
5926 Clouds 13 1028 85 10000 4.02 297 12:40 12.10.2021
5927 Clouds 11 1027 90 10000 3.13 252 10:20 12.10.2021
5928 Clouds 11 1027 90 10000 3.58 254 08:44 12.10.2021
5929 Clouds 10 1028 90 10000 2.68 268 07:54 12.10.2021
5930 Clouds 10 1029 91 10000 2.24 278 05:31 12.10.2021
5931 Clouds 10 1029 91 10000 2.24 277 04:33 12.10.2021
5932 Clouds 11 1030 88 10000 1.79 271 00:28 12.10.2021
5933 Clouds 11 1030 88 10000 2.24 249 23:41 11.10.2021
5934 Clouds 11 1030 88 10000 1.79 243 22:58 11.10.2021
5935 Clouds 11 1030 89 10000 1.34 279 21:46 11.10.2021
5936 Clouds 11 1031 89 10000 1.34 306 21:46 11.10.2021
5937 Clouds 11 1031 89 10000 0.89 252 21:18 11.10.2021
5938 Clouds 12 1031 82 10000 0.45 269 19:46 11.10.2021
5939 Clouds 14 1030 74 10000 2.68 270 18:43 11.10.2021
5940 Clouds 15 1031 73 10000 2.68 267 17:54 11.10.2021
5941 Clouds 15 1031 73 10000 3.13 269 16:39 11.10.2021
5942 Clouds 15 1032 77 10000 2.68 297 15:51 11.10.2021
5943 Clouds 14 1032 77 10000 3.13 252 15:23 11.10.2021
5944 Clouds 14 1032 75 10000 2.24 245 14:42 11.10.2021
5945 Clouds 14 1033 77 10000 0.45 203 13:37 11.10.2021
5946 Clouds 11 1033 90 6000 1.34 232 11:52 11.10.2021
5947 Fog 9 1033 94 2000 1.34 303 10:43 11.10.2021
5948 Fog 8 1033 94 10000 1.34 250 09:37 11.10.2021
5949 Clouds 7 1032 95 10000 1.79 273 07:29 11.10.2021
5950 Clouds 8 1033 90 10000 1.79 261 01:41 11.10.2021
5951 Clouds 9 1033 90 10000 1.34 242 00:50 11.10.2021
5952 Clouds 8 1032 91 10000 0.89 243 00:28 11.10.2021
5953 Clouds 10 1032 87 10000 1.34 265 21:57 10.10.2021
5954 Clouds 11 1032 84 10000 1.34 309 21:32 10.10.2021
5955 Clouds 11 1032 84 10000 1.34 261 20:47 10.10.2021
5956 Clouds 12 1032 78 10000 1.34 259 20:21 10.10.2021
5957 Clouds 13 1032 77 10000 2.24 295 19:59 10.10.2021
5958 Clouds 13 1031 76 10000 2.68 269 19:36 10.10.2021
5959 Clouds 15 1032 72 10000 2.68 317 18:36 10.10.2021
5960 Clouds 15 1032 70 10000 2.68 311 16:46 10.10.2021
5961 Clouds 15 1033 74 10000 3.58 293 15:46 10.10.2021
5962 Clouds 13 1033 85 10000 3.13 279 13:57 10.10.2021
5963 Clouds 13 1033 85 10000 3.13 267 13:33 10.10.2021
5964 Clouds 12 1033 89 10000 3.13 296 12:35 10.10.2021
5965 Fog 10 1032 96 600 3.13 261 10:43 10.10.2021
5966 Fog 9 1032 98 500 2.68 261 09:30 10.10.2021
5967 Fog 9 1031 98 800 2.68 265 08:53 10.10.2021
5968 Mist 10 1031 95 1500 2.24 266 07:28 10.10.2021
5969 Clouds 11 1031 93 10000 0.89 243 02:45 10.10.2021
5970 Clouds 11 1030 92 10000 1.34 254 00:57 10.10.2021
5971 Fog 11 1030 92 3500 1.34 259 00:23 10.10.2021
5972 Clouds 12 1030 90 10000 0.89 247 22:52 09.10.2021
5973 Clouds 13 1029 89 10000 0.89 247 21:45 09.10.2021
5974 Clouds 14 1029 88 10000 1.34 249 21:26 09.10.2021
5975 Clouds 16 1028 84 10000 1.79 305 19:44 09.10.2021
5976 Clouds 17 1027 83 10000 2.24 259 18:59 09.10.2021
5977 Clouds 17 1028 82 10000 1.79 286 18:33 09.10.2021
5978 Clouds 17 1027 85 10000 2.68 247 16:43 09.10.2021
5979 Clouds 18 1027 83 10000 3.13 251 15:33 09.10.2021
5980 Clouds 16 1027 85 10000 3.13 255 13:44 09.10.2021
5981 Clouds 16 1026 88 10000 2.68 185 12:40 09.10.2021
5982 Clouds 15 1026 89 10000 3.13 216 11:48 09.10.2021
5983 Drizzle 14 1025 91 10000 0.89 59 10:42 09.10.2021
5984 Clouds 14 1025 91 10000 2.24 309 09:40 09.10.2021
5985 Clouds 14 1025 89 10000 0.45 291 08:30 09.10.2021
5986 Rain 14 1025 88 10000 1.34 93 07:47 09.10.2021
5987 Rain 16 1024 80 10000 3.58 164 05:29 09.10.2021
5988 Clouds 16 1025 81 10000 6.26 171 02:59 09.10.2021
5989 Clouds 16 1025 79 10000 6.26 144 02:39 09.10.2021
5990 Clouds 16 1025 88 10000 2.68 165 23:41 08.10.2021
5991 Clouds 16 1026 87 10000 0.89 14 22:54 08.10.2021
5992 Clouds 16 1025 88 10000 0.89 151 22:23 08.10.2021
5993 Clouds 16 1025 85 10000 1.79 71 20:53 08.10.2021
5994 Clouds 18 1025 76 10000 3.13 206 18:54 08.10.2021
5995 Clouds 18 1025 75 10000 1.79 135 17:34 08.10.2021
5996 Clouds 19 1024 72 10000 2.68 131 16:51 08.10.2021
5997 Clouds 19 1024 73 10000 3.13 128 16:23 08.10.2021
5998 Clouds 18 1025 73 10000 3.13 117 13:57 08.10.2021
5999 Clouds 18 1025 77 10000 3.58 229 12:48 08.10.2021
6000 Clouds 16 1024 81 10000 1.79 203 11:31 08.10.2021
6001 Clouds 16 1024 85 10000 3.58 209 10:40 08.10.2021
6002 Clouds 16 1023 88 10000 1.34 196 08:27 08.10.2021
6003 Clouds 17 1020 86 10000 2.68 212 23:55 07.10.2021
6004 Clouds 17 1020 87 10000 2.68 250 23:18 07.10.2021
6005 Clouds 17 1020 87 10000 0.89 286 21:45 07.10.2021
6006 Clouds 17 1019 86 10000 2.24 301 21:20 07.10.2021
6007 Clouds 18 1020 84 10000 1.34 265 19:57 07.10.2021
6008 Clouds 18 1019 82 10000 1.79 265 19:28 07.10.2021
6009 Clouds 18 1018 82 10000 3.58 228 18:22 07.10.2021
6010 Drizzle 19 1019 81 10000 4.02 178 17:18 07.10.2021
6011 Clouds 20 1018 82 10000 4.47 207 15:24 07.10.2021
6012 Clouds 20 1017 82 10000 3.58 223 13:47 07.10.2021
6013 Clouds 20 1017 82 10000 3.58 255 13:28 07.10.2021
6014 Clouds 19 1017 84 10000 2.68 160 12:39 07.10.2021
6015 Clouds 18 1018 88 10000 1.79 141 10:49 07.10.2021
6016 Clouds 17 1016 89 10000 2.24 121 10:19 07.10.2021
6017 Clouds 17 1016 89 10000 2.24 48 08:56 07.10.2021
6018 Rain 18 1016 87 10000 3.13 146 08:35 07.10.2021
6019 Clouds 18 1016 88 10000 2.68 236 07:42 07.10.2021
6020 Clouds 17 1016 88 10000 4.02 221 06:57 07.10.2021
6021 Clouds 17 1016 86 10000 4.02 161 02:23 07.10.2021
6022 Clouds 17 1016 85 10000 4.47 214 23:40 06.10.2021
6023 Clouds 17 1016 86 10000 4.47 193 22:46 06.10.2021
6024 Clouds 16 1016 88 10000 4.02 190 21:49 06.10.2021
6025 Clouds 16 1016 88 10000 2.68 203 20:35 06.10.2021
6026 Clouds 16 1016 88 10000 3.13 196 19:46 06.10.2021
6027 Clouds 16 1016 87 10000 3.58 243 18:34 06.10.2021
6028 Clouds 14 1015 91 10000 1.34 17 16:54 06.10.2021
6029 Clouds 13 1017 90 4000 0.45 15 15:26 06.10.2021
6030 Drizzle 13 1017 79 10000 1.34 76 13:54 06.10.2021
6031 Clouds 14 1017 76 10000 3.13 229 12:57 06.10.2021
6032 Clouds 13 1017 78 10000 3.13 247 12:39 06.10.2021
6033 Clouds 13 1018 81 10000 3.09 190 12:20 06.10.2021
6034 Clouds 10 1018 92 10000 0.45 51 09:58 06.10.2021
6035 Clouds 10 1018 92 10000 0.45 309 09:38 06.10.2021
6036 Clouds 9 1017 92 10000 0.89 212 08:42 06.10.2021
6037 Clouds 9 1017 92 10000 0.89 228 06:48 06.10.2021
6038 Clouds 9 1017 90 10000 3.6 260 05:26 06.10.2021
6039 Clouds 9 1014 87 10000 4.47 252 00:26 06.10.2021
6040 Clouds 9 1014 86 10000 4.02 265 23:52 05.10.2021
6041 Clouds 9 1014 86 10000 3.58 239 23:52 05.10.2021
6042 Clouds 9 1014 87 10000 4.47 269 23:32 05.10.2021
6043 Clouds 10 1013 86 10000 4.02 273 22:44 05.10.2021
6044 Clouds 10 1013 83 10000 3.58 269 21:58 05.10.2021
6045 Clouds 10 1013 83 10000 3.58 269 21:58 05.10.2021
6046 Clouds 10 1012 83 10000 4.02 254 21:36 05.10.2021
6047 Clouds 11 1011 80 10000 3.58 261 20:39 05.10.2021
6048 Clouds 11 1011 79 10000 3.58 275 20:20 05.10.2021
6049 Clouds 13 1010 71 10000 4.47 238 19:27 05.10.2021
6050 Clouds 13 1010 71 10000 4.47 305 18:46 05.10.2021
6051 Clouds 14 1008 70 10000 4.47 51 16:35 05.10.2021
6052 Clouds 13 1007 79 10000 3.13 313 14:29 05.10.2021
6053 Clouds 13 1006 80 10000 4.92 299 13:29 05.10.2021
6054 Clouds 12 1005 85 10000 4.47 265 12:36 05.10.2021
6055 Clouds 11 1005 87 10000 4.92 275 11:59 05.10.2021
6056 Clouds 9 1004 93 10000 4.47 279 10:39 05.10.2021
6057 Clouds 8 1002 94 10000 4.02 250 08:39 05.10.2021
6058 Clouds 9 998 97 10000 3.58 289 03:38 05.10.2021
6059 Clouds 9 999 95 10000 1.79 282 23:52 04.10.2021
6060 Rain 10 998 91 7000 1.54 0 21:54 04.10.2021
6061 Clouds 13 999 76 10000 2.24 160 18:54 04.10.2021
6062 Clouds 14 999 70 10000 2.68 190 17:58 04.10.2021
6063 Clouds 15 1000 66 10000 4.02 270 16:20 04.10.2021
6064 Clouds 15 1000 67 10000 3.58 137 15:30 04.10.2021
6065 Clouds 14 1001 72 10000 3.13 218 14:39 04.10.2021
6066 Clouds 13 1001 75 10000 2.68 137 13:48 04.10.2021
6067 Clouds 13 1001 76 10000 3.13 237 13:23 04.10.2021
6068 Clouds 11 1001 79 10000 3.58 248 11:34 04.10.2021
6069 Clouds 11 1002 80 10000 3.58 216 10:47 04.10.2021
6070 Clouds 9 1001 85 10000 2.68 218 09:47 04.10.2021
6071 Clear 9 1002 86 10000 2.24 250 08:30 04.10.2021
6072 Clear 9 1000 88 10000 2.24 190 06:51 04.10.2021
6073 Clouds 10 999 87 10000 3.58 247 23:41 03.10.2021
6074 Clouds 11 1000 87 10000 3.58 227 22:32 03.10.2021
6075 Clouds 11 999 85 10000 3.58 207 21:35 03.10.2021
6076 Clouds 11 998 84 10000 3.58 247 20:50 03.10.2021
6077 Clouds 12 996 81 10000 3.58 269 19:54 03.10.2021
6078 Clouds 13 994 83 10000 4.02 229 18:30 03.10.2021
6079 Clouds 12 994 84 10000 2.68 225 17:39 03.10.2021
6080 Clouds 14 993 78 10000 4.92 262 15:30 03.10.2021
6081 Clouds 14 992 73 10000 4.92 266 14:39 03.10.2021
6082 Clouds 14 991 71 10000 6.26 270 13:40 03.10.2021
6083 Clouds 14 991 73 10000 4.92 257 13:20 03.10.2021
6084 Clouds 12 987 79 10000 5.81 265 11:48 03.10.2021
6085 Clouds 11 988 86 10000 4.92 296 10:31 03.10.2021
6086 Clouds 9 984 88 10000 5.36 236 07:39 03.10.2021
6087 Clear 8 985 78 10000 4.02 196 00:26 03.10.2021
6088 Clouds 8 986 80 10000 3.58 238 22:19 02.10.2021
6089 Clouds 10 986 76 10000 3.13 232 20:35 02.10.2021
6090 Clouds 12 986 63 10000 4.02 257 18:58 02.10.2021
6091 Clouds 13 986 63 10000 4.47 232 18:27 02.10.2021
6092 Clouds 13 986 67 10000 4.47 272 17:38 02.10.2021
6093 Clouds 13 986 68 10000 4.02 236 16:39 02.10.2021
6094 Clouds 12 988 80 10000 4.47 268 14:35 02.10.2021
6095 Clouds 16 1008 79 10000 5.36 286 15:38 30.09.2021
6096 Clouds 14 1008 87 10000 3.58 265 14:29 30.09.2021
6097 Clouds 16 1008 85 10000 3.58 228 11:59 30.09.2021
6098 Clouds 15 1009 89 10000 4.02 241 11:25 30.09.2021
6099 Clouds 16 1009 89 10000 5.81 225 10:26 30.09.2021
6100 Clouds 16 1009 88 10000 5.36 216 08:32 30.09.2021
6101 Clouds 15 1009 88 10000 5.81 187 07:48 30.09.2021
6102 Clouds 14 1011 88 10000 6.26 202 05:25 30.09.2021
6103 Rain 12 1016 90 10000 4.02 142 02:33 30.09.2021
6104 Rain 12 1020 78 10000 3.58 269 00:33 30.09.2021
6105 Rain 11 1021 73 10000 3.58 164 22:41 29.09.2021
6106 Clouds 11 1021 75 10000 3.13 161 21:42 29.09.2021
6107 Clouds 11 1022 74 10000 3.13 225 20:31 29.09.2021
6108 Clouds 12 1022 70 10000 2.24 200 19:59 29.09.2021
6109 Clouds 12 1022 68 10000 2.68 156 19:18 29.09.2021
6110 Clouds 13 1022 62 10000 3.58 277 17:58 29.09.2021
6111 Clouds 14 1022 58 10000 4.02 271 16:55 29.09.2021
6112 Clouds 14 1022 57 10000 4.02 257 16:25 29.09.2021
6113 Clouds 14 1022 61 10000 4.92 275 14:42 29.09.2021
6114 Clouds 14 1022 62 10000 5.36 244 14:20 29.09.2021
6115 Clouds 13 1022 65 10000 4.47 265 13:32 29.09.2021
6116 Clouds 12 1021 73 10000 4.47 300 12:38 29.09.2021
6117 Clouds 10 1020 77 10000 4.02 265 11:18 29.09.2021
6118 Clouds 9 1020 82 10000 4.02 241 10:25 29.09.2021
6119 Clouds 7 1019 86 10000 3.58 254 09:39 29.09.2021
6120 Clouds 7 1017 86 10000 3.58 275 07:48 29.09.2021
6121 Clouds 7 1015 86 10000 5.36 291 05:50 29.09.2021
6122 Clouds 8 1010 86 10000 2.24 262 23:47 28.09.2021
6123 Clouds 8 1009 86 10000 3.13 298 22:25 28.09.2021
6124 Clouds 9 1009 83 10000 3.13 221 21:45 28.09.2021
6125 Rain 10 1010 79 10000 3.58 242 20:44 28.09.2021
6126 Clouds 11 1010 71 10000 1.34 244 19:47 28.09.2021
6127 Clouds 12 1009 71 10000 3.58 287 18:53 28.09.2021
6128 Clouds 12 1007 74 10000 3.13 225 18:27 28.09.2021
6129 Rain 12 1009 79 10000 2.24 250 16:42 28.09.2021
6130 Clouds 15 1009 66 10000 3.13 221 14:52 28.09.2021
6131 Clouds 13 1010 71 10000 2.68 207 13:22 28.09.2021
6132 Clouds 13 1010 72 10000 3.58 223 12:22 28.09.2021
6133 Clouds 12 1009 74 10000 4.92 210 11:47 28.09.2021
6134 Clouds 12 1011 76 10000 1.79 221 11:23 28.09.2021
6135 Clouds 11 1008 80 10000 2.68 207 10:21 28.09.2021
6136 Clouds 11 1008 80 10000 2.68 207 10:21 28.09.2021
6137 Clouds 11 1008 81 10000 2.24 265 09:22 28.09.2021
6138 Clouds 11 1008 82 10000 3.13 221 08:39 28.09.2021
6139 Rain 10 1008 82 10000 1.79 254 07:49 28.09.2021
6140 Clear 10 1009 81 10000 2.68 198 05:41 28.09.2021
6141 Clouds 9 1010 82 10000 3.58 216 01:26 28.09.2021
6142 Clouds 10 1010 83 10000 3.58 217 00:28 28.09.2021
6143 Clouds 10 1011 83 10000 3.13 207 23:44 27.09.2021
6144 Clouds 10 1011 82 10000 2.24 183 23:23 27.09.2021
6145 Clouds 10 1009 83 10000 4.02 200 22:19 27.09.2021
6146 Clouds 9 1008 88 10000 2.68 190 20:49 27.09.2021
6147 Clouds 10 1008 89 10000 2.24 210 20:23 27.09.2021
6148 Clouds 10 1008 89 8000 2.68 245 19:30 27.09.2021
6149 Rain 12 1007 79 10000 5.36 150 18:52 27.09.2021
6150 Clouds 13 1008 72 10000 2.24 217 17:36 27.09.2021
6151 Clouds 12 1007 79 10000 2.24 185 16:53 27.09.2021
6152 Clouds 16 1006 59 10000 4.92 244 15:46 27.09.2021
6153 Clouds 16 1005 62 10000 5.36 219 15:27 27.09.2021
6154 Clouds 14 1004 71 10000 4.47 262 13:35 27.09.2021
6155 Clouds 14 1003 78 10000 4.92 226 12:20 27.09.2021
6156 Clouds 11 1002 87 10000 3.58 225 10:42 27.09.2021
6157 Clouds 10 1001 92 10000 3.58 231 09:38 27.09.2021
6158 Rain 10 1001 95 9000 1.79 273 06:37 27.09.2021
6159 Rain 11 1001 96 9000 1.34 246 03:31 27.09.2021
6160 Rain 12 1003 94 10000 1.79 282 23:41 26.09.2021
6161 Rain 12 1002 95 10000 2.24 240 21:55 26.09.2021
6162 Rain 13 1002 95 10000 2.68 250 21:26 26.09.2021
6163 Rain 13 1002 95 8000 2.68 208 20:24 26.09.2021
6164 Rain 13 1001 94 6000 3.58 241 19:53 26.09.2021
6165 Rain 17 1000 81 10000 7.72 180 18:52 26.09.2021
6166 Rain 18 1000 74 10000 7.2 180 18:34 26.09.2021
6167 Clouds 19 1000 77 10000 6.26 200 17:37 26.09.2021
6168 Clouds 19 1001 79 10000 5.36 182 17:18 26.09.2021
6169 Clouds 19 1001 77 10000 4.92 0 16:22 26.09.2021
6170 Clouds 20 1004 71 10000 4.47 119 15:22 26.09.2021
6171 Clouds 20 1005 71 10000 4.92 195 14:18 26.09.2021
6172 Clouds 20 1004 67 10000 4.92 158 13:42 26.09.2021
6173 Clouds 20 1004 67 10000 5.81 201 12:26 26.09.2021
6174 Clouds 19 1003 73 10000 3.58 200 11:53 26.09.2021
6175 Drizzle 18 1004 82 10000 3.58 178 10:52 26.09.2021
6176 Clouds 17 1003 86 10000 3.58 148 09:37 26.09.2021
6177 Clouds 16 1004 91 10000 3.13 223 08:30 26.09.2021
6178 Clouds 17 1007 82 10000 1.34 156 00:28 26.09.2021
6179 Clouds 17 1008 80 10000 0.89 342 23:43 25.09.2021
6180 Clear 17 1008 82 10000 5.66 200 22:39 25.09.2021
6181 Clouds 17 1008 83 10000 3.09 160 22:18 25.09.2021
6182 Clouds 18 1007 83 10000 1.79 205 21:36 25.09.2021
6183 Clouds 18 1008 78 10000 1.34 51 20:52 25.09.2021
6184 Clouds 20 1008 73 10000 3.6 150 19:33 25.09.2021
6185 Clouds 21 1008 73 10000 2.68 325 18:27 25.09.2021
6186 Clouds 22 1008 74 10000 0.89 41 17:21 25.09.2021
6187 Clouds 21 1010 77 10000 1.79 46 14:30 25.09.2021
6188 Clouds 21 1010 78 10000 2.24 254 13:54 25.09.2021
6189 Clouds 19 1011 84 10000 1.79 140 12:37 25.09.2021
6190 Clouds 17 1011 92 10000 0.89 83 10:42 25.09.2021
6191 Clouds 17 1011 93 10000 0.45 34 09:59 25.09.2021
6192 Clouds 16 1011 93 10000 0.45 51 08:52 25.09.2021
6193 Clouds 16 1012 92 10000 0.89 235 07:47 25.09.2021
6194 Drizzle 17 1013 95 10000 2.68 262 00:52 25.09.2021
6195 Drizzle 18 1013 91 10000 4.47 271 21:58 24.09.2021
6196 Drizzle 18 1013 89 10000 3.58 266 21:25 24.09.2021
6197 Drizzle 19 1013 88 10000 2.68 286 20:31 24.09.2021
6198 Clouds 19 1012 85 10000 4.02 247 19:29 24.09.2021
6199 Clouds 19 1013 84 10000 3.58 234 18:18 24.09.2021
6200 Clouds 20 1012 85 10000 3.58 268 17:42 24.09.2021
6201 Clouds 20 1012 85 10000 3.58 221 17:23 24.09.2021
6202 Clouds 20 1012 83 10000 4.47 244 15:38 24.09.2021
6203 Clouds 20 1014 83 10000 1.34 234 13:21 24.09.2021
6204 Clouds 19 1013 84 10000 5.36 236 12:43 24.09.2021
6205 Clouds 19 1013 86 10000 4.47 277 12:25 24.09.2021
6206 Clouds 18 1013 89 10000 4.92 232 10:49 24.09.2021
6207 Drizzle 17 1013 93 10000 4.02 242 08:59 24.09.2021
6208 Clouds 17 1013 92 10000 4.47 270 07:55 24.09.2021
6209 Clouds 16 1013 93 10000 3.58 225 06:57 24.09.2021
6210 Drizzle 16 1014 93 10000 3.58 238 05:22 24.09.2021
6211 Clouds 14 1017 83 10000 4.12 240 01:24 24.09.2021
6212 Clouds 14 1017 83 10000 3.13 279 22:37 23.09.2021
6213 Clouds 15 1018 84 10000 1.79 273 21:58 23.09.2021
6214 Clouds 16 1018 76 10000 1.79 219 20:52 23.09.2021
6215 Clouds 17 1018 76 10000 1.79 284 20:26 23.09.2021
6216 Clouds 18 1018 73 10000 3.58 255 18:27 23.09.2021
6217 Clouds 18 1020 71 10000 3.13 265 15:37 23.09.2021
6218 Clouds 18 1019 71 10000 4.02 292 15:18 23.09.2021
6219 Clouds 18 1020 71 10000 4.92 282 13:57 23.09.2021
6220 Clouds 18 1020 71 10000 4.92 282 13:57 23.09.2021
6221 Clouds 17 1020 73 10000 4.92 230 13:23 23.09.2021
6222 Clouds 16 1020 75 10000 4.92 267 12:54 23.09.2021
6223 Clouds 16 1020 77 10000 5.81 267 12:24 23.09.2021
6224 Clouds 16 1019 78 10000 5.36 236 11:56 23.09.2021
6225 Clouds 14 1020 85 10000 4.92 279 10:28 23.09.2021
6226 Clouds 13 1020 88 10000 4.92 273 09:53 23.09.2021
6227 Clouds 13 1019 90 10000 4.47 271 08:42 23.09.2021
6228 Drizzle 16 1018 94 8000 4.47 263 05:29 23.09.2021
6229 Clouds 17 1020 80 10000 4.02 286 23:48 22.09.2021
6230 Clouds 17 1020 78 10000 3.13 315 22:44 22.09.2021
6231 Clouds 17 1020 76 10000 4.02 248 21:57 22.09.2021
6232 Clouds 17 1021 76 10000 4.02 241 21:34 22.09.2021
6233 Clouds 17 1021 74 10000 4.47 265 20:57 22.09.2021
6234 Clouds 19 1022 68 10000 4.02 273 19:34 22.09.2021
6235 Clouds 19 1022 64 10000 4.92 242 18:46 22.09.2021
6236 Clouds 19 1022 63 10000 4.92 219 18:23 22.09.2021
6237 Clouds 20 1022 64 10000 4.92 275 16:41 22.09.2021
6238 Clouds 20 1023 68 10000 4.47 286 15:38 22.09.2021
6239 Clouds 19 1024 69 10000 4.92 223 14:25 22.09.2021
6240 Clouds 18 1025 71 10000 4.92 195 12:22 22.09.2021
6241 Clouds 17 1026 73 10000 4.02 275 10:57 22.09.2021
6242 Clouds 14 1026 77 10000 3.6 210 09:29 22.09.2021
6243 Clouds 14 1025 82 10000 3.13 236 08:35 22.09.2021
6244 Clouds 14 1027 83 10000 4.12 240 07:30 22.09.2021
6245 Drizzle 14 1027 88 10000 3.09 240 06:19 22.09.2021
6246 Drizzle 15 1027 82 10000 3.09 230 05:42 22.09.2021
6247 Drizzle 14 1028 88 10000 3.6 240 03:53 22.09.2021
6248 Drizzle 14 1028 88 10000 4.63 260 02:55 22.09.2021
6249 Drizzle 16 1029 88 10000 1.79 292 23:31 21.09.2021
6250 Clouds 16 1029 83 10000 1.79 206 21:47 21.09.2021
6251 Clouds 17 1028 83 10000 3.13 225 20:27 21.09.2021
6252 Clouds 17 1028 81 10000 3.58 232 19:24 21.09.2021
6253 Clouds 18 1028 79 10000 3.13 259 18:19 21.09.2021
6254 Clouds 18 1029 78 10000 4.02 229 16:41 21.09.2021
6255 Clouds 18 1029 79 10000 3.58 238 15:56 21.09.2021
6256 Clouds 18 1030 78 10000 4.92 231 14:58 21.09.2021
6257 Clouds 18 1030 76 10000 3.58 244 13:58 21.09.2021
6258 Clouds 18 1030 77 10000 3.58 252 13:39 21.09.2021
6259 Clouds 17 1030 79 10000 3.13 207 12:44 21.09.2021
6260 Clouds 14 1031 94 10000 2.06 250 10:39 21.09.2021
6261 Clouds 13 1030 100 10000 4.63 270 08:45 21.09.2021
6262 Clouds 12 1030 100 7000 2.57 270 07:37 21.09.2021
6263 Clouds 12 1030 100 7000 2.57 270 07:37 21.09.2021
6264 Clouds 13 1030 88 10000 2.57 270 01:54 21.09.2021
6265 Clouds 13 1030 88 10000 2.57 270 01:54 21.09.2021
6266 Clouds 15 1029 82 10000 3.09 260 22:54 20.09.2021
6267 Clouds 15 1028 82 10000 3.6 290 21:43 20.09.2021
6268 Clouds 16 1028 77 10000 3.09 300 21:24 20.09.2021
6269 Clouds 18 1026 74 10000 2.68 284 19:47 20.09.2021
6270 Clouds 18 1026 77 10000 1.79 289 17:54 20.09.2021
6271 Clouds 17 1026 82 10000 2.68 250 16:58 20.09.2021
6272 Clouds 18 1025 74 10000 4.02 281 16:23 20.09.2021
6273 Clouds 19 1025 70 10000 1.79 232 15:36 20.09.2021
6274 Clouds 18 1025 73 10000 3.58 281 14:27 20.09.2021
6275 Clouds 17 1025 80 10000 3.58 257 12:44 20.09.2021
6276 Clouds 16 1025 80 10000 4.02 296 12:22 20.09.2021
6277 Clouds 14 1025 87 10000 3.13 247 10:52 20.09.2021
6278 Drizzle 13 1024 92 10000 2.24 296 09:51 20.09.2021
6279 Drizzle 13 1023 93 10000 2.24 309 09:31 20.09.2021
6280 Clouds 11 1023 92 10000 0.89 298 08:35 20.09.2021
6281 Clouds 11 1022 93 10000 1.34 278 06:22 20.09.2021
6282 Clouds 11 1022 93 10000 1.34 278 06:22 20.09.2021
6283 Clouds 12 1019 88 10000 1.34 234 22:58 19.09.2021
6284 Clouds 13 1018 84 10000 0.89 243 21:50 19.09.2021
6285 Clouds 14 1018 80 10000 1.79 273 20:59 19.09.2021
6286 Clouds 16 1016 74 10000 2.24 226 19:54 19.09.2021
6287 Clouds 17 1016 68 10000 3.13 221 18:53 19.09.2021
6288 Clouds 18 1015 69 10000 1.79 219 17:42 19.09.2021
6289 Clouds 18 1015 63 10000 3.13 246 16:33 19.09.2021
6290 Clouds 17 1015 64 10000 3.13 271 15:31 19.09.2021
6291 Clouds 17 1016 65 10000 3.13 289 14:49 19.09.2021
6292 Clouds 17 1015 66 10000 4.02 279 13:52 19.09.2021
6293 Clouds 16 1015 73 10000 3.58 279 12:55 19.09.2021
6294 Clouds 15 1014 82 10000 4.02 281 11:46 19.09.2021
6295 Clouds 15 1014 82 10000 3.58 281 11:22 19.09.2021
6296 Clouds 12 1013 92 10000 3.13 298 09:51 19.09.2021
6297 Clouds 12 1013 92 10000 3.58 263 09:21 19.09.2021
6298 Clouds 13 1011 90 10000 3.58 252 06:48 19.09.2021
6299 Clouds 13 1011 90 10000 3.58 252 06:48 19.09.2021
6300 Clouds 13 1011 88 10000 2.24 233 00:40 19.09.2021
6301 Clear 13 1010 87 10000 1.79 246 22:54 18.09.2021
6302 Clouds 13 1011 90 10000 1.79 186 21:56 18.09.2021
6303 Clouds 14 1011 92 10000 0.89 89 20:46 18.09.2021
6304 Clouds 16 1011 89 10000 0.89 131 19:42 18.09.2021
6305 Clouds 16 1011 87 10000 0.89 133 19:22 18.09.2021
6306 Clouds 16 1011 84 10000 1.34 96 18:52 18.09.2021
6307 Clouds 17 1011 83 10000 1.79 140 18:29 18.09.2021
6308 Clouds 17 1012 78 10000 1.34 142 16:34 18.09.2021
6309 Clouds 15 1014 88 10000 2.24 272 13:51 18.09.2021
6310 Clouds 14 1013 91 10000 1.79 319 13:31 18.09.2021
6311 Mist 14 1014 92 3000 2.68 279 12:51 18.09.2021
6312 Fog 13 1014 94 800 0.89 296 11:43 18.09.2021
6313 Fog 12 1013 97 600 1.34 309 10:38 18.09.2021
6314 Fog 11 1012 98 600 1.79 279 09:55 18.09.2021
6315 Mist 11 1012 96 1300 0.89 221 09:22 18.09.2021
6316 Mist 11 1013 95 2200 1.79 276 08:24 18.09.2021
6317 Clouds 14 1013 93 10000 1.86 280 00:42 18.09.2021
6318 Clouds 15 1012 91 10000 1.34 269 23:53 17.09.2021
6319 Clouds 15 1013 96 10000 1.9 265 22:43 17.09.2021
6320 Clouds 15 1010 77 10000 0.89 228 22:21 17.09.2021
6321 Clouds 16 1011 88 10000 0.89 234 21:31 17.09.2021
6322 Clouds 17 1010 82 10000 3.09 280 19:30 17.09.2021
6323 Clouds 18 1009 72 10000 3.09 300 17:57 17.09.2021
6324 Clouds 17 1009 88 10000 3.09 300 16:33 17.09.2021
6325 Clouds 17 1007 91 10000 1.79 265 14:32 17.09.2021
6326 Rain 17 1007 95 6000 1.79 178 11:43 17.09.2021
6327 Rain 16 1006 93 6000 1.34 153 09:40 17.09.2021
6328 Clouds 16 1006 90 10000 1.79 59 07:36 17.09.2021
6329 Clouds 16 1008 84 10000 2.24 119 04:25 17.09.2021
6330 Clouds 16 1012 78 10000 2.57 160 23:41 16.09.2021
6331 Clouds 16 1011 82 10000 1.79 205 22:41 16.09.2021
6332 Clouds 17 1011 79 10000 1.34 74 22:23 16.09.2021
6333 Clouds 17 1011 84 10000 0.89 137 21:27 16.09.2021
6334 Clouds 18 1012 80 10000 1.79 168 20:28 16.09.2021
6335 Clouds 19 1012 77 10000 3.13 219 18:28 16.09.2021
6336 Clouds 20 1013 76 10000 3.13 203 17:58 16.09.2021
6337 Clouds 20 1014 75 10000 1.79 72 15:31 16.09.2021
6338 Clouds 19 1015 75 10000 0.45 126 14:35 16.09.2021
6339 Clouds 18 1016 71 10000 0.89 110 12:59 16.09.2021
6340 Clouds 18 1016 69 10000 1.34 303 12:36 16.09.2021
6341 Clouds 17 1016 72 10000 1.34 16 11:46 16.09.2021
6342 Clouds 15 1016 81 10000 0.89 93 10:40 16.09.2021
6343 Clouds 14 1016 85 10000 0.45 51 10:18 16.09.2021
6344 Clouds 10 1016 93 10000 0.45 265 08:43 16.09.2021
6345 Clouds 10 1016 93 10000 0.45 221 07:46 16.09.2021
6346 Clouds 11 1016 94 10000 0.45 221 06:55 16.09.2021
6347 Clouds 11 1016 94 10000 0.45 218 06:31 16.09.2021
6348 Clouds 13 1016 88 10000 1.79 249 02:57 16.09.2021
6349 Clear 14 1016 88 10000 1.79 232 00:45 16.09.2021
6350 Clouds 15 1016 87 10000 3.13 257 22:52 15.09.2021
6351 Clouds 15 1016 85 10000 2.68 259 21:56 15.09.2021
6352 Clouds 15 1016 85 10000 2.68 259 21:56 15.09.2021
6353 Clouds 16 1015 85 10000 2.68 280 21:30 15.09.2021
6354 Clouds 16 1015 85 10000 2.68 280 21:30 15.09.2021
6355 Clouds 16 1015 85 10000 2.68 280 21:30 15.09.2021
6356 Clouds 17 1015 83 10000 1.79 282 20:23 15.09.2021
6357 Clouds 18 1015 81 10000 2.68 273 19:29 15.09.2021
6358 Clouds 18 1014 83 10000 3.13 291 18:25 15.09.2021
6359 Clouds 18 1014 83 10000 2.68 279 17:26 15.09.2021
6360 Clouds 18 1014 87 10000 2.24 271 16:20 15.09.2021
6361 Clouds 19 1014 84 10000 2.24 254 14:46 15.09.2021
6362 Clouds 18 1014 86 10000 2.68 271 14:24 15.09.2021
6363 Clouds 18 1014 88 10000 1.79 309 13:40 15.09.2021
6364 Clouds 17 1014 91 10000 1.79 311 13:21 15.09.2021
6365 Clouds 17 1014 92 10000 0.45 309 12:21 15.09.2021
6366 Clouds 16 1014 93 9000 0.45 93 11:47 15.09.2021
6367 Clouds 16 1014 93 7000 0.45 250 10:56 15.09.2021
6368 Clouds 15 1014 94 5000 0.45 22 09:30 15.09.2021
6369 Clouds 14 1013 97 5000 1.54 170 08:41 15.09.2021
6370 Clouds 14 1013 96 7000 1.03 100 05:54 15.09.2021
6371 Clouds 14 1013 96 8000 1.79 117 23:55 14.09.2021
6372 Clouds 14 1013 94 10000 0.89 101 21:55 14.09.2021
6373 Clouds 16 1012 87 10000 0.45 93 20:56 14.09.2021
6374 Clouds 17 1012 86 10000 1.34 71 19:51 14.09.2021
6375 Clouds 19 1012 78 10000 1.79 144 17:53 14.09.2021
6376 Clouds 19 1012 78 10000 2.68 134 17:28 14.09.2021
6377 Clouds 19 1012 75 10000 2.24 104 15:39 14.09.2021
6378 Clouds 19 1012 78 10000 2.24 148 14:31 14.09.2021
6379 Clouds 19 1012 76 10000 1.79 149 12:46 14.09.2021
6380 Clouds 17 1012 86 10000 1.34 74 10:55 14.09.2021
6381 Clouds 15 1012 94 10000 1.54 0 09:51 14.09.2021
6382 Clouds 15 1011 94 10000 0.45 44 08:48 14.09.2021
6383 Clouds 15 1011 92 10000 2.57 140 06:38 14.09.2021
6384 Clouds 15 1013 90 10000 1.34 119 00:33 14.09.2021
6385 Clouds 15 1013 88 10000 1.34 93 22:53 13.09.2021
6386 Clouds 16 1013 85 10000 0.89 59 22:24 13.09.2021
6387 Clouds 16 1013 84 10000 2.24 162 21:51 13.09.2021
6388 Clouds 16 1012 86 10000 2.24 105 20:51 13.09.2021
6389 Clouds 17 1012 87 10000 3.13 132 19:22 13.09.2021
6390 Clouds 17 1013 86 10000 2.24 138 18:43 13.09.2021
6391 Clouds 17 1013 87 5000 2.68 153 16:51 13.09.2021
6392 Drizzle 17 1015 87 10000 2.24 147 15:31 13.09.2021
6393 Clouds 17 1015 87 10000 1.79 98 12:54 13.09.2021
6394 Drizzle 15 1015 91 10000 2.24 117 10:58 13.09.2021
6395 Clouds 14 1015 94 10000 1.34 139 09:40 13.09.2021
6396 Clouds 12 1016 95 10000 1.54 350 04:59 13.09.2021
6397 Clouds 12 1019 90 10000 0.45 119 23:41 12.09.2021
6398 Clouds 13 1019 86 10000 0.89 59 22:25 12.09.2021
6399 Clouds 13 1019 85 10000 1.34 108 21:37 12.09.2021
6400 Clouds 14 1019 83 10000 1.34 115 20:29 12.09.2021
6401 Clouds 14 1019 82 10000 1.79 74 19:51 12.09.2021
6402 Clouds 14 1019 81 10000 2.68 61 19:19 12.09.2021
6403 Clouds 14 1019 81 10000 1.34 87 18:20 12.09.2021
6404 Clouds 14 1019 80 10000 1.34 38 16:31 12.09.2021
6405 Drizzle 14 1019 85 10000 0.89 64 14:54 12.09.2021
6406 Clouds 13 1020 86 6000 1.34 313 13:20 12.09.2021
6407 Drizzle 13 1019 90 10000 1.34 24 11:31 12.09.2021
6408 Rain 13 1019 91 10000 1.34 13 09:27 12.09.2021
6409 Clouds 13 1018 92 10000 0.89 238 08:37 12.09.2021
6410 Clouds 14 1018 86 10000 2.68 245 01:50 12.09.2021
6411 Clouds 15 1018 82 10000 1.79 300 23:20 11.09.2021
6412 Clouds 16 1017 78 10000 2.68 300 21:41 11.09.2021
6413 Clouds 17 1016 76 10000 2.68 240 20:21 11.09.2021
6414 Clouds 18 1016 69 10000 3.13 271 19:20 11.09.2021
6415 Clouds 19 1015 68 10000 2.24 247 17:29 11.09.2021
6416 Clouds 19 1015 75 10000 3.58 294 15:44 11.09.2021
6417 Clouds 18 1015 80 10000 3.58 288 13:33 11.09.2021
6418 Clouds 18 1015 80 10000 3.13 250 12:48 11.09.2021
6419 Clouds 16 1016 86 10000 2.24 260 11:18 11.09.2021
6420 Clouds 15 1014 92 10000 3.58 262 09:38 11.09.2021
6421 Clouds 15 1013 92 10000 3.13 268 07:45 11.09.2021
6422 Clouds 15 1013 91 10000 3.13 275 06:48 11.09.2021
6423 Clouds 17 1012 91 10000 2.68 265 23:23 10.09.2021
6424 Clouds 17 1011 91 10000 4.02 270 22:23 10.09.2021
6425 Clouds 17 1011 89 10000 2.68 275 21:48 10.09.2021
6426 Clouds 19 1010 87 10000 3.58 262 19:49 10.09.2021
6427 Clouds 20 1009 82 10000 3.58 273 18:20 10.09.2021
6428 Clouds 20 1009 87 10000 4.47 261 16:48 10.09.2021
6429 Clouds 19 1008 86 10000 2.68 291 13:55 10.09.2021
6430 Fog 18 1007 94 10000 2.68 265 11:54 10.09.2021
6431 Clouds 16 1006 98 6000 0.89 284 08:36 10.09.2021
6432 Clouds 16 1005 97 6000 0.45 302 07:48 10.09.2021
6433 Fog 16 1004 98 5000 0.45 279 00:42 10.09.2021
6434 Fog 17 1004 98 10000 0.45 67 22:24 09.09.2021
6435 Fog 17 1004 96 10000 0.45 68 21:39 09.09.2021
6436 Fog 18 1003 93 10000 0.89 105 20:46 09.09.2021
6437 Rain 20 1003 92 6000 2.24 117 18:58 09.09.2021
6438 Rain 19 1003 90 10000 0.45 51 17:56 09.09.2021
6439 Clouds 22 1003 83 10000 2.68 97 16:40 09.09.2021
6440 Clouds 22 1004 82 10000 3.13 130 15:27 09.09.2021
6441 Clouds 20 1004 88 10000 2.24 153 12:48 09.09.2021
6442 Clouds 19 1005 95 10000 0.45 51 11:33 09.09.2021
6443 Mist 17 1004 98 1500 0.45 325 09:39 09.09.2021
6444 Fog 17 1004 98 800 0.45 9 08:32 09.09.2021
6445 Clouds 17 1005 98 3000 1.54 110 06:24 09.09.2021
6446 Clouds 17 1007 95 10000 0.45 309 01:31 09.09.2021
6447 Clouds 17 1007 95 10000 0.45 338 01:31 09.09.2021
6448 Clouds 18 1007 89 10000 0.89 51 22:34 08.09.2021
6449 Clouds 19 1007 84 10000 1.79 126 20:57 08.09.2021
6450 Clouds 20 1007 79 10000 0.89 59 19:48 08.09.2021
6451 Clouds 20 1009 76 10000 0.45 127 18:49 08.09.2021
6452 Clouds 21 1008 77 10000 1.34 144 18:27 08.09.2021
6453 Rain 21 1008 75 10000 2.68 119 17:54 08.09.2021
6454 Clouds 21 1008 73 10000 2.68 135 16:27 08.09.2021
6455 Clouds 21 1009 73 10000 4.02 59 13:53 08.09.2021
6456 Clouds 20 1011 81 10000 3.09 110 12:42 08.09.2021
6457 Clouds 20 1010 83 10000 2.24 123 12:24 08.09.2021
6458 Fog 18 1010 93 5000 0.89 93 11:26 08.09.2021
6459 Clouds 17 1011 95 10000 1.34 51 10:32 08.09.2021
6460 Clouds 17 1010 95 10000 1.34 51 09:57 08.09.2021
6461 Mist 15 1012 97 6000 3.09 60 07:47 08.09.2021
6462 Mist 16 1012 97 6000 3.09 60 07:29 08.09.2021
6463 Clouds 16 1016 93 8000 0.89 76 23:41 07.09.2021
6464 Clouds 16 1016 93 8000 0.89 76 23:41 07.09.2021
6465 Clouds 16 1016 92 8000 1.34 55 22:19 07.09.2021
6466 Clouds 18 1016 85 10000 1.34 93 20:50 07.09.2021
6467 Clouds 18 1015 85 10000 2.68 61 19:40 07.09.2021
6468 Clouds 21 1016 78 10000 2.68 99 18:37 07.09.2021
6469 Clouds 23 1017 75 10000 2.24 93 17:40 07.09.2021
6470 Clouds 22 1018 76 10000 3.58 63 15:57 07.09.2021
6471 Clouds 22 1018 75 10000 3.13 46 14:54 07.09.2021
6472 Clouds 22 1019 80 10000 3.13 93 13:52 07.09.2021
6473 Clouds 20 1020 91 10000 3.13 48 12:23 07.09.2021
6474 Fog 17 1020 96 300 1.34 61 10:59 07.09.2021
6475 Fog 17 1020 96 300 1.34 61 10:59 07.09.2021
6476 Fog 16 1020 97 100 0.89 9 10:20 07.09.2021
6477 Fog 14 1020 98 400 0.45 93 07:48 07.09.2021
6478 Fog 14 1020 98 400 0.45 153 06:31 07.09.2021
6479 Fog 14 1021 97 4000 2.06 100 02:39 07.09.2021
6480 Fog 14 1021 97 4000 0.45 67 02:20 07.09.2021
6481 Clouds 16 1021 93 10000 0.89 85 23:52 06.09.2021
6482 Clouds 16 1022 93 9000 0.45 22 23:31 06.09.2021
6483 Clouds 16 1022 93 10000 0.45 129 22:51 06.09.2021
6484 Clouds 17 1022 90 10000 0.45 22 22:24 06.09.2021
6485 Clouds 21 1021 79 10000 0.89 71 20:36 06.09.2021
6486 Clouds 22 1021 75 10000 1.34 133 19:20 06.09.2021
6487 Clouds 22 1021 72 10000 2.68 101 18:36 06.09.2021
6488 Clouds 23 1021 71 10000 1.79 129 17:52 06.09.2021
6489 Clouds 23 1022 71 10000 1.34 56 16:23 06.09.2021
6490 Clouds 21 1022 76 10000 1.34 65 15:25 06.09.2021
6491 Clouds 21 1022 77 10000 0.89 126 13:44 06.09.2021
6492 Clouds 20 1022 78 10000 1.79 328 12:41 06.09.2021
6493 Clouds 18 1022 83 10000 0.89 101 10:36 06.09.2021
6494 Clouds 14 1021 94 10000 0.45 144 07:39 06.09.2021
6495 Clouds 15 1020 89 10000 0.45 51 04:27 06.09.2021
6496 Clouds 18 1020 86 8000 2.68 280 23:23 05.09.2021
6497 Clouds 18 1020 86 7000 1.79 229 22:33 05.09.2021
6498 Clouds 18 1019 84 7000 0.89 286 21:56 05.09.2021
6499 Clouds 18 1019 83 7000 1.79 267 21:20 05.09.2021
6500 Clouds 20 1019 80 7000 0.89 83 19:45 05.09.2021
6501 Clouds 21 1018 75 8000 2.68 140 17:52 05.09.2021
6502 Clouds 21 1018 73 8000 2.68 205 15:58 05.09.2021
6503 Clouds 21 1018 74 8000 2.24 171 15:20 05.09.2021
6504 Clouds 20 1018 81 8000 1.79 117 12:44 05.09.2021
6505 Clouds 18 1018 82 10000 0.89 46 11:35 05.09.2021
6506 Clouds 17 1018 86 10000 1.34 27 10:40 05.09.2021
6507 Clouds 16 1018 88 10000 1.34 40 09:34 05.09.2021
6508 Clouds 15 1017 88 10000 1.34 325 08:31 05.09.2021
6509 Clouds 15 1016 87 10000 1.34 63 05:47 05.09.2021
6510 Clouds 15 1017 91 10000 1.79 85 00:39 05.09.2021
6511 Clouds 15 1017 91 10000 1.79 139 23:56 04.09.2021
6512 Clouds 15 1017 91 10000 1.79 149 23:24 04.09.2021
6513 Clouds 16 1017 91 10000 1.79 124 22:35 04.09.2021
6514 Clouds 17 1016 86 10000 1.34 146 20:58 04.09.2021
6515 Clouds 18 1016 82 10000 1.79 117 19:33 04.09.2021
6516 Clouds 19 1016 78 10000 1.79 132 17:25 04.09.2021
6517 Clouds 19 1017 78 10000 2.68 144 14:37 04.09.2021
6518 Clouds 16 1018 91 10000 1.79 128 11:26 04.09.2021
6519 Clouds 15 1018 96 7000 0.89 41 10:38 04.09.2021
6520 Mist 12 1017 96 5000 0.89 205 07:43 04.09.2021
6521 Clouds 14 1020 93 10000 1.34 67 00:49 04.09.2021
6522 Clouds 14 1020 91 10000 1.79 36 23:49 03.09.2021
6523 Clouds 14 1020 91 10000 1.34 107 23:20 03.09.2021
6524 Drizzle 14 1020 91 10000 2.24 68 21:43 03.09.2021
6525 Drizzle 14 1020 90 10000 1.79 96 20:54 03.09.2021
6526 Drizzle 14 1020 90 10000 1.79 34 20:24 03.09.2021
6527 Clouds 15 1021 88 10000 2.68 55 19:33 03.09.2021
6528 Clouds 15 1021 85 10000 2.68 59 18:21 03.09.2021
6529 Clouds 16 1022 80 10000 3.13 116 16:47 03.09.2021
6530 Clouds 16 1022 78 10000 2.68 126 15:39 03.09.2021
6531 Clouds 16 1023 80 10000 2.24 38 13:48 03.09.2021
6532 Clouds 15 1023 86 10000 2.24 63 11:21 03.09.2021
6533 Clouds 14 1023 94 10000 0.45 178 09:21 03.09.2021
6534 Clouds 14 1023 94 9000 0.89 271 08:18 03.09.2021
6535 Mist 13 1023 94 10000 1.34 212 06:48 03.09.2021
6536 Clouds 14 1026 90 10000 0.45 51 23:56 02.09.2021
6537 Clouds 14 1028 83 10000 1.79 127 21:55 02.09.2021
6538 Clouds 15 1027 79 10000 1.79 93 20:40 02.09.2021
6539 Clouds 16 1029 77 10000 3.13 102 17:41 02.09.2021
6540 Clouds 15 1029 79 10000 3.13 38 16:30 02.09.2021
6541 Clouds 15 1030 81 10000 3.13 61 15:30 02.09.2021
6542 Clouds 15 1031 82 10000 2.68 71 13:28 02.09.2021
6543 Clouds 14 1031 81 10000 2.24 61 11:43 02.09.2021
6544 Clouds 14 1031 82 10000 2.68 96 10:53 02.09.2021
6545 Clouds 14 1031 89 10000 2.68 39 08:57 02.09.2021
6546 Clouds 13 1031 94 10000 0.45 64 07:22 02.09.2021
6547 Clouds 12 1031 94 10000 0.45 309 05:31 02.09.2021
6548 Clouds 13 1031 90 10000 0.89 70 02:36 02.09.2021
6549 Clouds 14 1032 87 10000 1.79 86 01:48 02.09.2021
6550 Clouds 14 1031 88 10000 2.68 88 23:41 01.09.2021
6551 Clouds 14 1031 82 10000 2.24 51 22:42 01.09.2021
6552 Clouds 14 1031 81 10000 2.68 44 21:46 01.09.2021
6553 Clouds 15 1032 74 10000 1.34 93 20:54 01.09.2021
6554 Clouds 16 1032 77 10000 3.13 49 19:24 01.09.2021
6555 Clouds 16 1033 78 10000 3.13 72 17:51 01.09.2021
6556 Clouds 16 1033 78 10000 2.68 139 16:55 01.09.2021
6557 Clouds 17 1033 76 10000 3.13 48 16:33 01.09.2021
6558 Clouds 16 1034 76 10000 2.68 149 13:57 01.09.2021
6559 Clouds 16 1034 75 10000 3.13 111 11:47 01.09.2021
6560 Clouds 17 1034 75 10000 3.58 59 11:47 01.09.2021
6561 Clouds 15 1034 87 10000 3.13 36 09:41 01.09.2021
6562 Clouds 14 1033 91 10000 2.24 41 07:58 01.09.2021
6563 Clouds 15 1033 90 10000 2.24 109 06:42 01.09.2021
6564 Clouds 14 1033 83 10000 3.13 67 23:29 31.08.2021
6565 Clouds 14 1033 77 10000 1.79 105 21:45 31.08.2021
6566 Clouds 14 1033 76 10000 3.13 88 19:49 31.08.2021
6567 Clouds 14 1033 78 10000 3.13 50 18:56 31.08.2021
6568 Clouds 15 1033 76 10000 2.24 61 17:39 31.08.2021
6569 Clouds 15 1033 76 10000 2.24 61 17:21 31.08.2021
6570 Clouds 15 1033 77 10000 4.02 63 16:28 31.08.2021
6571 Clouds 15 1033 76 10000 2.68 49 14:57 31.08.2021
6572 Drizzle 14 1033 83 10000 3.13 23 11:41 31.08.2021
6573 Drizzle 14 1033 84 10000 3.58 68 11:18 31.08.2021
6574 Drizzle 13 1032 90 10000 0.89 298 10:22 31.08.2021
6575 Drizzle 14 1032 88 10000 2.68 74 09:40 31.08.2021
6576 Drizzle 14 1031 91 8000 2.68 77 07:39 31.08.2021
6577 Drizzle 14 1031 92 7000 3.13 44 05:56 31.08.2021
6578 Clouds 13 1030 85 10000 0.89 34 23:36 30.08.2021
6579 Clouds 14 1030 81 10000 2.24 83 22:30 30.08.2021
6580 Clouds 14 1029 81 10000 2.24 51 21:35 30.08.2021
6581 Clouds 14 1029 81 10000 2.24 39 20:35 30.08.2021
6582 Clouds 15 1029 81 10000 2.24 38 19:32 30.08.2021
6583 Clouds 15 1029 83 10000 2.68 61 18:58 30.08.2021
6584 Drizzle 15 1029 84 10000 3.13 18 17:49 30.08.2021
6585 Clouds 16 1029 81 10000 3.58 65 16:26 30.08.2021
6586 Drizzle 15 1029 83 10000 3.13 111 15:40 30.08.2021
6587 Clouds 15 1029 86 10000 3.13 61 13:55 30.08.2021
6588 Clouds 16 1029 78 10000 3.13 50 12:54 30.08.2021
6589 Clouds 15 1028 80 10000 2.24 113 10:42 30.08.2021
6590 Clouds 15 1027 91 10000 1.79 19 03:24 30.08.2021
6591 Clouds 15 1028 82 10000 5.14 60 21:35 29.08.2021
6592 Clouds 16 1027 84 10000 2.68 19 20:45 29.08.2021
6593 Clouds 16 1027 82 10000 2.24 9 19:26 29.08.2021
6594 Clouds 17 1027 79 10000 3.58 67 17:58 29.08.2021
6595 Clouds 17 1027 81 10000 2.68 121 15:54 29.08.2021
6596 Clouds 17 1027 86 10000 2.24 86 14:27 29.08.2021
6597 Clouds 17 1027 86 10000 2.24 86 14:27 29.08.2021
6598 Clouds 16 1028 89 10000 2.24 93 13:55 29.08.2021
6599 Drizzle 16 1028 93 10000 2.24 68 12:43 29.08.2021
6600 Drizzle 15 1028 94 9000 1.79 59 11:54 29.08.2021
6601 Drizzle 15 1028 94 8000 0.45 22 11:32 29.08.2021
6602 Drizzle 15 1027 93 5000 0.89 301 10:46 29.08.2021
6603 Drizzle 15 1028 93 3000 0.45 284 10:27 29.08.2021
6604 Mist 13 1027 96 5000 0.89 210 09:21 29.08.2021
6605 Clear 12 1027 91 10000 0.45 221 02:37 29.08.2021
6606 Clear 14 1027 81 10000 1.03 160 22:25 28.08.2021
6607 Clouds 18 1027 71 10000 0.45 178 20:30 28.08.2021
6608 Clouds 19 1027 68 10000 2.24 82 18:53 28.08.2021
6609 Clouds 20 1027 68 10000 1.79 87 18:21 28.08.2021
6610 Clouds 20 1027 65 10000 1.79 140 17:45 28.08.2021
6611 Clouds 20 1027 65 10000 3.13 70 16:21 28.08.2021
6612 Clouds 20 1028 68 10000 2.68 26 14:42 28.08.2021
6613 Clouds 20 1027 69 10000 2.68 42 13:46 28.08.2021
6614 Clouds 18 1028 76 10000 2.24 23 12:45 28.08.2021
6615 Clouds 18 1028 80 10000 1.34 65 11:57 28.08.2021
6616 Clouds 15 1028 85 10000 0.45 34 10:44 28.08.2021
6617 Clouds 13 1027 96 10000 0.45 162 09:33 28.08.2021
6618 Clouds 11 1027 96 10000 1.34 93 07:25 28.08.2021
6619 Clear 12 1026 90 10000 0.89 93 22:48 27.08.2021
6620 Clouds 14 1026 85 10000 1.34 68 21:24 27.08.2021
6621 Clouds 15 1025 82 10000 2.68 110 20:33 27.08.2021
6622 Clouds 16 1025 79 10000 2.24 59 19:26 27.08.2021
6623 Clouds 18 1025 76 10000 3.13 86 18:38 27.08.2021
6624 Clouds 19 1025 72 10000 2.68 43 17:27 27.08.2021
6625 Clouds 19 1025 71 10000 3.13 102 15:57 27.08.2021
6626 Clouds 19 1025 77 10000 3.58 44 14:44 27.08.2021
6627 Clouds 19 1025 79 10000 3.13 63 12:55 27.08.2021
6628 Clouds 18 1025 85 10000 2.24 36 11:37 27.08.2021
6629 Clouds 16 1025 90 10000 0.89 132 10:44 27.08.2021
6630 Clouds 15 1024 96 10000 0.45 137 09:47 27.08.2021
6631 Clouds